<?xml version="1.0" encoding="UTF-8" standalone="no" ?>
<gpx xmlns="http://www.topografix.com/GPX/1/1" xmlns:xsi="http://www.w3.org/2001/XMLSchema-instance" xsi:schemaLocation="http://www.topografix.com/GPX/1/1 http://www.topografix.com/GPX/1/1/gpx.xsd" version="1.1" creator="VisuGPX - https://www.visugpx.com">
  <metadata>
    <name>Angles - Le lac de Castillon</name>
    <desc><![CDATA[Passage par la crête "les Greyttes" qui permet une point de vue sur le lac de Castillon d'un coté et la chaine de Chamatte de l'autre. Randonnée sans difficulté, dans des paysages changeants.
ATTENTION au point P1 et P2 nous avons trouvé un grillage et surtout 2 portillons fermés, ne sachant pas pourquoi et au regard des traces jaunes nous avons enjambés, comme beaucoup, le grillage. Renseignement pris, nous sommes victimes des incivilités des utilisateurs d'engins motorisés qui n'ont pas respecté les lieux privés, il faudra prévoir de modifier le tracé pour aller et revenir de la statue des deux saints.]]></desc>
  </metadata>
  <wpt lat="43.95361" lon="6.52165">
    <ele>901.2</ele>
    <name><![CDATA[P1]]></name>
    <type><![CDATA[__]]></type>
  </wpt>
  <wpt lat="43.9543" lon="6.5194">
    <ele>893.5</ele>
    <name><![CDATA[P2]]></name>
    <type><![CDATA[__]]></type>
  </wpt>
  <trk>
    <name><![CDATA[Angles]]></name>
    <extensions>
      <line xmlns="http://www.topografix.com/GPX/gpx_style/0/2">
        <color>0000FF</color>
        <opacity>1</opacity>
        <width>4</width>
      </line>
    </extensions>
    <trkseg>
      <trkpt lat="43.94278" lon="6.55828">
        <ele>966</ele>
        <time>2025-08-04T07:36:35.000Z</time>
      </trkpt>
      <trkpt lat="43.94278" lon="6.55829">
        <ele>966</ele>
        <time>2025-08-04T07:36:36.172Z</time>
      </trkpt>
      <trkpt lat="43.94284" lon="6.55827">
        <ele>966.2</ele>
        <time>2025-08-04T07:36:47.290Z</time>
      </trkpt>
      <trkpt lat="43.94289" lon="6.55824">
        <ele>966.4</ele>
        <time>2025-08-04T07:36:57.242Z</time>
      </trkpt>
      <trkpt lat="43.94285" lon="6.55818">
        <ele>966.3</ele>
        <time>2025-08-04T07:37:06.341Z</time>
      </trkpt>
      <trkpt lat="43.94282" lon="6.55812">
        <ele>966.2</ele>
        <time>2025-08-04T07:37:14.420Z</time>
      </trkpt>
      <trkpt lat="43.94278" lon="6.55805">
        <ele>966</ele>
        <time>2025-08-04T07:37:23.953Z</time>
      </trkpt>
      <trkpt lat="43.94274" lon="6.55799">
        <ele>965.5</ele>
        <time>2025-08-04T07:37:32.338Z</time>
      </trkpt>
      <trkpt lat="43.94271" lon="6.55794">
        <ele>965.1</ele>
        <time>2025-08-04T07:37:39.011Z</time>
      </trkpt>
      <trkpt lat="43.94267" lon="6.55789">
        <ele>964.6</ele>
        <time>2025-08-04T07:37:46.675Z</time>
      </trkpt>
      <trkpt lat="43.94265" lon="6.55782">
        <ele>964.2</ele>
        <time>2025-08-04T07:37:54.397Z</time>
      </trkpt>
      <trkpt lat="43.94262" lon="6.55775">
        <ele>963.7</ele>
        <time>2025-08-04T07:38:02.750Z</time>
      </trkpt>
      <trkpt lat="43.9426" lon="6.55768">
        <ele>963.1</ele>
        <time>2025-08-04T07:38:10.472Z</time>
      </trkpt>
      <trkpt lat="43.94257" lon="6.55761">
        <ele>962.4</ele>
        <time>2025-08-04T07:38:18.824Z</time>
      </trkpt>
      <trkpt lat="43.94256" lon="6.55752">
        <ele>961.8</ele>
        <time>2025-08-04T07:38:28.162Z</time>
      </trkpt>
      <trkpt lat="43.94254" lon="6.55742">
        <ele>961.2</ele>
        <time>2025-08-04T07:38:38.804Z</time>
      </trkpt>
      <trkpt lat="43.9425" lon="6.55734">
        <ele>960.4</ele>
        <time>2025-08-04T07:38:48.791Z</time>
      </trkpt>
      <trkpt lat="43.94245" lon="6.55726">
        <ele>959.8</ele>
        <time>2025-08-04T07:38:59.653Z</time>
      </trkpt>
      <trkpt lat="43.94239" lon="6.5572">
        <ele>959.2</ele>
        <time>2025-08-04T07:39:10.182Z</time>
      </trkpt>
      <trkpt lat="43.94234" lon="6.55714">
        <ele>958.7</ele>
        <time>2025-08-04T07:39:19.592Z</time>
      </trkpt>
      <trkpt lat="43.94228" lon="6.55707">
        <ele>958</ele>
        <time>2025-08-04T07:39:30.751Z</time>
      </trkpt>
      <trkpt lat="43.94222" lon="6.55701">
        <ele>957.2</ele>
        <time>2025-08-04T07:39:41.279Z</time>
      </trkpt>
      <trkpt lat="43.94216" lon="6.55696">
        <ele>956.4</ele>
        <time>2025-08-04T07:39:51.244Z</time>
      </trkpt>
      <trkpt lat="43.94209" lon="6.5569">
        <ele>955.4</ele>
        <time>2025-08-04T07:40:02.958Z</time>
      </trkpt>
      <trkpt lat="43.94203" lon="6.55685">
        <ele>954.6</ele>
        <time>2025-08-04T07:40:12.922Z</time>
      </trkpt>
      <trkpt lat="43.94196" lon="6.55679">
        <ele>953.6</ele>
        <time>2025-08-04T07:40:24.636Z</time>
      </trkpt>
      <trkpt lat="43.94193" lon="6.55677">
        <ele>953.3</ele>
        <time>2025-08-04T07:40:29.375Z</time>
      </trkpt>
      <trkpt lat="43.94193" lon="6.55677">
        <ele>953.3</ele>
        <time>2025-08-04T07:40:29.375Z</time>
      </trkpt>
      <trkpt lat="43.9419" lon="6.55674">
        <ele>952.9</ele>
        <time>2025-08-04T07:40:34.640Z</time>
      </trkpt>
      <trkpt lat="43.94185" lon="6.55665">
        <ele>952.3</ele>
        <time>2025-08-04T07:40:46.296Z</time>
      </trkpt>
      <trkpt lat="43.9418" lon="6.55655">
        <ele>951.7</ele>
        <time>2025-08-04T07:40:58.779Z</time>
      </trkpt>
      <trkpt lat="43.94174" lon="6.55646">
        <ele>951</ele>
        <time>2025-08-04T07:41:11.356Z</time>
      </trkpt>
      <trkpt lat="43.94169" lon="6.55636">
        <ele>950.4</ele>
        <time>2025-08-04T07:41:23.839Z</time>
      </trkpt>
      <trkpt lat="43.94166" lon="6.55631">
        <ele>950.2</ele>
        <time>2025-08-04T07:41:30.550Z</time>
      </trkpt>
      <trkpt lat="43.94163" lon="6.55626">
        <ele>950.1</ele>
        <time>2025-08-04T07:41:37.698Z</time>
      </trkpt>
      <trkpt lat="43.94159" lon="6.55621">
        <ele>949.9</ele>
        <time>2025-08-04T07:41:45.530Z</time>
      </trkpt>
      <trkpt lat="43.94156" lon="6.55616">
        <ele>949.7</ele>
        <time>2025-08-04T07:41:52.241Z</time>
      </trkpt>
      <trkpt lat="43.94153" lon="6.55611">
        <ele>949.5</ele>
        <time>2025-08-04T07:41:58.952Z</time>
      </trkpt>
      <trkpt lat="43.9415" lon="6.55606">
        <ele>949.3</ele>
        <time>2025-08-04T07:42:05.662Z</time>
      </trkpt>
      <trkpt lat="43.94146" lon="6.55601">
        <ele>948.9</ele>
        <time>2025-08-04T07:42:13.326Z</time>
      </trkpt>
      <trkpt lat="43.94143" lon="6.55596">
        <ele>948.5</ele>
        <time>2025-08-04T07:42:20.000Z</time>
      </trkpt>
      <trkpt lat="43.94141" lon="6.5559">
        <ele>948.3</ele>
        <time>2025-08-04T07:42:26.830Z</time>
      </trkpt>
      <trkpt lat="43.94138" lon="6.55584">
        <ele>947.9</ele>
        <time>2025-08-04T07:42:34.321Z</time>
      </trkpt>
      <trkpt lat="43.94136" lon="6.55578">
        <ele>948.1</ele>
        <time>2025-08-04T07:42:43.169Z</time>
      </trkpt>
      <trkpt lat="43.94133" lon="6.55572">
        <ele>948.1</ele>
        <time>2025-08-04T07:42:51.729Z</time>
      </trkpt>
      <trkpt lat="43.94131" lon="6.55567">
        <ele>948.2</ele>
        <time>2025-08-04T07:42:58.960Z</time>
      </trkpt>
      <trkpt lat="43.94128" lon="6.55561">
        <ele>948.1</ele>
        <time>2025-08-04T07:43:07.039Z</time>
      </trkpt>
      <trkpt lat="43.94128" lon="6.55561">
        <ele>948.1</ele>
        <time>2025-08-04T07:43:07.039Z</time>
      </trkpt>
      <trkpt lat="43.94128" lon="6.55561">
        <ele>948.1</ele>
        <time>2025-08-04T07:43:07.039Z</time>
      </trkpt>
      <trkpt lat="43.94125" lon="6.55556">
        <ele>948</ele>
        <time>2025-08-04T07:43:14.188Z</time>
      </trkpt>
      <trkpt lat="43.94123" lon="6.5555">
        <ele>948</ele>
        <time>2025-08-04T07:43:21.936Z</time>
      </trkpt>
      <trkpt lat="43.9412" lon="6.55545">
        <ele>947.8</ele>
        <time>2025-08-04T07:43:28.646Z</time>
      </trkpt>
      <trkpt lat="43.94118" lon="6.55539">
        <ele>947.7</ele>
        <time>2025-08-04T07:43:35.916Z</time>
      </trkpt>
      <trkpt lat="43.94115" lon="6.55534">
        <ele>947.4</ele>
        <time>2025-08-04T07:43:42.589Z</time>
      </trkpt>
      <trkpt lat="43.94112" lon="6.55528">
        <ele>947.2</ele>
        <time>2025-08-04T07:43:50.224Z</time>
      </trkpt>
      <trkpt lat="43.9411" lon="6.55523">
        <ele>947.1</ele>
        <time>2025-08-04T07:43:56.451Z</time>
      </trkpt>
      <trkpt lat="43.94107" lon="6.55517">
        <ele>947</ele>
        <time>2025-08-04T07:44:04.531Z</time>
      </trkpt>
      <trkpt lat="43.94104" lon="6.55509">
        <ele>946.9</ele>
        <time>2025-08-04T07:44:14.616Z</time>
      </trkpt>
      <trkpt lat="43.941" lon="6.55501">
        <ele>946.5</ele>
        <time>2025-08-04T07:44:24.603Z</time>
      </trkpt>
      <trkpt lat="43.94097" lon="6.55493">
        <ele>946.7</ele>
        <time>2025-08-04T07:44:36.246Z</time>
      </trkpt>
      <trkpt lat="43.94093" lon="6.55486">
        <ele>946.6</ele>
        <time>2025-08-04T07:44:46.233Z</time>
      </trkpt>
      <trkpt lat="43.9409" lon="6.55478">
        <ele>946.8</ele>
        <time>2025-08-04T07:44:57.876Z</time>
      </trkpt>
      <trkpt lat="43.94086" lon="6.5547">
        <ele>946.8</ele>
        <time>2025-08-04T07:45:09.290Z</time>
      </trkpt>
      <trkpt lat="43.94083" lon="6.55462">
        <ele>946.7</ele>
        <time>2025-08-04T07:45:19.375Z</time>
      </trkpt>
      <trkpt lat="43.94079" lon="6.55454">
        <ele>946.4</ele>
        <time>2025-08-04T07:45:29.415Z</time>
      </trkpt>
      <trkpt lat="43.94076" lon="6.55449">
        <ele>946.1</ele>
        <time>2025-08-04T07:45:36.088Z</time>
      </trkpt>
      <trkpt lat="43.94074" lon="6.55443">
        <ele>946.1</ele>
        <time>2025-08-04T07:45:43.837Z</time>
      </trkpt>
      <trkpt lat="43.94071" lon="6.55438">
        <ele>945.9</ele>
        <time>2025-08-04T07:45:50.547Z</time>
      </trkpt>
      <trkpt lat="43.94069" lon="6.55432">
        <ele>946</ele>
        <time>2025-08-04T07:45:58.820Z</time>
      </trkpt>
      <trkpt lat="43.94066" lon="6.55427">
        <ele>945.7</ele>
        <time>2025-08-04T07:46:05.494Z</time>
      </trkpt>
      <trkpt lat="43.94063" lon="6.55421">
        <ele>945.5</ele>
        <time>2025-08-04T07:46:13.129Z</time>
      </trkpt>
      <trkpt lat="43.94061" lon="6.55416">
        <ele>945.4</ele>
        <time>2025-08-04T07:46:19.356Z</time>
      </trkpt>
      <trkpt lat="43.94058" lon="6.5541">
        <ele>945.1</ele>
        <time>2025-08-04T07:46:26.846Z</time>
      </trkpt>
      <trkpt lat="43.94055" lon="6.55399">
        <ele>945.1</ele>
        <time>2025-08-04T07:46:40.631Z</time>
      </trkpt>
      <trkpt lat="43.94051" lon="6.55388">
        <ele>944.9</ele>
        <time>2025-08-04T07:46:54.117Z</time>
      </trkpt>
      <trkpt lat="43.94049" lon="6.55382">
        <ele>944.7</ele>
        <time>2025-08-04T07:47:00.948Z</time>
      </trkpt>
      <trkpt lat="43.94047" lon="6.55376">
        <ele>944.5</ele>
        <time>2025-08-04T07:47:07.779Z</time>
      </trkpt>
      <trkpt lat="43.94045" lon="6.55367">
        <ele>944.4</ele>
        <time>2025-08-04T07:47:18.331Z</time>
      </trkpt>
      <trkpt lat="43.94043" lon="6.55357">
        <ele>943.9</ele>
        <time>2025-08-04T07:47:28.973Z</time>
      </trkpt>
      <trkpt lat="43.94043" lon="6.5535">
        <ele>943.3</ele>
        <time>2025-08-04T07:47:36.151Z</time>
      </trkpt>
      <trkpt lat="43.94042" lon="6.55343">
        <ele>942.4</ele>
        <time>2025-08-04T07:47:43.469Z</time>
      </trkpt>
      <trkpt lat="43.94044" lon="6.55331">
        <ele>941.7</ele>
        <time>2025-08-04T07:47:56.099Z</time>
      </trkpt>
      <trkpt lat="43.94048" lon="6.5532">
        <ele>940.7</ele>
        <time>2025-08-04T07:48:08.735Z</time>
      </trkpt>
      <trkpt lat="43.94052" lon="6.55315">
        <ele>940.8</ele>
        <time>2025-08-04T07:48:18.016Z</time>
      </trkpt>
      <trkpt lat="43.94056" lon="6.55309">
        <ele>940.7</ele>
        <time>2025-08-04T07:48:27.115Z</time>
      </trkpt>
      <trkpt lat="43.9406" lon="6.55304">
        <ele>940.7</ele>
        <time>2025-08-04T07:48:35.873Z</time>
      </trkpt>
      <trkpt lat="43.94065" lon="6.55299">
        <ele>940.9</ele>
        <time>2025-08-04T07:48:46.977Z</time>
      </trkpt>
      <trkpt lat="43.94069" lon="6.55293">
        <ele>940.6</ele>
        <time>2025-08-04T07:48:55.362Z</time>
      </trkpt>
      <trkpt lat="43.94073" lon="6.55288">
        <ele>940.6</ele>
        <time>2025-08-04T07:49:04.120Z</time>
      </trkpt>
      <trkpt lat="43.94077" lon="6.55282">
        <ele>940.4</ele>
        <time>2025-08-04T07:49:12.770Z</time>
      </trkpt>
      <trkpt lat="43.94081" lon="6.55277">
        <ele>940.4</ele>
        <time>2025-08-04T07:49:21.528Z</time>
      </trkpt>
      <trkpt lat="43.94084" lon="6.55271">
        <ele>940.2</ele>
        <time>2025-08-04T07:49:29.164Z</time>
      </trkpt>
      <trkpt lat="43.94087" lon="6.55265">
        <ele>940</ele>
        <time>2025-08-04T07:49:36.799Z</time>
      </trkpt>
      <trkpt lat="43.9409" lon="6.55259">
        <ele>939.7</ele>
        <time>2025-08-04T07:49:44.289Z</time>
      </trkpt>
      <trkpt lat="43.94093" lon="6.55253">
        <ele>939.5</ele>
        <time>2025-08-04T07:49:51.925Z</time>
      </trkpt>
      <trkpt lat="43.94097" lon="6.55243">
        <ele>939.4</ele>
        <time>2025-08-04T07:50:04.842Z</time>
      </trkpt>
      <trkpt lat="43.94101" lon="6.55232">
        <ele>939.5</ele>
        <time>2025-08-04T07:50:19.797Z</time>
      </trkpt>
      <trkpt lat="43.94103" lon="6.55225">
        <ele>939.4</ele>
        <time>2025-08-04T07:50:28.140Z</time>
      </trkpt>
      <trkpt lat="43.94104" lon="6.55217">
        <ele>939.4</ele>
        <time>2025-08-04T07:50:37.656Z</time>
      </trkpt>
      <trkpt lat="43.94104" lon="6.55207">
        <ele>939.3</ele>
        <time>2025-08-04T07:50:48.888Z</time>
      </trkpt>
      <trkpt lat="43.94104" lon="6.55197">
        <ele>939.2</ele>
        <time>2025-08-04T07:51:00.121Z</time>
      </trkpt>
      <trkpt lat="43.94103" lon="6.55185">
        <ele>938.8</ele>
        <time>2025-08-04T07:51:12.507Z</time>
      </trkpt>
      <trkpt lat="43.94102" lon="6.55173">
        <ele>938.2</ele>
        <time>2025-08-04T07:51:24.894Z</time>
      </trkpt>
      <trkpt lat="43.94102" lon="6.55167">
        <ele>938.1</ele>
        <time>2025-08-04T07:51:31.449Z</time>
      </trkpt>
      <trkpt lat="43.94101" lon="6.5516">
        <ele>937.5</ele>
        <time>2025-08-04T07:51:38.766Z</time>
      </trkpt>
      <trkpt lat="43.941" lon="6.55148">
        <ele>936.7</ele>
        <time>2025-08-04T07:51:51.153Z</time>
      </trkpt>
      <trkpt lat="43.94102" lon="6.55147">
        <ele>937.3</ele>
        <time>2025-08-04T07:52:00.861Z</time>
      </trkpt>
      <trkpt lat="43.94101" lon="6.55146">
        <ele>937</ele>
        <time>2025-08-04T07:52:02.616Z</time>
      </trkpt>
      <trkpt lat="43.94102" lon="6.55147">
        <ele>937.3</ele>
        <time>2025-08-04T07:52:07.413Z</time>
      </trkpt>
      <trkpt lat="43.94104" lon="6.55144">
        <ele>937.9</ele>
        <time>2025-08-04T07:52:17.190Z</time>
      </trkpt>
      <trkpt lat="43.94107" lon="6.55134">
        <ele>938.7</ele>
        <time>2025-08-04T07:52:34.969Z</time>
      </trkpt>
      <trkpt lat="43.9411" lon="6.55123">
        <ele>939.7</ele>
        <time>2025-08-04T07:52:55.361Z</time>
      </trkpt>
      <trkpt lat="43.94109" lon="6.55111">
        <ele>939.4</ele>
        <time>2025-08-04T07:53:08.120Z</time>
      </trkpt>
      <trkpt lat="43.94108" lon="6.55099">
        <ele>939.9</ele>
        <time>2025-08-04T07:53:25.127Z</time>
      </trkpt>
      <trkpt lat="43.94107" lon="6.55093">
        <ele>940</ele>
        <time>2025-08-04T07:53:32.870Z</time>
      </trkpt>
      <trkpt lat="43.94106" lon="6.55086">
        <ele>940.2</ele>
        <time>2025-08-04T07:53:42.326Z</time>
      </trkpt>
      <trkpt lat="43.94105" lon="6.55074">
        <ele>940.7</ele>
        <time>2025-08-04T07:53:59.333Z</time>
      </trkpt>
      <trkpt lat="43.94105" lon="6.55067">
        <ele>941.2</ele>
        <time>2025-08-04T07:54:10.687Z</time>
      </trkpt>
      <trkpt lat="43.94105" lon="6.55061">
        <ele>941.6</ele>
        <time>2025-08-04T07:54:20.199Z</time>
      </trkpt>
      <trkpt lat="43.94104" lon="6.55054">
        <ele>941.7</ele>
        <time>2025-08-04T07:54:29.085Z</time>
      </trkpt>
      <trkpt lat="43.94104" lon="6.55048">
        <ele>941.8</ele>
        <time>2025-08-04T07:54:36.643Z</time>
      </trkpt>
      <trkpt lat="43.94104" lon="6.55041">
        <ele>941.8</ele>
        <time>2025-08-04T07:54:44.846Z</time>
      </trkpt>
      <trkpt lat="43.94104" lon="6.55034">
        <ele>941.9</ele>
        <time>2025-08-04T07:54:53.572Z</time>
      </trkpt>
      <trkpt lat="43.94103" lon="6.55028">
        <ele>941.7</ele>
        <time>2025-08-04T07:54:59.888Z</time>
      </trkpt>
      <trkpt lat="43.94103" lon="6.55021">
        <ele>942</ele>
        <time>2025-08-04T07:55:09.809Z</time>
      </trkpt>
      <trkpt lat="43.94103" lon="6.55013">
        <ele>942.4</ele>
        <time>2025-08-04T07:55:21.530Z</time>
      </trkpt>
      <trkpt lat="43.94103" lon="6.55005">
        <ele>942.7</ele>
        <time>2025-08-04T07:55:32.594Z</time>
      </trkpt>
      <trkpt lat="43.94102" lon="6.54997">
        <ele>942.8</ele>
        <time>2025-08-04T07:55:42.629Z</time>
      </trkpt>
      <trkpt lat="43.94102" lon="6.54989">
        <ele>943</ele>
        <time>2025-08-04T07:55:53.086Z</time>
      </trkpt>
      <trkpt lat="43.94102" lon="6.54981">
        <ele>943.2</ele>
        <time>2025-08-04T07:56:03.543Z</time>
      </trkpt>
      <trkpt lat="43.94102" lon="6.54973">
        <ele>943.3</ele>
        <time>2025-08-04T07:56:13.438Z</time>
      </trkpt>
      <trkpt lat="43.94102" lon="6.54965">
        <ele>943.9</ele>
        <time>2025-08-04T07:56:26.642Z</time>
      </trkpt>
      <trkpt lat="43.94102" lon="6.54957">
        <ele>944.5</ele>
        <time>2025-08-04T07:56:39.845Z</time>
      </trkpt>
      <trkpt lat="43.94101" lon="6.54948">
        <ele>944.9</ele>
        <time>2025-08-04T07:56:52.816Z</time>
      </trkpt>
      <trkpt lat="43.94101" lon="6.5494">
        <ele>945.5</ele>
        <time>2025-08-04T07:57:06.020Z</time>
      </trkpt>
      <trkpt lat="43.94101" lon="6.54932">
        <ele>946</ele>
        <time>2025-08-04T07:57:18.452Z</time>
      </trkpt>
      <trkpt lat="43.94101" lon="6.54924">
        <ele>946.5</ele>
        <time>2025-08-04T07:57:30.884Z</time>
      </trkpt>
      <trkpt lat="43.94101" lon="6.54916">
        <ele>946.9</ele>
        <time>2025-08-04T07:57:42.604Z</time>
      </trkpt>
      <trkpt lat="43.941" lon="6.54908">
        <ele>947.1</ele>
        <time>2025-08-04T07:57:53.200Z</time>
      </trkpt>
      <trkpt lat="43.941" lon="6.549">
        <ele>947.4</ele>
        <time>2025-08-04T07:58:04.264Z</time>
      </trkpt>
      <trkpt lat="43.941" lon="6.54892">
        <ele>947.7</ele>
        <time>2025-08-04T07:58:15.328Z</time>
      </trkpt>
      <trkpt lat="43.941" lon="6.54884">
        <ele>947.5</ele>
        <time>2025-08-04T07:58:23.772Z</time>
      </trkpt>
      <trkpt lat="43.941" lon="6.54876">
        <ele>947</ele>
        <time>2025-08-04T07:58:31.975Z</time>
      </trkpt>
      <trkpt lat="43.941" lon="6.54867">
        <ele>946.4</ele>
        <time>2025-08-04T07:58:41.203Z</time>
      </trkpt>
      <trkpt lat="43.941" lon="6.54859">
        <ele>945.8</ele>
        <time>2025-08-04T07:58:49.407Z</time>
      </trkpt>
      <trkpt lat="43.94103" lon="6.54848">
        <ele>945.4</ele>
        <time>2025-08-04T07:59:01.468Z</time>
      </trkpt>
      <trkpt lat="43.94105" lon="6.54842">
        <ele>945.5</ele>
        <time>2025-08-04T07:59:09.741Z</time>
      </trkpt>
      <trkpt lat="43.94106" lon="6.54836">
        <ele>945.3</ele>
        <time>2025-08-04T07:59:16.056Z</time>
      </trkpt>
      <trkpt lat="43.94108" lon="6.54827">
        <ele>944.6</ele>
        <time>2025-08-04T07:59:25.714Z</time>
      </trkpt>
      <trkpt lat="43.94109" lon="6.54817">
        <ele>943.1</ele>
        <time>2025-08-04T07:59:36.066Z</time>
      </trkpt>
      <trkpt lat="43.94112" lon="6.54811">
        <ele>943.1</ele>
        <time>2025-08-04T07:59:44.626Z</time>
      </trkpt>
      <trkpt lat="43.94115" lon="6.54806">
        <ele>942.5</ele>
        <time>2025-08-04T07:59:51.300Z</time>
      </trkpt>
      <trkpt lat="43.94118" lon="6.548">
        <ele>941.7</ele>
        <time>2025-08-04T07:59:58.790Z</time>
      </trkpt>
      <trkpt lat="43.94122" lon="6.54795">
        <ele>941.5</ele>
        <time>2025-08-04T08:00:06.622Z</time>
      </trkpt>
      <trkpt lat="43.94125" lon="6.54789">
        <ele>941.1</ele>
        <time>2025-08-04T08:00:14.112Z</time>
      </trkpt>
      <trkpt lat="43.94128" lon="6.54783">
        <ele>940.9</ele>
        <time>2025-08-04T08:00:21.748Z</time>
      </trkpt>
      <trkpt lat="43.94131" lon="6.54778">
        <ele>941</ele>
        <time>2025-08-04T08:00:29.899Z</time>
      </trkpt>
      <trkpt lat="43.94134" lon="6.54772">
        <ele>941.4</ele>
        <time>2025-08-04T08:00:40.842Z</time>
      </trkpt>
      <trkpt lat="43.94136" lon="6.54765">
        <ele>941.6</ele>
        <time>2025-08-04T08:00:50.755Z</time>
      </trkpt>
      <trkpt lat="43.94139" lon="6.54759">
        <ele>942.3</ele>
        <time>2025-08-04T08:01:04.122Z</time>
      </trkpt>
      <trkpt lat="43.94141" lon="6.54752">
        <ele>941.6</ele>
        <time>2025-08-04T08:01:11.844Z</time>
      </trkpt>
      <trkpt lat="43.94143" lon="6.54745">
        <ele>940.8</ele>
        <time>2025-08-04T08:01:19.566Z</time>
      </trkpt>
      <trkpt lat="43.94145" lon="6.54738">
        <ele>939.8</ele>
        <time>2025-08-04T08:01:27.288Z</time>
      </trkpt>
      <trkpt lat="43.94146" lon="6.54731">
        <ele>939.1</ele>
        <time>2025-08-04T08:01:34.606Z</time>
      </trkpt>
      <trkpt lat="43.94148" lon="6.54723">
        <ele>938.1</ele>
        <time>2025-08-04T08:01:43.290Z</time>
      </trkpt>
      <trkpt lat="43.94149" lon="6.54716">
        <ele>936.9</ele>
        <time>2025-08-04T08:01:50.607Z</time>
      </trkpt>
      <trkpt lat="43.9415" lon="6.54705">
        <ele>935</ele>
        <time>2025-08-04T08:02:01.976Z</time>
      </trkpt>
      <trkpt lat="43.9415" lon="6.54693">
        <ele>933.1</ele>
        <time>2025-08-04T08:02:14.281Z</time>
      </trkpt>
      <trkpt lat="43.94149" lon="6.54686">
        <ele>931.6</ele>
        <time>2025-08-04T08:02:21.598Z</time>
      </trkpt>
      <trkpt lat="43.94149" lon="6.5468">
        <ele>930.1</ele>
        <time>2025-08-04T08:02:27.750Z</time>
      </trkpt>
      <trkpt lat="43.94148" lon="6.54673">
        <ele>928.5</ele>
        <time>2025-08-04T08:02:35.068Z</time>
      </trkpt>
      <trkpt lat="43.94147" lon="6.54666">
        <ele>926.9</ele>
        <time>2025-08-04T08:02:42.386Z</time>
      </trkpt>
      <trkpt lat="43.94151" lon="6.54671">
        <ele>928</ele>
        <time>2025-08-04T08:03:00.300Z</time>
      </trkpt>
      <trkpt lat="43.94156" lon="6.54677">
        <ele>929.1</ele>
        <time>2025-08-04T08:03:19.304Z</time>
      </trkpt>
      <trkpt lat="43.9416" lon="6.54682">
        <ele>929.7</ele>
        <time>2025-08-04T08:03:31.961Z</time>
      </trkpt>
      <trkpt lat="43.94164" lon="6.54687">
        <ele>930.2</ele>
        <time>2025-08-04T08:03:43.823Z</time>
      </trkpt>
      <trkpt lat="43.94168" lon="6.54696">
        <ele>930.7</ele>
        <time>2025-08-04T08:03:59.123Z</time>
      </trkpt>
      <trkpt lat="43.94172" lon="6.54705">
        <ele>930.3</ele>
        <time>2025-08-04T08:04:09.968Z</time>
      </trkpt>
      <trkpt lat="43.94176" lon="6.54713">
        <ele>929.8</ele>
        <time>2025-08-04T08:04:19.954Z</time>
      </trkpt>
      <trkpt lat="43.9418" lon="6.54722">
        <ele>929.2</ele>
        <time>2025-08-04T08:04:30.799Z</time>
      </trkpt>
      <trkpt lat="43.94185" lon="6.54729">
        <ele>928</ele>
        <time>2025-08-04T08:04:40.909Z</time>
      </trkpt>
      <trkpt lat="43.94189" lon="6.54735">
        <ele>927.2</ele>
        <time>2025-08-04T08:04:49.294Z</time>
      </trkpt>
      <trkpt lat="43.94193" lon="6.54739">
        <ele>926.3</ele>
        <time>2025-08-04T08:04:56.313Z</time>
      </trkpt>
      <trkpt lat="43.94197" lon="6.54742">
        <ele>925.7</ele>
        <time>2025-08-04T08:05:02.787Z</time>
      </trkpt>
      <trkpt lat="43.94204" lon="6.54741">
        <ele>924.4</ele>
        <time>2025-08-04T08:05:12.808Z</time>
      </trkpt>
      <trkpt lat="43.9421" lon="6.54739">
        <ele>923.2</ele>
        <time>2025-08-04T08:05:21.595Z</time>
      </trkpt>
      <trkpt lat="43.94213" lon="6.54733">
        <ele>922.2</ele>
        <time>2025-08-04T08:05:29.085Z</time>
      </trkpt>
      <trkpt lat="43.94217" lon="6.54724">
        <ele>920.9</ele>
        <time>2025-08-04T08:05:39.930Z</time>
      </trkpt>
      <trkpt lat="43.94223" lon="6.54719">
        <ele>919.9</ele>
        <time>2025-08-04T08:05:49.894Z</time>
      </trkpt>
      <trkpt lat="43.94228" lon="6.54718">
        <ele>920.1</ele>
        <time>2025-08-04T08:05:59.209Z</time>
      </trkpt>
      <trkpt lat="43.94233" lon="6.54717">
        <ele>920.2</ele>
        <time>2025-08-04T08:06:07.954Z</time>
      </trkpt>
      <trkpt lat="43.94238" lon="6.54715">
        <ele>920.3</ele>
        <time>2025-08-04T08:06:16.945Z</time>
      </trkpt>
      <trkpt lat="43.94243" lon="6.54714">
        <ele>920.5</ele>
        <time>2025-08-04T08:06:26.260Z</time>
      </trkpt>
      <trkpt lat="43.94248" lon="6.54711">
        <ele>920.5</ele>
        <time>2025-08-04T08:06:35.125Z</time>
      </trkpt>
      <trkpt lat="43.94253" lon="6.54709">
        <ele>920.9</ele>
        <time>2025-08-04T08:06:45.980Z</time>
      </trkpt>
      <trkpt lat="43.94258" lon="6.54706">
        <ele>921.2</ele>
        <time>2025-08-04T08:06:56.545Z</time>
      </trkpt>
      <trkpt lat="43.94263" lon="6.54703">
        <ele>921.5</ele>
        <time>2025-08-04T08:07:07.110Z</time>
      </trkpt>
      <trkpt lat="43.94267" lon="6.547">
        <ele>921.7</ele>
        <time>2025-08-04T08:07:15.614Z</time>
      </trkpt>
      <trkpt lat="43.94272" lon="6.54698">
        <ele>921.9</ele>
        <time>2025-08-04T08:07:25.173Z</time>
      </trkpt>
      <trkpt lat="43.94277" lon="6.54695">
        <ele>922</ele>
        <time>2025-08-04T08:07:34.559Z</time>
      </trkpt>
      <trkpt lat="43.94282" lon="6.54692">
        <ele>922.1</ele>
        <time>2025-08-04T08:07:43.945Z</time>
      </trkpt>
      <trkpt lat="43.94289" lon="6.5469">
        <ele>922.4</ele>
        <time>2025-08-04T08:07:57.226Z</time>
      </trkpt>
      <trkpt lat="43.94295" lon="6.54687">
        <ele>922.5</ele>
        <time>2025-08-04T08:08:08.123Z</time>
      </trkpt>
      <trkpt lat="43.94302" lon="6.54685">
        <ele>922.8</ele>
        <time>2025-08-04T08:08:21.404Z</time>
      </trkpt>
      <trkpt lat="43.94309" lon="6.54683">
        <ele>923</ele>
        <time>2025-08-04T08:08:34.101Z</time>
      </trkpt>
      <trkpt lat="43.94315" lon="6.5468">
        <ele>923.1</ele>
        <time>2025-08-04T08:08:44.998Z</time>
      </trkpt>
      <trkpt lat="43.94322" lon="6.54678">
        <ele>923.4</ele>
        <time>2025-08-04T08:08:58.279Z</time>
      </trkpt>
      <trkpt lat="43.94328" lon="6.54675">
        <ele>923.5</ele>
        <time>2025-08-04T08:09:09.175Z</time>
      </trkpt>
      <trkpt lat="43.94335" lon="6.54673">
        <ele>923.8</ele>
        <time>2025-08-04T08:09:22.456Z</time>
      </trkpt>
      <trkpt lat="43.94343" lon="6.5467">
        <ele>924.1</ele>
        <time>2025-08-04T08:09:37.571Z</time>
      </trkpt>
      <trkpt lat="43.9435" lon="6.54666">
        <ele>924.2</ele>
        <time>2025-08-04T08:09:50.406Z</time>
      </trkpt>
      <trkpt lat="43.94352" lon="6.5466">
        <ele>924</ele>
        <time>2025-08-04T08:09:57.236Z</time>
      </trkpt>
      <trkpt lat="43.94355" lon="6.54654">
        <ele>924</ele>
        <time>2025-08-04T08:10:05.796Z</time>
      </trkpt>
      <trkpt lat="43.94357" lon="6.54648">
        <ele>923.9</ele>
        <time>2025-08-04T08:10:13.065Z</time>
      </trkpt>
      <trkpt lat="43.94359" lon="6.54643">
        <ele>923.9</ele>
        <time>2025-08-04T08:10:19.767Z</time>
      </trkpt>
      <trkpt lat="43.94361" lon="6.54637">
        <ele>924</ele>
        <time>2025-08-04T08:10:28.040Z</time>
      </trkpt>
      <trkpt lat="43.94364" lon="6.54631">
        <ele>924.3</ele>
        <time>2025-08-04T08:10:38.308Z</time>
      </trkpt>
      <trkpt lat="43.94366" lon="6.54625">
        <ele>924.5</ele>
        <time>2025-08-04T08:10:47.156Z</time>
      </trkpt>
      <trkpt lat="43.94368" lon="6.54619">
        <ele>924.7</ele>
        <time>2025-08-04T08:10:56.004Z</time>
      </trkpt>
      <trkpt lat="43.94372" lon="6.54614">
        <ele>925.2</ele>
        <time>2025-08-04T08:11:07.865Z</time>
      </trkpt>
      <trkpt lat="43.94376" lon="6.54609">
        <ele>925.6</ele>
        <time>2025-08-04T08:11:18.997Z</time>
      </trkpt>
      <trkpt lat="43.94379" lon="6.54603">
        <ele>926</ele>
        <time>2025-08-04T08:11:29.940Z</time>
      </trkpt>
      <trkpt lat="43.94383" lon="6.54598">
        <ele>926.5</ele>
        <time>2025-08-04T08:11:41.801Z</time>
      </trkpt>
      <trkpt lat="43.94388" lon="6.54592">
        <ele>926.9</ele>
        <time>2025-08-04T08:11:54.852Z</time>
      </trkpt>
      <trkpt lat="43.94393" lon="6.54586">
        <ele>927.4</ele>
        <time>2025-08-04T08:12:08.582Z</time>
      </trkpt>
      <trkpt lat="43.94398" lon="6.5458">
        <ele>928.1</ele>
        <time>2025-08-04T08:12:23.822Z</time>
      </trkpt>
      <trkpt lat="43.94403" lon="6.54574">
        <ele>928.7</ele>
        <time>2025-08-04T08:12:38.281Z</time>
      </trkpt>
      <trkpt lat="43.94408" lon="6.54567">
        <ele>929.2</ele>
        <time>2025-08-04T08:12:52.774Z</time>
      </trkpt>
      <trkpt lat="43.94413" lon="6.54561">
        <ele>929.7</ele>
        <time>2025-08-04T08:13:06.504Z</time>
      </trkpt>
      <trkpt lat="43.94418" lon="6.54555">
        <ele>930.1</ele>
        <time>2025-08-04T08:13:19.555Z</time>
      </trkpt>
      <trkpt lat="43.94423" lon="6.54549">
        <ele>930.6</ele>
        <time>2025-08-04T08:13:33.285Z</time>
      </trkpt>
      <trkpt lat="43.94429" lon="6.54547">
        <ele>931.1</ele>
        <time>2025-08-04T08:13:46.341Z</time>
      </trkpt>
      <trkpt lat="43.94434" lon="6.54544">
        <ele>931.4</ele>
        <time>2025-08-04T08:13:56.906Z</time>
      </trkpt>
      <trkpt lat="43.9444" lon="6.54542">
        <ele>931.8</ele>
        <time>2025-08-04T08:14:09.269Z</time>
      </trkpt>
      <trkpt lat="43.94445" lon="6.54539">
        <ele>932.1</ele>
        <time>2025-08-04T08:14:19.834Z</time>
      </trkpt>
      <trkpt lat="43.94452" lon="6.54534">
        <ele>932.8</ele>
        <time>2025-08-04T08:14:36.946Z</time>
      </trkpt>
      <trkpt lat="43.94458" lon="6.54528">
        <ele>933.5</ele>
        <time>2025-08-04T08:14:53.342Z</time>
      </trkpt>
      <trkpt lat="43.94463" lon="6.54519">
        <ele>933.8</ele>
        <time>2025-08-04T08:15:08.293Z</time>
      </trkpt>
      <trkpt lat="43.94468" lon="6.54509">
        <ele>934</ele>
        <time>2025-08-04T08:15:23.613Z</time>
      </trkpt>
      <trkpt lat="43.94474" lon="6.54502">
        <ele>934.3</ele>
        <time>2025-08-04T08:15:38.002Z</time>
      </trkpt>
      <trkpt lat="43.9448" lon="6.54494">
        <ele>934.6</ele>
        <time>2025-08-04T08:15:53.166Z</time>
      </trkpt>
      <trkpt lat="43.94479" lon="6.54492">
        <ele>934.4</ele>
        <time>2025-08-04T08:15:55.663Z</time>
      </trkpt>
      <trkpt lat="43.9448" lon="6.54494">
        <ele>934.6</ele>
        <time>2025-08-04T08:15:59.824Z</time>
      </trkpt>
      <trkpt lat="43.94482" lon="6.54491">
        <ele>934.7</ele>
        <time>2025-08-04T08:16:05.155Z</time>
      </trkpt>
      <trkpt lat="43.94477" lon="6.54485">
        <ele>934</ele>
        <time>2025-08-04T08:16:14.565Z</time>
      </trkpt>
      <trkpt lat="43.94473" lon="6.54478">
        <ele>933.3</ele>
        <time>2025-08-04T08:16:23.728Z</time>
      </trkpt>
      <trkpt lat="43.94468" lon="6.54472">
        <ele>932.7</ele>
        <time>2025-08-04T08:16:33.138Z</time>
      </trkpt>
      <trkpt lat="43.94463" lon="6.54465">
        <ele>932.6</ele>
        <time>2025-08-04T08:16:44.206Z</time>
      </trkpt>
      <trkpt lat="43.94457" lon="6.54464">
        <ele>932.2</ele>
        <time>2025-08-04T08:16:52.812Z</time>
      </trkpt>
      <trkpt lat="43.94451" lon="6.54463">
        <ele>931.8</ele>
        <time>2025-08-04T08:17:01.417Z</time>
      </trkpt>
      <trkpt lat="43.94444" lon="6.54461">
        <ele>931.4</ele>
        <time>2025-08-04T08:17:11.594Z</time>
      </trkpt>
      <trkpt lat="43.94438" lon="6.5446">
        <ele>931.5</ele>
        <time>2025-08-04T08:17:21.949Z</time>
      </trkpt>
      <trkpt lat="43.94433" lon="6.54461">
        <ele>931.6</ele>
        <time>2025-08-04T08:17:30.693Z</time>
      </trkpt>
      <trkpt lat="43.94428" lon="6.54462">
        <ele>931.6</ele>
        <time>2025-08-04T08:17:38.915Z</time>
      </trkpt>
      <trkpt lat="43.94423" lon="6.54463">
        <ele>931.6</ele>
        <time>2025-08-04T08:17:47.136Z</time>
      </trkpt>
      <trkpt lat="43.94418" lon="6.54464">
        <ele>931.6</ele>
        <time>2025-08-04T08:17:55.357Z</time>
      </trkpt>
      <trkpt lat="43.94413" lon="6.54469">
        <ele>931.5</ele>
        <time>2025-08-04T08:18:04.901Z</time>
      </trkpt>
      <trkpt lat="43.94408" lon="6.54474">
        <ele>931.5</ele>
        <time>2025-08-04T08:18:14.928Z</time>
      </trkpt>
      <trkpt lat="43.94403" lon="6.54479">
        <ele>931.5</ele>
        <time>2025-08-04T08:18:24.955Z</time>
      </trkpt>
      <trkpt lat="43.94398" lon="6.54484">
        <ele>931.4</ele>
        <time>2025-08-04T08:18:34.499Z</time>
      </trkpt>
      <trkpt lat="43.94391" lon="6.54489">
        <ele>931.1</ele>
        <time>2025-08-04T08:18:45.923Z</time>
      </trkpt>
      <trkpt lat="43.94383" lon="6.54494">
        <ele>931.4</ele>
        <time>2025-08-04T08:19:01.821Z</time>
      </trkpt>
      <trkpt lat="43.94376" lon="6.54499">
        <ele>931.5</ele>
        <time>2025-08-04T08:19:15.147Z</time>
      </trkpt>
      <trkpt lat="43.94372" lon="6.54502">
        <ele>931.5</ele>
        <time>2025-08-04T08:19:22.545Z</time>
      </trkpt>
      <trkpt lat="43.94368" lon="6.54505">
        <ele>931.4</ele>
        <time>2025-08-04T08:19:29.466Z</time>
      </trkpt>
      <trkpt lat="43.94361" lon="6.5451">
        <ele>930.9</ele>
        <time>2025-08-04T08:19:40.675Z</time>
      </trkpt>
      <trkpt lat="43.94353" lon="6.54515">
        <ele>930.6</ele>
        <time>2025-08-04T08:19:53.555Z</time>
      </trkpt>
      <trkpt lat="43.94346" lon="6.5452">
        <ele>930.1</ele>
        <time>2025-08-04T08:20:04.764Z</time>
      </trkpt>
      <trkpt lat="43.94338" lon="6.54525">
        <ele>929.4</ele>
        <time>2025-08-04T08:20:17.257Z</time>
      </trkpt>
      <trkpt lat="43.94331" lon="6.5453">
        <ele>928.8</ele>
        <time>2025-08-04T08:20:28.466Z</time>
      </trkpt>
      <trkpt lat="43.94323" lon="6.54534">
        <ele>928.7</ele>
        <time>2025-08-04T08:20:41.816Z</time>
      </trkpt>
      <trkpt lat="43.94316" lon="6.54539">
        <ele>927.8</ele>
        <time>2025-08-04T08:20:53.025Z</time>
      </trkpt>
      <trkpt lat="43.94308" lon="6.54543">
        <ele>927</ele>
        <time>2025-08-04T08:21:05.133Z</time>
      </trkpt>
      <trkpt lat="43.943" lon="6.54546">
        <ele>926</ele>
        <time>2025-08-04T08:21:16.934Z</time>
      </trkpt>
      <trkpt lat="43.94293" lon="6.54549">
        <ele>924.9</ele>
        <time>2025-08-04T08:21:27.366Z</time>
      </trkpt>
      <trkpt lat="43.94285" lon="6.54552">
        <ele>923.6</ele>
        <time>2025-08-04T08:21:39.166Z</time>
      </trkpt>
      <trkpt lat="43.94277" lon="6.54555">
        <ele>922.1</ele>
        <time>2025-08-04T08:21:50.967Z</time>
      </trkpt>
      <trkpt lat="43.9427" lon="6.54555">
        <ele>921.1</ele>
        <time>2025-08-04T08:22:00.935Z</time>
      </trkpt>
      <trkpt lat="43.94264" lon="6.54556">
        <ele>920</ele>
        <time>2025-08-04T08:22:09.541Z</time>
      </trkpt>
      <trkpt lat="43.94257" lon="6.54556">
        <ele>919</ele>
        <time>2025-08-04T08:22:19.509Z</time>
      </trkpt>
      <trkpt lat="43.9425" lon="6.54556">
        <ele>918</ele>
        <time>2025-08-04T08:22:29.477Z</time>
      </trkpt>
      <trkpt lat="43.94243" lon="6.54556">
        <ele>917</ele>
        <time>2025-08-04T08:22:39.446Z</time>
      </trkpt>
      <trkpt lat="43.94237" lon="6.54557">
        <ele>916</ele>
        <time>2025-08-04T08:22:48.051Z</time>
      </trkpt>
      <trkpt lat="43.9423" lon="6.54557">
        <ele>915</ele>
        <time>2025-08-04T08:22:58.020Z</time>
      </trkpt>
      <trkpt lat="43.94223" lon="6.54557">
        <ele>914.1</ele>
        <time>2025-08-04T08:23:07.988Z</time>
      </trkpt>
      <trkpt lat="43.94216" lon="6.54556">
        <ele>913.5</ele>
        <time>2025-08-04T08:23:18.009Z</time>
      </trkpt>
      <trkpt lat="43.94208" lon="6.54555">
        <ele>913.2</ele>
        <time>2025-08-04T08:23:29.692Z</time>
      </trkpt>
      <trkpt lat="43.94201" lon="6.54553">
        <ele>913.5</ele>
        <time>2025-08-04T08:23:42.973Z</time>
      </trkpt>
      <trkpt lat="43.94193" lon="6.54552">
        <ele>913.2</ele>
        <time>2025-08-04T08:23:54.657Z</time>
      </trkpt>
      <trkpt lat="43.94188" lon="6.54551">
        <ele>913.2</ele>
        <time>2025-08-04T08:24:02.878Z</time>
      </trkpt>
      <trkpt lat="43.94183" lon="6.54551">
        <ele>912.8</ele>
        <time>2025-08-04T08:24:09.998Z</time>
      </trkpt>
      <trkpt lat="43.94178" lon="6.5455">
        <ele>912.7</ele>
        <time>2025-08-04T08:24:17.739Z</time>
      </trkpt>
      <trkpt lat="43.94173" lon="6.54549">
        <ele>912.5</ele>
        <time>2025-08-04T08:24:25.039Z</time>
      </trkpt>
      <trkpt lat="43.94167" lon="6.54546">
        <ele>912.4</ele>
        <time>2025-08-04T08:24:34.933Z</time>
      </trkpt>
      <trkpt lat="43.9416" lon="6.54543">
        <ele>911.3</ele>
        <time>2025-08-04T08:24:45.365Z</time>
      </trkpt>
      <trkpt lat="43.94154" lon="6.54539">
        <ele>910.2</ele>
        <time>2025-08-04T08:24:54.843Z</time>
      </trkpt>
      <trkpt lat="43.94147" lon="6.54536">
        <ele>908.5</ele>
        <time>2025-08-04T08:25:05.275Z</time>
      </trkpt>
      <trkpt lat="43.94147" lon="6.54536">
        <ele>908.5</ele>
        <time>2025-08-04T08:25:05.275Z</time>
      </trkpt>
      <trkpt lat="43.94147" lon="6.54536">
        <ele>908.5</ele>
        <time>2025-08-04T08:25:05.275Z</time>
      </trkpt>
      <trkpt lat="43.94147" lon="6.54535">
        <ele>908.5</ele>
        <time>2025-08-04T08:25:06.447Z</time>
      </trkpt>
      <trkpt lat="43.94143" lon="6.54524">
        <ele>908.2</ele>
        <time>2025-08-04T08:25:19.489Z</time>
      </trkpt>
      <trkpt lat="43.94139" lon="6.54515">
        <ele>908.3</ele>
        <time>2025-08-04T08:25:32.398Z</time>
      </trkpt>
      <trkpt lat="43.94134" lon="6.54505">
        <ele>908.6</ele>
        <time>2025-08-04T08:25:48.286Z</time>
      </trkpt>
      <trkpt lat="43.94132" lon="6.54498">
        <ele>908.6</ele>
        <time>2025-08-04T08:25:57.112Z</time>
      </trkpt>
      <trkpt lat="43.9413" lon="6.5449">
        <ele>907.9</ele>
        <time>2025-08-04T08:26:05.795Z</time>
      </trkpt>
      <trkpt lat="43.9413" lon="6.5448">
        <ele>908.1</ele>
        <time>2025-08-04T08:26:18.579Z</time>
      </trkpt>
      <trkpt lat="43.9413" lon="6.5447">
        <ele>908.1</ele>
        <time>2025-08-04T08:26:30.298Z</time>
      </trkpt>
      <trkpt lat="43.9413" lon="6.5446">
        <ele>907.7</ele>
        <time>2025-08-04T08:26:40.552Z</time>
      </trkpt>
      <trkpt lat="43.94131" lon="6.5445">
        <ele>907.8</ele>
        <time>2025-08-04T08:26:52.899Z</time>
      </trkpt>
      <trkpt lat="43.94131" lon="6.5444">
        <ele>907.2</ele>
        <time>2025-08-04T08:27:03.153Z</time>
      </trkpt>
      <trkpt lat="43.94131" lon="6.5443">
        <ele>906.2</ele>
        <time>2025-08-04T08:27:13.407Z</time>
      </trkpt>
      <trkpt lat="43.94131" lon="6.5442">
        <ele>905.2</ele>
        <time>2025-08-04T08:27:23.661Z</time>
      </trkpt>
      <trkpt lat="43.94131" lon="6.5441">
        <ele>904.7</ele>
        <time>2025-08-04T08:27:33.915Z</time>
      </trkpt>
      <trkpt lat="43.94131" lon="6.54399">
        <ele>904.4</ele>
        <time>2025-08-04T08:27:45.418Z</time>
      </trkpt>
      <trkpt lat="43.94131" lon="6.54389">
        <ele>904.2</ele>
        <time>2025-08-04T08:27:56.192Z</time>
      </trkpt>
      <trkpt lat="43.94131" lon="6.54379">
        <ele>903.8</ele>
        <time>2025-08-04T08:28:06.445Z</time>
      </trkpt>
      <trkpt lat="43.94132" lon="6.54369">
        <ele>903.8</ele>
        <time>2025-08-04T08:28:18.277Z</time>
      </trkpt>
      <trkpt lat="43.94132" lon="6.54359">
        <ele>903.5</ele>
        <time>2025-08-04T08:28:28.618Z</time>
      </trkpt>
      <trkpt lat="43.94132" lon="6.54349">
        <ele>903.5</ele>
        <time>2025-08-04T08:28:40.337Z</time>
      </trkpt>
      <trkpt lat="43.94132" lon="6.54339">
        <ele>903.5</ele>
        <time>2025-08-04T08:28:52.056Z</time>
      </trkpt>
      <trkpt lat="43.94132" lon="6.54329">
        <ele>903.2</ele>
        <time>2025-08-04T08:29:02.397Z</time>
      </trkpt>
      <trkpt lat="43.94132" lon="6.54321">
        <ele>902.7</ele>
        <time>2025-08-04T08:29:10.601Z</time>
      </trkpt>
      <trkpt lat="43.94132" lon="6.54314">
        <ele>902.3</ele>
        <time>2025-08-04T08:29:17.778Z</time>
      </trkpt>
      <trkpt lat="43.94132" lon="6.54306">
        <ele>901.8</ele>
        <time>2025-08-04T08:29:25.981Z</time>
      </trkpt>
      <trkpt lat="43.94133" lon="6.54299">
        <ele>901.7</ele>
        <time>2025-08-04T08:29:33.864Z</time>
      </trkpt>
      <trkpt lat="43.94133" lon="6.54291">
        <ele>901.2</ele>
        <time>2025-08-04T08:29:42.067Z</time>
      </trkpt>
      <trkpt lat="43.94133" lon="6.54283">
        <ele>900.6</ele>
        <time>2025-08-04T08:29:50.270Z</time>
      </trkpt>
      <trkpt lat="43.94133" lon="6.54276">
        <ele>900.1</ele>
        <time>2025-08-04T08:29:57.448Z</time>
      </trkpt>
      <trkpt lat="43.94133" lon="6.54268">
        <ele>899.1</ele>
        <time>2025-08-04T08:30:05.651Z</time>
      </trkpt>
      <trkpt lat="43.94133" lon="6.54262">
        <ele>898.4</ele>
        <time>2025-08-04T08:30:11.803Z</time>
      </trkpt>
      <trkpt lat="43.94132" lon="6.54256">
        <ele>897.5</ele>
        <time>2025-08-04T08:30:18.118Z</time>
      </trkpt>
      <trkpt lat="43.94132" lon="6.54249">
        <ele>896.8</ele>
        <time>2025-08-04T08:30:25.296Z</time>
      </trkpt>
      <trkpt lat="43.94131" lon="6.54243">
        <ele>896.7</ele>
        <time>2025-08-04T08:30:32.036Z</time>
      </trkpt>
      <trkpt lat="43.94131" lon="6.54231">
        <ele>896.8</ele>
        <time>2025-08-04T08:30:46.612Z</time>
      </trkpt>
      <trkpt lat="43.94139" lon="6.54229">
        <ele>898</ele>
        <time>2025-08-04T08:31:08.400Z</time>
      </trkpt>
      <trkpt lat="43.94142" lon="6.54229">
        <ele>898.7</ele>
        <time>2025-08-04T08:31:19.607Z</time>
      </trkpt>
      <trkpt lat="43.94142" lon="6.54229">
        <ele>898.7</ele>
        <time>2025-08-04T08:31:19.607Z</time>
      </trkpt>
      <trkpt lat="43.94142" lon="6.54229">
        <ele>898.7</ele>
        <time>2025-08-04T08:31:19.607Z</time>
      </trkpt>
      <trkpt lat="43.94147" lon="6.54229">
        <ele>899.8</ele>
        <time>2025-08-04T08:31:37.312Z</time>
      </trkpt>
      <trkpt lat="43.94152" lon="6.5423">
        <ele>900.8</ele>
        <time>2025-08-04T08:31:53.709Z</time>
      </trkpt>
      <trkpt lat="43.94157" lon="6.5423">
        <ele>901.9</ele>
        <time>2025-08-04T08:32:11.414Z</time>
      </trkpt>
      <trkpt lat="43.94162" lon="6.5423">
        <ele>903</ele>
        <time>2025-08-04T08:32:29.119Z</time>
      </trkpt>
      <trkpt lat="43.94167" lon="6.5423">
        <ele>904.1</ele>
        <time>2025-08-04T08:32:46.825Z</time>
      </trkpt>
      <trkpt lat="43.94172" lon="6.54231">
        <ele>905.2</ele>
        <time>2025-08-04T08:33:04.553Z</time>
      </trkpt>
      <trkpt lat="43.94177" lon="6.54231">
        <ele>906.3</ele>
        <time>2025-08-04T08:33:22.258Z</time>
      </trkpt>
      <trkpt lat="43.94182" lon="6.54231">
        <ele>907.3</ele>
        <time>2025-08-04T08:33:38.617Z</time>
      </trkpt>
      <trkpt lat="43.94189" lon="6.54232">
        <ele>908.8</ele>
        <time>2025-08-04T08:34:02.867Z</time>
      </trkpt>
      <trkpt lat="43.94196" lon="6.54233">
        <ele>910</ele>
        <time>2025-08-04T08:34:23.417Z</time>
      </trkpt>
      <trkpt lat="43.94203" lon="6.54233">
        <ele>910.6</ele>
        <time>2025-08-04T08:34:38.469Z</time>
      </trkpt>
      <trkpt lat="43.9421" lon="6.54234">
        <ele>911.2</ele>
        <time>2025-08-04T08:34:53.576Z</time>
      </trkpt>
      <trkpt lat="43.94217" lon="6.54235">
        <ele>911.7</ele>
        <time>2025-08-04T08:35:07.971Z</time>
      </trkpt>
      <trkpt lat="43.94224" lon="6.54236">
        <ele>912.2</ele>
        <time>2025-08-04T08:35:22.367Z</time>
      </trkpt>
      <trkpt lat="43.94231" lon="6.54236">
        <ele>913</ele>
        <time>2025-08-04T08:35:38.995Z</time>
      </trkpt>
      <trkpt lat="43.94238" lon="6.54237">
        <ele>913.6</ele>
        <time>2025-08-04T08:35:54.103Z</time>
      </trkpt>
      <trkpt lat="43.94244" lon="6.54238">
        <ele>914.1</ele>
        <time>2025-08-04T08:36:06.964Z</time>
      </trkpt>
      <trkpt lat="43.94249" lon="6.54239">
        <ele>914.5</ele>
        <time>2025-08-04T08:36:17.587Z</time>
      </trkpt>
      <trkpt lat="43.94255" lon="6.54239">
        <ele>914.8</ele>
        <time>2025-08-04T08:36:29.032Z</time>
      </trkpt>
      <trkpt lat="43.9426" lon="6.5424">
        <ele>914.9</ele>
        <time>2025-08-04T08:36:37.777Z</time>
      </trkpt>
      <trkpt lat="43.94268" lon="6.5424">
        <ele>915.3</ele>
        <time>2025-08-04T08:36:53.038Z</time>
      </trkpt>
      <trkpt lat="43.94275" lon="6.54239">
        <ele>915.8</ele>
        <time>2025-08-04T08:37:07.434Z</time>
      </trkpt>
      <trkpt lat="43.94283" lon="6.54239">
        <ele>916.3</ele>
        <time>2025-08-04T08:37:23.338Z</time>
      </trkpt>
      <trkpt lat="43.9429" lon="6.54238">
        <ele>916.8</ele>
        <time>2025-08-04T08:37:37.733Z</time>
      </trkpt>
      <trkpt lat="43.94296" lon="6.54236">
        <ele>917.5</ele>
        <time>2025-08-04T08:37:52.347Z</time>
      </trkpt>
      <trkpt lat="43.94296" lon="6.54236">
        <ele>917.5</ele>
        <time>2025-08-04T08:37:52.347Z</time>
      </trkpt>
      <trkpt lat="43.94296" lon="6.54236">
        <ele>917.5</ele>
        <time>2025-08-04T08:37:52.347Z</time>
      </trkpt>
      <trkpt lat="43.94303" lon="6.54235">
        <ele>918</ele>
        <time>2025-08-04T08:38:06.743Z</time>
      </trkpt>
      <trkpt lat="43.94309" lon="6.54233">
        <ele>918.6</ele>
        <time>2025-08-04T08:38:20.549Z</time>
      </trkpt>
      <trkpt lat="43.94316" lon="6.54232">
        <ele>919.2</ele>
        <time>2025-08-04T08:38:35.656Z</time>
      </trkpt>
      <trkpt lat="43.94322" lon="6.5423">
        <ele>919.9</ele>
        <time>2025-08-04T08:38:50.270Z</time>
      </trkpt>
      <trkpt lat="43.94328" lon="6.54231">
        <ele>920.1</ele>
        <time>2025-08-04T08:39:01.183Z</time>
      </trkpt>
      <trkpt lat="43.94334" lon="6.54232">
        <ele>920.3</ele>
        <time>2025-08-04T08:39:12.096Z</time>
      </trkpt>
      <trkpt lat="43.94339" lon="6.54233">
        <ele>920.4</ele>
        <time>2025-08-04T08:39:20.840Z</time>
      </trkpt>
      <trkpt lat="43.94345" lon="6.54234">
        <ele>920.5</ele>
        <time>2025-08-04T08:39:31.195Z</time>
      </trkpt>
      <trkpt lat="43.94351" lon="6.54234">
        <ele>920.9</ele>
        <time>2025-08-04T08:39:43.290Z</time>
      </trkpt>
      <trkpt lat="43.94357" lon="6.54235">
        <ele>921</ele>
        <time>2025-08-04T08:39:53.644Z</time>
      </trkpt>
      <trkpt lat="43.94362" lon="6.54236">
        <ele>921.1</ele>
        <time>2025-08-04T08:40:02.389Z</time>
      </trkpt>
      <trkpt lat="43.94368" lon="6.54237">
        <ele>921.2</ele>
        <time>2025-08-04T08:40:12.743Z</time>
      </trkpt>
      <trkpt lat="43.94376" lon="6.54232">
        <ele>922.6</ele>
        <time>2025-08-04T08:40:37.328Z</time>
      </trkpt>
      <trkpt lat="43.94383" lon="6.54226">
        <ele>924.1</ele>
        <time>2025-08-04T08:41:02.460Z</time>
      </trkpt>
      <trkpt lat="43.94387" lon="6.5422">
        <ele>925.5</ele>
        <time>2025-08-04T08:41:24.855Z</time>
      </trkpt>
      <trkpt lat="43.94392" lon="6.54214">
        <ele>926.9</ele>
        <time>2025-08-04T08:41:47.509Z</time>
      </trkpt>
      <trkpt lat="43.94396" lon="6.54207">
        <ele>928.3</ele>
        <time>2025-08-04T08:42:10.075Z</time>
      </trkpt>
      <trkpt lat="43.944" lon="6.54201">
        <ele>929.3</ele>
        <time>2025-08-04T08:42:27.225Z</time>
      </trkpt>
      <trkpt lat="43.944" lon="6.54191">
        <ele>931.4</ele>
        <time>2025-08-04T08:43:01.422Z</time>
      </trkpt>
      <trkpt lat="43.94401" lon="6.54181">
        <ele>933.2</ele>
        <time>2025-08-04T08:43:30.200Z</time>
      </trkpt>
      <trkpt lat="43.94401" lon="6.54171">
        <ele>935</ele>
        <time>2025-08-04T08:43:58.982Z</time>
      </trkpt>
      <trkpt lat="43.94401" lon="6.54161">
        <ele>936.8</ele>
        <time>2025-08-04T08:44:27.765Z</time>
      </trkpt>
      <trkpt lat="43.94405" lon="6.54151">
        <ele>937.9</ele>
        <time>2025-08-04T08:44:48.733Z</time>
      </trkpt>
      <trkpt lat="43.94408" lon="6.54142">
        <ele>939</ele>
        <time>2025-08-04T08:45:08.334Z</time>
      </trkpt>
      <trkpt lat="43.94412" lon="6.54132">
        <ele>940.5</ele>
        <time>2025-08-04T08:45:33.477Z</time>
      </trkpt>
      <trkpt lat="43.94415" lon="6.54122">
        <ele>942.5</ele>
        <time>2025-08-04T08:46:05.488Z</time>
      </trkpt>
      <trkpt lat="43.94415" lon="6.5412">
        <ele>943</ele>
        <time>2025-08-04T08:46:14.104Z</time>
      </trkpt>
      <trkpt lat="43.9442" lon="6.54114">
        <ele>943.2</ele>
        <time>2025-08-04T08:46:25.930Z</time>
      </trkpt>
      <trkpt lat="43.94425" lon="6.54107">
        <ele>943.7</ele>
        <time>2025-08-04T08:46:40.423Z</time>
      </trkpt>
      <trkpt lat="43.94429" lon="6.54101">
        <ele>944.6</ele>
        <time>2025-08-04T08:46:56.513Z</time>
      </trkpt>
      <trkpt lat="43.94434" lon="6.54094">
        <ele>945.7</ele>
        <time>2025-08-04T08:47:16.067Z</time>
      </trkpt>
      <trkpt lat="43.94437" lon="6.54088">
        <ele>947.1</ele>
        <time>2025-08-04T08:47:38.538Z</time>
      </trkpt>
      <trkpt lat="43.9444" lon="6.54083">
        <ele>948.2</ele>
        <time>2025-08-04T08:47:56.144Z</time>
      </trkpt>
      <trkpt lat="43.94442" lon="6.54077">
        <ele>949.9</ele>
        <time>2025-08-04T08:48:25.801Z</time>
      </trkpt>
      <trkpt lat="43.94445" lon="6.54071">
        <ele>951.3</ele>
        <time>2025-08-04T08:48:48.273Z</time>
      </trkpt>
      <trkpt lat="43.9445" lon="6.54065">
        <ele>952.5</ele>
        <time>2025-08-04T08:49:08.404Z</time>
      </trkpt>
      <trkpt lat="43.94456" lon="6.54059">
        <ele>953.3</ele>
        <time>2025-08-04T08:49:25.593Z</time>
      </trkpt>
      <trkpt lat="43.94461" lon="6.54053">
        <ele>954</ele>
        <time>2025-08-04T08:49:40.834Z</time>
      </trkpt>
      <trkpt lat="43.94466" lon="6.54047">
        <ele>954.4</ele>
        <time>2025-08-04T08:49:53.885Z</time>
      </trkpt>
      <trkpt lat="43.94467" lon="6.54046">
        <ele>954.5</ele>
        <time>2025-08-04T08:49:56.493Z</time>
      </trkpt>
      <trkpt lat="43.94467" lon="6.54046">
        <ele>954.5</ele>
        <time>2025-08-04T08:49:56.493Z</time>
      </trkpt>
      <trkpt lat="43.94467" lon="6.54046">
        <ele>954.5</ele>
        <time>2025-08-04T08:49:56.493Z</time>
      </trkpt>
      <trkpt lat="43.94471" lon="6.54036">
        <ele>956.2</ele>
        <time>2025-08-04T08:50:24.127Z</time>
      </trkpt>
      <trkpt lat="43.94474" lon="6.54026">
        <ele>957.6</ele>
        <time>2025-08-04T08:50:47.698Z</time>
      </trkpt>
      <trkpt lat="43.94476" lon="6.54018">
        <ele>958.1</ele>
        <time>2025-08-04T08:51:00.643Z</time>
      </trkpt>
      <trkpt lat="43.94478" lon="6.54009">
        <ele>958.9</ele>
        <time>2025-08-04T08:51:16.965Z</time>
      </trkpt>
      <trkpt lat="43.94479" lon="6.54001">
        <ele>959.9</ele>
        <time>2025-08-04T08:51:34.073Z</time>
      </trkpt>
      <trkpt lat="43.94481" lon="6.53992">
        <ele>960.4</ele>
        <time>2025-08-04T08:51:48.072Z</time>
      </trkpt>
      <trkpt lat="43.94483" lon="6.53984">
        <ele>960.9</ele>
        <time>2025-08-04T08:52:01.017Z</time>
      </trkpt>
      <trkpt lat="43.94485" lon="6.53975">
        <ele>961.8</ele>
        <time>2025-08-04T08:52:18.228Z</time>
      </trkpt>
      <trkpt lat="43.94486" lon="6.53967">
        <ele>962.8</ele>
        <time>2025-08-04T08:52:35.335Z</time>
      </trkpt>
      <trkpt lat="43.94488" lon="6.53958">
        <ele>963.8</ele>
        <time>2025-08-04T08:52:53.502Z</time>
      </trkpt>
      <trkpt lat="43.94488" lon="6.53948">
        <ele>965.3</ele>
        <time>2025-08-04T08:53:17.843Z</time>
      </trkpt>
      <trkpt lat="43.94489" lon="6.53938">
        <ele>966.7</ele>
        <time>2025-08-04T08:53:40.950Z</time>
      </trkpt>
      <trkpt lat="43.94489" lon="6.53928">
        <ele>968.2</ele>
        <time>2025-08-04T08:54:05.292Z</time>
      </trkpt>
      <trkpt lat="43.9449" lon="6.53918">
        <ele>969.5</ele>
        <time>2025-08-04T08:54:27.204Z</time>
      </trkpt>
      <trkpt lat="43.9449" lon="6.53908">
        <ele>971.2</ele>
        <time>2025-08-04T08:54:54.405Z</time>
      </trkpt>
      <trkpt lat="43.9449" lon="6.53898">
        <ele>972.8</ele>
        <time>2025-08-04T08:55:20.128Z</time>
      </trkpt>
      <trkpt lat="43.94491" lon="6.53888">
        <ele>974.5</ele>
        <time>2025-08-04T08:55:47.342Z</time>
      </trkpt>
      <trkpt lat="43.94491" lon="6.53878">
        <ele>975.9</ele>
        <time>2025-08-04T08:56:10.394Z</time>
      </trkpt>
      <trkpt lat="43.94495" lon="6.5387">
        <ele>976.6</ele>
        <time>2025-08-04T08:56:26.226Z</time>
      </trkpt>
      <trkpt lat="43.94498" lon="6.53862">
        <ele>977.2</ele>
        <time>2025-08-04T08:56:40.514Z</time>
      </trkpt>
      <trkpt lat="43.94502" lon="6.53858">
        <ele>976.9</ele>
        <time>2025-08-04T08:56:47.533Z</time>
      </trkpt>
      <trkpt lat="43.94507" lon="6.53854">
        <ele>976.4</ele>
        <time>2025-08-04T08:56:55.750Z</time>
      </trkpt>
      <trkpt lat="43.94511" lon="6.53849">
        <ele>976.4</ele>
        <time>2025-08-04T08:57:04.508Z</time>
      </trkpt>
      <trkpt lat="43.94515" lon="6.53845">
        <ele>976.4</ele>
        <time>2025-08-04T08:57:12.530Z</time>
      </trkpt>
      <trkpt lat="43.94518" lon="6.53837">
        <ele>977.4</ele>
        <time>2025-08-04T08:57:30.353Z</time>
      </trkpt>
      <trkpt lat="43.9452" lon="6.53829">
        <ele>978.6</ele>
        <time>2025-08-04T08:57:50.055Z</time>
      </trkpt>
      <trkpt lat="43.94523" lon="6.53821">
        <ele>979.7</ele>
        <time>2025-08-04T08:58:08.939Z</time>
      </trkpt>
      <trkpt lat="43.94525" lon="6.53813">
        <ele>980.9</ele>
        <time>2025-08-04T08:58:28.641Z</time>
      </trkpt>
      <trkpt lat="43.94525" lon="6.53801">
        <ele>983</ele>
        <time>2025-08-04T08:59:02.215Z</time>
      </trkpt>
      <trkpt lat="43.94526" lon="6.53789">
        <ele>985.1</ele>
        <time>2025-08-04T08:59:35.793Z</time>
      </trkpt>
      <trkpt lat="43.94526" lon="6.53783">
        <ele>986.2</ele>
        <time>2025-08-04T08:59:53.393Z</time>
      </trkpt>
      <trkpt lat="43.94526" lon="6.53776">
        <ele>987.4</ele>
        <time>2025-08-04T09:00:12.588Z</time>
      </trkpt>
      <trkpt lat="43.94526" lon="6.53764">
        <ele>989.1</ele>
        <time>2025-08-04T09:00:40.501Z</time>
      </trkpt>
      <trkpt lat="43.94526" lon="6.53756">
        <ele>990.3</ele>
        <time>2025-08-04T09:00:59.974Z</time>
      </trkpt>
      <trkpt lat="43.94526" lon="6.53747">
        <ele>991.6</ele>
        <time>2025-08-04T09:01:21.227Z</time>
      </trkpt>
      <trkpt lat="43.94525" lon="6.53739">
        <ele>992.9</ele>
        <time>2025-08-04T09:01:42.125Z</time>
      </trkpt>
      <trkpt lat="43.94525" lon="6.5373">
        <ele>994.3</ele>
        <time>2025-08-04T09:02:04.713Z</time>
      </trkpt>
      <trkpt lat="43.94525" lon="6.53723">
        <ele>995.3</ele>
        <time>2025-08-04T09:02:21.101Z</time>
      </trkpt>
      <trkpt lat="43.94525" lon="6.53716">
        <ele>996.3</ele>
        <time>2025-08-04T09:02:37.489Z</time>
      </trkpt>
      <trkpt lat="43.94524" lon="6.53709">
        <ele>997.5</ele>
        <time>2025-08-04T09:02:56.700Z</time>
      </trkpt>
      <trkpt lat="43.94524" lon="6.53703">
        <ele>998.4</ele>
        <time>2025-08-04T09:03:11.305Z</time>
      </trkpt>
      <trkpt lat="43.94524" lon="6.53696">
        <ele>999.4</ele>
        <time>2025-08-04T09:03:27.693Z</time>
      </trkpt>
      <trkpt lat="43.94524" lon="6.53689">
        <ele>1000.5</ele>
        <time>2025-08-04T09:03:45.416Z</time>
      </trkpt>
      <trkpt lat="43.94523" lon="6.53682">
        <ele>1001.7</ele>
        <time>2025-08-04T09:04:04.628Z</time>
      </trkpt>
      <trkpt lat="43.94523" lon="6.53675">
        <ele>1002.8</ele>
        <time>2025-08-04T09:04:22.351Z</time>
      </trkpt>
      <trkpt lat="43.94522" lon="6.53669">
        <ele>1003.9</ele>
        <time>2025-08-04T09:04:39.938Z</time>
      </trkpt>
      <trkpt lat="43.9452" lon="6.53663">
        <ele>1004.9</ele>
        <time>2025-08-04T09:04:56.142Z</time>
      </trkpt>
      <trkpt lat="43.94519" lon="6.53657">
        <ele>1005.6</ele>
        <time>2025-08-04T09:05:08.489Z</time>
      </trkpt>
      <trkpt lat="43.94517" lon="6.53651">
        <ele>1006.5</ele>
        <time>2025-08-04T09:05:23.415Z</time>
      </trkpt>
      <trkpt lat="43.94517" lon="6.53645">
        <ele>1007</ele>
        <time>2025-08-04T09:05:33.730Z</time>
      </trkpt>
      <trkpt lat="43.94517" lon="6.53639">
        <ele>1007.5</ele>
        <time>2025-08-04T09:05:44.045Z</time>
      </trkpt>
      <trkpt lat="43.94517" lon="6.53632">
        <ele>1008.3</ele>
        <time>2025-08-04T09:05:58.124Z</time>
      </trkpt>
      <trkpt lat="43.94517" lon="6.53626">
        <ele>1009.1</ele>
        <time>2025-08-04T09:06:11.468Z</time>
      </trkpt>
      <trkpt lat="43.94519" lon="6.53617">
        <ele>1009.5</ele>
        <time>2025-08-04T09:06:24.793Z</time>
      </trkpt>
      <trkpt lat="43.9452" lon="6.53609">
        <ele>1010.1</ele>
        <time>2025-08-04T09:06:38.122Z</time>
      </trkpt>
      <trkpt lat="43.94522" lon="6.536">
        <ele>1010.7</ele>
        <time>2025-08-04T09:06:52.842Z</time>
      </trkpt>
      <trkpt lat="43.94523" lon="6.53591">
        <ele>1011.6</ele>
        <time>2025-08-04T09:07:09.761Z</time>
      </trkpt>
      <trkpt lat="43.94525" lon="6.53582">
        <ele>1012.1</ele>
        <time>2025-08-04T09:07:23.760Z</time>
      </trkpt>
      <trkpt lat="43.94526" lon="6.53574">
        <ele>1012.7</ele>
        <time>2025-08-04T09:07:37.088Z</time>
      </trkpt>
      <trkpt lat="43.94528" lon="6.53565">
        <ele>1012.9</ele>
        <time>2025-08-04T09:07:49.195Z</time>
      </trkpt>
      <trkpt lat="43.94529" lon="6.53556">
        <ele>1013.5</ele>
        <time>2025-08-04T09:08:03.576Z</time>
      </trkpt>
      <trkpt lat="43.9453" lon="6.53547">
        <ele>1013.9</ele>
        <time>2025-08-04T09:08:16.547Z</time>
      </trkpt>
      <trkpt lat="43.9453" lon="6.53537">
        <ele>1014.6</ele>
        <time>2025-08-04T09:08:32.655Z</time>
      </trkpt>
      <trkpt lat="43.94527" lon="6.53529">
        <ele>1016.2</ele>
        <time>2025-08-04T09:08:58.234Z</time>
      </trkpt>
      <trkpt lat="43.94523" lon="6.53521">
        <ele>1018.2</ele>
        <time>2025-08-04T09:09:30.656Z</time>
      </trkpt>
      <trkpt lat="43.94524" lon="6.53509">
        <ele>1018</ele>
        <time>2025-08-04T09:09:43.857Z</time>
      </trkpt>
      <trkpt lat="43.94528" lon="6.53506">
        <ele>1016.8</ele>
        <time>2025-08-04T09:09:50.331Z</time>
      </trkpt>
      <trkpt lat="43.94532" lon="6.53503">
        <ele>1016.6</ele>
        <time>2025-08-04T09:09:56.816Z</time>
      </trkpt>
      <trkpt lat="43.94539" lon="6.53502">
        <ele>1016.3</ele>
        <time>2025-08-04T09:10:06.894Z</time>
      </trkpt>
      <trkpt lat="43.94539" lon="6.53502">
        <ele>1016.3</ele>
        <time>2025-08-04T09:10:06.894Z</time>
      </trkpt>
      <trkpt lat="43.94539" lon="6.53502">
        <ele>1016.3</ele>
        <time>2025-08-04T09:10:06.894Z</time>
      </trkpt>
      <trkpt lat="43.94546" lon="6.53501">
        <ele>1016.1</ele>
        <time>2025-08-04T09:10:17.403Z</time>
      </trkpt>
      <trkpt lat="43.94553" lon="6.53499">
        <ele>1016.4</ele>
        <time>2025-08-04T09:10:30.684Z</time>
      </trkpt>
      <trkpt lat="43.94558" lon="6.53497">
        <ele>1016.9</ele>
        <time>2025-08-04T09:10:42.279Z</time>
      </trkpt>
      <trkpt lat="43.94564" lon="6.53494">
        <ele>1017.7</ele>
        <time>2025-08-04T09:10:58.044Z</time>
      </trkpt>
      <trkpt lat="43.94569" lon="6.53492">
        <ele>1018.2</ele>
        <time>2025-08-04T09:11:09.640Z</time>
      </trkpt>
      <trkpt lat="43.94574" lon="6.53489">
        <ele>1018.8</ele>
        <time>2025-08-04T09:11:22.390Z</time>
      </trkpt>
      <trkpt lat="43.94577" lon="6.53482">
        <ele>1020.3</ele>
        <time>2025-08-04T09:11:46.396Z</time>
      </trkpt>
      <trkpt lat="43.9458" lon="6.53476">
        <ele>1021.5</ele>
        <time>2025-08-04T09:12:05.638Z</time>
      </trkpt>
      <trkpt lat="43.94583" lon="6.53469">
        <ele>1022.4</ele>
        <time>2025-08-04T09:12:21.703Z</time>
      </trkpt>
      <trkpt lat="43.94586" lon="6.53463">
        <ele>1022.8</ele>
        <time>2025-08-04T09:12:32.645Z</time>
      </trkpt>
      <trkpt lat="43.94589" lon="6.53456">
        <ele>1023.3</ele>
        <time>2025-08-04T09:12:45.236Z</time>
      </trkpt>
      <trkpt lat="43.94592" lon="6.53449">
        <ele>1023.9</ele>
        <time>2025-08-04T09:12:58.593Z</time>
      </trkpt>
      <trkpt lat="43.94595" lon="6.53443">
        <ele>1024.3</ele>
        <time>2025-08-04T09:13:09.535Z</time>
      </trkpt>
      <trkpt lat="43.94598" lon="6.53436">
        <ele>1024.8</ele>
        <time>2025-08-04T09:13:22.126Z</time>
      </trkpt>
      <trkpt lat="43.94599" lon="6.53425">
        <ele>1025.9</ele>
        <time>2025-08-04T09:13:42.765Z</time>
      </trkpt>
      <trkpt lat="43.946" lon="6.53413">
        <ele>1026.8</ele>
        <time>2025-08-04T09:14:02.653Z</time>
      </trkpt>
      <trkpt lat="43.94594" lon="6.53411">
        <ele>1027.8</ele>
        <time>2025-08-04T09:14:20.106Z</time>
      </trkpt>
      <trkpt lat="43.94592" lon="6.53401">
        <ele>1028.7</ele>
        <time>2025-08-04T09:14:38.251Z</time>
      </trkpt>
      <trkpt lat="43.94591" lon="6.53394">
        <ele>1029.3</ele>
        <time>2025-08-04T09:14:50.565Z</time>
      </trkpt>
      <trkpt lat="43.94591" lon="6.53387">
        <ele>1029.7</ele>
        <time>2025-08-04T09:15:01.169Z</time>
      </trkpt>
      <trkpt lat="43.9459" lon="6.5338">
        <ele>1030.1</ele>
        <time>2025-08-04T09:15:11.925Z</time>
      </trkpt>
      <trkpt lat="43.94589" lon="6.53373">
        <ele>1030.6</ele>
        <time>2025-08-04T09:15:23.424Z</time>
      </trkpt>
      <trkpt lat="43.94588" lon="6.53365">
        <ele>1031</ele>
        <time>2025-08-04T09:15:35.278Z</time>
      </trkpt>
      <trkpt lat="43.94588" lon="6.53358">
        <ele>1031.5</ele>
        <time>2025-08-04T09:15:46.632Z</time>
      </trkpt>
      <trkpt lat="43.94587" lon="6.53351">
        <ele>1032.3</ele>
        <time>2025-08-04T09:16:00.823Z</time>
      </trkpt>
      <trkpt lat="43.94586" lon="6.53344">
        <ele>1033.2</ele>
        <time>2025-08-04T09:16:16.096Z</time>
      </trkpt>
      <trkpt lat="43.94586" lon="6.53337">
        <ele>1034</ele>
        <time>2025-08-04T09:16:30.175Z</time>
      </trkpt>
      <trkpt lat="43.94586" lon="6.5333">
        <ele>1034.7</ele>
        <time>2025-08-04T09:16:43.257Z</time>
      </trkpt>
      <trkpt lat="43.94585" lon="6.53323">
        <ele>1035.7</ele>
        <time>2025-08-04T09:16:59.719Z</time>
      </trkpt>
      <trkpt lat="43.94585" lon="6.53316">
        <ele>1036.4</ele>
        <time>2025-08-04T09:17:12.801Z</time>
      </trkpt>
      <trkpt lat="43.94585" lon="6.53309">
        <ele>1037.1</ele>
        <time>2025-08-04T09:17:25.883Z</time>
      </trkpt>
      <trkpt lat="43.94585" lon="6.53302">
        <ele>1037.6</ele>
        <time>2025-08-04T09:17:37.237Z</time>
      </trkpt>
      <trkpt lat="43.94584" lon="6.53295">
        <ele>1038.2</ele>
        <time>2025-08-04T09:17:49.551Z</time>
      </trkpt>
      <trkpt lat="43.94584" lon="6.53288">
        <ele>1038.4</ele>
        <time>2025-08-04T09:17:58.848Z</time>
      </trkpt>
      <trkpt lat="43.94584" lon="6.53278">
        <ele>1038.8</ele>
        <time>2025-08-04T09:18:12.836Z</time>
      </trkpt>
      <trkpt lat="43.94584" lon="6.53269">
        <ele>1039.4</ele>
        <time>2025-08-04T09:18:27.103Z</time>
      </trkpt>
      <trkpt lat="43.94584" lon="6.53259">
        <ele>1040.2</ele>
        <time>2025-08-04T09:18:44.015Z</time>
      </trkpt>
      <trkpt lat="43.94585" lon="6.53249">
        <ele>1040.6</ele>
        <time>2025-08-04T09:18:58.112Z</time>
      </trkpt>
      <trkpt lat="43.94585" lon="6.53239">
        <ele>1040.9</ele>
        <time>2025-08-04T09:19:11.479Z</time>
      </trkpt>
      <trkpt lat="43.94585" lon="6.5323">
        <ele>1041.2</ele>
        <time>2025-08-04T09:19:23.691Z</time>
      </trkpt>
      <trkpt lat="43.94585" lon="6.5322">
        <ele>1041.7</ele>
        <time>2025-08-04T09:19:38.341Z</time>
      </trkpt>
      <trkpt lat="43.94585" lon="6.5321">
        <ele>1042.3</ele>
        <time>2025-08-04T09:19:53.697Z</time>
      </trkpt>
      <trkpt lat="43.94585" lon="6.53199">
        <ele>1043.1</ele>
        <time>2025-08-04T09:20:11.651Z</time>
      </trkpt>
      <trkpt lat="43.94585" lon="6.53192">
        <ele>1043.6</ele>
        <time>2025-08-04T09:20:23.005Z</time>
      </trkpt>
      <trkpt lat="43.94586" lon="6.53186">
        <ele>1043.6</ele>
        <time>2025-08-04T09:20:30.222Z</time>
      </trkpt>
      <trkpt lat="43.94586" lon="6.53179">
        <ele>1044.2</ele>
        <time>2025-08-04T09:20:42.399Z</time>
      </trkpt>
      <trkpt lat="43.94587" lon="6.53173">
        <ele>1044.2</ele>
        <time>2025-08-04T09:20:49.615Z</time>
      </trkpt>
      <trkpt lat="43.94587" lon="6.53166">
        <ele>1044.7</ele>
        <time>2025-08-04T09:21:00.969Z</time>
      </trkpt>
      <trkpt lat="43.94587" lon="6.53159">
        <ele>1045.2</ele>
        <time>2025-08-04T09:21:12.323Z</time>
      </trkpt>
      <trkpt lat="43.94588" lon="6.53153">
        <ele>1045.3</ele>
        <time>2025-08-04T09:21:20.066Z</time>
      </trkpt>
      <trkpt lat="43.94588" lon="6.53146">
        <ele>1045.8</ele>
        <time>2025-08-04T09:21:31.420Z</time>
      </trkpt>
      <trkpt lat="43.94588" lon="6.53139">
        <ele>1046.3</ele>
        <time>2025-08-04T09:21:42.774Z</time>
      </trkpt>
      <trkpt lat="43.94589" lon="6.53132">
        <ele>1046.4</ele>
        <time>2025-08-04T09:21:51.659Z</time>
      </trkpt>
      <trkpt lat="43.94589" lon="6.53125">
        <ele>1046.9</ele>
        <time>2025-08-04T09:22:03.013Z</time>
      </trkpt>
      <trkpt lat="43.9459" lon="6.53119">
        <ele>1046.9</ele>
        <time>2025-08-04T09:22:10.229Z</time>
      </trkpt>
      <trkpt lat="43.9459" lon="6.53112">
        <ele>1047.3</ele>
        <time>2025-08-04T09:22:20.834Z</time>
      </trkpt>
      <trkpt lat="43.9459" lon="6.53105">
        <ele>1048</ele>
        <time>2025-08-04T09:22:33.916Z</time>
      </trkpt>
      <trkpt lat="43.94591" lon="6.53098">
        <ele>1048.2</ele>
        <time>2025-08-04T09:22:43.371Z</time>
      </trkpt>
      <trkpt lat="43.94591" lon="6.53091">
        <ele>1048.9</ele>
        <time>2025-08-04T09:22:56.453Z</time>
      </trkpt>
      <trkpt lat="43.94591" lon="6.53091">
        <ele>1048.9</ele>
        <time>2025-08-04T09:22:56.453Z</time>
      </trkpt>
      <trkpt lat="43.94591" lon="6.53091">
        <ele>1048.9</ele>
        <time>2025-08-04T09:22:56.453Z</time>
      </trkpt>
      <trkpt lat="43.94592" lon="6.53079">
        <ele>1049.7</ele>
        <time>2025-08-04T09:23:15.562Z</time>
      </trkpt>
      <trkpt lat="43.94593" lon="6.53067">
        <ele>1050.4</ele>
        <time>2025-08-04T09:23:33.932Z</time>
      </trkpt>
      <trkpt lat="43.94593" lon="6.53061">
        <ele>1051</ele>
        <time>2025-08-04T09:23:45.145Z</time>
      </trkpt>
      <trkpt lat="43.94593" lon="6.53054">
        <ele>1051.8</ele>
        <time>2025-08-04T09:23:59.224Z</time>
      </trkpt>
      <trkpt lat="43.94594" lon="6.53042">
        <ele>1053.7</ele>
        <time>2025-08-04T09:24:29.833Z</time>
      </trkpt>
      <trkpt lat="43.94597" lon="6.53037">
        <ele>1053.3</ele>
        <time>2025-08-04T09:24:36.506Z</time>
      </trkpt>
      <trkpt lat="43.946" lon="6.53032">
        <ele>1052.8</ele>
        <time>2025-08-04T09:24:43.179Z</time>
      </trkpt>
      <trkpt lat="43.94603" lon="6.53027">
        <ele>1052.3</ele>
        <time>2025-08-04T09:24:49.853Z</time>
      </trkpt>
      <trkpt lat="43.94606" lon="6.53022">
        <ele>1052.2</ele>
        <time>2025-08-04T09:24:57.000Z</time>
      </trkpt>
      <trkpt lat="43.94612" lon="6.53017">
        <ele>1050.9</ele>
        <time>2025-08-04T09:25:06.965Z</time>
      </trkpt>
      <trkpt lat="43.94617" lon="6.53011">
        <ele>1051.3</ele>
        <time>2025-08-04T09:25:20.015Z</time>
      </trkpt>
      <trkpt lat="43.94623" lon="6.53006">
        <ele>1051.2</ele>
        <time>2025-08-04T09:25:30.917Z</time>
      </trkpt>
      <trkpt lat="43.94628" lon="6.53">
        <ele>1051.7</ele>
        <time>2025-08-04T09:25:44.647Z</time>
      </trkpt>
      <trkpt lat="43.94631" lon="6.52994">
        <ele>1053</ele>
        <time>2025-08-04T09:26:05.431Z</time>
      </trkpt>
      <trkpt lat="43.94633" lon="6.52988">
        <ele>1054.5</ele>
        <time>2025-08-04T09:26:30.365Z</time>
      </trkpt>
      <trkpt lat="43.94636" lon="6.52982">
        <ele>1055.6</ele>
        <time>2025-08-04T09:26:48.203Z</time>
      </trkpt>
      <trkpt lat="43.94638" lon="6.52976">
        <ele>1057</ele>
        <time>2025-08-04T09:27:11.043Z</time>
      </trkpt>
      <trkpt lat="43.94643" lon="6.52973">
        <ele>1056.7</ele>
        <time>2025-08-04T09:27:18.799Z</time>
      </trkpt>
      <trkpt lat="43.94647" lon="6.5297">
        <ele>1056.7</ele>
        <time>2025-08-04T09:27:26.198Z</time>
      </trkpt>
      <trkpt lat="43.94653" lon="6.52966">
        <ele>1056.3</ele>
        <time>2025-08-04T09:27:35.675Z</time>
      </trkpt>
      <trkpt lat="43.94657" lon="6.52964">
        <ele>1055.9</ele>
        <time>2025-08-04T09:27:41.729Z</time>
      </trkpt>
      <trkpt lat="43.94662" lon="6.52962">
        <ele>1055.2</ele>
        <time>2025-08-04T09:27:49.139Z</time>
      </trkpt>
      <trkpt lat="43.94666" lon="6.52959">
        <ele>1055</ele>
        <time>2025-08-04T09:27:55.624Z</time>
      </trkpt>
      <trkpt lat="43.9467" lon="6.52957">
        <ele>1054.5</ele>
        <time>2025-08-04T09:28:01.678Z</time>
      </trkpt>
      <trkpt lat="43.94671" lon="6.5295">
        <ele>1056.1</ele>
        <time>2025-08-04T09:28:28.178Z</time>
      </trkpt>
      <trkpt lat="43.94672" lon="6.52942">
        <ele>1057.5</ele>
        <time>2025-08-04T09:28:50.567Z</time>
      </trkpt>
      <trkpt lat="43.94672" lon="6.52935">
        <ele>1058.2</ele>
        <time>2025-08-04T09:29:03.649Z</time>
      </trkpt>
      <trkpt lat="43.94673" lon="6.52928">
        <ele>1058.6</ele>
        <time>2025-08-04T09:29:14.405Z</time>
      </trkpt>
      <trkpt lat="43.94673" lon="6.52921">
        <ele>1059.3</ele>
        <time>2025-08-04T09:29:27.487Z</time>
      </trkpt>
      <trkpt lat="43.94673" lon="6.52914">
        <ele>1060</ele>
        <time>2025-08-04T09:29:40.569Z</time>
      </trkpt>
      <trkpt lat="43.94675" lon="6.52907">
        <ele>1060.1</ele>
        <time>2025-08-04T09:29:49.915Z</time>
      </trkpt>
      <trkpt lat="43.94678" lon="6.529">
        <ele>1060</ele>
        <time>2025-08-04T09:29:58.978Z</time>
      </trkpt>
      <trkpt lat="43.9468" lon="6.52892">
        <ele>1060.3</ele>
        <time>2025-08-04T09:30:10.579Z</time>
      </trkpt>
      <trkpt lat="43.94682" lon="6.52885">
        <ele>1060.9</ele>
        <time>2025-08-04T09:30:23.294Z</time>
      </trkpt>
      <trkpt lat="43.94685" lon="6.52879">
        <ele>1061.2</ele>
        <time>2025-08-04T09:30:33.562Z</time>
      </trkpt>
      <trkpt lat="43.94689" lon="6.52872">
        <ele>1061.4</ele>
        <time>2025-08-04T09:30:45.107Z</time>
      </trkpt>
      <trkpt lat="43.94692" lon="6.52866">
        <ele>1061.7</ele>
        <time>2025-08-04T09:30:55.375Z</time>
      </trkpt>
      <trkpt lat="43.94695" lon="6.52859">
        <ele>1062.2</ele>
        <time>2025-08-04T09:31:07.966Z</time>
      </trkpt>
      <trkpt lat="43.94695" lon="6.52859">
        <ele>1062.2</ele>
        <time>2025-08-04T09:31:07.966Z</time>
      </trkpt>
      <trkpt lat="43.94695" lon="6.52859">
        <ele>1062.2</ele>
        <time>2025-08-04T09:31:07.966Z</time>
      </trkpt>
      <trkpt lat="43.94696" lon="6.52857">
        <ele>1062.2</ele>
        <time>2025-08-04T09:31:10.820Z</time>
      </trkpt>
      <trkpt lat="43.9469" lon="6.52862">
        <ele>1063.2</ele>
        <time>2025-08-04T09:31:29.252Z</time>
      </trkpt>
      <trkpt lat="43.94684" lon="6.52867">
        <ele>1064.1</ele>
        <time>2025-08-04T09:31:46.749Z</time>
      </trkpt>
      <trkpt lat="43.94678" lon="6.52872">
        <ele>1065</ele>
        <time>2025-08-04T09:32:04.246Z</time>
      </trkpt>
      <trkpt lat="43.94673" lon="6.52877">
        <ele>1065.5</ele>
        <time>2025-08-04T09:32:17.289Z</time>
      </trkpt>
      <trkpt lat="43.94667" lon="6.52882">
        <ele>1066.4</ele>
        <time>2025-08-04T09:32:34.786Z</time>
      </trkpt>
      <trkpt lat="43.94661" lon="6.52887">
        <ele>1067.4</ele>
        <time>2025-08-04T09:32:53.219Z</time>
      </trkpt>
      <trkpt lat="43.94655" lon="6.52892">
        <ele>1068.8</ele>
        <time>2025-08-04T09:33:16.119Z</time>
      </trkpt>
      <trkpt lat="43.94649" lon="6.52897">
        <ele>1070.3</ele>
        <time>2025-08-04T09:33:40.348Z</time>
      </trkpt>
      <trkpt lat="43.94645" lon="6.52903">
        <ele>1070.9</ele>
        <time>2025-08-04T09:33:53.737Z</time>
      </trkpt>
      <trkpt lat="43.94641" lon="6.52908">
        <ele>1071.5</ele>
        <time>2025-08-04T09:34:06.394Z</time>
      </trkpt>
      <trkpt lat="43.94638" lon="6.52918">
        <ele>1071.1</ele>
        <time>2025-08-04T09:34:17.502Z</time>
      </trkpt>
      <trkpt lat="43.94635" lon="6.52927">
        <ele>1070.6</ele>
        <time>2025-08-04T09:34:27.670Z</time>
      </trkpt>
      <trkpt lat="43.9463" lon="6.52933">
        <ele>1071</ele>
        <time>2025-08-04T09:34:40.721Z</time>
      </trkpt>
      <trkpt lat="43.94625" lon="6.52938">
        <ele>1071.5</ele>
        <time>2025-08-04T09:34:53.763Z</time>
      </trkpt>
      <trkpt lat="43.9462" lon="6.52938">
        <ele>1072.8</ele>
        <time>2025-08-04T09:35:14.589Z</time>
      </trkpt>
      <trkpt lat="43.94615" lon="6.52939">
        <ele>1074</ele>
        <time>2025-08-04T09:35:33.785Z</time>
      </trkpt>
      <trkpt lat="43.9461" lon="6.52939">
        <ele>1075.3</ele>
        <time>2025-08-04T09:35:54.610Z</time>
      </trkpt>
      <trkpt lat="43.94605" lon="6.52939">
        <ele>1076.5</ele>
        <time>2025-08-04T09:36:13.800Z</time>
      </trkpt>
      <trkpt lat="43.94597" lon="6.52941">
        <ele>1078.2</ele>
        <time>2025-08-04T09:36:41.368Z</time>
      </trkpt>
      <trkpt lat="43.94589" lon="6.52943">
        <ele>1079.8</ele>
        <time>2025-08-04T09:37:07.637Z</time>
      </trkpt>
      <trkpt lat="43.94585" lon="6.52946">
        <ele>1080.2</ele>
        <time>2025-08-04T09:37:17.488Z</time>
      </trkpt>
      <trkpt lat="43.94581" lon="6.52948">
        <ele>1080.6</ele>
        <time>2025-08-04T09:37:26.896Z</time>
      </trkpt>
      <trkpt lat="43.94577" lon="6.52951">
        <ele>1080.8</ele>
        <time>2025-08-04T09:37:35.400Z</time>
      </trkpt>
      <trkpt lat="43.94573" lon="6.52954">
        <ele>1081.1</ele>
        <time>2025-08-04T09:37:44.543Z</time>
      </trkpt>
      <trkpt lat="43.94568" lon="6.52956">
        <ele>1081.9</ele>
        <time>2025-08-04T09:37:58.810Z</time>
      </trkpt>
      <trkpt lat="43.94564" lon="6.52959">
        <ele>1082.2</ele>
        <time>2025-08-04T09:38:07.953Z</time>
      </trkpt>
      <trkpt lat="43.9456" lon="6.52961">
        <ele>1082.9</ele>
        <time>2025-08-04T09:38:20.096Z</time>
      </trkpt>
      <trkpt lat="43.94556" lon="6.52964">
        <ele>1083.4</ele>
        <time>2025-08-04T09:38:30.732Z</time>
      </trkpt>
      <trkpt lat="43.9455" lon="6.52965">
        <ele>1084.4</ele>
        <time>2025-08-04T09:38:48.047Z</time>
      </trkpt>
      <trkpt lat="43.94543" lon="6.52967">
        <ele>1085.3</ele>
        <time>2025-08-04T09:39:05.745Z</time>
      </trkpt>
      <trkpt lat="43.94537" lon="6.52968">
        <ele>1086.2</ele>
        <time>2025-08-04T09:39:22.021Z</time>
      </trkpt>
      <trkpt lat="43.9453" lon="6.52969">
        <ele>1087.3</ele>
        <time>2025-08-04T09:39:41.502Z</time>
      </trkpt>
      <trkpt lat="43.94525" lon="6.52972">
        <ele>1087.5</ele>
        <time>2025-08-04T09:39:51.453Z</time>
      </trkpt>
      <trkpt lat="43.94521" lon="6.52974">
        <ele>1088</ele>
        <time>2025-08-04T09:40:01.672Z</time>
      </trkpt>
      <trkpt lat="43.94516" lon="6.52977">
        <ele>1088.5</ele>
        <time>2025-08-04T09:40:13.631Z</time>
      </trkpt>
      <trkpt lat="43.94511" lon="6.52979">
        <ele>1089.2</ele>
        <time>2025-08-04T09:40:26.924Z</time>
      </trkpt>
      <trkpt lat="43.94506" lon="6.52986">
        <ele>1089.3</ele>
        <time>2025-08-04T09:40:38.995Z</time>
      </trkpt>
      <trkpt lat="43.94501" lon="6.52993">
        <ele>1089.5</ele>
        <time>2025-08-04T09:40:51.615Z</time>
      </trkpt>
      <trkpt lat="43.94495" lon="6.52999">
        <ele>1090.2</ele>
        <time>2025-08-04T09:41:08.011Z</time>
      </trkpt>
      <trkpt lat="43.9449" lon="6.53006">
        <ele>1090.4</ele>
        <time>2025-08-04T09:41:20.631Z</time>
      </trkpt>
      <trkpt lat="43.94486" lon="6.53009">
        <ele>1090.9</ele>
        <time>2025-08-04T09:41:31.267Z</time>
      </trkpt>
      <trkpt lat="43.94481" lon="6.53012">
        <ele>1091.5</ele>
        <time>2025-08-04T09:41:44.017Z</time>
      </trkpt>
      <trkpt lat="43.94477" lon="6.53015">
        <ele>1091.9</ele>
        <time>2025-08-04T09:41:53.869Z</time>
      </trkpt>
      <trkpt lat="43.94473" lon="6.53019">
        <ele>1092.1</ele>
        <time>2025-08-04T09:42:02.987Z</time>
      </trkpt>
      <trkpt lat="43.94468" lon="6.53022">
        <ele>1092.4</ele>
        <time>2025-08-04T09:42:13.552Z</time>
      </trkpt>
      <trkpt lat="43.94464" lon="6.53025">
        <ele>1092.7</ele>
        <time>2025-08-04T09:42:22.695Z</time>
      </trkpt>
      <trkpt lat="43.94459" lon="6.53028">
        <ele>1093.4</ele>
        <time>2025-08-04T09:42:36.310Z</time>
      </trkpt>
      <trkpt lat="43.94455" lon="6.53031">
        <ele>1093.9</ele>
        <time>2025-08-04T09:42:46.946Z</time>
      </trkpt>
      <trkpt lat="43.94452" lon="6.53035">
        <ele>1094.3</ele>
        <time>2025-08-04T09:42:56.216Z</time>
      </trkpt>
      <trkpt lat="43.94448" lon="6.5304">
        <ele>1094.9</ele>
        <time>2025-08-04T09:43:08.874Z</time>
      </trkpt>
      <trkpt lat="43.94445" lon="6.53044">
        <ele>1095.3</ele>
        <time>2025-08-04T09:43:18.145Z</time>
      </trkpt>
      <trkpt lat="43.94441" lon="6.53048">
        <ele>1095.4</ele>
        <time>2025-08-04T09:43:26.690Z</time>
      </trkpt>
      <trkpt lat="43.94438" lon="6.53053">
        <ele>1095.6</ele>
        <time>2025-08-04T09:43:35.419Z</time>
      </trkpt>
      <trkpt lat="43.94434" lon="6.53057">
        <ele>1096.1</ele>
        <time>2025-08-04T09:43:46.609Z</time>
      </trkpt>
      <trkpt lat="43.94431" lon="6.53061">
        <ele>1096.4</ele>
        <time>2025-08-04T09:43:55.148Z</time>
      </trkpt>
      <trkpt lat="43.94427" lon="6.53066">
        <ele>1097.1</ele>
        <time>2025-08-04T09:44:08.676Z</time>
      </trkpt>
      <trkpt lat="43.94424" lon="6.5307">
        <ele>1097.7</ele>
        <time>2025-08-04T09:44:19.686Z</time>
      </trkpt>
      <trkpt lat="43.9442" lon="6.53074">
        <ele>1098.6</ele>
        <time>2025-08-04T09:44:34.760Z</time>
      </trkpt>
      <trkpt lat="43.94417" lon="6.53078">
        <ele>1099.5</ele>
        <time>2025-08-04T09:44:49.277Z</time>
      </trkpt>
      <trkpt lat="43.94413" lon="6.53083">
        <ele>1100</ele>
        <time>2025-08-04T09:45:01.138Z</time>
      </trkpt>
      <trkpt lat="43.9441" lon="6.53087">
        <ele>1099.8</ele>
        <time>2025-08-04T09:45:07.060Z</time>
      </trkpt>
      <trkpt lat="43.94406" lon="6.53091">
        <ele>1099.8</ele>
        <time>2025-08-04T09:45:15.082Z</time>
      </trkpt>
      <trkpt lat="43.94403" lon="6.53096">
        <ele>1100</ele>
        <time>2025-08-04T09:45:23.811Z</time>
      </trkpt>
      <trkpt lat="43.94399" lon="6.531">
        <ele>1100.5</ele>
        <time>2025-08-04T09:45:35.002Z</time>
      </trkpt>
      <trkpt lat="43.94396" lon="6.53104">
        <ele>1101.1</ele>
        <time>2025-08-04T09:45:46.012Z</time>
      </trkpt>
      <trkpt lat="43.94392" lon="6.53109">
        <ele>1102.2</ele>
        <time>2025-08-04T09:46:03.926Z</time>
      </trkpt>
      <trkpt lat="43.94389" lon="6.53113">
        <ele>1102.9</ele>
        <time>2025-08-04T09:46:15.970Z</time>
      </trkpt>
      <trkpt lat="43.94385" lon="6.53117">
        <ele>1102.9</ele>
        <time>2025-08-04T09:46:23.992Z</time>
      </trkpt>
      <trkpt lat="43.94381" lon="6.53123">
        <ele>1103.1</ele>
        <time>2025-08-04T09:46:34.654Z</time>
      </trkpt>
      <trkpt lat="43.94377" lon="6.5313">
        <ele>1103.5</ele>
        <time>2025-08-04T09:46:47.432Z</time>
      </trkpt>
      <trkpt lat="43.94372" lon="6.53136">
        <ele>1104.3</ele>
        <time>2025-08-04T09:47:03.512Z</time>
      </trkpt>
      <trkpt lat="43.94368" lon="6.53142">
        <ele>1104.8</ele>
        <time>2025-08-04T09:47:16.137Z</time>
      </trkpt>
      <trkpt lat="43.94364" lon="6.53148">
        <ele>1105.2</ele>
        <time>2025-08-04T09:47:28.057Z</time>
      </trkpt>
      <trkpt lat="43.9436" lon="6.53155">
        <ele>1105.4</ele>
        <time>2025-08-04T09:47:39.602Z</time>
      </trkpt>
      <trkpt lat="43.94355" lon="6.53161">
        <ele>1105.3</ele>
        <time>2025-08-04T09:47:49.871Z</time>
      </trkpt>
      <trkpt lat="43.94351" lon="6.53167">
        <ele>1105.7</ele>
        <time>2025-08-04T09:48:01.790Z</time>
      </trkpt>
      <trkpt lat="43.94349" lon="6.53173">
        <ele>1105.7</ele>
        <time>2025-08-04T09:48:09.538Z</time>
      </trkpt>
      <trkpt lat="43.94346" lon="6.53179">
        <ele>1106</ele>
        <time>2025-08-04T09:48:19.806Z</time>
      </trkpt>
      <trkpt lat="43.9434" lon="6.53179">
        <ele>1106.9</ele>
        <time>2025-08-04T09:48:36.031Z</time>
      </trkpt>
      <trkpt lat="43.94334" lon="6.53179">
        <ele>1107.8</ele>
        <time>2025-08-04T09:48:52.255Z</time>
      </trkpt>
      <trkpt lat="43.94334" lon="6.53184">
        <ele>1108.1</ele>
        <time>2025-08-04T09:48:59.933Z</time>
      </trkpt>
      <trkpt lat="43.94331" lon="6.53186">
        <ele>1108.1</ele>
        <time>2025-08-04T09:49:05.349Z</time>
      </trkpt>
      <trkpt lat="43.94325" lon="6.53195">
        <ele>1108.4</ele>
        <time>2025-08-04T09:49:21.342Z</time>
      </trkpt>
      <trkpt lat="43.9432" lon="6.53205">
        <ele>1108.6</ele>
        <time>2025-08-04T09:49:36.662Z</time>
      </trkpt>
      <trkpt lat="43.94313" lon="6.53212">
        <ele>1109.5</ele>
        <time>2025-08-04T09:49:56.446Z</time>
      </trkpt>
      <trkpt lat="43.94307" lon="6.53221">
        <ele>1111.5</ele>
        <time>2025-08-04T09:50:28.538Z</time>
      </trkpt>
      <trkpt lat="43.94304" lon="6.53227">
        <ele>1112</ele>
        <time>2025-08-04T09:50:40.217Z</time>
      </trkpt>
      <trkpt lat="43.94301" lon="6.53232">
        <ele>1112.2</ele>
        <time>2025-08-04T09:50:48.946Z</time>
      </trkpt>
      <trkpt lat="43.94297" lon="6.53239">
        <ele>1112.9</ele>
        <time>2025-08-04T09:51:03.937Z</time>
      </trkpt>
      <trkpt lat="43.94294" lon="6.53243">
        <ele>1113.6</ele>
        <time>2025-08-04T09:51:15.981Z</time>
      </trkpt>
      <trkpt lat="43.9429" lon="6.53247">
        <ele>1114.6</ele>
        <time>2025-08-04T09:51:32.291Z</time>
      </trkpt>
      <trkpt lat="43.94284" lon="6.53251">
        <ele>1116.2</ele>
        <time>2025-08-04T09:51:57.876Z</time>
      </trkpt>
      <trkpt lat="43.94279" lon="6.53259">
        <ele>1117.7</ele>
        <time>2025-08-04T09:52:22.508Z</time>
      </trkpt>
      <trkpt lat="43.94275" lon="6.53265">
        <ele>1118.3</ele>
        <time>2025-08-04T09:52:35.897Z</time>
      </trkpt>
      <trkpt lat="43.9427" lon="6.53272">
        <ele>1119</ele>
        <time>2025-08-04T09:52:51.857Z</time>
      </trkpt>
      <trkpt lat="43.94264" lon="6.5328">
        <ele>1120.1</ele>
        <time>2025-08-04T09:53:12.931Z</time>
      </trkpt>
      <trkpt lat="43.9426" lon="6.53285">
        <ele>1120.5</ele>
        <time>2025-08-04T09:53:24.062Z</time>
      </trkpt>
      <trkpt lat="43.94255" lon="6.53291">
        <ele>1121.4</ele>
        <time>2025-08-04T09:53:41.047Z</time>
      </trkpt>
      <trkpt lat="43.94253" lon="6.53297">
        <ele>1122.3</ele>
        <time>2025-08-04T09:53:55.973Z</time>
      </trkpt>
      <trkpt lat="43.9425" lon="6.53302">
        <ele>1123.5</ele>
        <time>2025-08-04T09:54:15.178Z</time>
      </trkpt>
      <trkpt lat="43.94245" lon="6.53311">
        <ele>1123.8</ele>
        <time>2025-08-04T09:54:30.129Z</time>
      </trkpt>
      <trkpt lat="43.94239" lon="6.53319">
        <ele>1124.3</ele>
        <time>2025-08-04T09:54:46.534Z</time>
      </trkpt>
      <trkpt lat="43.94233" lon="6.53328">
        <ele>1125.4</ele>
        <time>2025-08-04T09:55:08.297Z</time>
      </trkpt>
      <trkpt lat="43.94227" lon="6.53337">
        <ele>1126.8</ele>
        <time>2025-08-04T09:55:32.948Z</time>
      </trkpt>
      <trkpt lat="43.94224" lon="6.53346">
        <ele>1127.7</ele>
        <time>2025-08-04T09:55:50.639Z</time>
      </trkpt>
      <trkpt lat="43.94221" lon="6.53352">
        <ele>1128</ele>
        <time>2025-08-04T09:56:00.907Z</time>
      </trkpt>
      <trkpt lat="43.94218" lon="6.53357">
        <ele>1127.7</ele>
        <time>2025-08-04T09:56:07.581Z</time>
      </trkpt>
      <trkpt lat="43.94215" lon="6.53362">
        <ele>1127.4</ele>
        <time>2025-08-04T09:56:14.255Z</time>
      </trkpt>
      <trkpt lat="43.94212" lon="6.53367">
        <ele>1126.7</ele>
        <time>2025-08-04T09:56:20.928Z</time>
      </trkpt>
      <trkpt lat="43.94209" lon="6.5337">
        <ele>1126.1</ele>
        <time>2025-08-04T09:56:26.193Z</time>
      </trkpt>
      <trkpt lat="43.94206" lon="6.53376">
        <ele>1125.7</ele>
        <time>2025-08-04T09:56:33.683Z</time>
      </trkpt>
      <trkpt lat="43.94205" lon="6.53384">
        <ele>1125.7</ele>
        <time>2025-08-04T09:56:43.198Z</time>
      </trkpt>
      <trkpt lat="43.94206" lon="6.53381">
        <ele>1125.7</ele>
        <time>2025-08-04T09:56:47.072Z</time>
      </trkpt>
      <trkpt lat="43.94208" lon="6.53379">
        <ele>1126</ele>
        <time>2025-08-04T09:56:53.084Z</time>
      </trkpt>
      <trkpt lat="43.94208" lon="6.53372">
        <ele>1125.9</ele>
        <time>2025-08-04T09:57:00.806Z</time>
      </trkpt>
      <trkpt lat="43.9421" lon="6.5337">
        <ele>1126.3</ele>
        <time>2025-08-04T09:57:07.784Z</time>
      </trkpt>
      <trkpt lat="43.94216" lon="6.53362">
        <ele>1127.6</ele>
        <time>2025-08-04T09:57:30.808Z</time>
      </trkpt>
      <trkpt lat="43.94219" lon="6.53357">
        <ele>1127.9</ele>
        <time>2025-08-04T09:57:40.171Z</time>
      </trkpt>
      <trkpt lat="43.94222" lon="6.53352">
        <ele>1128.3</ele>
        <time>2025-08-04T09:57:50.235Z</time>
      </trkpt>
      <trkpt lat="43.94226" lon="6.53342">
        <ele>1127.2</ele>
        <time>2025-08-04T09:58:01.965Z</time>
      </trkpt>
      <trkpt lat="43.94232" lon="6.53333">
        <ele>1126.2</ele>
        <time>2025-08-04T09:58:14.541Z</time>
      </trkpt>
      <trkpt lat="43.94237" lon="6.53323">
        <ele>1124.7</ele>
        <time>2025-08-04T09:58:27.025Z</time>
      </trkpt>
      <trkpt lat="43.94241" lon="6.53318">
        <ele>1124.2</ele>
        <time>2025-08-04T09:58:34.688Z</time>
      </trkpt>
      <trkpt lat="43.94244" lon="6.53313">
        <ele>1123.9</ele>
        <time>2025-08-04T09:58:41.362Z</time>
      </trkpt>
      <trkpt lat="43.94248" lon="6.53308">
        <ele>1123.9</ele>
        <time>2025-08-04T09:58:50.120Z</time>
      </trkpt>
      <trkpt lat="43.94251" lon="6.53303">
        <ele>1123.4</ele>
        <time>2025-08-04T09:58:56.794Z</time>
      </trkpt>
      <trkpt lat="43.94254" lon="6.53298">
        <ele>1122.3</ele>
        <time>2025-08-04T09:59:03.467Z</time>
      </trkpt>
      <trkpt lat="43.94256" lon="6.53292">
        <ele>1121.4</ele>
        <time>2025-08-04T09:59:10.247Z</time>
      </trkpt>
      <trkpt lat="43.9426" lon="6.53288">
        <ele>1120.7</ele>
        <time>2025-08-04T09:59:17.266Z</time>
      </trkpt>
      <trkpt lat="43.94263" lon="6.53284">
        <ele>1120.3</ele>
        <time>2025-08-04T09:59:23.188Z</time>
      </trkpt>
      <trkpt lat="43.94267" lon="6.5328">
        <ele>1120</ele>
        <time>2025-08-04T09:59:30.208Z</time>
      </trkpt>
      <trkpt lat="43.9427" lon="6.53276">
        <ele>1119.7</ele>
        <time>2025-08-04T09:59:36.130Z</time>
      </trkpt>
      <trkpt lat="43.94275" lon="6.53266">
        <ele>1118.5</ele>
        <time>2025-08-04T09:59:48.613Z</time>
      </trkpt>
      <trkpt lat="43.94277" lon="6.53263">
        <ele>1118.3</ele>
        <time>2025-08-04T09:59:52.805Z</time>
      </trkpt>
      <trkpt lat="43.94283" lon="6.53255">
        <ele>1116.7</ele>
        <time>2025-08-04T10:00:04.650Z</time>
      </trkpt>
      <trkpt lat="43.9429" lon="6.53248">
        <ele>1114.8</ele>
        <time>2025-08-04T10:00:16.933Z</time>
      </trkpt>
      <trkpt lat="43.94296" lon="6.5324">
        <ele>1113</ele>
        <time>2025-08-04T10:00:28.778Z</time>
      </trkpt>
      <trkpt lat="43.943" lon="6.53236">
        <ele>1112.5</ele>
        <time>2025-08-04T10:00:35.797Z</time>
      </trkpt>
      <trkpt lat="43.94303" lon="6.53232">
        <ele>1112.2</ele>
        <time>2025-08-04T10:00:41.719Z</time>
      </trkpt>
      <trkpt lat="43.94306" lon="6.53227">
        <ele>1112.1</ele>
        <time>2025-08-04T10:00:48.867Z</time>
      </trkpt>
      <trkpt lat="43.94309" lon="6.53222">
        <ele>1111.3</ele>
        <time>2025-08-04T10:00:55.541Z</time>
      </trkpt>
      <trkpt lat="43.94312" lon="6.53217">
        <ele>1110.2</ele>
        <time>2025-08-04T10:01:02.214Z</time>
      </trkpt>
      <trkpt lat="43.94315" lon="6.53211">
        <ele>1109.2</ele>
        <time>2025-08-04T10:01:09.704Z</time>
      </trkpt>
      <trkpt lat="43.94321" lon="6.53203">
        <ele>1108.5</ele>
        <time>2025-08-04T10:01:21.549Z</time>
      </trkpt>
      <trkpt lat="43.94324" lon="6.53198">
        <ele>1108.4</ele>
        <time>2025-08-04T10:01:28.697Z</time>
      </trkpt>
      <trkpt lat="43.94327" lon="6.53192">
        <ele>1108.2</ele>
        <time>2025-08-04T10:01:36.332Z</time>
      </trkpt>
      <trkpt lat="43.94329" lon="6.53188">
        <ele>1108</ele>
        <time>2025-08-04T10:01:41.325Z</time>
      </trkpt>
      <trkpt lat="43.94331" lon="6.53184">
        <ele>1107.9</ele>
        <time>2025-08-04T10:01:46.561Z</time>
      </trkpt>
      <trkpt lat="43.94334" lon="6.53177">
        <ele>1107.7</ele>
        <time>2025-08-04T10:01:55.174Z</time>
      </trkpt>
      <trkpt lat="43.94337" lon="6.53171">
        <ele>1106.9</ele>
        <time>2025-08-04T10:02:02.664Z</time>
      </trkpt>
      <trkpt lat="43.9434" lon="6.53164">
        <ele>1106.1</ele>
        <time>2025-08-04T10:02:11.017Z</time>
      </trkpt>
      <trkpt lat="43.94344" lon="6.5316">
        <ele>1105.4</ele>
        <time>2025-08-04T10:02:18.036Z</time>
      </trkpt>
      <trkpt lat="43.94349" lon="6.53154">
        <ele>1104.9</ele>
        <time>2025-08-04T10:02:27.446Z</time>
      </trkpt>
      <trkpt lat="43.94353" lon="6.53149">
        <ele>1104.9</ele>
        <time>2025-08-04T10:02:36.204Z</time>
      </trkpt>
      <trkpt lat="43.94356" lon="6.53144">
        <ele>1105.1</ele>
        <time>2025-08-04T10:02:44.933Z</time>
      </trkpt>
      <trkpt lat="43.94359" lon="6.53138">
        <ele>1105.5</ele>
        <time>2025-08-04T10:02:55.876Z</time>
      </trkpt>
      <trkpt lat="43.94362" lon="6.53132">
        <ele>1105.2</ele>
        <time>2025-08-04T10:03:03.366Z</time>
      </trkpt>
      <trkpt lat="43.94366" lon="6.53126">
        <ele>1104.2</ele>
        <time>2025-08-04T10:03:11.750Z</time>
      </trkpt>
      <trkpt lat="43.94369" lon="6.5312">
        <ele>1103.6</ele>
        <time>2025-08-04T10:03:19.240Z</time>
      </trkpt>
      <trkpt lat="43.94373" lon="6.53116">
        <ele>1103.2</ele>
        <time>2025-08-04T10:03:26.259Z</time>
      </trkpt>
      <trkpt lat="43.94376" lon="6.53111">
        <ele>1103</ele>
        <time>2025-08-04T10:03:32.969Z</time>
      </trkpt>
      <trkpt lat="43.94381" lon="6.53108">
        <ele>1102.5</ele>
        <time>2025-08-04T10:03:40.726Z</time>
      </trkpt>
      <trkpt lat="43.94386" lon="6.53104">
        <ele>1102.1</ele>
        <time>2025-08-04T10:03:48.943Z</time>
      </trkpt>
      <trkpt lat="43.94391" lon="6.53101">
        <ele>1101.6</ele>
        <time>2025-08-04T10:03:56.699Z</time>
      </trkpt>
      <trkpt lat="43.94395" lon="6.53097">
        <ele>1100.8</ele>
        <time>2025-08-04T10:04:03.718Z</time>
      </trkpt>
      <trkpt lat="43.94399" lon="6.53092">
        <ele>1100.3</ele>
        <time>2025-08-04T10:04:11.382Z</time>
      </trkpt>
      <trkpt lat="43.94402" lon="6.53087">
        <ele>1100</ele>
        <time>2025-08-04T10:04:18.055Z</time>
      </trkpt>
      <trkpt lat="43.94407" lon="6.53083">
        <ele>1099.9</ele>
        <time>2025-08-04T10:04:26.963Z</time>
      </trkpt>
      <trkpt lat="43.94411" lon="6.53078">
        <ele>1099.3</ele>
        <time>2025-08-04T10:04:34.627Z</time>
      </trkpt>
      <trkpt lat="43.94415" lon="6.53073">
        <ele>1099.1</ele>
        <time>2025-08-04T10:04:42.459Z</time>
      </trkpt>
      <trkpt lat="43.94419" lon="6.53067">
        <ele>1098.4</ele>
        <time>2025-08-04T10:04:50.843Z</time>
      </trkpt>
      <trkpt lat="43.94422" lon="6.53062">
        <ele>1097.7</ele>
        <time>2025-08-04T10:04:57.516Z</time>
      </trkpt>
      <trkpt lat="43.94424" lon="6.53056">
        <ele>1097.2</ele>
        <time>2025-08-04T10:05:04.295Z</time>
      </trkpt>
      <trkpt lat="43.94427" lon="6.53051">
        <ele>1096.3</ele>
        <time>2025-08-04T10:05:10.969Z</time>
      </trkpt>
      <trkpt lat="43.9443" lon="6.53046">
        <ele>1095.7</ele>
        <time>2025-08-04T10:05:17.642Z</time>
      </trkpt>
      <trkpt lat="43.94434" lon="6.5304">
        <ele>1095.2</ele>
        <time>2025-08-04T10:05:26.026Z</time>
      </trkpt>
      <trkpt lat="43.94437" lon="6.53034">
        <ele>1095.1</ele>
        <time>2025-08-04T10:05:34.105Z</time>
      </trkpt>
      <trkpt lat="43.94441" lon="6.53029">
        <ele>1095.5</ele>
        <time>2025-08-04T10:05:45.237Z</time>
      </trkpt>
      <trkpt lat="43.94444" lon="6.53024">
        <ele>1095.8</ele>
        <time>2025-08-04T10:05:54.600Z</time>
      </trkpt>
      <trkpt lat="43.94447" lon="6.53019">
        <ele>1095.4</ele>
        <time>2025-08-04T10:06:01.273Z</time>
      </trkpt>
      <trkpt lat="43.94449" lon="6.53013">
        <ele>1095.1</ele>
        <time>2025-08-04T10:06:08.053Z</time>
      </trkpt>
      <trkpt lat="43.94453" lon="6.53008">
        <ele>1094.8</ele>
        <time>2025-08-04T10:06:15.716Z</time>
      </trkpt>
      <trkpt lat="43.94456" lon="6.53002">
        <ele>1094.9</ele>
        <time>2025-08-04T10:06:24.798Z</time>
      </trkpt>
      <trkpt lat="43.94459" lon="6.52997">
        <ele>1094.8</ele>
        <time>2025-08-04T10:06:31.946Z</time>
      </trkpt>
      <trkpt lat="43.94462" lon="6.52992">
        <ele>1094.7</ele>
        <time>2025-08-04T10:06:39.094Z</time>
      </trkpt>
      <trkpt lat="43.94466" lon="6.52986">
        <ele>1094.8</ele>
        <time>2025-08-04T10:06:49.196Z</time>
      </trkpt>
      <trkpt lat="43.94469" lon="6.5298">
        <ele>1095.2</ele>
        <time>2025-08-04T10:07:00.139Z</time>
      </trkpt>
      <trkpt lat="43.94473" lon="6.52975">
        <ele>1095.8</ele>
        <time>2025-08-04T10:07:12.797Z</time>
      </trkpt>
      <trkpt lat="43.94477" lon="6.52969">
        <ele>1095</ele>
        <time>2025-08-04T10:07:21.181Z</time>
      </trkpt>
      <trkpt lat="43.94481" lon="6.52965">
        <ele>1094.4</ele>
        <time>2025-08-04T10:07:28.200Z</time>
      </trkpt>
      <trkpt lat="43.94484" lon="6.52961">
        <ele>1094.1</ele>
        <time>2025-08-04T10:07:34.122Z</time>
      </trkpt>
      <trkpt lat="43.94488" lon="6.52957">
        <ele>1094</ele>
        <time>2025-08-04T10:07:41.664Z</time>
      </trkpt>
      <trkpt lat="43.94492" lon="6.52952">
        <ele>1094.4</ele>
        <time>2025-08-04T10:07:52.795Z</time>
      </trkpt>
      <trkpt lat="43.94496" lon="6.52948">
        <ele>1095.1</ele>
        <time>2025-08-04T10:08:05.737Z</time>
      </trkpt>
      <trkpt lat="43.94499" lon="6.52943">
        <ele>1095.7</ele>
        <time>2025-08-04T10:08:17.430Z</time>
      </trkpt>
      <trkpt lat="43.94503" lon="6.52937">
        <ele>1095.3</ele>
        <time>2025-08-04T10:08:25.814Z</time>
      </trkpt>
      <trkpt lat="43.94509" lon="6.5293">
        <ele>1095.2</ele>
        <time>2025-08-04T10:08:38.080Z</time>
      </trkpt>
      <trkpt lat="43.94514" lon="6.52921">
        <ele>1095.8</ele>
        <time>2025-08-04T10:08:54.951Z</time>
      </trkpt>
      <trkpt lat="43.94518" lon="6.52917">
        <ele>1096.6</ele>
        <time>2025-08-04T10:09:08.906Z</time>
      </trkpt>
      <trkpt lat="43.94521" lon="6.52913">
        <ele>1096.9</ele>
        <time>2025-08-04T10:09:17.445Z</time>
      </trkpt>
      <trkpt lat="43.94525" lon="6.52903">
        <ele>1097.7</ele>
        <time>2025-08-04T10:09:35.866Z</time>
      </trkpt>
      <trkpt lat="43.94528" lon="6.52898">
        <ele>1098.6</ele>
        <time>2025-08-04T10:09:50.731Z</time>
      </trkpt>
      <trkpt lat="43.9453" lon="6.52892">
        <ele>1098.7</ele>
        <time>2025-08-04T10:09:59.003Z</time>
      </trkpt>
      <trkpt lat="43.94536" lon="6.52883">
        <ele>1098.1</ele>
        <time>2025-08-04T10:10:11.579Z</time>
      </trkpt>
      <trkpt lat="43.94539" lon="6.52878">
        <ele>1097.9</ele>
        <time>2025-08-04T10:10:18.289Z</time>
      </trkpt>
      <trkpt lat="43.94542" lon="6.52872">
        <ele>1098</ele>
        <time>2025-08-04T10:10:27.372Z</time>
      </trkpt>
      <trkpt lat="43.94548" lon="6.52865">
        <ele>1099.1</ele>
        <time>2025-08-04T10:10:47.822Z</time>
      </trkpt>
      <trkpt lat="43.94551" lon="6.5286">
        <ele>1099.9</ele>
        <time>2025-08-04T10:11:01.518Z</time>
      </trkpt>
      <trkpt lat="43.94554" lon="6.52855">
        <ele>1100.2</ele>
        <time>2025-08-04T10:11:10.881Z</time>
      </trkpt>
      <trkpt lat="43.94558" lon="6.5285">
        <ele>1100</ele>
        <time>2025-08-04T10:11:18.713Z</time>
      </trkpt>
      <trkpt lat="43.94562" lon="6.52845">
        <ele>1099.6</ele>
        <time>2025-08-04T10:11:26.376Z</time>
      </trkpt>
      <trkpt lat="43.94566" lon="6.52841">
        <ele>1099.4</ele>
        <time>2025-08-04T10:11:33.478Z</time>
      </trkpt>
      <trkpt lat="43.94569" lon="6.52837">
        <ele>1099.4</ele>
        <time>2025-08-04T10:11:40.246Z</time>
      </trkpt>
      <trkpt lat="43.94573" lon="6.52833">
        <ele>1099.6</ele>
        <time>2025-08-04T10:11:49.364Z</time>
      </trkpt>
      <trkpt lat="43.94577" lon="6.52829">
        <ele>1099.4</ele>
        <time>2025-08-04T10:11:56.466Z</time>
      </trkpt>
      <trkpt lat="43.94581" lon="6.52825">
        <ele>1099.4</ele>
        <time>2025-08-04T10:12:04.488Z</time>
      </trkpt>
      <trkpt lat="43.94585" lon="6.52821">
        <ele>1099.2</ele>
        <time>2025-08-04T10:12:11.589Z</time>
      </trkpt>
      <trkpt lat="43.94588" lon="6.5281">
        <ele>1098.4</ele>
        <time>2025-08-04T10:12:23.650Z</time>
      </trkpt>
      <trkpt lat="43.94592" lon="6.52805">
        <ele>1097.7</ele>
        <time>2025-08-04T10:12:31.313Z</time>
      </trkpt>
      <trkpt lat="43.94595" lon="6.528">
        <ele>1096.6</ele>
        <time>2025-08-04T10:12:37.987Z</time>
      </trkpt>
      <trkpt lat="43.94598" lon="6.52794">
        <ele>1095.7</ele>
        <time>2025-08-04T10:12:45.476Z</time>
      </trkpt>
      <trkpt lat="43.946" lon="6.52787">
        <ele>1095</ele>
        <time>2025-08-04T10:12:53.198Z</time>
      </trkpt>
      <trkpt lat="43.94603" lon="6.52782">
        <ele>1094.7</ele>
        <time>2025-08-04T10:12:59.871Z</time>
      </trkpt>
      <trkpt lat="43.94606" lon="6.52776">
        <ele>1094.4</ele>
        <time>2025-08-04T10:13:07.361Z</time>
      </trkpt>
      <trkpt lat="43.94609" lon="6.52771">
        <ele>1094.2</ele>
        <time>2025-08-04T10:13:14.071Z</time>
      </trkpt>
      <trkpt lat="43.94612" lon="6.52766">
        <ele>1094</ele>
        <time>2025-08-04T10:13:20.782Z</time>
      </trkpt>
      <trkpt lat="43.94615" lon="6.52761">
        <ele>1093.2</ele>
        <time>2025-08-04T10:13:27.455Z</time>
      </trkpt>
      <trkpt lat="43.94617" lon="6.52755">
        <ele>1092.6</ele>
        <time>2025-08-04T10:13:34.234Z</time>
      </trkpt>
      <trkpt lat="43.9462" lon="6.52749">
        <ele>1091.9</ele>
        <time>2025-08-04T10:13:41.724Z</time>
      </trkpt>
      <trkpt lat="43.94622" lon="6.52743">
        <ele>1091.2</ele>
        <time>2025-08-04T10:13:48.503Z</time>
      </trkpt>
      <trkpt lat="43.94625" lon="6.52737">
        <ele>1090.6</ele>
        <time>2025-08-04T10:13:55.993Z</time>
      </trkpt>
      <trkpt lat="43.94627" lon="6.52731">
        <ele>1090.2</ele>
        <time>2025-08-04T10:14:02.772Z</time>
      </trkpt>
      <trkpt lat="43.94631" lon="6.5272">
        <ele>1090</ele>
        <time>2025-08-04T10:14:16.257Z</time>
      </trkpt>
      <trkpt lat="43.94636" lon="6.5271">
        <ele>1090</ele>
        <time>2025-08-04T10:14:30.523Z</time>
      </trkpt>
      <trkpt lat="43.94639" lon="6.52705">
        <ele>1090.4</ele>
        <time>2025-08-04T10:14:40.587Z</time>
      </trkpt>
      <trkpt lat="43.94641" lon="6.52699">
        <ele>1089.8</ele>
        <time>2025-08-04T10:14:47.366Z</time>
      </trkpt>
      <trkpt lat="43.94646" lon="6.52689">
        <ele>1088.4</ele>
        <time>2025-08-04T10:14:59.849Z</time>
      </trkpt>
      <trkpt lat="43.94649" lon="6.52684">
        <ele>1087.7</ele>
        <time>2025-08-04T10:15:06.522Z</time>
      </trkpt>
      <trkpt lat="43.94652" lon="6.52678">
        <ele>1087.1</ele>
        <time>2025-08-04T10:15:14.012Z</time>
      </trkpt>
      <trkpt lat="43.94656" lon="6.52669">
        <ele>1086.7</ele>
        <time>2025-08-04T10:15:24.856Z</time>
      </trkpt>
      <trkpt lat="43.94662" lon="6.52661">
        <ele>1086.4</ele>
        <time>2025-08-04T10:15:36.999Z</time>
      </trkpt>
      <trkpt lat="43.94667" lon="6.52654">
        <ele>1086.5</ele>
        <time>2025-08-04T10:15:49.070Z</time>
      </trkpt>
      <trkpt lat="43.94669" lon="6.52648">
        <ele>1085.9</ele>
        <time>2025-08-04T10:15:55.849Z</time>
      </trkpt>
      <trkpt lat="43.94671" lon="6.52641">
        <ele>1085.4</ele>
        <time>2025-08-04T10:16:03.571Z</time>
      </trkpt>
      <trkpt lat="43.94674" lon="6.52634">
        <ele>1084.2</ele>
        <time>2025-08-04T10:16:11.923Z</time>
      </trkpt>
      <trkpt lat="43.94676" lon="6.52627">
        <ele>1083</ele>
        <time>2025-08-04T10:16:19.645Z</time>
      </trkpt>
      <trkpt lat="43.94679" lon="6.52622">
        <ele>1082.2</ele>
        <time>2025-08-04T10:16:26.318Z</time>
      </trkpt>
      <trkpt lat="43.94681" lon="6.52616">
        <ele>1081.5</ele>
        <time>2025-08-04T10:16:33.097Z</time>
      </trkpt>
      <trkpt lat="43.94685" lon="6.52605">
        <ele>1080.3</ele>
        <time>2025-08-04T10:16:45.732Z</time>
      </trkpt>
      <trkpt lat="43.94686" lon="6.52598">
        <ele>1079.3</ele>
        <time>2025-08-04T10:16:53.049Z</time>
      </trkpt>
      <trkpt lat="43.94687" lon="6.52591">
        <ele>1078.5</ele>
        <time>2025-08-04T10:17:00.366Z</time>
      </trkpt>
      <trkpt lat="43.94691" lon="6.52582">
        <ele>1078.5</ele>
        <time>2025-08-04T10:17:12.759Z</time>
      </trkpt>
      <trkpt lat="43.94694" lon="6.52576">
        <ele>1078.5</ele>
        <time>2025-08-04T10:17:21.319Z</time>
      </trkpt>
      <trkpt lat="43.94697" lon="6.5257">
        <ele>1077.2</ele>
        <time>2025-08-04T10:17:28.809Z</time>
      </trkpt>
      <trkpt lat="43.94701" lon="6.52559">
        <ele>1075</ele>
        <time>2025-08-04T10:17:41.444Z</time>
      </trkpt>
      <trkpt lat="43.94704" lon="6.52553">
        <ele>1073.6</ele>
        <time>2025-08-04T10:17:48.933Z</time>
      </trkpt>
      <trkpt lat="43.94707" lon="6.52547">
        <ele>1072.1</ele>
        <time>2025-08-04T10:17:56.423Z</time>
      </trkpt>
      <trkpt lat="43.9471" lon="6.52537">
        <ele>1070.2</ele>
        <time>2025-08-04T10:18:07.530Z</time>
      </trkpt>
      <trkpt lat="43.94715" lon="6.52527">
        <ele>1069.3</ele>
        <time>2025-08-04T10:18:20.013Z</time>
      </trkpt>
      <trkpt lat="43.94718" lon="6.52521">
        <ele>1068.6</ele>
        <time>2025-08-04T10:18:27.503Z</time>
      </trkpt>
      <trkpt lat="43.94721" lon="6.52515">
        <ele>1068.3</ele>
        <time>2025-08-04T10:18:34.993Z</time>
      </trkpt>
      <trkpt lat="43.94724" lon="6.5251">
        <ele>1067.7</ele>
        <time>2025-08-04T10:18:41.666Z</time>
      </trkpt>
      <trkpt lat="43.94727" lon="6.52504">
        <ele>1066.7</ele>
        <time>2025-08-04T10:18:49.155Z</time>
      </trkpt>
      <trkpt lat="43.9473" lon="6.52498">
        <ele>1065.9</ele>
        <time>2025-08-04T10:18:56.645Z</time>
      </trkpt>
      <trkpt lat="43.94732" lon="6.52491">
        <ele>1064.8</ele>
        <time>2025-08-04T10:19:04.367Z</time>
      </trkpt>
      <trkpt lat="43.94735" lon="6.52484">
        <ele>1064</ele>
        <time>2025-08-04T10:19:12.719Z</time>
      </trkpt>
      <trkpt lat="43.94737" lon="6.52477">
        <ele>1063.4</ele>
        <time>2025-08-04T10:19:20.440Z</time>
      </trkpt>
      <trkpt lat="43.94741" lon="6.52466">
        <ele>1062.7</ele>
        <time>2025-08-04T10:19:33.075Z</time>
      </trkpt>
      <trkpt lat="43.94743" lon="6.5246">
        <ele>1062.4</ele>
        <time>2025-08-04T10:19:39.854Z</time>
      </trkpt>
      <trkpt lat="43.94749" lon="6.52451">
        <ele>1063.3</ele>
        <time>2025-08-04T10:19:59.937Z</time>
      </trkpt>
      <trkpt lat="43.94751" lon="6.5245">
        <ele>1063.5</ele>
        <time>2025-08-04T10:20:04.642Z</time>
      </trkpt>
      <trkpt lat="43.94753" lon="6.52444">
        <ele>1062.9</ele>
        <time>2025-08-04T10:20:11.421Z</time>
      </trkpt>
      <trkpt lat="43.94755" lon="6.52437">
        <ele>1062.2</ele>
        <time>2025-08-04T10:20:19.142Z</time>
      </trkpt>
      <trkpt lat="43.94759" lon="6.52433">
        <ele>1062</ele>
        <time>2025-08-04T10:20:26.244Z</time>
      </trkpt>
      <trkpt lat="43.94763" lon="6.52428">
        <ele>1061.9</ele>
        <time>2025-08-04T10:20:34.520Z</time>
      </trkpt>
      <trkpt lat="43.94767" lon="6.52417">
        <ele>1061.8</ele>
        <time>2025-08-04T10:20:48.471Z</time>
      </trkpt>
      <trkpt lat="43.94768" lon="6.5241">
        <ele>1060.6</ele>
        <time>2025-08-04T10:20:55.788Z</time>
      </trkpt>
      <trkpt lat="43.94769" lon="6.52403">
        <ele>1059.5</ele>
        <time>2025-08-04T10:21:03.105Z</time>
      </trkpt>
      <trkpt lat="43.94771" lon="6.52396">
        <ele>1058.8</ele>
        <time>2025-08-04T10:21:10.826Z</time>
      </trkpt>
      <trkpt lat="43.94773" lon="6.52389">
        <ele>1058.3</ele>
        <time>2025-08-04T10:21:18.548Z</time>
      </trkpt>
      <trkpt lat="43.94774" lon="6.52385">
        <ele>1057.7</ele>
        <time>2025-08-04T10:21:22.889Z</time>
      </trkpt>
      <trkpt lat="43.94778" lon="6.52376">
        <ele>1057.2</ele>
        <time>2025-08-04T10:21:33.733Z</time>
      </trkpt>
      <trkpt lat="43.94777" lon="6.52368">
        <ele>1055.1</ele>
        <time>2025-08-04T10:21:42.058Z</time>
      </trkpt>
      <trkpt lat="43.9478" lon="6.52363">
        <ele>1054.5</ele>
        <time>2025-08-04T10:21:48.731Z</time>
      </trkpt>
      <trkpt lat="43.94782" lon="6.52357">
        <ele>1053.3</ele>
        <time>2025-08-04T10:21:55.510Z</time>
      </trkpt>
      <trkpt lat="43.94785" lon="6.52346">
        <ele>1051.2</ele>
        <time>2025-08-04T10:22:07.570Z</time>
      </trkpt>
      <trkpt lat="43.94786" lon="6.5234">
        <ele>1050.1</ele>
        <time>2025-08-04T10:22:13.885Z</time>
      </trkpt>
      <trkpt lat="43.94787" lon="6.52333">
        <ele>1048.9</ele>
        <time>2025-08-04T10:22:21.202Z</time>
      </trkpt>
      <trkpt lat="43.94792" lon="6.52323">
        <ele>1047.6</ele>
        <time>2025-08-04T10:22:33.684Z</time>
      </trkpt>
      <trkpt lat="43.94796" lon="6.52316">
        <ele>1047.1</ele>
        <time>2025-08-04T10:22:42.847Z</time>
      </trkpt>
      <trkpt lat="43.94798" lon="6.5231">
        <ele>1046.2</ele>
        <time>2025-08-04T10:22:49.626Z</time>
      </trkpt>
      <trkpt lat="43.948" lon="6.52304">
        <ele>1045.3</ele>
        <time>2025-08-04T10:22:56.405Z</time>
      </trkpt>
      <trkpt lat="43.94802" lon="6.52298">
        <ele>1044.3</ele>
        <time>2025-08-04T10:23:03.184Z</time>
      </trkpt>
      <trkpt lat="43.94806" lon="6.5229">
        <ele>1043.5</ele>
        <time>2025-08-04T10:23:13.170Z</time>
      </trkpt>
      <trkpt lat="43.94809" lon="6.52282">
        <ele>1041.6</ele>
        <time>2025-08-04T10:23:22.418Z</time>
      </trkpt>
      <trkpt lat="43.94809" lon="6.52276">
        <ele>1039.9</ele>
        <time>2025-08-04T10:23:28.570Z</time>
      </trkpt>
      <trkpt lat="43.94813" lon="6.52272">
        <ele>1039.4</ele>
        <time>2025-08-04T10:23:35.589Z</time>
      </trkpt>
      <trkpt lat="43.94818" lon="6.52268">
        <ele>1039.4</ele>
        <time>2025-08-04T10:23:44.979Z</time>
      </trkpt>
      <trkpt lat="43.94822" lon="6.52263">
        <ele>1039.3</ele>
        <time>2025-08-04T10:23:53.256Z</time>
      </trkpt>
      <trkpt lat="43.94826" lon="6.52259">
        <ele>1039.7</ele>
        <time>2025-08-04T10:24:03.690Z</time>
      </trkpt>
      <trkpt lat="43.94831" lon="6.52261">
        <ele>1041.5</ele>
        <time>2025-08-04T10:24:34.662Z</time>
      </trkpt>
      <trkpt lat="43.94834" lon="6.52254">
        <ele>1041.2</ele>
        <time>2025-08-04T10:24:43.014Z</time>
      </trkpt>
      <trkpt lat="43.94835" lon="6.52245">
        <ele>1039.6</ele>
        <time>2025-08-04T10:24:52.351Z</time>
      </trkpt>
      <trkpt lat="43.94839" lon="6.52238">
        <ele>1037.3</ele>
        <time>2025-08-04T10:25:01.513Z</time>
      </trkpt>
      <trkpt lat="43.94843" lon="6.52236">
        <ele>1035.9</ele>
        <time>2025-08-04T10:25:07.567Z</time>
      </trkpt>
      <trkpt lat="43.94849" lon="6.52234">
        <ele>1033.9</ele>
        <time>2025-08-04T10:25:16.354Z</time>
      </trkpt>
      <trkpt lat="43.94857" lon="6.52229">
        <ele>1031</ele>
        <time>2025-08-04T10:25:28.847Z</time>
      </trkpt>
      <trkpt lat="43.94861" lon="6.52226">
        <ele>1029.6</ele>
        <time>2025-08-04T10:25:35.320Z</time>
      </trkpt>
      <trkpt lat="43.94865" lon="6.52223">
        <ele>1027.6</ele>
        <time>2025-08-04T10:25:41.794Z</time>
      </trkpt>
      <trkpt lat="43.9487" lon="6.5222">
        <ele>1025.1</ele>
        <time>2025-08-04T10:25:49.550Z</time>
      </trkpt>
      <trkpt lat="43.94875" lon="6.52217">
        <ele>1022.7</ele>
        <time>2025-08-04T10:25:57.306Z</time>
      </trkpt>
      <trkpt lat="43.9488" lon="6.52213">
        <ele>1020.3</ele>
        <time>2025-08-04T10:26:05.523Z</time>
      </trkpt>
      <trkpt lat="43.94885" lon="6.5221">
        <ele>1018.1</ele>
        <time>2025-08-04T10:26:13.279Z</time>
      </trkpt>
      <trkpt lat="43.9489" lon="6.52204">
        <ele>1015.6</ele>
        <time>2025-08-04T10:26:22.689Z</time>
      </trkpt>
      <trkpt lat="43.94895" lon="6.52197">
        <ele>1013.1</ele>
        <time>2025-08-04T10:26:32.799Z</time>
      </trkpt>
      <trkpt lat="43.94897" lon="6.52191">
        <ele>1011.7</ele>
        <time>2025-08-04T10:26:39.577Z</time>
      </trkpt>
      <trkpt lat="43.94904" lon="6.52197">
        <ele>1009.8</ele>
        <time>2025-08-04T10:26:51.291Z</time>
      </trkpt>
      <trkpt lat="43.9491" lon="6.52202">
        <ele>1008</ele>
        <time>2025-08-04T10:27:01.255Z</time>
      </trkpt>
      <trkpt lat="43.94914" lon="6.522">
        <ele>1006.4</ele>
        <time>2025-08-04T10:27:07.309Z</time>
      </trkpt>
      <trkpt lat="43.94914" lon="6.52192">
        <ele>1005.8</ele>
        <time>2025-08-04T10:27:15.511Z</time>
      </trkpt>
      <trkpt lat="43.94913" lon="6.52184">
        <ele>1005.5</ele>
        <time>2025-08-04T10:27:23.836Z</time>
      </trkpt>
      <trkpt lat="43.94913" lon="6.52176">
        <ele>1004.8</ele>
        <time>2025-08-04T10:27:32.038Z</time>
      </trkpt>
      <trkpt lat="43.94916" lon="6.5217">
        <ele>1003.4</ele>
        <time>2025-08-04T10:27:39.528Z</time>
      </trkpt>
      <trkpt lat="43.94918" lon="6.52163">
        <ele>1002.5</ele>
        <time>2025-08-04T10:27:47.249Z</time>
      </trkpt>
      <trkpt lat="43.94923" lon="6.52162">
        <ele>1001.2</ele>
        <time>2025-08-04T10:27:54.443Z</time>
      </trkpt>
      <trkpt lat="43.94927" lon="6.52161">
        <ele>1000.1</ele>
        <time>2025-08-04T10:28:00.230Z</time>
      </trkpt>
      <trkpt lat="43.94931" lon="6.52167">
        <ele>999.4</ele>
        <time>2025-08-04T10:28:08.614Z</time>
      </trkpt>
      <trkpt lat="43.94934" lon="6.52173">
        <ele>998.9</ele>
        <time>2025-08-04T10:28:16.104Z</time>
      </trkpt>
      <trkpt lat="43.94936" lon="6.52182">
        <ele>998.8</ele>
        <time>2025-08-04T10:28:26.654Z</time>
      </trkpt>
      <trkpt lat="43.94935" lon="6.52182">
        <ele>999.1</ele>
        <time>2025-08-04T10:28:31.572Z</time>
      </trkpt>
      <trkpt lat="43.94935" lon="6.52192">
        <ele>999.6</ele>
        <time>2025-08-04T10:28:46.221Z</time>
      </trkpt>
      <trkpt lat="43.94938" lon="6.52197">
        <ele>999.1</ele>
        <time>2025-08-04T10:28:52.894Z</time>
      </trkpt>
      <trkpt lat="43.9494" lon="6.52203">
        <ele>999.2</ele>
        <time>2025-08-04T10:29:01.166Z</time>
      </trkpt>
      <trkpt lat="43.94943" lon="6.52208">
        <ele>998.9</ele>
        <time>2025-08-04T10:29:07.839Z</time>
      </trkpt>
      <trkpt lat="43.94945" lon="6.52214">
        <ele>999</ele>
        <time>2025-08-04T10:29:16.111Z</time>
      </trkpt>
      <trkpt lat="43.94948" lon="6.52219">
        <ele>998.6</ele>
        <time>2025-08-04T10:29:22.784Z</time>
      </trkpt>
      <trkpt lat="43.9495" lon="6.52224">
        <ele>998.6</ele>
        <time>2025-08-04T10:29:29.486Z</time>
      </trkpt>
      <trkpt lat="43.94953" lon="6.5223">
        <ele>998.2</ele>
        <time>2025-08-04T10:29:36.976Z</time>
      </trkpt>
      <trkpt lat="43.94955" lon="6.52235">
        <ele>998</ele>
        <time>2025-08-04T10:29:42.840Z</time>
      </trkpt>
      <trkpt lat="43.94958" lon="6.52242">
        <ele>997.5</ele>
        <time>2025-08-04T10:29:51.192Z</time>
      </trkpt>
      <trkpt lat="43.94961" lon="6.5225">
        <ele>997</ele>
        <time>2025-08-04T10:30:00.440Z</time>
      </trkpt>
      <trkpt lat="43.94963" lon="6.52257">
        <ele>997.3</ele>
        <time>2025-08-04T10:30:10.966Z</time>
      </trkpt>
      <trkpt lat="43.94966" lon="6.52264">
        <ele>997.3</ele>
        <time>2025-08-04T10:30:20.511Z</time>
      </trkpt>
      <trkpt lat="43.94969" lon="6.5227">
        <ele>997</ele>
        <time>2025-08-04T10:30:28.001Z</time>
      </trkpt>
      <trkpt lat="43.94972" lon="6.52275">
        <ele>996.7</ele>
        <time>2025-08-04T10:30:34.674Z</time>
      </trkpt>
      <trkpt lat="43.94975" lon="6.52281">
        <ele>996.6</ele>
        <time>2025-08-04T10:30:42.752Z</time>
      </trkpt>
      <trkpt lat="43.94978" lon="6.52286">
        <ele>996.3</ele>
        <time>2025-08-04T10:30:49.425Z</time>
      </trkpt>
      <trkpt lat="43.94983" lon="6.52291">
        <ele>995.2</ele>
        <time>2025-08-04T10:30:58.198Z</time>
      </trkpt>
      <trkpt lat="43.94988" lon="6.52297">
        <ele>994.3</ele>
        <time>2025-08-04T10:31:07.608Z</time>
      </trkpt>
      <trkpt lat="43.94992" lon="6.52302">
        <ele>993.5</ele>
        <time>2025-08-04T10:31:15.271Z</time>
      </trkpt>
      <trkpt lat="43.94997" lon="6.52307">
        <ele>992.2</ele>
        <time>2025-08-04T10:31:24.045Z</time>
      </trkpt>
      <trkpt lat="43.95002" lon="6.52317">
        <ele>991.2</ele>
        <time>2025-08-04T10:31:36.527Z</time>
      </trkpt>
      <trkpt lat="43.95006" lon="6.52327">
        <ele>990.6</ele>
        <time>2025-08-04T10:31:48.256Z</time>
      </trkpt>
      <trkpt lat="43.95008" lon="6.52339">
        <ele>990.2</ele>
        <time>2025-08-04T10:32:00.884Z</time>
      </trkpt>
      <trkpt lat="43.9501" lon="6.5235">
        <ele>989.2</ele>
        <time>2025-08-04T10:32:12.516Z</time>
      </trkpt>
      <trkpt lat="43.95011" lon="6.52359">
        <ele>988.5</ele>
        <time>2025-08-04T10:32:21.852Z</time>
      </trkpt>
      <trkpt lat="43.95012" lon="6.52369">
        <ele>988.3</ele>
        <time>2025-08-04T10:32:32.736Z</time>
      </trkpt>
      <trkpt lat="43.95012" lon="6.52378">
        <ele>988.5</ele>
        <time>2025-08-04T10:32:44.354Z</time>
      </trkpt>
      <trkpt lat="43.95013" lon="6.52387">
        <ele>988.3</ele>
        <time>2025-08-04T10:32:54.085Z</time>
      </trkpt>
      <trkpt lat="43.95016" lon="6.52396">
        <ele>987.2</ele>
        <time>2025-08-04T10:33:04.253Z</time>
      </trkpt>
      <trkpt lat="43.95019" lon="6.52405">
        <ele>986.2</ele>
        <time>2025-08-04T10:33:14.421Z</time>
      </trkpt>
      <trkpt lat="43.95022" lon="6.52414">
        <ele>985.1</ele>
        <time>2025-08-04T10:33:24.589Z</time>
      </trkpt>
      <trkpt lat="43.95025" lon="6.52424">
        <ele>984.5</ele>
        <time>2025-08-04T10:33:35.696Z</time>
      </trkpt>
      <trkpt lat="43.95028" lon="6.52433">
        <ele>984.1</ele>
        <time>2025-08-04T10:33:45.864Z</time>
      </trkpt>
      <trkpt lat="43.95031" lon="6.52442">
        <ele>983.7</ele>
        <time>2025-08-04T10:33:56.033Z</time>
      </trkpt>
      <trkpt lat="43.95034" lon="6.52451">
        <ele>982.8</ele>
        <time>2025-08-04T10:34:06.201Z</time>
      </trkpt>
      <trkpt lat="43.95037" lon="6.5246">
        <ele>981.9</ele>
        <time>2025-08-04T10:34:16.369Z</time>
      </trkpt>
      <trkpt lat="43.95041" lon="6.52465">
        <ele>980.6</ele>
        <time>2025-08-04T10:34:24.032Z</time>
      </trkpt>
      <trkpt lat="43.95045" lon="6.5247">
        <ele>979.4</ele>
        <time>2025-08-04T10:34:31.695Z</time>
      </trkpt>
      <trkpt lat="43.95048" lon="6.52475">
        <ele>978.3</ele>
        <time>2025-08-04T10:34:38.368Z</time>
      </trkpt>
      <trkpt lat="43.95052" lon="6.5248">
        <ele>976.9</ele>
        <time>2025-08-04T10:34:46.031Z</time>
      </trkpt>
      <trkpt lat="43.95054" lon="6.52491">
        <ele>975.8</ele>
        <time>2025-08-04T10:34:57.663Z</time>
      </trkpt>
      <trkpt lat="43.95053" lon="6.525">
        <ele>975.8</ele>
        <time>2025-08-04T10:35:08.333Z</time>
      </trkpt>
      <trkpt lat="43.95053" lon="6.52509">
        <ele>975.2</ele>
        <time>2025-08-04T10:35:17.560Z</time>
      </trkpt>
      <trkpt lat="43.95052" lon="6.52517">
        <ele>974.9</ele>
        <time>2025-08-04T10:35:25.885Z</time>
      </trkpt>
      <trkpt lat="43.95051" lon="6.52526">
        <ele>974.6</ele>
        <time>2025-08-04T10:35:35.221Z</time>
      </trkpt>
      <trkpt lat="43.95052" lon="6.52535">
        <ele>973.6</ele>
        <time>2025-08-04T10:35:44.557Z</time>
      </trkpt>
      <trkpt lat="43.95052" lon="6.52543">
        <ele>973.1</ele>
        <time>2025-08-04T10:35:52.759Z</time>
      </trkpt>
      <trkpt lat="43.95053" lon="6.52552">
        <ele>972.1</ele>
        <time>2025-08-04T10:36:02.095Z</time>
      </trkpt>
      <trkpt lat="43.95053" lon="6.5256">
        <ele>971.7</ele>
        <time>2025-08-04T10:36:10.297Z</time>
      </trkpt>
      <trkpt lat="43.95054" lon="6.52569">
        <ele>971</ele>
        <time>2025-08-04T10:36:19.634Z</time>
      </trkpt>
      <trkpt lat="43.95054" lon="6.52577">
        <ele>970.7</ele>
        <time>2025-08-04T10:36:27.835Z</time>
      </trkpt>
      <trkpt lat="43.95055" lon="6.52586">
        <ele>970.1</ele>
        <time>2025-08-04T10:36:37.172Z</time>
      </trkpt>
      <trkpt lat="43.95055" lon="6.52594">
        <ele>969.8</ele>
        <time>2025-08-04T10:36:45.374Z</time>
      </trkpt>
      <trkpt lat="43.95055" lon="6.52601">
        <ele>969.5</ele>
        <time>2025-08-04T10:36:52.550Z</time>
      </trkpt>
      <trkpt lat="43.95056" lon="6.52608">
        <ele>969</ele>
        <time>2025-08-04T10:36:59.867Z</time>
      </trkpt>
      <trkpt lat="43.95056" lon="6.52615">
        <ele>968.7</ele>
        <time>2025-08-04T10:37:07.043Z</time>
      </trkpt>
      <trkpt lat="43.95056" lon="6.52622">
        <ele>968.5</ele>
        <time>2025-08-04T10:37:14.323Z</time>
      </trkpt>
      <trkpt lat="43.95061" lon="6.52628">
        <ele>966.8</ele>
        <time>2025-08-04T10:37:23.733Z</time>
      </trkpt>
      <trkpt lat="43.95065" lon="6.52634">
        <ele>965.5</ele>
        <time>2025-08-04T10:37:32.117Z</time>
      </trkpt>
      <trkpt lat="43.9507" lon="6.52641">
        <ele>963.8</ele>
        <time>2025-08-04T10:37:42.226Z</time>
      </trkpt>
      <trkpt lat="43.9507" lon="6.5265">
        <ele>963.6</ele>
        <time>2025-08-04T10:37:51.833Z</time>
      </trkpt>
      <trkpt lat="43.95069" lon="6.52659">
        <ele>963.8</ele>
        <time>2025-08-04T10:38:03.574Z</time>
      </trkpt>
      <trkpt lat="43.95069" lon="6.52667">
        <ele>963.6</ele>
        <time>2025-08-04T10:38:12.017Z</time>
      </trkpt>
      <trkpt lat="43.95068" lon="6.52676">
        <ele>963.1</ele>
        <time>2025-08-04T10:38:21.353Z</time>
      </trkpt>
      <trkpt lat="43.95069" lon="6.52683">
        <ele>962.2</ele>
        <time>2025-08-04T10:38:28.670Z</time>
      </trkpt>
      <trkpt lat="43.95069" lon="6.52689">
        <ele>961.6</ele>
        <time>2025-08-04T10:38:34.821Z</time>
      </trkpt>
      <trkpt lat="43.9507" lon="6.52696">
        <ele>960.7</ele>
        <time>2025-08-04T10:38:42.137Z</time>
      </trkpt>
      <trkpt lat="43.95072" lon="6.52702">
        <ele>959.7</ele>
        <time>2025-08-04T10:38:48.916Z</time>
      </trkpt>
      <trkpt lat="43.95073" lon="6.52709">
        <ele>958.8</ele>
        <time>2025-08-04T10:38:56.233Z</time>
      </trkpt>
      <trkpt lat="43.95074" lon="6.52715">
        <ele>958</ele>
        <time>2025-08-04T10:39:02.547Z</time>
      </trkpt>
      <trkpt lat="43.95075" lon="6.52725">
        <ele>956.8</ele>
        <time>2025-08-04T10:39:12.897Z</time>
      </trkpt>
      <trkpt lat="43.95076" lon="6.52736">
        <ele>955.6</ele>
        <time>2025-08-04T10:39:24.264Z</time>
      </trkpt>
      <trkpt lat="43.95077" lon="6.52746">
        <ele>954.6</ele>
        <time>2025-08-04T10:39:34.615Z</time>
      </trkpt>
      <trkpt lat="43.95078" lon="6.52756">
        <ele>953.7</ele>
        <time>2025-08-04T10:39:44.966Z</time>
      </trkpt>
      <trkpt lat="43.9508" lon="6.52767">
        <ele>952.5</ele>
        <time>2025-08-04T10:39:56.597Z</time>
      </trkpt>
      <trkpt lat="43.95082" lon="6.52777">
        <ele>951.5</ele>
        <time>2025-08-04T10:40:07.238Z</time>
      </trkpt>
      <trkpt lat="43.95082" lon="6.52777">
        <ele>951.5</ele>
        <time>2025-08-04T10:40:07.238Z</time>
      </trkpt>
      <trkpt lat="43.95082" lon="6.52779">
        <ele>951.3</ele>
        <time>2025-08-04T10:40:09.288Z</time>
      </trkpt>
      <trkpt lat="43.95085" lon="6.52789">
        <ele>949.7</ele>
        <time>2025-08-04T10:40:20.395Z</time>
      </trkpt>
      <trkpt lat="43.95087" lon="6.52799">
        <ele>948.4</ele>
        <time>2025-08-04T10:40:31.036Z</time>
      </trkpt>
      <trkpt lat="43.9509" lon="6.52808">
        <ele>946.9</ele>
        <time>2025-08-04T10:40:41.204Z</time>
      </trkpt>
      <trkpt lat="43.95092" lon="6.52818">
        <ele>945.5</ele>
        <time>2025-08-04T10:40:51.844Z</time>
      </trkpt>
      <trkpt lat="43.95095" lon="6.52814">
        <ele>944.9</ele>
        <time>2025-08-04T10:40:57.766Z</time>
      </trkpt>
      <trkpt lat="43.95099" lon="6.5281">
        <ele>944.1</ele>
        <time>2025-08-04T10:41:04.785Z</time>
      </trkpt>
      <trkpt lat="43.95102" lon="6.52805">
        <ele>943.7</ele>
        <time>2025-08-04T10:41:11.458Z</time>
      </trkpt>
      <trkpt lat="43.95106" lon="6.52801">
        <ele>942.8</ele>
        <time>2025-08-04T10:41:18.477Z</time>
      </trkpt>
      <trkpt lat="43.95109" lon="6.52797">
        <ele>942.2</ele>
        <time>2025-08-04T10:41:24.399Z</time>
      </trkpt>
      <trkpt lat="43.95112" lon="6.52793">
        <ele>941.6</ele>
        <time>2025-08-04T10:41:30.320Z</time>
      </trkpt>
      <trkpt lat="43.95116" lon="6.52789">
        <ele>940.6</ele>
        <time>2025-08-04T10:41:37.339Z</time>
      </trkpt>
      <trkpt lat="43.95119" lon="6.52785">
        <ele>940</ele>
        <time>2025-08-04T10:41:43.261Z</time>
      </trkpt>
      <trkpt lat="43.95122" lon="6.5278">
        <ele>939.6</ele>
        <time>2025-08-04T10:41:49.934Z</time>
      </trkpt>
      <trkpt lat="43.95126" lon="6.52776">
        <ele>938.8</ele>
        <time>2025-08-04T10:41:56.953Z</time>
      </trkpt>
      <trkpt lat="43.95129" lon="6.52772">
        <ele>938.2</ele>
        <time>2025-08-04T10:42:02.875Z</time>
      </trkpt>
      <trkpt lat="43.95133" lon="6.52768">
        <ele>937.3</ele>
        <time>2025-08-04T10:42:09.894Z</time>
      </trkpt>
      <trkpt lat="43.95136" lon="6.52764">
        <ele>936.8</ele>
        <time>2025-08-04T10:42:15.815Z</time>
      </trkpt>
      <trkpt lat="43.95139" lon="6.52759">
        <ele>936.3</ele>
        <time>2025-08-04T10:42:22.488Z</time>
      </trkpt>
      <trkpt lat="43.95143" lon="6.52755">
        <ele>935.4</ele>
        <time>2025-08-04T10:42:29.507Z</time>
      </trkpt>
      <trkpt lat="43.95146" lon="6.52751">
        <ele>934.9</ele>
        <time>2025-08-04T10:42:35.429Z</time>
      </trkpt>
      <trkpt lat="43.9515" lon="6.52743">
        <ele>934.3</ele>
        <time>2025-08-04T10:42:45.415Z</time>
      </trkpt>
      <trkpt lat="43.95155" lon="6.52735">
        <ele>933.5</ele>
        <time>2025-08-04T10:42:56.276Z</time>
      </trkpt>
      <trkpt lat="43.95159" lon="6.52727">
        <ele>933.2</ele>
        <time>2025-08-04T10:43:06.314Z</time>
      </trkpt>
      <trkpt lat="43.95163" lon="6.52719">
        <ele>933</ele>
        <time>2025-08-04T10:43:16.783Z</time>
      </trkpt>
      <trkpt lat="43.95164" lon="6.52713">
        <ele>933.2</ele>
        <time>2025-08-04T10:43:25.107Z</time>
      </trkpt>
      <trkpt lat="43.95165" lon="6.52706">
        <ele>933.5</ele>
        <time>2025-08-04T10:43:35.183Z</time>
      </trkpt>
      <trkpt lat="43.95166" lon="6.527">
        <ele>933.7</ele>
        <time>2025-08-04T10:43:43.507Z</time>
      </trkpt>
      <trkpt lat="43.95167" lon="6.52693">
        <ele>933.9</ele>
        <time>2025-08-04T10:43:52.961Z</time>
      </trkpt>
      <trkpt lat="43.95169" lon="6.52684">
        <ele>933.5</ele>
        <time>2025-08-04T10:44:02.617Z</time>
      </trkpt>
      <trkpt lat="43.9517" lon="6.52675">
        <ele>933.3</ele>
        <time>2025-08-04T10:44:12.348Z</time>
      </trkpt>
      <trkpt lat="43.95175" lon="6.52669">
        <ele>932.2</ele>
        <time>2025-08-04T10:44:21.757Z</time>
      </trkpt>
      <trkpt lat="43.95181" lon="6.52663">
        <ele>930.9</ele>
        <time>2025-08-04T10:44:32.285Z</time>
      </trkpt>
      <trkpt lat="43.95186" lon="6.52656">
        <ele>929.7</ele>
        <time>2025-08-04T10:44:42.394Z</time>
      </trkpt>
      <trkpt lat="43.95191" lon="6.5265">
        <ele>928.3</ele>
        <time>2025-08-04T10:44:51.804Z</time>
      </trkpt>
      <trkpt lat="43.95195" lon="6.52643">
        <ele>927</ele>
        <time>2025-08-04T10:45:00.966Z</time>
      </trkpt>
      <trkpt lat="43.95199" lon="6.52635">
        <ele>925.9</ele>
        <time>2025-08-04T10:45:10.952Z</time>
      </trkpt>
      <trkpt lat="43.95201" lon="6.52625">
        <ele>925.3</ele>
        <time>2025-08-04T10:45:21.592Z</time>
      </trkpt>
      <trkpt lat="43.95202" lon="6.52615">
        <ele>925.1</ele>
        <time>2025-08-04T10:45:32.476Z</time>
      </trkpt>
      <trkpt lat="43.95204" lon="6.52609">
        <ele>924.7</ele>
        <time>2025-08-04T10:45:39.255Z</time>
      </trkpt>
      <trkpt lat="43.95206" lon="6.52602">
        <ele>924.7</ele>
        <time>2025-08-04T10:45:48.079Z</time>
      </trkpt>
      <trkpt lat="43.95213" lon="6.52597">
        <ele>923.3</ele>
        <time>2025-08-04T10:45:59.288Z</time>
      </trkpt>
      <trkpt lat="43.9522" lon="6.52591">
        <ele>922</ele>
        <time>2025-08-04T10:46:11.001Z</time>
      </trkpt>
      <trkpt lat="43.95225" lon="6.52585">
        <ele>921.2</ele>
        <time>2025-08-04T10:46:20.411Z</time>
      </trkpt>
      <trkpt lat="43.95231" lon="6.52578">
        <ele>920.4</ele>
        <time>2025-08-04T10:46:31.569Z</time>
      </trkpt>
      <trkpt lat="43.95236" lon="6.52572">
        <ele>919.6</ele>
        <time>2025-08-04T10:46:40.978Z</time>
      </trkpt>
      <trkpt lat="43.95241" lon="6.52565">
        <ele>918.6</ele>
        <time>2025-08-04T10:46:51.087Z</time>
      </trkpt>
      <trkpt lat="43.95246" lon="6.52559">
        <ele>917.3</ele>
        <time>2025-08-04T10:47:00.497Z</time>
      </trkpt>
      <trkpt lat="43.95252" lon="6.52552">
        <ele>915.9</ele>
        <time>2025-08-04T10:47:11.655Z</time>
      </trkpt>
      <trkpt lat="43.95257" lon="6.52546">
        <ele>915.2</ele>
        <time>2025-08-04T10:47:21.064Z</time>
      </trkpt>
      <trkpt lat="43.95262" lon="6.52539">
        <ele>914.5</ele>
        <time>2025-08-04T10:47:31.174Z</time>
      </trkpt>
      <trkpt lat="43.95267" lon="6.52531">
        <ele>913.8</ele>
        <time>2025-08-04T10:47:42.035Z</time>
      </trkpt>
      <trkpt lat="43.95273" lon="6.52523">
        <ele>912.6</ele>
        <time>2025-08-04T10:47:53.878Z</time>
      </trkpt>
      <trkpt lat="43.95278" lon="6.52515">
        <ele>911.4</ele>
        <time>2025-08-04T10:48:04.739Z</time>
      </trkpt>
      <trkpt lat="43.95283" lon="6.52507">
        <ele>910.3</ele>
        <time>2025-08-04T10:48:15.600Z</time>
      </trkpt>
      <trkpt lat="43.95287" lon="6.52497">
        <ele>909.4</ele>
        <time>2025-08-04T10:48:27.329Z</time>
      </trkpt>
      <trkpt lat="43.95291" lon="6.52486">
        <ele>908.2</ele>
        <time>2025-08-04T10:48:39.963Z</time>
      </trkpt>
      <trkpt lat="43.95291" lon="6.52478">
        <ele>908.2</ele>
        <time>2025-08-04T10:48:49.336Z</time>
      </trkpt>
      <trkpt lat="43.95292" lon="6.52471">
        <ele>907.8</ele>
        <time>2025-08-04T10:48:56.652Z</time>
      </trkpt>
      <trkpt lat="43.95292" lon="6.52463">
        <ele>907.2</ele>
        <time>2025-08-04T10:49:04.853Z</time>
      </trkpt>
      <trkpt lat="43.95292" lon="6.52456">
        <ele>906.7</ele>
        <time>2025-08-04T10:49:12.030Z</time>
      </trkpt>
      <trkpt lat="43.95292" lon="6.52448">
        <ele>906.1</ele>
        <time>2025-08-04T10:49:20.231Z</time>
      </trkpt>
      <trkpt lat="43.95293" lon="6.5244">
        <ele>905.3</ele>
        <time>2025-08-04T10:49:28.556Z</time>
      </trkpt>
      <trkpt lat="43.95293" lon="6.52433">
        <ele>905</ele>
        <time>2025-08-04T10:49:35.732Z</time>
      </trkpt>
      <trkpt lat="43.95293" lon="6.52425">
        <ele>904.7</ele>
        <time>2025-08-04T10:49:43.933Z</time>
      </trkpt>
      <trkpt lat="43.95295" lon="6.52419">
        <ele>903.6</ele>
        <time>2025-08-04T10:49:50.712Z</time>
      </trkpt>
      <trkpt lat="43.95297" lon="6.52413">
        <ele>902.6</ele>
        <time>2025-08-04T10:49:57.490Z</time>
      </trkpt>
      <trkpt lat="43.95298" lon="6.52406">
        <ele>902.1</ele>
        <time>2025-08-04T10:50:04.807Z</time>
      </trkpt>
      <trkpt lat="43.953" lon="6.524">
        <ele>901</ele>
        <time>2025-08-04T10:50:11.585Z</time>
      </trkpt>
      <trkpt lat="43.95303" lon="6.52395">
        <ele>899.5</ele>
        <time>2025-08-04T10:50:18.258Z</time>
      </trkpt>
      <trkpt lat="43.95306" lon="6.5239">
        <ele>898.2</ele>
        <time>2025-08-04T10:50:24.931Z</time>
      </trkpt>
      <trkpt lat="43.95307" lon="6.5238">
        <ele>898.1</ele>
        <time>2025-08-04T10:50:36.273Z</time>
      </trkpt>
      <trkpt lat="43.95307" lon="6.5237">
        <ele>897.7</ele>
        <time>2025-08-04T10:50:46.525Z</time>
      </trkpt>
      <trkpt lat="43.95305" lon="6.52364">
        <ele>897.3</ele>
        <time>2025-08-04T10:50:53.304Z</time>
      </trkpt>
      <trkpt lat="43.95304" lon="6.52357">
        <ele>897.2</ele>
        <time>2025-08-04T10:51:01.184Z</time>
      </trkpt>
      <trkpt lat="43.95302" lon="6.52351">
        <ele>897.3</ele>
        <time>2025-08-04T10:51:09.456Z</time>
      </trkpt>
      <trkpt lat="43.953" lon="6.52344">
        <ele>897.2</ele>
        <time>2025-08-04T10:51:17.798Z</time>
      </trkpt>
      <trkpt lat="43.95299" lon="6.52338">
        <ele>896.7</ele>
        <time>2025-08-04T10:51:24.112Z</time>
      </trkpt>
      <trkpt lat="43.95299" lon="6.52331">
        <ele>896</ele>
        <time>2025-08-04T10:51:31.288Z</time>
      </trkpt>
      <trkpt lat="43.95298" lon="6.52325">
        <ele>895.8</ele>
        <time>2025-08-04T10:51:37.602Z</time>
      </trkpt>
      <trkpt lat="43.95297" lon="6.52318">
        <ele>895.3</ele>
        <time>2025-08-04T10:51:44.918Z</time>
      </trkpt>
      <trkpt lat="43.95297" lon="6.52307">
        <ele>894.5</ele>
        <time>2025-08-04T10:51:56.195Z</time>
      </trkpt>
      <trkpt lat="43.95297" lon="6.52295">
        <ele>895.1</ele>
        <time>2025-08-04T10:52:13.773Z</time>
      </trkpt>
      <trkpt lat="43.95299" lon="6.52289">
        <ele>895.5</ele>
        <time>2025-08-04T10:52:23.949Z</time>
      </trkpt>
      <trkpt lat="43.95301" lon="6.52282">
        <ele>895.9</ele>
        <time>2025-08-04T10:52:35.143Z</time>
      </trkpt>
      <trkpt lat="43.95305" lon="6.52276">
        <ele>896.3</ele>
        <time>2025-08-04T10:52:47.062Z</time>
      </trkpt>
      <trkpt lat="43.95309" lon="6.52269">
        <ele>897.1</ele>
        <time>2025-08-04T10:53:02.904Z</time>
      </trkpt>
      <trkpt lat="43.95313" lon="6.52264">
        <ele>897.5</ele>
        <time>2025-08-04T10:53:14.035Z</time>
      </trkpt>
      <trkpt lat="43.95317" lon="6.52259">
        <ele>897.7</ele>
        <time>2025-08-04T10:53:23.881Z</time>
      </trkpt>
      <trkpt lat="43.95321" lon="6.52254">
        <ele>897.9</ele>
        <time>2025-08-04T10:53:33.726Z</time>
      </trkpt>
      <trkpt lat="43.95325" lon="6.52249">
        <ele>898</ele>
        <time>2025-08-04T10:53:43.006Z</time>
      </trkpt>
      <trkpt lat="43.95331" lon="6.52241">
        <ele>898.3</ele>
        <time>2025-08-04T10:53:58.169Z</time>
      </trkpt>
      <trkpt lat="43.95337" lon="6.52232">
        <ele>898.6</ele>
        <time>2025-08-04T10:54:14.161Z</time>
      </trkpt>
      <trkpt lat="43.95343" lon="6.52224">
        <ele>898.8</ele>
        <time>2025-08-04T10:54:28.753Z</time>
      </trkpt>
      <trkpt lat="43.95349" lon="6.52215">
        <ele>898.8</ele>
        <time>2025-08-04T10:54:43.124Z</time>
      </trkpt>
      <trkpt lat="43.95353" lon="6.52205">
        <ele>899.1</ele>
        <time>2025-08-04T10:54:58.157Z</time>
      </trkpt>
      <trkpt lat="43.95356" lon="6.522">
        <ele>899.2</ele>
        <time>2025-08-04T10:55:06.308Z</time>
      </trkpt>
      <trkpt lat="43.95358" lon="6.52194">
        <ele>899.4</ele>
        <time>2025-08-04T10:55:15.155Z</time>
      </trkpt>
      <trkpt lat="43.95362" lon="6.52184">
        <ele>899.7</ele>
        <time>2025-08-04T10:55:30.188Z</time>
      </trkpt>
      <trkpt lat="43.95366" lon="6.52173">
        <ele>900.1</ele>
        <time>2025-08-04T10:55:46.842Z</time>
      </trkpt>
      <trkpt lat="43.95371" lon="6.52163">
        <ele>900.1</ele>
        <time>2025-08-04T10:56:01.107Z</time>
      </trkpt>
      <trkpt lat="43.95372" lon="6.52163">
        <ele>900</ele>
        <time>2025-08-04T10:56:02.531Z</time>
      </trkpt>
      <trkpt lat="43.95375" lon="6.52156">
        <ele>900.1</ele>
        <time>2025-08-04T10:56:12.596Z</time>
      </trkpt>
      <trkpt lat="43.95377" lon="6.52149">
        <ele>900.2</ele>
        <time>2025-08-04T10:56:21.941Z</time>
      </trkpt>
      <trkpt lat="43.95379" lon="6.52141">
        <ele>900.3</ele>
        <time>2025-08-04T10:56:32.383Z</time>
      </trkpt>
      <trkpt lat="43.95381" lon="6.52133">
        <ele>900.2</ele>
        <time>2025-08-04T10:56:41.821Z</time>
      </trkpt>
      <trkpt lat="43.95383" lon="6.52125">
        <ele>900</ele>
        <time>2025-08-04T10:56:50.808Z</time>
      </trkpt>
      <trkpt lat="43.95385" lon="6.52117">
        <ele>899.7</ele>
        <time>2025-08-04T10:56:59.490Z</time>
      </trkpt>
      <trkpt lat="43.95388" lon="6.5211">
        <ele>899.2</ele>
        <time>2025-08-04T10:57:07.842Z</time>
      </trkpt>
      <trkpt lat="43.9539" lon="6.52102">
        <ele>898.9</ele>
        <time>2025-08-04T10:57:16.524Z</time>
      </trkpt>
      <trkpt lat="43.95392" lon="6.52094">
        <ele>898.7</ele>
        <time>2025-08-04T10:57:25.511Z</time>
      </trkpt>
      <trkpt lat="43.95395" lon="6.52087">
        <ele>898.3</ele>
        <time>2025-08-04T10:57:33.862Z</time>
      </trkpt>
      <trkpt lat="43.95397" lon="6.52081">
        <ele>898.2</ele>
        <time>2025-08-04T10:57:41.130Z</time>
      </trkpt>
      <trkpt lat="43.954" lon="6.52074">
        <ele>898</ele>
        <time>2025-08-04T10:57:49.742Z</time>
      </trkpt>
      <trkpt lat="43.95402" lon="6.52068">
        <ele>897.9</ele>
        <time>2025-08-04T10:57:57.010Z</time>
      </trkpt>
      <trkpt lat="43.95405" lon="6.52061">
        <ele>897.6</ele>
        <time>2025-08-04T10:58:05.362Z</time>
      </trkpt>
      <trkpt lat="43.95407" lon="6.52054">
        <ele>897.4</ele>
        <time>2025-08-04T10:58:13.258Z</time>
      </trkpt>
      <trkpt lat="43.9541" lon="6.52048">
        <ele>896.8</ele>
        <time>2025-08-04T10:58:20.747Z</time>
      </trkpt>
      <trkpt lat="43.95412" lon="6.52041">
        <ele>896.2</ele>
        <time>2025-08-04T10:58:28.468Z</time>
      </trkpt>
      <trkpt lat="43.95414" lon="6.52033">
        <ele>895.6</ele>
        <time>2025-08-04T10:58:37.150Z</time>
      </trkpt>
      <trkpt lat="43.95417" lon="6.52025">
        <ele>895</ele>
        <time>2025-08-04T10:58:46.397Z</time>
      </trkpt>
      <trkpt lat="43.95419" lon="6.52016">
        <ele>894.9</ele>
        <time>2025-08-04T10:58:56.947Z</time>
      </trkpt>
      <trkpt lat="43.95421" lon="6.52008">
        <ele>894.7</ele>
        <time>2025-08-04T10:59:05.934Z</time>
      </trkpt>
      <trkpt lat="43.95423" lon="6.52">
        <ele>894.5</ele>
        <time>2025-08-04T10:59:14.922Z</time>
      </trkpt>
      <trkpt lat="43.95424" lon="6.51993">
        <ele>894.5</ele>
        <time>2025-08-04T10:59:23.283Z</time>
      </trkpt>
      <trkpt lat="43.95426" lon="6.51985">
        <ele>894.3</ele>
        <time>2025-08-04T10:59:32.270Z</time>
      </trkpt>
      <trkpt lat="43.95427" lon="6.51978">
        <ele>894.3</ele>
        <time>2025-08-04T10:59:40.631Z</time>
      </trkpt>
      <trkpt lat="43.95429" lon="6.5197">
        <ele>894.1</ele>
        <time>2025-08-04T10:59:49.618Z</time>
      </trkpt>
      <trkpt lat="43.9543" lon="6.51962">
        <ele>893.9</ele>
        <time>2025-08-04T10:59:58.199Z</time>
      </trkpt>
      <trkpt lat="43.95431" lon="6.51958">
        <ele>893.7</ele>
        <time>2025-08-04T11:00:02.540Z</time>
      </trkpt>
      <trkpt lat="43.9543" lon="6.51957">
        <ele>893.8</ele>
        <time>2025-08-04T11:00:05.149Z</time>
      </trkpt>
      <trkpt lat="43.9543" lon="6.51955">
        <ele>893.7</ele>
        <time>2025-08-04T11:00:07.199Z</time>
      </trkpt>
      <trkpt lat="43.95431" lon="6.51952">
        <ele>893.6</ele>
        <time>2025-08-04T11:00:10.614Z</time>
      </trkpt>
      <trkpt lat="43.95435" lon="6.51945">
        <ele>893</ele>
        <time>2025-08-04T11:00:19.776Z</time>
      </trkpt>
      <trkpt lat="43.95439" lon="6.5194">
        <ele>892.5</ele>
        <time>2025-08-04T11:00:27.439Z</time>
      </trkpt>
      <trkpt lat="43.95443" lon="6.51935">
        <ele>891.8</ele>
        <time>2025-08-04T11:00:35.102Z</time>
      </trkpt>
      <trkpt lat="43.95449" lon="6.51928">
        <ele>891.5</ele>
        <time>2025-08-04T11:00:46.467Z</time>
      </trkpt>
      <trkpt lat="43.95455" lon="6.5192">
        <ele>891.5</ele>
        <time>2025-08-04T11:01:00.002Z</time>
      </trkpt>
      <trkpt lat="43.95459" lon="6.51914">
        <ele>891.4</ele>
        <time>2025-08-04T11:01:09.100Z</time>
      </trkpt>
      <trkpt lat="43.95463" lon="6.51908">
        <ele>891.3</ele>
        <time>2025-08-04T11:01:18.198Z</time>
      </trkpt>
      <trkpt lat="43.95467" lon="6.51902">
        <ele>890.9</ele>
        <time>2025-08-04T11:01:26.582Z</time>
      </trkpt>
      <trkpt lat="43.95471" lon="6.51895">
        <ele>890.5</ele>
        <time>2025-08-04T11:01:35.744Z</time>
      </trkpt>
      <trkpt lat="43.95475" lon="6.51884">
        <ele>890</ele>
        <time>2025-08-04T11:01:48.377Z</time>
      </trkpt>
      <trkpt lat="43.95478" lon="6.51878">
        <ele>889.9</ele>
        <time>2025-08-04T11:01:56.455Z</time>
      </trkpt>
      <trkpt lat="43.95481" lon="6.51867">
        <ele>889.6</ele>
        <time>2025-08-04T11:02:08.842Z</time>
      </trkpt>
      <trkpt lat="43.95483" lon="6.5186">
        <ele>889.4</ele>
        <time>2025-08-04T11:02:16.738Z</time>
      </trkpt>
      <trkpt lat="43.95484" lon="6.51853">
        <ele>889.3</ele>
        <time>2025-08-04T11:02:24.619Z</time>
      </trkpt>
      <trkpt lat="43.95486" lon="6.51845">
        <ele>889.2</ele>
        <time>2025-08-04T11:02:34.057Z</time>
      </trkpt>
      <trkpt lat="43.95487" lon="6.51837">
        <ele>889.1</ele>
        <time>2025-08-04T11:02:43.087Z</time>
      </trkpt>
      <trkpt lat="43.95487" lon="6.51835">
        <ele>889</ele>
        <time>2025-08-04T11:02:45.138Z</time>
      </trkpt>
      <trkpt lat="43.95489" lon="6.51826">
        <ele>888.7</ele>
        <time>2025-08-04T11:02:54.803Z</time>
      </trkpt>
      <trkpt lat="43.9549" lon="6.51817">
        <ele>888.4</ele>
        <time>2025-08-04T11:03:04.139Z</time>
      </trkpt>
      <trkpt lat="43.95492" lon="6.51811">
        <ele>888.2</ele>
        <time>2025-08-04T11:03:10.968Z</time>
      </trkpt>
      <trkpt lat="43.95493" lon="6.51805">
        <ele>888</ele>
        <time>2025-08-04T11:03:17.282Z</time>
      </trkpt>
      <trkpt lat="43.95495" lon="6.51799">
        <ele>888</ele>
        <time>2025-08-04T11:03:25.028Z</time>
      </trkpt>
      <trkpt lat="43.95496" lon="6.51793">
        <ele>888</ele>
        <time>2025-08-04T11:03:32.244Z</time>
      </trkpt>
      <trkpt lat="43.95496" lon="6.51793">
        <ele>888</ele>
        <time>2025-08-04T11:03:32.244Z</time>
      </trkpt>
      <trkpt lat="43.955" lon="6.51782">
        <ele>888</ele>
        <time>2025-08-04T11:03:46.682Z</time>
      </trkpt>
      <trkpt lat="43.95505" lon="6.51773">
        <ele>887.9</ele>
        <time>2025-08-04T11:03:59.514Z</time>
      </trkpt>
      <trkpt lat="43.95509" lon="6.51768">
        <ele>887.9</ele>
        <time>2025-08-04T11:04:08.271Z</time>
      </trkpt>
      <trkpt lat="43.95513" lon="6.51763">
        <ele>888</ele>
        <time>2025-08-04T11:04:17.551Z</time>
      </trkpt>
      <trkpt lat="43.95517" lon="6.51759">
        <ele>888.1</ele>
        <time>2025-08-04T11:04:26.096Z</time>
      </trkpt>
      <trkpt lat="43.95521" lon="6.51755">
        <ele>888.4</ele>
        <time>2025-08-04T11:04:35.841Z</time>
      </trkpt>
      <trkpt lat="43.95524" lon="6.5175">
        <ele>888.7</ele>
        <time>2025-08-04T11:04:45.204Z</time>
      </trkpt>
      <trkpt lat="43.95528" lon="6.51746">
        <ele>889</ele>
        <time>2025-08-04T11:04:54.949Z</time>
      </trkpt>
      <trkpt lat="43.95532" lon="6.51741">
        <ele>889.3</ele>
        <time>2025-08-04T11:05:05.410Z</time>
      </trkpt>
      <trkpt lat="43.95536" lon="6.51736">
        <ele>889.8</ele>
        <time>2025-08-04T11:05:17.270Z</time>
      </trkpt>
      <trkpt lat="43.9554" lon="6.5173">
        <ele>890.4</ele>
        <time>2025-08-04T11:05:30.658Z</time>
      </trkpt>
      <trkpt lat="43.95544" lon="6.51725">
        <ele>891.2</ele>
        <time>2025-08-04T11:05:45.138Z</time>
      </trkpt>
      <trkpt lat="43.95549" lon="6.5172">
        <ele>892.1</ele>
        <time>2025-08-04T11:06:01.558Z</time>
      </trkpt>
      <trkpt lat="43.95554" lon="6.51714">
        <ele>892.8</ele>
        <time>2025-08-04T11:06:16.797Z</time>
      </trkpt>
      <trkpt lat="43.95559" lon="6.5171">
        <ele>893.5</ele>
        <time>2025-08-04T11:06:30.851Z</time>
      </trkpt>
      <trkpt lat="43.95565" lon="6.51709">
        <ele>894.4</ele>
        <time>2025-08-04T11:06:47.128Z</time>
      </trkpt>
      <trkpt lat="43.95572" lon="6.51712">
        <ele>895.4</ele>
        <time>2025-08-04T11:07:05.978Z</time>
      </trkpt>
      <trkpt lat="43.95576" lon="6.51715">
        <ele>895.9</ele>
        <time>2025-08-04T11:07:16.613Z</time>
      </trkpt>
      <trkpt lat="43.9558" lon="6.51718">
        <ele>896.5</ele>
        <time>2025-08-04T11:07:28.120Z</time>
      </trkpt>
      <trkpt lat="43.95586" lon="6.51723">
        <ele>897.1</ele>
        <time>2025-08-04T11:07:43.166Z</time>
      </trkpt>
      <trkpt lat="43.95591" lon="6.51727">
        <ele>896.9</ele>
        <time>2025-08-04T11:07:51.625Z</time>
      </trkpt>
      <trkpt lat="43.95599" lon="6.51729">
        <ele>897.3</ele>
        <time>2025-08-04T11:08:07.091Z</time>
      </trkpt>
      <trkpt lat="43.95605" lon="6.51728">
        <ele>897.9</ele>
        <time>2025-08-04T11:08:20.709Z</time>
      </trkpt>
      <trkpt lat="43.95612" lon="6.51723">
        <ele>899</ele>
        <time>2025-08-04T11:08:41.204Z</time>
      </trkpt>
      <trkpt lat="43.95617" lon="6.51717">
        <ele>900</ele>
        <time>2025-08-04T11:08:59.160Z</time>
      </trkpt>
      <trkpt lat="43.9562" lon="6.51708">
        <ele>900.8</ele>
        <time>2025-08-04T11:09:15.987Z</time>
      </trkpt>
      <trkpt lat="43.9562" lon="6.51707">
        <ele>900.9</ele>
        <time>2025-08-04T11:09:17.855Z</time>
      </trkpt>
      <trkpt lat="43.95621" lon="6.517">
        <ele>901.4</ele>
        <time>2025-08-04T11:09:29.353Z</time>
      </trkpt>
      <trkpt lat="43.95619" lon="6.5169">
        <ele>901.9</ele>
        <time>2025-08-04T11:09:44.427Z</time>
      </trkpt>
      <trkpt lat="43.95618" lon="6.51684">
        <ele>902.3</ele>
        <time>2025-08-04T11:09:54.109Z</time>
      </trkpt>
      <trkpt lat="43.95617" lon="6.51677">
        <ele>902.7</ele>
        <time>2025-08-04T11:10:04.863Z</time>
      </trkpt>
      <trkpt lat="43.95616" lon="6.51671">
        <ele>903.1</ele>
        <time>2025-08-04T11:10:14.544Z</time>
      </trkpt>
      <trkpt lat="43.95615" lon="6.51664">
        <ele>903.3</ele>
        <time>2025-08-04T11:10:23.998Z</time>
      </trkpt>
      <trkpt lat="43.95614" lon="6.51652">
        <ele>903.6</ele>
        <time>2025-08-04T11:10:39.773Z</time>
      </trkpt>
      <trkpt lat="43.95615" lon="6.5164">
        <ele>904</ele>
        <time>2025-08-04T11:10:56.146Z</time>
      </trkpt>
      <trkpt lat="43.95615" lon="6.51639">
        <ele>904</ele>
        <time>2025-08-04T11:10:57.317Z</time>
      </trkpt>
      <trkpt lat="43.95619" lon="6.51644">
        <ele>903.9</ele>
        <time>2025-08-04T11:11:05.594Z</time>
      </trkpt>
      <trkpt lat="43.95619" lon="6.51644">
        <ele>903.9</ele>
        <time>2025-08-04T11:11:05.594Z</time>
      </trkpt>
      <trkpt lat="43.95615" lon="6.51639">
        <ele>904</ele>
        <time>2025-08-04T11:11:14.873Z</time>
      </trkpt>
      <trkpt lat="43.95619" lon="6.5163">
        <ele>903.7</ele>
        <time>2025-08-04T11:11:25.881Z</time>
      </trkpt>
      <trkpt lat="43.95622" lon="6.51625">
        <ele>903.5</ele>
        <time>2025-08-04T11:11:32.591Z</time>
      </trkpt>
      <trkpt lat="43.95625" lon="6.5162">
        <ele>903.3</ele>
        <time>2025-08-04T11:11:39.301Z</time>
      </trkpt>
      <trkpt lat="43.95629" lon="6.51617">
        <ele>903.2</ele>
        <time>2025-08-04T11:11:46.221Z</time>
      </trkpt>
      <trkpt lat="43.95633" lon="6.51614">
        <ele>903.1</ele>
        <time>2025-08-04T11:11:53.141Z</time>
      </trkpt>
      <trkpt lat="43.95639" lon="6.51611">
        <ele>903</ele>
        <time>2025-08-04T11:12:03.035Z</time>
      </trkpt>
      <trkpt lat="43.95646" lon="6.5161">
        <ele>903.2</ele>
        <time>2025-08-04T11:12:15.554Z</time>
      </trkpt>
      <trkpt lat="43.95652" lon="6.51609">
        <ele>903.3</ele>
        <time>2025-08-04T11:12:25.908Z</time>
      </trkpt>
      <trkpt lat="43.9566" lon="6.51609">
        <ele>903.6</ele>
        <time>2025-08-04T11:12:40.561Z</time>
      </trkpt>
      <trkpt lat="43.95667" lon="6.51609">
        <ele>903.8</ele>
        <time>2025-08-04T11:12:53.021Z</time>
      </trkpt>
      <trkpt lat="43.95675" lon="6.51608">
        <ele>904.1</ele>
        <time>2025-08-04T11:13:07.726Z</time>
      </trkpt>
      <trkpt lat="43.95682" lon="6.51608">
        <ele>904.3</ele>
        <time>2025-08-04T11:13:20.185Z</time>
      </trkpt>
      <trkpt lat="43.9569" lon="6.51608">
        <ele>904.6</ele>
        <time>2025-08-04T11:13:34.839Z</time>
      </trkpt>
      <trkpt lat="43.95697" lon="6.51607">
        <ele>904.7</ele>
        <time>2025-08-04T11:13:46.808Z</time>
      </trkpt>
      <trkpt lat="43.95705" lon="6.51607">
        <ele>904.7</ele>
        <time>2025-08-04T11:13:59.828Z</time>
      </trkpt>
      <trkpt lat="43.95712" lon="6.51606">
        <ele>904.6</ele>
        <time>2025-08-04T11:14:10.794Z</time>
      </trkpt>
      <trkpt lat="43.9572" lon="6.51606">
        <ele>904.6</ele>
        <time>2025-08-04T11:14:23.814Z</time>
      </trkpt>
      <trkpt lat="43.95729" lon="6.51605">
        <ele>904.5</ele>
        <time>2025-08-04T11:14:38.019Z</time>
      </trkpt>
      <trkpt lat="43.95737" lon="6.51605">
        <ele>904.4</ele>
        <time>2025-08-04T11:14:50.551Z</time>
      </trkpt>
      <trkpt lat="43.95745" lon="6.51604">
        <ele>904.3</ele>
        <time>2025-08-04T11:15:03.136Z</time>
      </trkpt>
      <trkpt lat="43.95753" lon="6.51604">
        <ele>904.2</ele>
        <time>2025-08-04T11:15:15.668Z</time>
      </trkpt>
      <trkpt lat="43.9576" lon="6.51604">
        <ele>904.1</ele>
        <time>2025-08-04T11:15:26.575Z</time>
      </trkpt>
      <trkpt lat="43.95767" lon="6.51605">
        <ele>904.2</ele>
        <time>2025-08-04T11:15:38.544Z</time>
      </trkpt>
      <trkpt lat="43.95773" lon="6.51606">
        <ele>904.3</ele>
        <time>2025-08-04T11:15:48.898Z</time>
      </trkpt>
      <trkpt lat="43.95778" lon="6.51607">
        <ele>904.4</ele>
        <time>2025-08-04T11:15:57.643Z</time>
      </trkpt>
      <trkpt lat="43.95782" lon="6.51608">
        <ele>904.5</ele>
        <time>2025-08-04T11:16:04.786Z</time>
      </trkpt>
      <trkpt lat="43.95787" lon="6.51608">
        <ele>904.5</ele>
        <time>2025-08-04T11:16:12.923Z</time>
      </trkpt>
      <trkpt lat="43.95791" lon="6.51608">
        <ele>904.5</ele>
        <time>2025-08-04T11:16:19.433Z</time>
      </trkpt>
      <trkpt lat="43.95798" lon="6.51608">
        <ele>904.5</ele>
        <time>2025-08-04T11:16:30.826Z</time>
      </trkpt>
      <trkpt lat="43.95805" lon="6.51608">
        <ele>904.4</ele>
        <time>2025-08-04T11:16:41.732Z</time>
      </trkpt>
      <trkpt lat="43.95812" lon="6.51608">
        <ele>904.2</ele>
        <time>2025-08-04T11:16:52.182Z</time>
      </trkpt>
      <trkpt lat="43.95818" lon="6.51608">
        <ele>904</ele>
        <time>2025-08-04T11:17:01.013Z</time>
      </trkpt>
      <trkpt lat="43.95823" lon="6.51609">
        <ele>903.9</ele>
        <time>2025-08-04T11:17:08.754Z</time>
      </trkpt>
      <trkpt lat="43.95828" lon="6.51609">
        <ele>903.8</ele>
        <time>2025-08-04T11:17:16.411Z</time>
      </trkpt>
      <trkpt lat="43.95835" lon="6.51611">
        <ele>904</ele>
        <time>2025-08-04T11:17:29.108Z</time>
      </trkpt>
      <trkpt lat="43.95841" lon="6.51613">
        <ele>904.1</ele>
        <time>2025-08-04T11:17:39.669Z</time>
      </trkpt>
      <trkpt lat="43.95847" lon="6.51616">
        <ele>904.3</ele>
        <time>2025-08-04T11:17:51.121Z</time>
      </trkpt>
      <trkpt lat="43.95852" lon="6.51618">
        <ele>904.5</ele>
        <time>2025-08-04T11:18:00.680Z</time>
      </trkpt>
      <trkpt lat="43.9586" lon="6.51618">
        <ele>904.5</ele>
        <time>2025-08-04T11:18:13.700Z</time>
      </trkpt>
      <trkpt lat="43.95865" lon="6.51617">
        <ele>904.4</ele>
        <time>2025-08-04T11:18:21.441Z</time>
      </trkpt>
      <trkpt lat="43.9587" lon="6.51613">
        <ele>904.1</ele>
        <time>2025-08-04T11:18:29.657Z</time>
      </trkpt>
      <trkpt lat="43.95876" lon="6.51606">
        <ele>903.1</ele>
        <time>2025-08-04T11:18:40.815Z</time>
      </trkpt>
      <trkpt lat="43.9588" lon="6.51601">
        <ele>902.2</ele>
        <time>2025-08-04T11:18:48.478Z</time>
      </trkpt>
      <trkpt lat="43.95883" lon="6.51596">
        <ele>901.3</ele>
        <time>2025-08-04T11:18:55.150Z</time>
      </trkpt>
      <trkpt lat="43.95887" lon="6.51591">
        <ele>900.4</ele>
        <time>2025-08-04T11:19:02.813Z</time>
      </trkpt>
      <trkpt lat="43.9589" lon="6.51586">
        <ele>899.5</ele>
        <time>2025-08-04T11:19:09.485Z</time>
      </trkpt>
      <trkpt lat="43.95895" lon="6.51582">
        <ele>898.9</ele>
        <time>2025-08-04T11:19:17.702Z</time>
      </trkpt>
      <trkpt lat="43.959" lon="6.51581">
        <ele>898.7</ele>
        <time>2025-08-04T11:19:25.001Z</time>
      </trkpt>
      <trkpt lat="43.95904" lon="6.51581">
        <ele>898.7</ele>
        <time>2025-08-04T11:19:31.511Z</time>
      </trkpt>
      <trkpt lat="43.95902" lon="6.51574">
        <ele>898</ele>
        <time>2025-08-04T11:19:39.231Z</time>
      </trkpt>
      <trkpt lat="43.95898" lon="6.51568">
        <ele>897.3</ele>
        <time>2025-08-04T11:19:47.614Z</time>
      </trkpt>
      <trkpt lat="43.95892" lon="6.51561">
        <ele>896.6</ele>
        <time>2025-08-04T11:19:58.772Z</time>
      </trkpt>
      <trkpt lat="43.95888" lon="6.51559">
        <ele>896.3</ele>
        <time>2025-08-04T11:20:04.826Z</time>
      </trkpt>
      <trkpt lat="43.95883" lon="6.51556">
        <ele>895.8</ele>
        <time>2025-08-04T11:20:12.582Z</time>
      </trkpt>
      <trkpt lat="43.95879" lon="6.51554">
        <ele>895.3</ele>
        <time>2025-08-04T11:20:18.636Z</time>
      </trkpt>
      <trkpt lat="43.95874" lon="6.51551">
        <ele>894.8</ele>
        <time>2025-08-04T11:20:26.392Z</time>
      </trkpt>
      <trkpt lat="43.9587" lon="6.51548">
        <ele>894.1</ele>
        <time>2025-08-04T11:20:32.865Z</time>
      </trkpt>
      <trkpt lat="43.95865" lon="6.51544">
        <ele>893.5</ele>
        <time>2025-08-04T11:20:41.082Z</time>
      </trkpt>
      <trkpt lat="43.95862" lon="6.51543">
        <ele>893.2</ele>
        <time>2025-08-04T11:20:45.475Z</time>
      </trkpt>
      <trkpt lat="43.95859" lon="6.51543">
        <ele>893.2</ele>
        <time>2025-08-04T11:20:50.358Z</time>
      </trkpt>
      <trkpt lat="43.95856" lon="6.51543">
        <ele>893.1</ele>
        <time>2025-08-04T11:20:54.773Z</time>
      </trkpt>
      <trkpt lat="43.95854" lon="6.51543">
        <ele>893.1</ele>
        <time>2025-08-04T11:20:58.028Z</time>
      </trkpt>
      <trkpt lat="43.95851" lon="6.51542">
        <ele>892.9</ele>
        <time>2025-08-04T11:21:02.422Z</time>
      </trkpt>
      <trkpt lat="43.95848" lon="6.51542">
        <ele>892.8</ele>
        <time>2025-08-04T11:21:06.837Z</time>
      </trkpt>
      <trkpt lat="43.95845" lon="6.51541">
        <ele>892.6</ele>
        <time>2025-08-04T11:21:11.230Z</time>
      </trkpt>
      <trkpt lat="43.95842" lon="6.51541">
        <ele>892.5</ele>
        <time>2025-08-04T11:21:15.646Z</time>
      </trkpt>
      <trkpt lat="43.9584" lon="6.5154">
        <ele>892.3</ele>
        <time>2025-08-04T11:21:18.673Z</time>
      </trkpt>
      <trkpt lat="43.95837" lon="6.51538">
        <ele>891.9</ele>
        <time>2025-08-04T11:21:23.412Z</time>
      </trkpt>
      <trkpt lat="43.95835" lon="6.51536">
        <ele>891.5</ele>
        <time>2025-08-04T11:21:26.921Z</time>
      </trkpt>
      <trkpt lat="43.95832" lon="6.51535">
        <ele>891.3</ele>
        <time>2025-08-04T11:21:31.314Z</time>
      </trkpt>
      <trkpt lat="43.9583" lon="6.51532">
        <ele>890.9</ele>
        <time>2025-08-04T11:21:35.506Z</time>
      </trkpt>
      <trkpt lat="43.95828" lon="6.51529">
        <ele>890.4</ele>
        <time>2025-08-04T11:21:39.697Z</time>
      </trkpt>
      <trkpt lat="43.95825" lon="6.51527">
        <ele>890.1</ele>
        <time>2025-08-04T11:21:44.436Z</time>
      </trkpt>
      <trkpt lat="43.95823" lon="6.51526">
        <ele>889.9</ele>
        <time>2025-08-04T11:21:47.463Z</time>
      </trkpt>
      <trkpt lat="43.9582" lon="6.51526">
        <ele>890</ele>
        <time>2025-08-04T11:21:52.885Z</time>
      </trkpt>
      <trkpt lat="43.95819" lon="6.51525">
        <ele>889.8</ele>
        <time>2025-08-04T11:21:54.639Z</time>
      </trkpt>
      <trkpt lat="43.95817" lon="6.51524">
        <ele>889.6</ele>
        <time>2025-08-04T11:21:57.666Z</time>
      </trkpt>
      <trkpt lat="43.95815" lon="6.51523">
        <ele>889.5</ele>
        <time>2025-08-04T11:22:00.693Z</time>
      </trkpt>
      <trkpt lat="43.95812" lon="6.51523">
        <ele>889.6</ele>
        <time>2025-08-04T11:22:06.115Z</time>
      </trkpt>
      <trkpt lat="43.95809" lon="6.51522">
        <ele>889.4</ele>
        <time>2025-08-04T11:22:10.508Z</time>
      </trkpt>
      <trkpt lat="43.95806" lon="6.51521">
        <ele>889.3</ele>
        <time>2025-08-04T11:22:15.062Z</time>
      </trkpt>
      <trkpt lat="43.95804" lon="6.5152">
        <ele>889.1</ele>
        <time>2025-08-04T11:22:18.089Z</time>
      </trkpt>
      <trkpt lat="43.95801" lon="6.5152">
        <ele>889.3</ele>
        <time>2025-08-04T11:22:24.136Z</time>
      </trkpt>
      <trkpt lat="43.95799" lon="6.5152">
        <ele>889.4</ele>
        <time>2025-08-04T11:22:27.951Z</time>
      </trkpt>
      <trkpt lat="43.95796" lon="6.5152">
        <ele>889.6</ele>
        <time>2025-08-04T11:22:33.999Z</time>
      </trkpt>
      <trkpt lat="43.95794" lon="6.5152">
        <ele>889.7</ele>
        <time>2025-08-04T11:22:37.814Z</time>
      </trkpt>
      <trkpt lat="43.95791" lon="6.5152">
        <ele>889.9</ele>
        <time>2025-08-04T11:22:43.862Z</time>
      </trkpt>
      <trkpt lat="43.95788" lon="6.5152">
        <ele>890</ele>
        <time>2025-08-04T11:22:49.283Z</time>
      </trkpt>
      <trkpt lat="43.95785" lon="6.5152">
        <ele>890.2</ele>
        <time>2025-08-04T11:22:55.331Z</time>
      </trkpt>
      <trkpt lat="43.95783" lon="6.51519">
        <ele>890.1</ele>
        <time>2025-08-04T11:22:58.358Z</time>
      </trkpt>
      <trkpt lat="43.9578" lon="6.51517">
        <ele>889.9</ele>
        <time>2025-08-04T11:23:03.097Z</time>
      </trkpt>
      <trkpt lat="43.95778" lon="6.51517">
        <ele>890</ele>
        <time>2025-08-04T11:23:06.912Z</time>
      </trkpt>
      <trkpt lat="43.95775" lon="6.51516">
        <ele>890</ele>
        <time>2025-08-04T11:23:11.933Z</time>
      </trkpt>
      <trkpt lat="43.95772" lon="6.51515">
        <ele>889.9</ele>
        <time>2025-08-04T11:23:16.486Z</time>
      </trkpt>
      <trkpt lat="43.9577" lon="6.51514">
        <ele>889.8</ele>
        <time>2025-08-04T11:23:19.513Z</time>
      </trkpt>
      <trkpt lat="43.95767" lon="6.51512">
        <ele>889.5</ele>
        <time>2025-08-04T11:23:24.252Z</time>
      </trkpt>
      <trkpt lat="43.95765" lon="6.51511">
        <ele>889.4</ele>
        <time>2025-08-04T11:23:27.279Z</time>
      </trkpt>
      <trkpt lat="43.95762" lon="6.51509">
        <ele>889.2</ele>
        <time>2025-08-04T11:23:32.017Z</time>
      </trkpt>
      <trkpt lat="43.9576" lon="6.51508">
        <ele>889.1</ele>
        <time>2025-08-04T11:23:35.044Z</time>
      </trkpt>
      <trkpt lat="43.95757" lon="6.51508">
        <ele>889.2</ele>
        <time>2025-08-04T11:23:40.466Z</time>
      </trkpt>
      <trkpt lat="43.95754" lon="6.51507">
        <ele>889.1</ele>
        <time>2025-08-04T11:23:45.019Z</time>
      </trkpt>
      <trkpt lat="43.95752" lon="6.51507">
        <ele>889.2</ele>
        <time>2025-08-04T11:23:48.834Z</time>
      </trkpt>
      <trkpt lat="43.95749" lon="6.51506">
        <ele>889.1</ele>
        <time>2025-08-04T11:23:53.388Z</time>
      </trkpt>
      <trkpt lat="43.95747" lon="6.51506">
        <ele>889.1</ele>
        <time>2025-08-04T11:23:56.643Z</time>
      </trkpt>
      <trkpt lat="43.95744" lon="6.51507">
        <ele>889.3</ele>
        <time>2025-08-04T11:24:02.824Z</time>
      </trkpt>
      <trkpt lat="43.95742" lon="6.51509">
        <ele>889.6</ele>
        <time>2025-08-04T11:24:08.835Z</time>
      </trkpt>
      <trkpt lat="43.95739" lon="6.5151">
        <ele>889.8</ele>
        <time>2025-08-04T11:24:15.016Z</time>
      </trkpt>
      <trkpt lat="43.95737" lon="6.51511">
        <ele>890</ele>
        <time>2025-08-04T11:24:19.720Z</time>
      </trkpt>
      <trkpt lat="43.95734" lon="6.51511">
        <ele>890</ele>
        <time>2025-08-04T11:24:24.603Z</time>
      </trkpt>
      <trkpt lat="43.95732" lon="6.51512">
        <ele>890.2</ele>
        <time>2025-08-04T11:24:29.307Z</time>
      </trkpt>
      <trkpt lat="43.95729" lon="6.51513">
        <ele>890.3</ele>
        <time>2025-08-04T11:24:34.866Z</time>
      </trkpt>
      <trkpt lat="43.95727" lon="6.51513">
        <ele>890.3</ele>
        <time>2025-08-04T11:24:38.121Z</time>
      </trkpt>
      <trkpt lat="43.95724" lon="6.51512">
        <ele>890.2</ele>
        <time>2025-08-04T11:24:42.675Z</time>
      </trkpt>
      <trkpt lat="43.95721" lon="6.51512">
        <ele>890.2</ele>
        <time>2025-08-04T11:24:47.557Z</time>
      </trkpt>
      <trkpt lat="43.95718" lon="6.51511">
        <ele>890.1</ele>
        <time>2025-08-04T11:24:52.110Z</time>
      </trkpt>
      <trkpt lat="43.95716" lon="6.51511">
        <ele>890.2</ele>
        <time>2025-08-04T11:24:55.925Z</time>
      </trkpt>
      <trkpt lat="43.95713" lon="6.5151">
        <ele>890.1</ele>
        <time>2025-08-04T11:25:00.479Z</time>
      </trkpt>
      <trkpt lat="43.9571" lon="6.5151">
        <ele>890.2</ele>
        <time>2025-08-04T11:25:05.900Z</time>
      </trkpt>
      <trkpt lat="43.95708" lon="6.5151">
        <ele>890.3</ele>
        <time>2025-08-04T11:25:09.716Z</time>
      </trkpt>
      <trkpt lat="43.95705" lon="6.51509">
        <ele>890.2</ele>
        <time>2025-08-04T11:25:14.269Z</time>
      </trkpt>
      <trkpt lat="43.95702" lon="6.51509">
        <ele>890.3</ele>
        <time>2025-08-04T11:25:19.691Z</time>
      </trkpt>
      <trkpt lat="43.95699" lon="6.51509">
        <ele>890.5</ele>
        <time>2025-08-04T11:25:25.738Z</time>
      </trkpt>
      <trkpt lat="43.95697" lon="6.51508">
        <ele>890.3</ele>
        <time>2025-08-04T11:25:28.765Z</time>
      </trkpt>
      <trkpt lat="43.95694" lon="6.51507">
        <ele>890.3</ele>
        <time>2025-08-04T11:25:33.786Z</time>
      </trkpt>
      <trkpt lat="43.95691" lon="6.51507">
        <ele>890.4</ele>
        <time>2025-08-04T11:25:39.208Z</time>
      </trkpt>
      <trkpt lat="43.95688" lon="6.51505">
        <ele>890.1</ele>
        <time>2025-08-04T11:25:43.947Z</time>
      </trkpt>
      <trkpt lat="43.95686" lon="6.51504">
        <ele>890</ele>
        <time>2025-08-04T11:25:46.974Z</time>
      </trkpt>
      <trkpt lat="43.95683" lon="6.51504">
        <ele>890.1</ele>
        <time>2025-08-04T11:25:52.395Z</time>
      </trkpt>
      <trkpt lat="43.95681" lon="6.51503">
        <ele>890</ele>
        <time>2025-08-04T11:25:55.422Z</time>
      </trkpt>
      <trkpt lat="43.95678" lon="6.51503">
        <ele>890.1</ele>
        <time>2025-08-04T11:26:00.844Z</time>
      </trkpt>
      <trkpt lat="43.95675" lon="6.51502">
        <ele>890</ele>
        <time>2025-08-04T11:26:05.397Z</time>
      </trkpt>
      <trkpt lat="43.95673" lon="6.51501">
        <ele>889.9</ele>
        <time>2025-08-04T11:26:08.424Z</time>
      </trkpt>
      <trkpt lat="43.9567" lon="6.515">
        <ele>889.9</ele>
        <time>2025-08-04T11:26:13.445Z</time>
      </trkpt>
      <trkpt lat="43.95668" lon="6.51498">
        <ele>889.4</ele>
        <time>2025-08-04T11:26:16.955Z</time>
      </trkpt>
      <trkpt lat="43.95666" lon="6.51496">
        <ele>889</ele>
        <time>2025-08-04T11:26:20.464Z</time>
      </trkpt>
      <trkpt lat="43.95664" lon="6.51493">
        <ele>888.3</ele>
        <time>2025-08-04T11:26:24.656Z</time>
      </trkpt>
      <trkpt lat="43.95662" lon="6.51489">
        <ele>887.4</ele>
        <time>2025-08-04T11:26:29.648Z</time>
      </trkpt>
      <trkpt lat="43.9566" lon="6.51487">
        <ele>886.9</ele>
        <time>2025-08-04T11:26:33.157Z</time>
      </trkpt>
      <trkpt lat="43.95658" lon="6.51485">
        <ele>886.6</ele>
        <time>2025-08-04T11:26:36.667Z</time>
      </trkpt>
      <trkpt lat="43.95656" lon="6.51484">
        <ele>886.4</ele>
        <time>2025-08-04T11:26:39.694Z</time>
      </trkpt>
      <trkpt lat="43.95654" lon="6.51483">
        <ele>886.3</ele>
        <time>2025-08-04T11:26:42.721Z</time>
      </trkpt>
      <trkpt lat="43.95651" lon="6.51484">
        <ele>886.6</ele>
        <time>2025-08-04T11:26:49.623Z</time>
      </trkpt>
      <trkpt lat="43.95648" lon="6.51483">
        <ele>886.5</ele>
        <time>2025-08-04T11:26:54.177Z</time>
      </trkpt>
      <trkpt lat="43.95645" lon="6.51483">
        <ele>886.7</ele>
        <time>2025-08-04T11:27:00.224Z</time>
      </trkpt>
      <trkpt lat="43.95643" lon="6.51483">
        <ele>886.8</ele>
        <time>2025-08-04T11:27:04.039Z</time>
      </trkpt>
      <trkpt lat="43.9564" lon="6.51482">
        <ele>886.7</ele>
        <time>2025-08-04T11:27:08.593Z</time>
      </trkpt>
      <trkpt lat="43.95637" lon="6.51481">
        <ele>886.5</ele>
        <time>2025-08-04T11:27:12.986Z</time>
      </trkpt>
      <trkpt lat="43.95634" lon="6.5148">
        <ele>886.2</ele>
        <time>2025-08-04T11:27:17.379Z</time>
      </trkpt>
      <trkpt lat="43.95632" lon="6.51478">
        <ele>885.7</ele>
        <time>2025-08-04T11:27:20.889Z</time>
      </trkpt>
      <trkpt lat="43.95629" lon="6.51477">
        <ele>885.4</ele>
        <time>2025-08-04T11:27:25.282Z</time>
      </trkpt>
      <trkpt lat="43.95626" lon="6.51475">
        <ele>885</ele>
        <time>2025-08-04T11:27:30.021Z</time>
      </trkpt>
      <trkpt lat="43.95624" lon="6.51474">
        <ele>884.7</ele>
        <time>2025-08-04T11:27:33.048Z</time>
      </trkpt>
      <trkpt lat="43.95621" lon="6.51472">
        <ele>884.3</ele>
        <time>2025-08-04T11:27:37.786Z</time>
      </trkpt>
      <trkpt lat="43.95618" lon="6.51471">
        <ele>884.1</ele>
        <time>2025-08-04T11:27:42.180Z</time>
      </trkpt>
      <trkpt lat="43.95616" lon="6.51469">
        <ele>883.7</ele>
        <time>2025-08-04T11:27:45.689Z</time>
      </trkpt>
      <trkpt lat="43.95613" lon="6.51467">
        <ele>883.3</ele>
        <time>2025-08-04T11:27:50.428Z</time>
      </trkpt>
      <trkpt lat="43.95611" lon="6.51466">
        <ele>883.1</ele>
        <time>2025-08-04T11:27:53.455Z</time>
      </trkpt>
      <trkpt lat="43.95609" lon="6.51466">
        <ele>882.9</ele>
        <time>2025-08-04T11:27:56.303Z</time>
      </trkpt>
      <trkpt lat="43.95607" lon="6.51465">
        <ele>882.6</ele>
        <time>2025-08-04T11:27:59.330Z</time>
      </trkpt>
      <trkpt lat="43.95605" lon="6.51464">
        <ele>882.3</ele>
        <time>2025-08-04T11:28:02.357Z</time>
      </trkpt>
      <trkpt lat="43.95603" lon="6.51461">
        <ele>881.7</ele>
        <time>2025-08-04T11:28:06.549Z</time>
      </trkpt>
      <trkpt lat="43.95601" lon="6.5146">
        <ele>881.5</ele>
        <time>2025-08-04T11:28:09.576Z</time>
      </trkpt>
      <trkpt lat="43.95599" lon="6.5146">
        <ele>881.3</ele>
        <time>2025-08-04T11:28:12.424Z</time>
      </trkpt>
      <trkpt lat="43.95597" lon="6.5146">
        <ele>881.2</ele>
        <time>2025-08-04T11:28:15.272Z</time>
      </trkpt>
      <trkpt lat="43.95595" lon="6.51461">
        <ele>881.1</ele>
        <time>2025-08-04T11:28:18.299Z</time>
      </trkpt>
      <trkpt lat="43.95593" lon="6.51463">
        <ele>881.1</ele>
        <time>2025-08-04T11:28:22.309Z</time>
      </trkpt>
      <trkpt lat="43.9559" lon="6.51464">
        <ele>881</ele>
        <time>2025-08-04T11:28:26.863Z</time>
      </trkpt>
      <trkpt lat="43.95588" lon="6.51465">
        <ele>880.9</ele>
        <time>2025-08-04T11:28:29.890Z</time>
      </trkpt>
      <trkpt lat="43.95585" lon="6.51466">
        <ele>880.7</ele>
        <time>2025-08-04T11:28:34.283Z</time>
      </trkpt>
      <trkpt lat="43.95583" lon="6.51467">
        <ele>880.6</ele>
        <time>2025-08-04T11:28:37.310Z</time>
      </trkpt>
      <trkpt lat="43.95581" lon="6.51468">
        <ele>880.7</ele>
        <time>2025-08-04T11:28:41.326Z</time>
      </trkpt>
      <trkpt lat="43.95578" lon="6.51469">
        <ele>880.8</ele>
        <time>2025-08-04T11:28:46.885Z</time>
      </trkpt>
      <trkpt lat="43.95576" lon="6.51469">
        <ele>880.8</ele>
        <time>2025-08-04T11:28:50.140Z</time>
      </trkpt>
      <trkpt lat="43.95573" lon="6.51469">
        <ele>880.8</ele>
        <time>2025-08-04T11:28:55.023Z</time>
      </trkpt>
      <trkpt lat="43.95571" lon="6.51468">
        <ele>880.7</ele>
        <time>2025-08-04T11:28:58.049Z</time>
      </trkpt>
      <trkpt lat="43.95568" lon="6.51468">
        <ele>880.7</ele>
        <time>2025-08-04T11:29:02.932Z</time>
      </trkpt>
      <trkpt lat="43.95566" lon="6.51467">
        <ele>880.6</ele>
        <time>2025-08-04T11:29:05.959Z</time>
      </trkpt>
      <trkpt lat="43.95564" lon="6.51466">
        <ele>880.6</ele>
        <time>2025-08-04T11:29:09.418Z</time>
      </trkpt>
      <trkpt lat="43.95561" lon="6.51465">
        <ele>880.5</ele>
        <time>2025-08-04T11:29:13.972Z</time>
      </trkpt>
      <trkpt lat="43.95559" lon="6.51464">
        <ele>880.4</ele>
        <time>2025-08-04T11:29:16.999Z</time>
      </trkpt>
      <trkpt lat="43.95556" lon="6.51463">
        <ele>880.3</ele>
        <time>2025-08-04T11:29:21.552Z</time>
      </trkpt>
      <trkpt lat="43.95554" lon="6.51463">
        <ele>880.6</ele>
        <time>2025-08-04T11:29:26.960Z</time>
      </trkpt>
      <trkpt lat="43.95551" lon="6.51463">
        <ele>881</ele>
        <time>2025-08-04T11:29:34.591Z</time>
      </trkpt>
      <trkpt lat="43.9555" lon="6.51463">
        <ele>881.2</ele>
        <time>2025-08-04T11:29:37.863Z</time>
      </trkpt>
      <trkpt lat="43.95547" lon="6.51463">
        <ele>881.7</ele>
        <time>2025-08-04T11:29:46.497Z</time>
      </trkpt>
      <trkpt lat="43.95547" lon="6.5146">
        <ele>881.5</ele>
        <time>2025-08-04T11:29:49.572Z</time>
      </trkpt>
      <trkpt lat="43.95545" lon="6.51457">
        <ele>881.6</ele>
        <time>2025-08-04T11:29:54.903Z</time>
      </trkpt>
      <trkpt lat="43.95545" lon="6.51457">
        <ele>881.6</ele>
        <time>2025-08-04T11:29:54.903Z</time>
      </trkpt>
      <trkpt lat="43.95542" lon="6.51454">
        <ele>882</ele>
        <time>2025-08-04T11:30:03.497Z</time>
      </trkpt>
      <trkpt lat="43.95538" lon="6.51446">
        <ele>882.2</ele>
        <time>2025-08-04T11:30:15.976Z</time>
      </trkpt>
      <trkpt lat="43.95533" lon="6.51437">
        <ele>882.6</ele>
        <time>2025-08-04T11:30:31.530Z</time>
      </trkpt>
      <trkpt lat="43.95526" lon="6.51433">
        <ele>883.8</ele>
        <time>2025-08-04T11:30:52.659Z</time>
      </trkpt>
      <trkpt lat="43.95519" lon="6.51433">
        <ele>886</ele>
        <time>2025-08-04T11:31:29.199Z</time>
      </trkpt>
      <trkpt lat="43.95511" lon="6.51432">
        <ele>888.5</ele>
        <time>2025-08-04T11:32:10.599Z</time>
      </trkpt>
      <trkpt lat="43.95505" lon="6.51434">
        <ele>890.6</ele>
        <time>2025-08-04T11:32:46.490Z</time>
      </trkpt>
      <trkpt lat="43.95499" lon="6.51435">
        <ele>892.6</ele>
        <time>2025-08-04T11:33:20.303Z</time>
      </trkpt>
      <trkpt lat="43.95494" lon="6.51435">
        <ele>894</ele>
        <time>2025-08-04T11:33:42.925Z</time>
      </trkpt>
      <trkpt lat="43.95488" lon="6.51434">
        <ele>895.7</ele>
        <time>2025-08-04T11:34:10.416Z</time>
      </trkpt>
      <trkpt lat="43.95481" lon="6.5143">
        <ele>897.4</ele>
        <time>2025-08-04T11:34:37.716Z</time>
      </trkpt>
      <trkpt lat="43.95479" lon="6.51422">
        <ele>897.4</ele>
        <time>2025-08-04T11:34:47.638Z</time>
      </trkpt>
      <trkpt lat="43.95477" lon="6.51414">
        <ele>897.4</ele>
        <time>2025-08-04T11:34:57.560Z</time>
      </trkpt>
      <trkpt lat="43.95473" lon="6.51408">
        <ele>898.1</ele>
        <time>2025-08-04T11:35:11.776Z</time>
      </trkpt>
      <trkpt lat="43.9547" lon="6.51402">
        <ele>898.2</ele>
        <time>2025-08-04T11:35:20.857Z</time>
      </trkpt>
      <trkpt lat="43.95466" lon="6.51396">
        <ele>898.4</ele>
        <time>2025-08-04T11:35:31.518Z</time>
      </trkpt>
      <trkpt lat="43.95462" lon="6.5139">
        <ele>898.5</ele>
        <time>2025-08-04T11:35:41.619Z</time>
      </trkpt>
      <trkpt lat="43.95457" lon="6.51385">
        <ele>898.7</ele>
        <time>2025-08-04T11:35:52.723Z</time>
      </trkpt>
      <trkpt lat="43.95453" lon="6.51379">
        <ele>898.6</ele>
        <time>2025-08-04T11:36:01.820Z</time>
      </trkpt>
      <trkpt lat="43.95448" lon="6.51374">
        <ele>898.8</ele>
        <time>2025-08-04T11:36:12.924Z</time>
      </trkpt>
      <trkpt lat="43.95443" lon="6.51368">
        <ele>898.8</ele>
        <time>2025-08-04T11:36:23.677Z</time>
      </trkpt>
      <trkpt lat="43.95438" lon="6.51364">
        <ele>898.5</ele>
        <time>2025-08-04T11:36:31.894Z</time>
      </trkpt>
      <trkpt lat="43.95432" lon="6.51359">
        <ele>898.1</ele>
        <time>2025-08-04T11:36:41.857Z</time>
      </trkpt>
      <trkpt lat="43.95424" lon="6.51357">
        <ele>898.1</ele>
        <time>2025-08-04T11:36:55.087Z</time>
      </trkpt>
      <trkpt lat="43.95416" lon="6.51354">
        <ele>898</ele>
        <time>2025-08-04T11:37:08.084Z</time>
      </trkpt>
      <trkpt lat="43.95409" lon="6.51356">
        <ele>898</ele>
        <time>2025-08-04T11:37:19.715Z</time>
      </trkpt>
      <trkpt lat="43.95402" lon="6.51357">
        <ele>898</ele>
        <time>2025-08-04T11:37:31.168Z</time>
      </trkpt>
      <trkpt lat="43.95396" lon="6.51359">
        <ele>898</ele>
        <time>2025-08-04T11:37:41.210Z</time>
      </trkpt>
      <trkpt lat="43.9539" lon="6.51362">
        <ele>898.1</ele>
        <time>2025-08-04T11:37:52.107Z</time>
      </trkpt>
      <trkpt lat="43.95383" lon="6.51364">
        <ele>897.9</ele>
        <time>2025-08-04T11:38:02.793Z</time>
      </trkpt>
      <trkpt lat="43.95377" lon="6.51366">
        <ele>897.7</ele>
        <time>2025-08-04T11:38:11.900Z</time>
      </trkpt>
      <trkpt lat="43.95371" lon="6.51371">
        <ele>898</ele>
        <time>2025-08-04T11:38:24.940Z</time>
      </trkpt>
      <trkpt lat="43.95364" lon="6.51376">
        <ele>898.3</ele>
        <time>2025-08-04T11:38:39.386Z</time>
      </trkpt>
      <trkpt lat="43.95357" lon="6.51383">
        <ele>898</ele>
        <time>2025-08-04T11:38:52.027Z</time>
      </trkpt>
      <trkpt lat="43.95351" lon="6.51388">
        <ele>897.3</ele>
        <time>2025-08-04T11:39:01.991Z</time>
      </trkpt>
      <trkpt lat="43.95344" lon="6.51392">
        <ele>896.5</ele>
        <time>2025-08-04T11:39:12.770Z</time>
      </trkpt>
      <trkpt lat="43.95344" lon="6.51401">
        <ele>898.8</ele>
        <time>2025-08-04T11:39:52.789Z</time>
      </trkpt>
      <trkpt lat="43.95343" lon="6.51409">
        <ele>900.7</ele>
        <time>2025-08-04T11:40:24.701Z</time>
      </trkpt>
      <trkpt lat="43.95339" lon="6.51416">
        <ele>902.2</ele>
        <time>2025-08-04T11:40:48.718Z</time>
      </trkpt>
      <trkpt lat="43.95334" lon="6.51422">
        <ele>903.6</ele>
        <time>2025-08-04T11:41:11.372Z</time>
      </trkpt>
      <trkpt lat="43.95329" lon="6.51426">
        <ele>903.6</ele>
        <time>2025-08-04T11:41:20.763Z</time>
      </trkpt>
      <trkpt lat="43.95324" lon="6.5143">
        <ele>903.8</ele>
        <time>2025-08-04T11:41:31.235Z</time>
      </trkpt>
      <trkpt lat="43.95319" lon="6.51433">
        <ele>903.9</ele>
        <time>2025-08-04T11:41:40.621Z</time>
      </trkpt>
      <trkpt lat="43.95314" lon="6.51437">
        <ele>904.6</ele>
        <time>2025-08-04T11:41:54.675Z</time>
      </trkpt>
      <trkpt lat="43.9531" lon="6.51442">
        <ele>906.3</ele>
        <time>2025-08-04T11:42:22.957Z</time>
      </trkpt>
      <trkpt lat="43.95306" lon="6.51447">
        <ele>908</ele>
        <time>2025-08-04T11:42:51.239Z</time>
      </trkpt>
      <trkpt lat="43.95302" lon="6.51452">
        <ele>909</ele>
        <time>2025-08-04T11:43:07.902Z</time>
      </trkpt>
      <trkpt lat="43.95298" lon="6.51457">
        <ele>910.1</ele>
        <time>2025-08-04T11:43:25.816Z</time>
      </trkpt>
      <trkpt lat="43.95293" lon="6.51462">
        <ele>911.3</ele>
        <time>2025-08-04T11:43:45.566Z</time>
      </trkpt>
      <trkpt lat="43.95289" lon="6.51467">
        <ele>912.9</ele>
        <time>2025-08-04T11:44:11.736Z</time>
      </trkpt>
      <trkpt lat="43.95285" lon="6.51472">
        <ele>914.7</ele>
        <time>2025-08-04T11:44:42.291Z</time>
      </trkpt>
      <trkpt lat="43.95281" lon="6.51477">
        <ele>915.5</ele>
        <time>2025-08-04T11:44:56.770Z</time>
      </trkpt>
      <trkpt lat="43.95278" lon="6.5148">
        <ele>916</ele>
        <time>2025-08-04T11:45:06.239Z</time>
      </trkpt>
      <trkpt lat="43.95271" lon="6.51485">
        <ele>915.5</ele>
        <time>2025-08-04T11:45:17.448Z</time>
      </trkpt>
      <trkpt lat="43.95269" lon="6.51495">
        <ele>917.9</ele>
        <time>2025-08-04T11:45:57.594Z</time>
      </trkpt>
      <trkpt lat="43.95267" lon="6.51505">
        <ele>919.7</ele>
        <time>2025-08-04T11:46:26.376Z</time>
      </trkpt>
      <trkpt lat="43.95263" lon="6.51511">
        <ele>920</ele>
        <time>2025-08-04T11:46:37.642Z</time>
      </trkpt>
      <trkpt lat="43.95258" lon="6.51517">
        <ele>920.4</ele>
        <time>2025-08-04T11:46:50.692Z</time>
      </trkpt>
      <trkpt lat="43.95254" lon="6.51523">
        <ele>921.2</ele>
        <time>2025-08-04T11:47:05.807Z</time>
      </trkpt>
      <trkpt lat="43.95249" lon="6.51529">
        <ele>922</ele>
        <time>2025-08-04T11:47:21.887Z</time>
      </trkpt>
      <trkpt lat="43.95246" lon="6.51534">
        <ele>922.3</ele>
        <time>2025-08-04T11:47:31.250Z</time>
      </trkpt>
      <trkpt lat="43.95244" lon="6.5154">
        <ele>923.1</ele>
        <time>2025-08-04T11:47:45.022Z</time>
      </trkpt>
      <trkpt lat="43.95241" lon="6.51545">
        <ele>923.7</ele>
        <time>2025-08-04T11:47:56.715Z</time>
      </trkpt>
      <trkpt lat="43.95238" lon="6.5155">
        <ele>924.4</ele>
        <time>2025-08-04T11:48:09.357Z</time>
      </trkpt>
      <trkpt lat="43.95236" lon="6.51557">
        <ele>925.7</ele>
        <time>2025-08-04T11:48:30.147Z</time>
      </trkpt>
      <trkpt lat="43.95234" lon="6.51563">
        <ele>926.7</ele>
        <time>2025-08-04T11:48:46.351Z</time>
      </trkpt>
      <trkpt lat="43.9523" lon="6.51573">
        <ele>928.5</ele>
        <time>2025-08-04T11:49:15.347Z</time>
      </trkpt>
      <trkpt lat="43.95225" lon="6.51583">
        <ele>930.7</ele>
        <time>2025-08-04T11:49:50.529Z</time>
      </trkpt>
      <trkpt lat="43.95218" lon="6.51586">
        <ele>931.7</ele>
        <time>2025-08-04T11:50:09.380Z</time>
      </trkpt>
      <trkpt lat="43.95211" lon="6.51589">
        <ele>932.6</ele>
        <time>2025-08-04T11:50:27.322Z</time>
      </trkpt>
      <trkpt lat="43.95204" lon="6.51592">
        <ele>933.6</ele>
        <time>2025-08-04T11:50:46.172Z</time>
      </trkpt>
      <trkpt lat="43.95197" lon="6.51595">
        <ele>934.7</ele>
        <time>2025-08-04T11:51:05.993Z</time>
      </trkpt>
      <trkpt lat="43.95197" lon="6.51598">
        <ele>935.7</ele>
        <time>2025-08-04T11:51:24.447Z</time>
      </trkpt>
      <trkpt lat="43.95197" lon="6.51595">
        <ele>934.7</ele>
        <time>2025-08-04T11:51:27.522Z</time>
      </trkpt>
      <trkpt lat="43.95192" lon="6.51598">
        <ele>935.3</ele>
        <time>2025-08-04T11:51:40.273Z</time>
      </trkpt>
      <trkpt lat="43.95188" lon="6.51604">
        <ele>936.5</ele>
        <time>2025-08-04T11:51:59.826Z</time>
      </trkpt>
      <trkpt lat="43.9518" lon="6.51609">
        <ele>936.7</ele>
        <time>2025-08-04T11:52:15.157Z</time>
      </trkpt>
      <trkpt lat="43.95176" lon="6.51616">
        <ele>938.3</ele>
        <time>2025-08-04T11:52:40.739Z</time>
      </trkpt>
      <trkpt lat="43.95171" lon="6.51623">
        <ele>939.6</ele>
        <time>2025-08-04T11:53:02.493Z</time>
      </trkpt>
      <trkpt lat="43.95169" lon="6.5163">
        <ele>941.5</ele>
        <time>2025-08-04T11:53:35.366Z</time>
      </trkpt>
      <trkpt lat="43.95167" lon="6.51638">
        <ele>943.8</ele>
        <time>2025-08-04T11:54:16.530Z</time>
      </trkpt>
      <trkpt lat="43.95165" lon="6.51645">
        <ele>945.3</ele>
        <time>2025-08-04T11:54:40.722Z</time>
      </trkpt>
      <trkpt lat="43.95163" lon="6.51652">
        <ele>946.7</ele>
        <time>2025-08-04T11:55:03.139Z</time>
      </trkpt>
      <trkpt lat="43.95169" lon="6.51654">
        <ele>949.2</ele>
        <time>2025-08-04T11:55:49.446Z</time>
      </trkpt>
      <trkpt lat="43.95174" lon="6.51657">
        <ele>950.7</ele>
        <time>2025-08-04T11:56:13.623Z</time>
      </trkpt>
      <trkpt lat="43.9518" lon="6.51659">
        <ele>951.9</ele>
        <time>2025-08-04T11:56:33.380Z</time>
      </trkpt>
      <trkpt lat="43.95185" lon="6.51661">
        <ele>952.9</ele>
        <time>2025-08-04T11:56:49.894Z</time>
      </trkpt>
      <trkpt lat="43.9519" lon="6.51669">
        <ele>955</ele>
        <time>2025-08-04T11:57:23.739Z</time>
      </trkpt>
      <trkpt lat="43.95194" lon="6.51676">
        <ele>956</ele>
        <time>2025-08-04T11:57:41.491Z</time>
      </trkpt>
      <trkpt lat="43.95193" lon="6.51685">
        <ele>957</ele>
        <time>2025-08-04T11:57:59.387Z</time>
      </trkpt>
      <trkpt lat="43.95192" lon="6.51693">
        <ele>957.9</ele>
        <time>2025-08-04T11:58:15.428Z</time>
      </trkpt>
      <trkpt lat="43.95188" lon="6.51697">
        <ele>958.4</ele>
        <time>2025-08-04T11:58:26.618Z</time>
      </trkpt>
      <trkpt lat="43.95184" lon="6.51701">
        <ele>958.8</ele>
        <time>2025-08-04T11:58:37.052Z</time>
      </trkpt>
      <trkpt lat="43.95177" lon="6.51707">
        <ele>959.6</ele>
        <time>2025-08-04T11:58:55.457Z</time>
      </trkpt>
      <trkpt lat="43.9517" lon="6.51713">
        <ele>960.7</ele>
        <time>2025-08-04T11:59:16.410Z</time>
      </trkpt>
      <trkpt lat="43.95168" lon="6.51724">
        <ele>961.8</ele>
        <time>2025-08-04T11:59:37.288Z</time>
      </trkpt>
      <trkpt lat="43.95168" lon="6.51731">
        <ele>961.5</ele>
        <time>2025-08-04T11:59:44.464Z</time>
      </trkpt>
      <trkpt lat="43.95168" lon="6.51738">
        <ele>961.3</ele>
        <time>2025-08-04T11:59:51.744Z</time>
      </trkpt>
      <trkpt lat="43.95172" lon="6.51742">
        <ele>960.6</ele>
        <time>2025-08-04T11:59:58.763Z</time>
      </trkpt>
      <trkpt lat="43.95179" lon="6.51744">
        <ele>959.5</ele>
        <time>2025-08-04T12:00:08.940Z</time>
      </trkpt>
      <trkpt lat="43.95184" lon="6.51749">
        <ele>958.6</ele>
        <time>2025-08-04T12:00:17.713Z</time>
      </trkpt>
      <trkpt lat="43.95189" lon="6.51757">
        <ele>956.8</ele>
        <time>2025-08-04T12:00:28.575Z</time>
      </trkpt>
      <trkpt lat="43.95193" lon="6.51765">
        <ele>955.5</ele>
        <time>2025-08-04T12:00:38.560Z</time>
      </trkpt>
      <trkpt lat="43.95198" lon="6.51773">
        <ele>953.7</ele>
        <time>2025-08-04T12:00:49.421Z</time>
      </trkpt>
      <trkpt lat="43.95202" lon="6.51781">
        <ele>951.8</ele>
        <time>2025-08-04T12:00:59.407Z</time>
      </trkpt>
      <trkpt lat="43.95206" lon="6.51785">
        <ele>950.4</ele>
        <time>2025-08-04T12:01:06.426Z</time>
      </trkpt>
      <trkpt lat="43.9521" lon="6.51789">
        <ele>949.1</ele>
        <time>2025-08-04T12:01:13.445Z</time>
      </trkpt>
      <trkpt lat="43.95213" lon="6.51793">
        <ele>948.2</ele>
        <time>2025-08-04T12:01:19.366Z</time>
      </trkpt>
      <trkpt lat="43.95217" lon="6.51797">
        <ele>947.2</ele>
        <time>2025-08-04T12:01:26.385Z</time>
      </trkpt>
      <trkpt lat="43.95223" lon="6.51799">
        <ele>946.3</ele>
        <time>2025-08-04T12:01:35.172Z</time>
      </trkpt>
      <trkpt lat="43.95229" lon="6.51801">
        <ele>944.8</ele>
        <time>2025-08-04T12:01:43.959Z</time>
      </trkpt>
      <trkpt lat="43.95234" lon="6.51802">
        <ele>943.7</ele>
        <time>2025-08-04T12:01:51.153Z</time>
      </trkpt>
      <trkpt lat="43.9524" lon="6.51804">
        <ele>942.2</ele>
        <time>2025-08-04T12:01:59.940Z</time>
      </trkpt>
      <trkpt lat="43.95246" lon="6.51806">
        <ele>940.9</ele>
        <time>2025-08-04T12:02:08.727Z</time>
      </trkpt>
      <trkpt lat="43.95252" lon="6.51808">
        <ele>939.6</ele>
        <time>2025-08-04T12:02:17.513Z</time>
      </trkpt>
      <trkpt lat="43.95257" lon="6.51809">
        <ele>938.7</ele>
        <time>2025-08-04T12:02:24.707Z</time>
      </trkpt>
      <trkpt lat="43.95263" lon="6.51811">
        <ele>937.6</ele>
        <time>2025-08-04T12:02:33.494Z</time>
      </trkpt>
      <trkpt lat="43.95271" lon="6.51813">
        <ele>936</ele>
        <time>2025-08-04T12:02:45.069Z</time>
      </trkpt>
      <trkpt lat="43.95279" lon="6.51814">
        <ele>934.5</ele>
        <time>2025-08-04T12:02:56.508Z</time>
      </trkpt>
      <trkpt lat="43.95286" lon="6.51816">
        <ele>933.4</ele>
        <time>2025-08-04T12:03:06.685Z</time>
      </trkpt>
      <trkpt lat="43.95293" lon="6.51817">
        <ele>932.4</ele>
        <time>2025-08-04T12:03:16.706Z</time>
      </trkpt>
      <trkpt lat="43.95294" lon="6.51816">
        <ele>932.3</ele>
        <time>2025-08-04T12:03:18.461Z</time>
      </trkpt>
      <trkpt lat="43.95296" lon="6.51817">
        <ele>932</ele>
        <time>2025-08-04T12:03:21.488Z</time>
      </trkpt>
      <trkpt lat="43.95301" lon="6.51818">
        <ele>931.2</ele>
        <time>2025-08-04T12:03:28.681Z</time>
      </trkpt>
      <trkpt lat="43.95303" lon="6.5182">
        <ele>930.8</ele>
        <time>2025-08-04T12:03:32.191Z</time>
      </trkpt>
      <trkpt lat="43.95305" lon="6.51821">
        <ele>930.5</ele>
        <time>2025-08-04T12:03:35.218Z</time>
      </trkpt>
      <trkpt lat="43.95306" lon="6.51823">
        <ele>930.3</ele>
        <time>2025-08-04T12:03:37.714Z</time>
      </trkpt>
      <trkpt lat="43.95307" lon="6.51821">
        <ele>930.1</ele>
        <time>2025-08-04T12:03:40.210Z</time>
      </trkpt>
      <trkpt lat="43.95309" lon="6.51819">
        <ele>929.8</ele>
        <time>2025-08-04T12:03:43.720Z</time>
      </trkpt>
      <trkpt lat="43.9531" lon="6.51816">
        <ele>929.7</ele>
        <time>2025-08-04T12:03:47.134Z</time>
      </trkpt>
      <trkpt lat="43.95311" lon="6.51813">
        <ele>929.6</ele>
        <time>2025-08-04T12:03:50.549Z</time>
      </trkpt>
      <trkpt lat="43.95312" lon="6.5181">
        <ele>929.4</ele>
        <time>2025-08-04T12:03:53.938Z</time>
      </trkpt>
      <trkpt lat="43.95312" lon="6.51807">
        <ele>929.6</ele>
        <time>2025-08-04T12:03:58.694Z</time>
      </trkpt>
      <trkpt lat="43.95312" lon="6.51803">
        <ele>929.6</ele>
        <time>2025-08-04T12:04:03.380Z</time>
      </trkpt>
      <trkpt lat="43.95312" lon="6.518">
        <ele>929.6</ele>
        <time>2025-08-04T12:04:06.895Z</time>
      </trkpt>
      <trkpt lat="43.95312" lon="6.51796">
        <ele>929.5</ele>
        <time>2025-08-04T12:04:11.116Z</time>
      </trkpt>
      <trkpt lat="43.95312" lon="6.51793">
        <ele>929.5</ele>
        <time>2025-08-04T12:04:14.631Z</time>
      </trkpt>
      <trkpt lat="43.95312" lon="6.51789">
        <ele>929.5</ele>
        <time>2025-08-04T12:04:19.318Z</time>
      </trkpt>
      <trkpt lat="43.95312" lon="6.51786">
        <ele>929.4</ele>
        <time>2025-08-04T12:04:22.393Z</time>
      </trkpt>
      <trkpt lat="43.95313" lon="6.51783">
        <ele>929.2</ele>
        <time>2025-08-04T12:04:25.782Z</time>
      </trkpt>
      <trkpt lat="43.95313" lon="6.5178">
        <ele>929.1</ele>
        <time>2025-08-04T12:04:28.858Z</time>
      </trkpt>
      <trkpt lat="43.95314" lon="6.51776">
        <ele>928.9</ele>
        <time>2025-08-04T12:04:33.199Z</time>
      </trkpt>
      <trkpt lat="43.95315" lon="6.51772">
        <ele>928.7</ele>
        <time>2025-08-04T12:04:37.540Z</time>
      </trkpt>
      <trkpt lat="43.95315" lon="6.51769">
        <ele>928.7</ele>
        <time>2025-08-04T12:04:41.055Z</time>
      </trkpt>
      <trkpt lat="43.95316" lon="6.51765">
        <ele>928.5</ele>
        <time>2025-08-04T12:04:45.396Z</time>
      </trkpt>
      <trkpt lat="43.95317" lon="6.51762">
        <ele>928.4</ele>
        <time>2025-08-04T12:04:48.810Z</time>
      </trkpt>
      <trkpt lat="43.95318" lon="6.51758">
        <ele>928.2</ele>
        <time>2025-08-04T12:04:53.151Z</time>
      </trkpt>
      <trkpt lat="43.95319" lon="6.51755">
        <ele>928</ele>
        <time>2025-08-04T12:04:56.541Z</time>
      </trkpt>
      <trkpt lat="43.9532" lon="6.51751">
        <ele>927.9</ele>
        <time>2025-08-04T12:05:01.034Z</time>
      </trkpt>
      <trkpt lat="43.95321" lon="6.51748">
        <ele>927.7</ele>
        <time>2025-08-04T12:05:04.424Z</time>
      </trkpt>
      <trkpt lat="43.95322" lon="6.51745">
        <ele>927.6</ele>
        <time>2025-08-04T12:05:07.838Z</time>
      </trkpt>
      <trkpt lat="43.95323" lon="6.51741">
        <ele>927.6</ele>
        <time>2025-08-04T12:05:12.799Z</time>
      </trkpt>
      <trkpt lat="43.95324" lon="6.51738">
        <ele>927.4</ele>
        <time>2025-08-04T12:05:16.189Z</time>
      </trkpt>
      <trkpt lat="43.95325" lon="6.51735">
        <ele>927.3</ele>
        <time>2025-08-04T12:05:19.603Z</time>
      </trkpt>
      <trkpt lat="43.95325" lon="6.51732">
        <ele>927.4</ele>
        <time>2025-08-04T12:05:23.674Z</time>
      </trkpt>
      <trkpt lat="43.95326" lon="6.51728">
        <ele>927.4</ele>
        <time>2025-08-04T12:05:28.635Z</time>
      </trkpt>
      <trkpt lat="43.95327" lon="6.51725">
        <ele>927.3</ele>
        <time>2025-08-04T12:05:32.050Z</time>
      </trkpt>
      <trkpt lat="43.95328" lon="6.51722">
        <ele>927.2</ele>
        <time>2025-08-04T12:05:35.464Z</time>
      </trkpt>
      <trkpt lat="43.95329" lon="6.51719">
        <ele>926.9</ele>
        <time>2025-08-04T12:05:38.854Z</time>
      </trkpt>
      <trkpt lat="43.9533" lon="6.51717">
        <ele>926.7</ele>
        <time>2025-08-04T12:05:41.350Z</time>
      </trkpt>
      <trkpt lat="43.95331" lon="6.51714">
        <ele>926.5</ele>
        <time>2025-08-04T12:05:44.739Z</time>
      </trkpt>
      <trkpt lat="43.95332" lon="6.51711">
        <ele>926.3</ele>
        <time>2025-08-04T12:05:48.128Z</time>
      </trkpt>
      <trkpt lat="43.95333" lon="6.51708">
        <ele>926.1</ele>
        <time>2025-08-04T12:05:51.518Z</time>
      </trkpt>
      <trkpt lat="43.95334" lon="6.51706">
        <ele>925.8</ele>
        <time>2025-08-04T12:05:54.014Z</time>
      </trkpt>
      <trkpt lat="43.95336" lon="6.51703">
        <ele>925.3</ele>
        <time>2025-08-04T12:05:58.206Z</time>
      </trkpt>
      <trkpt lat="43.95337" lon="6.51701">
        <ele>925.1</ele>
        <time>2025-08-04T12:06:00.702Z</time>
      </trkpt>
      <trkpt lat="43.95338" lon="6.51698">
        <ele>924.8</ele>
        <time>2025-08-04T12:06:04.091Z</time>
      </trkpt>
      <trkpt lat="43.9534" lon="6.51695">
        <ele>924.3</ele>
        <time>2025-08-04T12:06:08.283Z</time>
      </trkpt>
      <trkpt lat="43.9534" lon="6.51692">
        <ele>924.3</ele>
        <time>2025-08-04T12:06:11.798Z</time>
      </trkpt>
      <trkpt lat="43.95341" lon="6.51688">
        <ele>924.1</ele>
        <time>2025-08-04T12:06:16.139Z</time>
      </trkpt>
      <trkpt lat="43.95342" lon="6.51684">
        <ele>923.9</ele>
        <time>2025-08-04T12:06:20.480Z</time>
      </trkpt>
      <trkpt lat="43.95342" lon="6.51681">
        <ele>924</ele>
        <time>2025-08-04T12:06:24.550Z</time>
      </trkpt>
      <trkpt lat="43.95342" lon="6.51677">
        <ele>924</ele>
        <time>2025-08-04T12:06:29.237Z</time>
      </trkpt>
      <trkpt lat="43.95343" lon="6.51674">
        <ele>923.8</ele>
        <time>2025-08-04T12:06:32.626Z</time>
      </trkpt>
      <trkpt lat="43.95344" lon="6.5167">
        <ele>923.6</ele>
        <time>2025-08-04T12:06:36.967Z</time>
      </trkpt>
      <trkpt lat="43.95344" lon="6.51667">
        <ele>923.7</ele>
        <time>2025-08-04T12:06:41.037Z</time>
      </trkpt>
      <trkpt lat="43.95344" lon="6.51663">
        <ele>923.7</ele>
        <time>2025-08-04T12:06:45.724Z</time>
      </trkpt>
      <trkpt lat="43.95345" lon="6.51659">
        <ele>923.5</ele>
        <time>2025-08-04T12:06:50.065Z</time>
      </trkpt>
      <trkpt lat="43.95345" lon="6.51656">
        <ele>923.5</ele>
        <time>2025-08-04T12:06:53.580Z</time>
      </trkpt>
      <trkpt lat="43.95345" lon="6.51652">
        <ele>923.5</ele>
        <time>2025-08-04T12:06:58.266Z</time>
      </trkpt>
      <trkpt lat="43.95345" lon="6.51648">
        <ele>923.5</ele>
        <time>2025-08-04T12:07:02.953Z</time>
      </trkpt>
      <trkpt lat="43.95345" lon="6.51645">
        <ele>923.5</ele>
        <time>2025-08-04T12:07:06.468Z</time>
      </trkpt>
      <trkpt lat="43.95346" lon="6.51641">
        <ele>923.3</ele>
        <time>2025-08-04T12:07:10.809Z</time>
      </trkpt>
      <trkpt lat="43.95346" lon="6.51637">
        <ele>923.3</ele>
        <time>2025-08-04T12:07:15.495Z</time>
      </trkpt>
      <trkpt lat="43.95346" lon="6.51634">
        <ele>923.2</ele>
        <time>2025-08-04T12:07:18.571Z</time>
      </trkpt>
      <trkpt lat="43.95346" lon="6.5163">
        <ele>923.2</ele>
        <time>2025-08-04T12:07:23.257Z</time>
      </trkpt>
      <trkpt lat="43.95347" lon="6.51627">
        <ele>923</ele>
        <time>2025-08-04T12:07:26.647Z</time>
      </trkpt>
      <trkpt lat="43.95347" lon="6.51624">
        <ele>923</ele>
        <time>2025-08-04T12:07:30.161Z</time>
      </trkpt>
      <trkpt lat="43.95347" lon="6.5162">
        <ele>923</ele>
        <time>2025-08-04T12:07:34.848Z</time>
      </trkpt>
      <trkpt lat="43.95347" lon="6.51617">
        <ele>923</ele>
        <time>2025-08-04T12:07:38.363Z</time>
      </trkpt>
      <trkpt lat="43.95347" lon="6.51614">
        <ele>923</ele>
        <time>2025-08-04T12:07:41.878Z</time>
      </trkpt>
      <trkpt lat="43.95347" lon="6.51611">
        <ele>923</ele>
        <time>2025-08-04T12:07:45.393Z</time>
      </trkpt>
      <trkpt lat="43.95348" lon="6.51608">
        <ele>922.8</ele>
        <time>2025-08-04T12:07:48.782Z</time>
      </trkpt>
      <trkpt lat="43.95349" lon="6.51605">
        <ele>922.6</ele>
        <time>2025-08-04T12:07:52.171Z</time>
      </trkpt>
      <trkpt lat="43.9535" lon="6.51602">
        <ele>922.5</ele>
        <time>2025-08-04T12:07:55.586Z</time>
      </trkpt>
      <trkpt lat="43.95352" lon="6.516">
        <ele>922.2</ele>
        <time>2025-08-04T12:07:59.095Z</time>
      </trkpt>
      <trkpt lat="43.95353" lon="6.51598">
        <ele>922</ele>
        <time>2025-08-04T12:08:01.592Z</time>
      </trkpt>
      <trkpt lat="43.95354" lon="6.51595">
        <ele>921.9</ele>
        <time>2025-08-04T12:08:05.006Z</time>
      </trkpt>
      <trkpt lat="43.95356" lon="6.51592">
        <ele>921.6</ele>
        <time>2025-08-04T12:08:09.198Z</time>
      </trkpt>
      <trkpt lat="43.95357" lon="6.5159">
        <ele>921.5</ele>
        <time>2025-08-04T12:08:11.694Z</time>
      </trkpt>
      <trkpt lat="43.95359" lon="6.51587">
        <ele>921.2</ele>
        <time>2025-08-04T12:08:15.886Z</time>
      </trkpt>
      <trkpt lat="43.9536" lon="6.51585">
        <ele>921.1</ele>
        <time>2025-08-04T12:08:18.383Z</time>
      </trkpt>
      <trkpt lat="43.95361" lon="6.51582">
        <ele>921</ele>
        <time>2025-08-04T12:08:21.797Z</time>
      </trkpt>
      <trkpt lat="43.95362" lon="6.5158">
        <ele>920.7</ele>
        <time>2025-08-04T12:08:24.294Z</time>
      </trkpt>
      <trkpt lat="43.95363" lon="6.51577">
        <ele>920.3</ele>
        <time>2025-08-04T12:08:27.683Z</time>
      </trkpt>
      <trkpt lat="43.95364" lon="6.51575">
        <ele>920</ele>
        <time>2025-08-04T12:08:30.179Z</time>
      </trkpt>
      <trkpt lat="43.95366" lon="6.51572">
        <ele>919.4</ele>
        <time>2025-08-04T12:08:34.371Z</time>
      </trkpt>
      <trkpt lat="43.95367" lon="6.5157">
        <ele>919.1</ele>
        <time>2025-08-04T12:08:36.867Z</time>
      </trkpt>
      <trkpt lat="43.95368" lon="6.51567">
        <ele>918.8</ele>
        <time>2025-08-04T12:08:40.257Z</time>
      </trkpt>
      <trkpt lat="43.95369" lon="6.51565">
        <ele>918.5</ele>
        <time>2025-08-04T12:08:42.753Z</time>
      </trkpt>
      <trkpt lat="43.9537" lon="6.51563">
        <ele>918.3</ele>
        <time>2025-08-04T12:08:45.249Z</time>
      </trkpt>
      <trkpt lat="43.95371" lon="6.5156">
        <ele>918</ele>
        <time>2025-08-04T12:08:48.638Z</time>
      </trkpt>
      <trkpt lat="43.95372" lon="6.51558">
        <ele>917.7</ele>
        <time>2025-08-04T12:08:51.135Z</time>
      </trkpt>
      <trkpt lat="43.95373" lon="6.51556">
        <ele>917.4</ele>
        <time>2025-08-04T12:08:53.631Z</time>
      </trkpt>
      <trkpt lat="43.95374" lon="6.51553">
        <ele>917</ele>
        <time>2025-08-04T12:08:57.020Z</time>
      </trkpt>
      <trkpt lat="43.95375" lon="6.51551">
        <ele>916.7</ele>
        <time>2025-08-04T12:08:59.517Z</time>
      </trkpt>
      <trkpt lat="43.95376" lon="6.51549">
        <ele>916.3</ele>
        <time>2025-08-04T12:09:02.013Z</time>
      </trkpt>
      <trkpt lat="43.95378" lon="6.51546">
        <ele>915.7</ele>
        <time>2025-08-04T12:09:06.205Z</time>
      </trkpt>
      <trkpt lat="43.95379" lon="6.51544">
        <ele>915.3</ele>
        <time>2025-08-04T12:09:08.701Z</time>
      </trkpt>
      <trkpt lat="43.9538" lon="6.51542">
        <ele>914.9</ele>
        <time>2025-08-04T12:09:11.198Z</time>
      </trkpt>
      <trkpt lat="43.95381" lon="6.5154">
        <ele>914.6</ele>
        <time>2025-08-04T12:09:13.694Z</time>
      </trkpt>
      <trkpt lat="43.95382" lon="6.51537">
        <ele>914.2</ele>
        <time>2025-08-04T12:09:17.083Z</time>
      </trkpt>
      <trkpt lat="43.95383" lon="6.51535">
        <ele>913.8</ele>
        <time>2025-08-04T12:09:19.580Z</time>
      </trkpt>
      <trkpt lat="43.95385" lon="6.51532">
        <ele>913.1</ele>
        <time>2025-08-04T12:09:23.771Z</time>
      </trkpt>
      <trkpt lat="43.95386" lon="6.5153">
        <ele>912.8</ele>
        <time>2025-08-04T12:09:26.268Z</time>
      </trkpt>
      <trkpt lat="43.95387" lon="6.51527">
        <ele>912.4</ele>
        <time>2025-08-04T12:09:29.657Z</time>
      </trkpt>
      <trkpt lat="43.95389" lon="6.51525">
        <ele>911.9</ele>
        <time>2025-08-04T12:09:33.166Z</time>
      </trkpt>
      <trkpt lat="43.95389" lon="6.51522">
        <ele>911.8</ele>
        <time>2025-08-04T12:09:36.242Z</time>
      </trkpt>
      <trkpt lat="43.95391" lon="6.5152">
        <ele>911.4</ele>
        <time>2025-08-04T12:09:39.751Z</time>
      </trkpt>
      <trkpt lat="43.95392" lon="6.51517">
        <ele>911.2</ele>
        <time>2025-08-04T12:09:43.140Z</time>
      </trkpt>
      <trkpt lat="43.95393" lon="6.51515">
        <ele>911</ele>
        <time>2025-08-04T12:09:45.637Z</time>
      </trkpt>
      <trkpt lat="43.95394" lon="6.51512">
        <ele>910.8</ele>
        <time>2025-08-04T12:09:49.026Z</time>
      </trkpt>
      <trkpt lat="43.95395" lon="6.51509">
        <ele>910.6</ele>
        <time>2025-08-04T12:09:52.415Z</time>
      </trkpt>
      <trkpt lat="43.95396" lon="6.51507">
        <ele>910.4</ele>
        <time>2025-08-04T12:09:54.911Z</time>
      </trkpt>
      <trkpt lat="43.95397" lon="6.51504">
        <ele>910.2</ele>
        <time>2025-08-04T12:09:58.301Z</time>
      </trkpt>
      <trkpt lat="43.95398" lon="6.515">
        <ele>910</ele>
        <time>2025-08-04T12:10:02.642Z</time>
      </trkpt>
      <trkpt lat="43.95398" lon="6.51498">
        <ele>909.9</ele>
        <time>2025-08-04T12:10:04.692Z</time>
      </trkpt>
      <trkpt lat="43.95399" lon="6.51496">
        <ele>909.7</ele>
        <time>2025-08-04T12:10:07.188Z</time>
      </trkpt>
      <trkpt lat="43.954" lon="6.51493">
        <ele>909.5</ele>
        <time>2025-08-04T12:10:10.577Z</time>
      </trkpt>
      <trkpt lat="43.95401" lon="6.51489">
        <ele>909.2</ele>
        <time>2025-08-04T12:10:14.918Z</time>
      </trkpt>
      <trkpt lat="43.95402" lon="6.51487">
        <ele>909.1</ele>
        <time>2025-08-04T12:10:17.415Z</time>
      </trkpt>
      <trkpt lat="43.95403" lon="6.51483">
        <ele>908.9</ele>
        <time>2025-08-04T12:10:21.756Z</time>
      </trkpt>
      <trkpt lat="43.95404" lon="6.51481">
        <ele>908.7</ele>
        <time>2025-08-04T12:10:24.252Z</time>
      </trkpt>
      <trkpt lat="43.95405" lon="6.51477">
        <ele>908.6</ele>
        <time>2025-08-04T12:10:28.746Z</time>
      </trkpt>
      <trkpt lat="43.95407" lon="6.51472">
        <ele>908.3</ele>
        <time>2025-08-04T12:10:34.610Z</time>
      </trkpt>
      <trkpt lat="43.95407" lon="6.51467">
        <ele>907.7</ele>
        <time>2025-08-04T12:10:39.735Z</time>
      </trkpt>
      <trkpt lat="43.95407" lon="6.51464">
        <ele>907.4</ele>
        <time>2025-08-04T12:10:42.811Z</time>
      </trkpt>
      <trkpt lat="43.95409" lon="6.5146">
        <ele>906.8</ele>
        <time>2025-08-04T12:10:47.804Z</time>
      </trkpt>
      <trkpt lat="43.95409" lon="6.51457">
        <ele>906.5</ele>
        <time>2025-08-04T12:10:50.879Z</time>
      </trkpt>
      <trkpt lat="43.95411" lon="6.51454">
        <ele>906.1</ele>
        <time>2025-08-04T12:10:55.071Z</time>
      </trkpt>
      <trkpt lat="43.9541" lon="6.51448">
        <ele>905.4</ele>
        <time>2025-08-04T12:11:01.385Z</time>
      </trkpt>
      <trkpt lat="43.95412" lon="6.51445">
        <ele>905.1</ele>
        <time>2025-08-04T12:11:05.576Z</time>
      </trkpt>
      <trkpt lat="43.95413" lon="6.51442">
        <ele>904.8</ele>
        <time>2025-08-04T12:11:08.966Z</time>
      </trkpt>
      <trkpt lat="43.95413" lon="6.51438">
        <ele>904.4</ele>
        <time>2025-08-04T12:11:13.066Z</time>
      </trkpt>
      <trkpt lat="43.95414" lon="6.51435">
        <ele>904</ele>
        <time>2025-08-04T12:11:16.455Z</time>
      </trkpt>
      <trkpt lat="43.95414" lon="6.51431">
        <ele>903.6</ele>
        <time>2025-08-04T12:11:20.556Z</time>
      </trkpt>
      <trkpt lat="43.95415" lon="6.51428">
        <ele>903.3</ele>
        <time>2025-08-04T12:11:23.945Z</time>
      </trkpt>
      <trkpt lat="43.95415" lon="6.51424">
        <ele>902.9</ele>
        <time>2025-08-04T12:11:28.046Z</time>
      </trkpt>
      <trkpt lat="43.95416" lon="6.51421">
        <ele>902.5</ele>
        <time>2025-08-04T12:11:31.435Z</time>
      </trkpt>
      <trkpt lat="43.95417" lon="6.51418">
        <ele>902.1</ele>
        <time>2025-08-04T12:11:34.824Z</time>
      </trkpt>
      <trkpt lat="43.95418" lon="6.51415">
        <ele>901.9</ele>
        <time>2025-08-04T12:11:38.214Z</time>
      </trkpt>
      <trkpt lat="43.95419" lon="6.51412">
        <ele>901.8</ele>
        <time>2025-08-04T12:11:41.628Z</time>
      </trkpt>
      <trkpt lat="43.95419" lon="6.51408">
        <ele>901.7</ele>
        <time>2025-08-04T12:11:45.849Z</time>
      </trkpt>
      <trkpt lat="43.9542" lon="6.51405">
        <ele>901.6</ele>
        <time>2025-08-04T12:11:49.264Z</time>
      </trkpt>
      <trkpt lat="43.95421" lon="6.51402">
        <ele>901.5</ele>
        <time>2025-08-04T12:11:52.678Z</time>
      </trkpt>
      <trkpt lat="43.95422" lon="6.51399">
        <ele>901.4</ele>
        <time>2025-08-04T12:11:56.093Z</time>
      </trkpt>
      <trkpt lat="43.95424" lon="6.51396">
        <ele>901.3</ele>
        <time>2025-08-04T12:12:00.417Z</time>
      </trkpt>
      <trkpt lat="43.95425" lon="6.51393">
        <ele>901.1</ele>
        <time>2025-08-04T12:12:03.806Z</time>
      </trkpt>
      <trkpt lat="43.95427" lon="6.5139">
        <ele>901</ele>
        <time>2025-08-04T12:12:08.131Z</time>
      </trkpt>
      <trkpt lat="43.95429" lon="6.51388">
        <ele>900.9</ele>
        <time>2025-08-04T12:12:11.681Z</time>
      </trkpt>
      <trkpt lat="43.9543" lon="6.51386">
        <ele>900.7</ele>
        <time>2025-08-04T12:12:14.178Z</time>
      </trkpt>
      <trkpt lat="43.95432" lon="6.51384">
        <ele>900.6</ele>
        <time>2025-08-04T12:12:17.728Z</time>
      </trkpt>
      <trkpt lat="43.95434" lon="6.51382">
        <ele>900.3</ele>
        <time>2025-08-04T12:12:21.238Z</time>
      </trkpt>
      <trkpt lat="43.95436" lon="6.51384">
        <ele>900.5</ele>
        <time>2025-08-04T12:12:26.454Z</time>
      </trkpt>
      <trkpt lat="43.95441" lon="6.51388">
        <ele>900.9</ele>
        <time>2025-08-04T12:12:38.190Z</time>
      </trkpt>
      <trkpt lat="43.95445" lon="6.51391">
        <ele>901</ele>
        <time>2025-08-04T12:12:46.114Z</time>
      </trkpt>
      <trkpt lat="43.95449" lon="6.51396">
        <ele>900.6</ele>
        <time>2025-08-04T12:12:53.777Z</time>
      </trkpt>
      <trkpt lat="43.95453" lon="6.51401">
        <ele>900.3</ele>
        <time>2025-08-04T12:13:01.440Z</time>
      </trkpt>
      <trkpt lat="43.95457" lon="6.51405">
        <ele>900</ele>
        <time>2025-08-04T12:13:08.458Z</time>
      </trkpt>
      <trkpt lat="43.95463" lon="6.51408">
        <ele>899.5</ele>
        <time>2025-08-04T12:13:17.539Z</time>
      </trkpt>
      <trkpt lat="43.95467" lon="6.51412">
        <ele>899.3</ele>
        <time>2025-08-04T12:13:24.641Z</time>
      </trkpt>
      <trkpt lat="43.95472" lon="6.51417">
        <ele>899</ele>
        <time>2025-08-04T12:13:33.414Z</time>
      </trkpt>
      <trkpt lat="43.95474" lon="6.51423">
        <ele>898.9</ele>
        <time>2025-08-04T12:13:40.682Z</time>
      </trkpt>
      <trkpt lat="43.95475" lon="6.51426">
        <ele>898.9</ele>
        <time>2025-08-04T12:13:44.555Z</time>
      </trkpt>
      <trkpt lat="43.9548" lon="6.51431">
        <ele>897.8</ele>
        <time>2025-08-04T12:13:53.328Z</time>
      </trkpt>
      <trkpt lat="43.95481" lon="6.51432">
        <ele>897.6</ele>
        <time>2025-08-04T12:13:55.083Z</time>
      </trkpt>
      <trkpt lat="43.95485" lon="6.51433">
        <ele>896.5</ele>
        <time>2025-08-04T12:14:00.871Z</time>
      </trkpt>
      <trkpt lat="43.95487" lon="6.51434">
        <ele>896</ele>
        <time>2025-08-04T12:14:03.898Z</time>
      </trkpt>
      <trkpt lat="43.95487" lon="6.51434">
        <ele>896</ele>
        <time>2025-08-04T12:14:03.898Z</time>
      </trkpt>
      <trkpt lat="43.9549" lon="6.51435">
        <ele>895.2</ele>
        <time>2025-08-04T12:14:08.291Z</time>
      </trkpt>
      <trkpt lat="43.95494" lon="6.51434">
        <ele>894</ele>
        <time>2025-08-04T12:14:14.079Z</time>
      </trkpt>
      <trkpt lat="43.95498" lon="6.51434">
        <ele>892.8</ele>
        <time>2025-08-04T12:14:19.775Z</time>
      </trkpt>
      <trkpt lat="43.95501" lon="6.51434">
        <ele>891.9</ele>
        <time>2025-08-04T12:14:24.047Z</time>
      </trkpt>
      <trkpt lat="43.95503" lon="6.51434">
        <ele>891.3</ele>
        <time>2025-08-04T12:14:26.895Z</time>
      </trkpt>
      <trkpt lat="43.95508" lon="6.51434">
        <ele>889.7</ele>
        <time>2025-08-04T12:14:34.016Z</time>
      </trkpt>
      <trkpt lat="43.95513" lon="6.51434">
        <ele>888</ele>
        <time>2025-08-04T12:14:41.136Z</time>
      </trkpt>
      <trkpt lat="43.95518" lon="6.51433">
        <ele>886.3</ele>
        <time>2025-08-04T12:14:48.329Z</time>
      </trkpt>
      <trkpt lat="43.95522" lon="6.51433">
        <ele>885</ele>
        <time>2025-08-04T12:14:54.026Z</time>
      </trkpt>
      <trkpt lat="43.95526" lon="6.51432">
        <ele>883.7</ele>
        <time>2025-08-04T12:14:59.813Z</time>
      </trkpt>
      <trkpt lat="43.95528" lon="6.51431">
        <ele>883</ele>
        <time>2025-08-04T12:15:02.840Z</time>
      </trkpt>
      <trkpt lat="43.9553" lon="6.51431">
        <ele>882.7</ele>
        <time>2025-08-04T12:15:05.688Z</time>
      </trkpt>
      <trkpt lat="43.95532" lon="6.51433">
        <ele>882.5</ele>
        <time>2025-08-04T12:15:09.198Z</time>
      </trkpt>
      <trkpt lat="43.95535" lon="6.51438">
        <ele>882.3</ele>
        <time>2025-08-04T12:15:15.908Z</time>
      </trkpt>
      <trkpt lat="43.95538" lon="6.51443">
        <ele>882.1</ele>
        <time>2025-08-04T12:15:22.617Z</time>
      </trkpt>
      <trkpt lat="43.95538" lon="6.51446">
        <ele>882.2</ele>
        <time>2025-08-04T12:15:26.688Z</time>
      </trkpt>
      <trkpt lat="43.95539" lon="6.51454">
        <ele>882.5</ele>
        <time>2025-08-04T12:15:37.887Z</time>
      </trkpt>
      <trkpt lat="43.95542" lon="6.51458">
        <ele>882.2</ele>
        <time>2025-08-04T12:15:43.808Z</time>
      </trkpt>
      <trkpt lat="43.95543" lon="6.51461">
        <ele>882.2</ele>
        <time>2025-08-04T12:15:47.681Z</time>
      </trkpt>
      <trkpt lat="43.95546" lon="6.51463">
        <ele>881.8</ele>
        <time>2025-08-04T12:15:52.420Z</time>
      </trkpt>
      <trkpt lat="43.9555" lon="6.51463">
        <ele>881.2</ele>
        <time>2025-08-04T12:15:58.116Z</time>
      </trkpt>
      <trkpt lat="43.95551" lon="6.51463">
        <ele>881</ele>
        <time>2025-08-04T12:15:59.540Z</time>
      </trkpt>
      <trkpt lat="43.95554" lon="6.51463">
        <ele>880.6</ele>
        <time>2025-08-04T12:16:03.813Z</time>
      </trkpt>
      <trkpt lat="43.95556" lon="6.51463">
        <ele>880.3</ele>
        <time>2025-08-04T12:16:06.661Z</time>
      </trkpt>
      <trkpt lat="43.95559" lon="6.51464">
        <ele>880.4</ele>
        <time>2025-08-04T12:16:12.220Z</time>
      </trkpt>
      <trkpt lat="43.95561" lon="6.51465">
        <ele>880.5</ele>
        <time>2025-08-04T12:16:16.236Z</time>
      </trkpt>
      <trkpt lat="43.95564" lon="6.51466">
        <ele>880.6</ele>
        <time>2025-08-04T12:16:21.795Z</time>
      </trkpt>
      <trkpt lat="43.95566" lon="6.51467">
        <ele>880.6</ele>
        <time>2025-08-04T12:16:25.254Z</time>
      </trkpt>
      <trkpt lat="43.95568" lon="6.51468">
        <ele>880.7</ele>
        <time>2025-08-04T12:16:29.270Z</time>
      </trkpt>
      <trkpt lat="43.95571" lon="6.51468">
        <ele>880.7</ele>
        <time>2025-08-04T12:16:34.153Z</time>
      </trkpt>
      <trkpt lat="43.95573" lon="6.51469">
        <ele>880.8</ele>
        <time>2025-08-04T12:16:38.169Z</time>
      </trkpt>
      <trkpt lat="43.95576" lon="6.51469">
        <ele>880.8</ele>
        <time>2025-08-04T12:16:43.051Z</time>
      </trkpt>
      <trkpt lat="43.95578" lon="6.51469">
        <ele>880.8</ele>
        <time>2025-08-04T12:16:46.306Z</time>
      </trkpt>
      <trkpt lat="43.95581" lon="6.51468">
        <ele>880.7</ele>
        <time>2025-08-04T12:16:50.859Z</time>
      </trkpt>
      <trkpt lat="43.95583" lon="6.51467">
        <ele>880.6</ele>
        <time>2025-08-04T12:16:53.886Z</time>
      </trkpt>
      <trkpt lat="43.95585" lon="6.51466">
        <ele>880.7</ele>
        <time>2025-08-04T12:16:57.902Z</time>
      </trkpt>
      <trkpt lat="43.95588" lon="6.51465">
        <ele>880.9</ele>
        <time>2025-08-04T12:17:04.083Z</time>
      </trkpt>
      <trkpt lat="43.9559" lon="6.51464">
        <ele>881</ele>
        <time>2025-08-04T12:17:08.099Z</time>
      </trkpt>
      <trkpt lat="43.95593" lon="6.51463">
        <ele>881.1</ele>
        <time>2025-08-04T12:17:13.658Z</time>
      </trkpt>
      <trkpt lat="43.95595" lon="6.51461">
        <ele>881.1</ele>
        <time>2025-08-04T12:17:17.669Z</time>
      </trkpt>
      <trkpt lat="43.95597" lon="6.5146">
        <ele>881.2</ele>
        <time>2025-08-04T12:17:21.685Z</time>
      </trkpt>
      <trkpt lat="43.95599" lon="6.5146">
        <ele>881.3</ele>
        <time>2025-08-04T12:17:25.500Z</time>
      </trkpt>
      <trkpt lat="43.95601" lon="6.5146">
        <ele>881.5</ele>
        <time>2025-08-04T12:17:30.018Z</time>
      </trkpt>
      <trkpt lat="43.95603" lon="6.51461">
        <ele>881.7</ele>
        <time>2025-08-04T12:17:34.722Z</time>
      </trkpt>
      <trkpt lat="43.95605" lon="6.51464">
        <ele>882.3</ele>
        <time>2025-08-04T12:17:44.499Z</time>
      </trkpt>
      <trkpt lat="43.95607" lon="6.51465">
        <ele>882.6</ele>
        <time>2025-08-04T12:17:50.062Z</time>
      </trkpt>
      <trkpt lat="43.95609" lon="6.51466">
        <ele>882.9</ele>
        <time>2025-08-04T12:17:55.625Z</time>
      </trkpt>
      <trkpt lat="43.95611" lon="6.51466">
        <ele>883.1</ele>
        <time>2025-08-04T12:18:00.143Z</time>
      </trkpt>
      <trkpt lat="43.95613" lon="6.51467">
        <ele>883.3</ele>
        <time>2025-08-04T12:18:04.847Z</time>
      </trkpt>
      <trkpt lat="43.95616" lon="6.51469">
        <ele>883.7</ele>
        <time>2025-08-04T12:18:12.920Z</time>
      </trkpt>
      <trkpt lat="43.95618" lon="6.51471">
        <ele>884.1</ele>
        <time>2025-08-04T12:18:19.897Z</time>
      </trkpt>
      <trkpt lat="43.95621" lon="6.51472">
        <ele>884.3</ele>
        <time>2025-08-04T12:18:26.078Z</time>
      </trkpt>
      <trkpt lat="43.95624" lon="6.51474">
        <ele>884.7</ele>
        <time>2025-08-04T12:18:34.151Z</time>
      </trkpt>
      <trkpt lat="43.95626" lon="6.51475">
        <ele>885</ele>
        <time>2025-08-04T12:18:39.714Z</time>
      </trkpt>
      <trkpt lat="43.95629" lon="6.51477">
        <ele>885.4</ele>
        <time>2025-08-04T12:18:47.788Z</time>
      </trkpt>
      <trkpt lat="43.95632" lon="6.51478">
        <ele>885.7</ele>
        <time>2025-08-04T12:18:54.690Z</time>
      </trkpt>
      <trkpt lat="43.95634" lon="6.5148">
        <ele>886.2</ele>
        <time>2025-08-04T12:19:02.845Z</time>
      </trkpt>
      <trkpt lat="43.95637" lon="6.51481">
        <ele>886.5</ele>
        <time>2025-08-04T12:19:09.748Z</time>
      </trkpt>
      <trkpt lat="43.9564" lon="6.51482">
        <ele>886.7</ele>
        <time>2025-08-04T12:19:15.929Z</time>
      </trkpt>
      <trkpt lat="43.95643" lon="6.51483">
        <ele>886.8</ele>
        <time>2025-08-04T12:19:21.488Z</time>
      </trkpt>
      <trkpt lat="43.95645" lon="6.51483">
        <ele>886.7</ele>
        <time>2025-08-04T12:19:24.336Z</time>
      </trkpt>
      <trkpt lat="43.95648" lon="6.51483">
        <ele>886.5</ele>
        <time>2025-08-04T12:19:28.608Z</time>
      </trkpt>
      <trkpt lat="43.95651" lon="6.51484">
        <ele>886.6</ele>
        <time>2025-08-04T12:19:34.168Z</time>
      </trkpt>
      <trkpt lat="43.95654" lon="6.51483">
        <ele>886.3</ele>
        <time>2025-08-04T12:19:38.561Z</time>
      </trkpt>
      <trkpt lat="43.95656" lon="6.51484">
        <ele>886.4</ele>
        <time>2025-08-04T12:19:42.577Z</time>
      </trkpt>
      <trkpt lat="43.95658" lon="6.51485">
        <ele>886.6</ele>
        <time>2025-08-04T12:19:47.281Z</time>
      </trkpt>
      <trkpt lat="43.9566" lon="6.51487">
        <ele>886.9</ele>
        <time>2025-08-04T12:19:53.293Z</time>
      </trkpt>
      <trkpt lat="43.95662" lon="6.51489">
        <ele>887.4</ele>
        <time>2025-08-04T12:20:01.448Z</time>
      </trkpt>
      <trkpt lat="43.95664" lon="6.51493">
        <ele>888.3</ele>
        <time>2025-08-04T12:20:15.853Z</time>
      </trkpt>
      <trkpt lat="43.95666" lon="6.51496">
        <ele>889</ele>
        <time>2025-08-04T12:20:27.051Z</time>
      </trkpt>
      <trkpt lat="43.95668" lon="6.51498">
        <ele>889.4</ele>
        <time>2025-08-04T12:20:34.028Z</time>
      </trkpt>
      <trkpt lat="43.9567" lon="6.515">
        <ele>889.9</ele>
        <time>2025-08-04T12:20:42.183Z</time>
      </trkpt>
      <trkpt lat="43.95673" lon="6.51501">
        <ele>889.9</ele>
        <time>2025-08-04T12:20:47.204Z</time>
      </trkpt>
      <trkpt lat="43.95675" lon="6.51502">
        <ele>890</ele>
        <time>2025-08-04T12:20:51.220Z</time>
      </trkpt>
      <trkpt lat="43.95678" lon="6.51503">
        <ele>890.1</ele>
        <time>2025-08-04T12:20:56.779Z</time>
      </trkpt>
      <trkpt lat="43.95681" lon="6.51503">
        <ele>890</ele>
        <time>2025-08-04T12:21:01.194Z</time>
      </trkpt>
      <trkpt lat="43.95683" lon="6.51504">
        <ele>890.1</ele>
        <time>2025-08-04T12:21:05.210Z</time>
      </trkpt>
      <trkpt lat="43.95686" lon="6.51504">
        <ele>890</ele>
        <time>2025-08-04T12:21:09.626Z</time>
      </trkpt>
      <trkpt lat="43.95688" lon="6.51505">
        <ele>890.1</ele>
        <time>2025-08-04T12:21:13.642Z</time>
      </trkpt>
      <trkpt lat="43.95691" lon="6.51507">
        <ele>890.4</ele>
        <time>2025-08-04T12:21:20.906Z</time>
      </trkpt>
      <trkpt lat="43.95694" lon="6.51507">
        <ele>890.3</ele>
        <time>2025-08-04T12:21:25.322Z</time>
      </trkpt>
      <trkpt lat="43.95697" lon="6.51508">
        <ele>890.3</ele>
        <time>2025-08-04T12:21:30.343Z</time>
      </trkpt>
      <trkpt lat="43.95699" lon="6.51509">
        <ele>890.5</ele>
        <time>2025-08-04T12:21:35.047Z</time>
      </trkpt>
      <trkpt lat="43.95702" lon="6.51509">
        <ele>890.3</ele>
        <time>2025-08-04T12:21:39.319Z</time>
      </trkpt>
      <trkpt lat="43.95705" lon="6.51509">
        <ele>890.2</ele>
        <time>2025-08-04T12:21:43.735Z</time>
      </trkpt>
      <trkpt lat="43.95708" lon="6.5151">
        <ele>890.3</ele>
        <time>2025-08-04T12:21:49.294Z</time>
      </trkpt>
      <trkpt lat="43.9571" lon="6.5151">
        <ele>890.2</ele>
        <time>2025-08-04T12:21:52.142Z</time>
      </trkpt>
      <trkpt lat="43.95713" lon="6.5151">
        <ele>890.1</ele>
        <time>2025-08-04T12:21:56.558Z</time>
      </trkpt>
      <trkpt lat="43.95716" lon="6.51511">
        <ele>890.2</ele>
        <time>2025-08-04T12:22:02.117Z</time>
      </trkpt>
      <trkpt lat="43.95718" lon="6.51511">
        <ele>890.1</ele>
        <time>2025-08-04T12:22:04.965Z</time>
      </trkpt>
      <trkpt lat="43.95721" lon="6.51512">
        <ele>890.2</ele>
        <time>2025-08-04T12:22:10.524Z</time>
      </trkpt>
      <trkpt lat="43.95724" lon="6.51512">
        <ele>890.2</ele>
        <time>2025-08-04T12:22:15.407Z</time>
      </trkpt>
      <trkpt lat="43.95727" lon="6.51513">
        <ele>890.3</ele>
        <time>2025-08-04T12:22:20.966Z</time>
      </trkpt>
      <trkpt lat="43.95729" lon="6.51513">
        <ele>890.3</ele>
        <time>2025-08-04T12:22:24.221Z</time>
      </trkpt>
      <trkpt lat="43.95732" lon="6.51512">
        <ele>890.2</ele>
        <time>2025-08-04T12:22:28.774Z</time>
      </trkpt>
      <trkpt lat="43.95734" lon="6.51511">
        <ele>890</ele>
        <time>2025-08-04T12:22:31.801Z</time>
      </trkpt>
      <trkpt lat="43.95737" lon="6.51511">
        <ele>890</ele>
        <time>2025-08-04T12:22:36.684Z</time>
      </trkpt>
      <trkpt lat="43.95739" lon="6.5151">
        <ele>889.8</ele>
        <time>2025-08-04T12:22:39.710Z</time>
      </trkpt>
      <trkpt lat="43.95742" lon="6.51509">
        <ele>889.6</ele>
        <time>2025-08-04T12:22:44.104Z</time>
      </trkpt>
      <trkpt lat="43.95744" lon="6.51507">
        <ele>889.3</ele>
        <time>2025-08-04T12:22:47.613Z</time>
      </trkpt>
      <trkpt lat="43.95747" lon="6.51506">
        <ele>889.1</ele>
        <time>2025-08-04T12:22:52.007Z</time>
      </trkpt>
      <trkpt lat="43.95749" lon="6.51506">
        <ele>889.1</ele>
        <time>2025-08-04T12:22:55.262Z</time>
      </trkpt>
      <trkpt lat="43.95752" lon="6.51507">
        <ele>889.2</ele>
        <time>2025-08-04T12:23:00.821Z</time>
      </trkpt>
      <trkpt lat="43.95754" lon="6.51507">
        <ele>889.1</ele>
        <time>2025-08-04T12:23:03.669Z</time>
      </trkpt>
      <trkpt lat="43.95757" lon="6.51508">
        <ele>889.2</ele>
        <time>2025-08-04T12:23:09.228Z</time>
      </trkpt>
      <trkpt lat="43.9576" lon="6.51508">
        <ele>889.1</ele>
        <time>2025-08-04T12:23:13.644Z</time>
      </trkpt>
      <trkpt lat="43.95762" lon="6.51509">
        <ele>889.2</ele>
        <time>2025-08-04T12:23:17.659Z</time>
      </trkpt>
      <trkpt lat="43.95765" lon="6.51511">
        <ele>889.4</ele>
        <time>2025-08-04T12:23:24.222Z</time>
      </trkpt>
      <trkpt lat="43.95767" lon="6.51512">
        <ele>889.5</ele>
        <time>2025-08-04T12:23:28.238Z</time>
      </trkpt>
      <trkpt lat="43.9577" lon="6.51514">
        <ele>889.8</ele>
        <time>2025-08-04T12:23:35.503Z</time>
      </trkpt>
      <trkpt lat="43.95772" lon="6.51515">
        <ele>889.9</ele>
        <time>2025-08-04T12:23:39.519Z</time>
      </trkpt>
      <trkpt lat="43.95775" lon="6.51516">
        <ele>890</ele>
        <time>2025-08-04T12:23:45.078Z</time>
      </trkpt>
      <trkpt lat="43.95778" lon="6.51517">
        <ele>890</ele>
        <time>2025-08-04T12:23:50.099Z</time>
      </trkpt>
      <trkpt lat="43.9578" lon="6.51517">
        <ele>889.9</ele>
        <time>2025-08-04T12:23:52.947Z</time>
      </trkpt>
      <trkpt lat="43.95783" lon="6.51519">
        <ele>890.1</ele>
        <time>2025-08-04T12:23:59.510Z</time>
      </trkpt>
      <trkpt lat="43.95785" lon="6.5152">
        <ele>890.2</ele>
        <time>2025-08-04T12:24:03.526Z</time>
      </trkpt>
      <trkpt lat="43.95788" lon="6.5152">
        <ele>890</ele>
        <time>2025-08-04T12:24:07.798Z</time>
      </trkpt>
      <trkpt lat="43.95791" lon="6.5152">
        <ele>889.9</ele>
        <time>2025-08-04T12:24:12.213Z</time>
      </trkpt>
      <trkpt lat="43.95794" lon="6.5152">
        <ele>889.7</ele>
        <time>2025-08-04T12:24:16.486Z</time>
      </trkpt>
      <trkpt lat="43.95796" lon="6.5152">
        <ele>889.6</ele>
        <time>2025-08-04T12:24:19.334Z</time>
      </trkpt>
      <trkpt lat="43.95799" lon="6.5152">
        <ele>889.4</ele>
        <time>2025-08-04T12:24:23.606Z</time>
      </trkpt>
      <trkpt lat="43.95801" lon="6.5152">
        <ele>889.3</ele>
        <time>2025-08-04T12:24:26.454Z</time>
      </trkpt>
      <trkpt lat="43.95804" lon="6.5152">
        <ele>889.1</ele>
        <time>2025-08-04T12:24:30.726Z</time>
      </trkpt>
      <trkpt lat="43.95806" lon="6.51521">
        <ele>889.3</ele>
        <time>2025-08-04T12:24:35.430Z</time>
      </trkpt>
      <trkpt lat="43.95809" lon="6.51522">
        <ele>889.4</ele>
        <time>2025-08-04T12:24:40.989Z</time>
      </trkpt>
      <trkpt lat="43.95812" lon="6.51523">
        <ele>889.6</ele>
        <time>2025-08-04T12:24:47.170Z</time>
      </trkpt>
      <trkpt lat="43.95815" lon="6.51523">
        <ele>889.5</ele>
        <time>2025-08-04T12:24:51.586Z</time>
      </trkpt>
      <trkpt lat="43.95817" lon="6.51524">
        <ele>889.6</ele>
        <time>2025-08-04T12:24:55.602Z</time>
      </trkpt>
      <trkpt lat="43.9582" lon="6.51526">
        <ele>890</ele>
        <time>2025-08-04T12:25:03.675Z</time>
      </trkpt>
      <trkpt lat="43.95823" lon="6.51526">
        <ele>889.9</ele>
        <time>2025-08-04T12:25:08.090Z</time>
      </trkpt>
      <trkpt lat="43.95825" lon="6.51527">
        <ele>890.1</ele>
        <time>2025-08-04T12:25:12.795Z</time>
      </trkpt>
      <trkpt lat="43.95828" lon="6.51529">
        <ele>890.4</ele>
        <time>2025-08-04T12:25:20.059Z</time>
      </trkpt>
      <trkpt lat="43.9583" lon="6.51532">
        <ele>890.9</ele>
        <time>2025-08-04T12:25:28.634Z</time>
      </trkpt>
      <trkpt lat="43.95832" lon="6.51535">
        <ele>891.3</ele>
        <time>2025-08-04T12:25:36.191Z</time>
      </trkpt>
      <trkpt lat="43.95835" lon="6.51536">
        <ele>891.5</ele>
        <time>2025-08-04T12:25:42.372Z</time>
      </trkpt>
      <trkpt lat="43.95837" lon="6.51538">
        <ele>891.9</ele>
        <time>2025-08-04T12:25:49.349Z</time>
      </trkpt>
      <trkpt lat="43.9584" lon="6.5154">
        <ele>892.3</ele>
        <time>2025-08-04T12:25:57.422Z</time>
      </trkpt>
      <trkpt lat="43.95842" lon="6.51541">
        <ele>892.5</ele>
        <time>2025-08-04T12:26:02.127Z</time>
      </trkpt>
      <trkpt lat="43.95845" lon="6.51541">
        <ele>892.6</ele>
        <time>2025-08-04T12:26:07.548Z</time>
      </trkpt>
      <trkpt lat="43.95848" lon="6.51542">
        <ele>892.8</ele>
        <time>2025-08-04T12:26:13.729Z</time>
      </trkpt>
      <trkpt lat="43.95851" lon="6.51542">
        <ele>892.9</ele>
        <time>2025-08-04T12:26:19.151Z</time>
      </trkpt>
      <trkpt lat="43.95854" lon="6.51543">
        <ele>893.1</ele>
        <time>2025-08-04T12:26:25.332Z</time>
      </trkpt>
      <trkpt lat="43.95856" lon="6.51543">
        <ele>893.1</ele>
        <time>2025-08-04T12:26:28.587Z</time>
      </trkpt>
      <trkpt lat="43.95859" lon="6.51543">
        <ele>893.2</ele>
        <time>2025-08-04T12:26:34.009Z</time>
      </trkpt>
      <trkpt lat="43.95862" lon="6.51543">
        <ele>893.2</ele>
        <time>2025-08-04T12:26:38.891Z</time>
      </trkpt>
      <trkpt lat="43.95865" lon="6.51544">
        <ele>893.5</ele>
        <time>2025-08-04T12:26:45.794Z</time>
      </trkpt>
      <trkpt lat="43.9587" lon="6.51548">
        <ele>894.1</ele>
        <time>2025-08-04T12:26:59.011Z</time>
      </trkpt>
      <trkpt lat="43.95874" lon="6.51551">
        <ele>894.8</ele>
        <time>2025-08-04T12:27:11.487Z</time>
      </trkpt>
      <trkpt lat="43.95879" lon="6.51554">
        <ele>895.3</ele>
        <time>2025-08-04T12:27:23.445Z</time>
      </trkpt>
      <trkpt lat="43.95883" lon="6.51556">
        <ele>895.8</ele>
        <time>2025-08-04T12:27:33.664Z</time>
      </trkpt>
      <trkpt lat="43.95888" lon="6.51559">
        <ele>896.3</ele>
        <time>2025-08-04T12:27:45.623Z</time>
      </trkpt>
      <trkpt lat="43.95892" lon="6.51561">
        <ele>896.6</ele>
        <time>2025-08-04T12:27:54.305Z</time>
      </trkpt>
      <trkpt lat="43.95898" lon="6.51568">
        <ele>897.3</ele>
        <time>2025-08-04T12:28:11.363Z</time>
      </trkpt>
      <trkpt lat="43.95902" lon="6.51574">
        <ele>898</ele>
        <time>2025-08-04T12:28:25.579Z</time>
      </trkpt>
      <trkpt lat="43.95904" lon="6.51581">
        <ele>898.7</ele>
        <time>2025-08-04T12:28:39.160Z</time>
      </trkpt>
      <trkpt lat="43.959" lon="6.51581">
        <ele>898.7</ele>
        <time>2025-08-04T12:28:45.670Z</time>
      </trkpt>
      <trkpt lat="43.95895" lon="6.51582">
        <ele>898.9</ele>
        <time>2025-08-04T12:28:54.985Z</time>
      </trkpt>
      <trkpt lat="43.9589" lon="6.51586">
        <ele>899.5</ele>
        <time>2025-08-04T12:29:08.202Z</time>
      </trkpt>
      <trkpt lat="43.95887" lon="6.51591">
        <ele>900.4</ele>
        <time>2025-08-04T12:29:23.066Z</time>
      </trkpt>
      <trkpt lat="43.95883" lon="6.51596">
        <ele>901.3</ele>
        <time>2025-08-04T12:29:38.588Z</time>
      </trkpt>
      <trkpt lat="43.9588" lon="6.51601">
        <ele>902.2</ele>
        <time>2025-08-04T12:29:53.452Z</time>
      </trkpt>
      <trkpt lat="43.95876" lon="6.51606">
        <ele>903.1</ele>
        <time>2025-08-04T12:30:08.973Z</time>
      </trkpt>
      <trkpt lat="43.9587" lon="6.51613">
        <ele>904.1</ele>
        <time>2025-08-04T12:30:28.496Z</time>
      </trkpt>
      <trkpt lat="43.95865" lon="6.51617">
        <ele>904.4</ele>
        <time>2025-08-04T12:30:39.574Z</time>
      </trkpt>
      <trkpt lat="43.9586" lon="6.51618">
        <ele>904.5</ele>
        <time>2025-08-04T12:30:48.319Z</time>
      </trkpt>
      <trkpt lat="43.95852" lon="6.51618">
        <ele>904.5</ele>
        <time>2025-08-04T12:31:01.339Z</time>
      </trkpt>
      <trkpt lat="43.95847" lon="6.51616">
        <ele>904.3</ele>
        <time>2025-08-04T12:31:08.883Z</time>
      </trkpt>
      <trkpt lat="43.95841" lon="6.51613">
        <ele>904.1</ele>
        <time>2025-08-04T12:31:18.323Z</time>
      </trkpt>
      <trkpt lat="43.95835" lon="6.51611">
        <ele>904</ele>
        <time>2025-08-04T12:31:27.881Z</time>
      </trkpt>
      <trkpt lat="43.95828" lon="6.51609">
        <ele>903.8</ele>
        <time>2025-08-04T12:31:38.568Z</time>
      </trkpt>
      <trkpt lat="43.95823" lon="6.51609">
        <ele>903.9</ele>
        <time>2025-08-04T12:31:47.229Z</time>
      </trkpt>
      <trkpt lat="43.95818" lon="6.51608">
        <ele>904</ele>
        <time>2025-08-04T12:31:55.973Z</time>
      </trkpt>
      <trkpt lat="43.95812" lon="6.51608">
        <ele>904.2</ele>
        <time>2025-08-04T12:32:06.817Z</time>
      </trkpt>
      <trkpt lat="43.95805" lon="6.51608">
        <ele>904.4</ele>
        <time>2025-08-04T12:32:19.276Z</time>
      </trkpt>
      <trkpt lat="43.95798" lon="6.51608">
        <ele>904.5</ele>
        <time>2025-08-04T12:32:31.186Z</time>
      </trkpt>
      <trkpt lat="43.95791" lon="6.51608">
        <ele>904.5</ele>
        <time>2025-08-04T12:32:42.578Z</time>
      </trkpt>
      <trkpt lat="43.95787" lon="6.51608">
        <ele>904.5</ele>
        <time>2025-08-04T12:32:49.088Z</time>
      </trkpt>
      <trkpt lat="43.95782" lon="6.51608">
        <ele>904.5</ele>
        <time>2025-08-04T12:32:57.225Z</time>
      </trkpt>
      <trkpt lat="43.95778" lon="6.51607">
        <ele>904.4</ele>
        <time>2025-08-04T12:33:03.364Z</time>
      </trkpt>
      <trkpt lat="43.95773" lon="6.51606">
        <ele>904.3</ele>
        <time>2025-08-04T12:33:11.105Z</time>
      </trkpt>
      <trkpt lat="43.95767" lon="6.51605">
        <ele>904.2</ele>
        <time>2025-08-04T12:33:20.457Z</time>
      </trkpt>
      <trkpt lat="43.9576" lon="6.51604">
        <ele>904.1</ele>
        <time>2025-08-04T12:33:31.423Z</time>
      </trkpt>
      <trkpt lat="43.95753" lon="6.51604">
        <ele>904.2</ele>
        <time>2025-08-04T12:33:43.333Z</time>
      </trkpt>
      <trkpt lat="43.95745" lon="6.51604">
        <ele>904.3</ele>
        <time>2025-08-04T12:33:56.867Z</time>
      </trkpt>
      <trkpt lat="43.95739" lon="6.51604">
        <ele>904.4</ele>
        <time>2025-08-04T12:34:07.152Z</time>
      </trkpt>
      <trkpt lat="43.95732" lon="6.51605">
        <ele>904.4</ele>
        <time>2025-08-04T12:34:18.604Z</time>
      </trkpt>
      <trkpt lat="43.95726" lon="6.51605">
        <ele>904.5</ele>
        <time>2025-08-04T12:34:28.889Z</time>
      </trkpt>
      <trkpt lat="43.95719" lon="6.51605">
        <ele>904.6</ele>
        <time>2025-08-04T12:34:40.798Z</time>
      </trkpt>
      <trkpt lat="43.95712" lon="6.51606">
        <ele>904.6</ele>
        <time>2025-08-04T12:34:52.250Z</time>
      </trkpt>
      <trkpt lat="43.95705" lon="6.51607">
        <ele>904.7</ele>
        <time>2025-08-04T12:35:04.220Z</time>
      </trkpt>
      <trkpt lat="43.95697" lon="6.51607">
        <ele>904.7</ele>
        <time>2025-08-04T12:35:17.240Z</time>
      </trkpt>
      <trkpt lat="43.9569" lon="6.51608">
        <ele>904.6</ele>
        <time>2025-08-04T12:35:28.206Z</time>
      </trkpt>
      <trkpt lat="43.95682" lon="6.51608">
        <ele>904.3</ele>
        <time>2025-08-04T12:35:39.837Z</time>
      </trkpt>
      <trkpt lat="43.95675" lon="6.51608">
        <ele>904.1</ele>
        <time>2025-08-04T12:35:50.286Z</time>
      </trkpt>
      <trkpt lat="43.95667" lon="6.51609">
        <ele>903.8</ele>
        <time>2025-08-04T12:36:01.970Z</time>
      </trkpt>
      <trkpt lat="43.9566" lon="6.51609">
        <ele>903.6</ele>
        <time>2025-08-04T12:36:12.419Z</time>
      </trkpt>
      <trkpt lat="43.95652" lon="6.51609">
        <ele>903.3</ele>
        <time>2025-08-04T12:36:24.050Z</time>
      </trkpt>
      <trkpt lat="43.95646" lon="6.5161">
        <ele>903.2</ele>
        <time>2025-08-04T12:36:33.401Z</time>
      </trkpt>
      <trkpt lat="43.95639" lon="6.51611">
        <ele>903</ele>
        <time>2025-08-04T12:36:43.910Z</time>
      </trkpt>
      <trkpt lat="43.95633" lon="6.51614">
        <ele>903.1</ele>
        <time>2025-08-04T12:36:54.807Z</time>
      </trkpt>
      <trkpt lat="43.95629" lon="6.51617">
        <ele>903.2</ele>
        <time>2025-08-04T12:37:02.731Z</time>
      </trkpt>
      <trkpt lat="43.95625" lon="6.5162">
        <ele>903.3</ele>
        <time>2025-08-04T12:37:10.655Z</time>
      </trkpt>
      <trkpt lat="43.95622" lon="6.51625">
        <ele>903.5</ele>
        <time>2025-08-04T12:37:19.383Z</time>
      </trkpt>
      <trkpt lat="43.95619" lon="6.5163">
        <ele>903.7</ele>
        <time>2025-08-04T12:37:28.110Z</time>
      </trkpt>
      <trkpt lat="43.95615" lon="6.51639">
        <ele>904</ele>
        <time>2025-08-04T12:37:42.142Z</time>
      </trkpt>
      <trkpt lat="43.95615" lon="6.5164">
        <ele>904</ele>
        <time>2025-08-04T12:37:43.314Z</time>
      </trkpt>
      <trkpt lat="43.95614" lon="6.51652">
        <ele>903.6</ele>
        <time>2025-08-04T12:37:55.698Z</time>
      </trkpt>
      <trkpt lat="43.95615" lon="6.51664">
        <ele>903.3</ele>
        <time>2025-08-04T12:38:08.453Z</time>
      </trkpt>
      <trkpt lat="43.95616" lon="6.51671">
        <ele>903.1</ele>
        <time>2025-08-04T12:38:15.891Z</time>
      </trkpt>
      <trkpt lat="43.95617" lon="6.51677">
        <ele>902.7</ele>
        <time>2025-08-04T12:38:22.204Z</time>
      </trkpt>
      <trkpt lat="43.95618" lon="6.51684">
        <ele>902.3</ele>
        <time>2025-08-04T12:38:29.520Z</time>
      </trkpt>
      <trkpt lat="43.95619" lon="6.5169">
        <ele>901.9</ele>
        <time>2025-08-04T12:38:35.834Z</time>
      </trkpt>
      <trkpt lat="43.95621" lon="6.517">
        <ele>901.4</ele>
        <time>2025-08-04T12:38:46.473Z</time>
      </trkpt>
      <trkpt lat="43.9562" lon="6.51707">
        <ele>900.9</ele>
        <time>2025-08-04T12:38:53.789Z</time>
      </trkpt>
      <trkpt lat="43.9562" lon="6.51708">
        <ele>900.8</ele>
        <time>2025-08-04T12:38:54.814Z</time>
      </trkpt>
      <trkpt lat="43.95617" lon="6.51717">
        <ele>900</ele>
        <time>2025-08-04T12:39:04.982Z</time>
      </trkpt>
      <trkpt lat="43.95612" lon="6.51723">
        <ele>899</ele>
        <time>2025-08-04T12:39:14.391Z</time>
      </trkpt>
      <trkpt lat="43.95605" lon="6.51728">
        <ele>897.9</ele>
        <time>2025-08-04T12:39:25.600Z</time>
      </trkpt>
      <trkpt lat="43.95599" lon="6.51729">
        <ele>897.3</ele>
        <time>2025-08-04T12:39:34.205Z</time>
      </trkpt>
      <trkpt lat="43.95591" lon="6.51727">
        <ele>896.9</ele>
        <time>2025-08-04T12:39:45.781Z</time>
      </trkpt>
      <trkpt lat="43.95586" lon="6.51723">
        <ele>897.1</ele>
        <time>2025-08-04T12:39:56.253Z</time>
      </trkpt>
      <trkpt lat="43.9558" lon="6.51718">
        <ele>896.5</ele>
        <time>2025-08-04T12:40:06.217Z</time>
      </trkpt>
      <trkpt lat="43.95576" lon="6.51715">
        <ele>895.9</ele>
        <time>2025-08-04T12:40:12.690Z</time>
      </trkpt>
      <trkpt lat="43.95572" lon="6.51712">
        <ele>895.4</ele>
        <time>2025-08-04T12:40:19.164Z</time>
      </trkpt>
      <trkpt lat="43.95565" lon="6.51709">
        <ele>894.4</ele>
        <time>2025-08-04T12:40:29.596Z</time>
      </trkpt>
      <trkpt lat="43.95559" lon="6.5171">
        <ele>893.5</ele>
        <time>2025-08-04T12:40:38.201Z</time>
      </trkpt>
      <trkpt lat="43.95554" lon="6.51714">
        <ele>892.8</ele>
        <time>2025-08-04T12:40:46.418Z</time>
      </trkpt>
      <trkpt lat="43.95549" lon="6.5172">
        <ele>892.1</ele>
        <time>2025-08-04T12:40:55.827Z</time>
      </trkpt>
      <trkpt lat="43.95544" lon="6.51725">
        <ele>891.2</ele>
        <time>2025-08-04T12:41:04.600Z</time>
      </trkpt>
      <trkpt lat="43.9554" lon="6.5173">
        <ele>890.4</ele>
        <time>2025-08-04T12:41:12.263Z</time>
      </trkpt>
      <trkpt lat="43.95536" lon="6.51736">
        <ele>889.8</ele>
        <time>2025-08-04T12:41:20.646Z</time>
      </trkpt>
      <trkpt lat="43.95532" lon="6.51741">
        <ele>889.3</ele>
        <time>2025-08-04T12:41:28.309Z</time>
      </trkpt>
      <trkpt lat="43.95528" lon="6.51746">
        <ele>889</ele>
        <time>2025-08-04T12:41:35.972Z</time>
      </trkpt>
      <trkpt lat="43.95524" lon="6.5175">
        <ele>888.7</ele>
        <time>2025-08-04T12:41:42.991Z</time>
      </trkpt>
      <trkpt lat="43.95521" lon="6.51755">
        <ele>888.4</ele>
        <time>2025-08-04T12:41:49.664Z</time>
      </trkpt>
      <trkpt lat="43.95517" lon="6.51759">
        <ele>888.1</ele>
        <time>2025-08-04T12:41:56.682Z</time>
      </trkpt>
      <trkpt lat="43.95513" lon="6.51763">
        <ele>888</ele>
        <time>2025-08-04T12:42:04.224Z</time>
      </trkpt>
      <trkpt lat="43.95509" lon="6.51768">
        <ele>887.9</ele>
        <time>2025-08-04T12:42:12.500Z</time>
      </trkpt>
      <trkpt lat="43.95505" lon="6.51773">
        <ele>887.9</ele>
        <time>2025-08-04T12:42:21.258Z</time>
      </trkpt>
      <trkpt lat="43.955" lon="6.51782">
        <ele>888</ele>
        <time>2025-08-04T12:42:35.091Z</time>
      </trkpt>
      <trkpt lat="43.95496" lon="6.51793">
        <ele>888</ele>
        <time>2025-08-04T12:42:49.530Z</time>
      </trkpt>
      <trkpt lat="43.95496" lon="6.51793">
        <ele>888</ele>
        <time>2025-08-04T12:42:49.530Z</time>
      </trkpt>
      <trkpt lat="43.95495" lon="6.51799">
        <ele>888</ele>
        <time>2025-08-04T12:42:56.745Z</time>
      </trkpt>
      <trkpt lat="43.95493" lon="6.51805">
        <ele>888</ele>
        <time>2025-08-04T12:43:04.492Z</time>
      </trkpt>
      <trkpt lat="43.95492" lon="6.51811">
        <ele>888.2</ele>
        <time>2025-08-04T12:43:12.816Z</time>
      </trkpt>
      <trkpt lat="43.9549" lon="6.51817">
        <ele>888.4</ele>
        <time>2025-08-04T12:43:21.662Z</time>
      </trkpt>
      <trkpt lat="43.95489" lon="6.51826">
        <ele>888.7</ele>
        <time>2025-08-04T12:43:33.996Z</time>
      </trkpt>
      <trkpt lat="43.95487" lon="6.51835">
        <ele>889</ele>
        <time>2025-08-04T12:43:46.690Z</time>
      </trkpt>
      <trkpt lat="43.95487" lon="6.51837">
        <ele>889.1</ele>
        <time>2025-08-04T12:43:49.620Z</time>
      </trkpt>
      <trkpt lat="43.95486" lon="6.51845">
        <ele>889.2</ele>
        <time>2025-08-04T12:43:59.653Z</time>
      </trkpt>
      <trkpt lat="43.95484" lon="6.51853">
        <ele>889.3</ele>
        <time>2025-08-04T12:44:10.094Z</time>
      </trkpt>
      <trkpt lat="43.95483" lon="6.5186">
        <ele>889.4</ele>
        <time>2025-08-04T12:44:18.978Z</time>
      </trkpt>
      <trkpt lat="43.95481" lon="6.51867">
        <ele>889.6</ele>
        <time>2025-08-04T12:44:28.889Z</time>
      </trkpt>
      <trkpt lat="43.95478" lon="6.51878">
        <ele>889.9</ele>
        <time>2025-08-04T12:44:44.296Z</time>
      </trkpt>
      <trkpt lat="43.95475" lon="6.51884">
        <ele>890</ele>
        <time>2025-08-04T12:44:53.377Z</time>
      </trkpt>
      <trkpt lat="43.95471" lon="6.51895">
        <ele>890.5</ele>
        <time>2025-08-04T12:45:10.659Z</time>
      </trkpt>
      <trkpt lat="43.95467" lon="6.51902">
        <ele>890.9</ele>
        <time>2025-08-04T12:45:23.435Z</time>
      </trkpt>
      <trkpt lat="43.95463" lon="6.51908">
        <ele>891.3</ele>
        <time>2025-08-04T12:45:35.353Z</time>
      </trkpt>
      <trkpt lat="43.95459" lon="6.51914">
        <ele>891.4</ele>
        <time>2025-08-04T12:45:45.454Z</time>
      </trkpt>
      <trkpt lat="43.95455" lon="6.5192">
        <ele>891.5</ele>
        <time>2025-08-04T12:45:55.555Z</time>
      </trkpt>
      <trkpt lat="43.95449" lon="6.51928">
        <ele>891.5</ele>
        <time>2025-08-04T12:46:09.091Z</time>
      </trkpt>
      <trkpt lat="43.95443" lon="6.51935">
        <ele>891.8</ele>
        <time>2025-08-04T12:46:23.479Z</time>
      </trkpt>
      <trkpt lat="43.95439" lon="6.5194">
        <ele>892.5</ele>
        <time>2025-08-04T12:46:37.006Z</time>
      </trkpt>
      <trkpt lat="43.95435" lon="6.51945">
        <ele>893</ele>
        <time>2025-08-04T12:46:48.867Z</time>
      </trkpt>
      <trkpt lat="43.95431" lon="6.51952">
        <ele>893.6</ele>
        <time>2025-08-04T12:47:03.064Z</time>
      </trkpt>
      <trkpt lat="43.9543" lon="6.51955">
        <ele>893.7</ele>
        <time>2025-08-04T12:47:07.488Z</time>
      </trkpt>
      <trkpt lat="43.95429" lon="6.51959">
        <ele>893.9</ele>
        <time>2025-08-04T12:47:13.611Z</time>
      </trkpt>
      <trkpt lat="43.95427" lon="6.51971">
        <ele>894.2</ele>
        <time>2025-08-04T12:47:29.662Z</time>
      </trkpt>
      <trkpt lat="43.95426" lon="6.51978">
        <ele>894.3</ele>
        <time>2025-08-04T12:47:38.546Z</time>
      </trkpt>
      <trkpt lat="43.95426" lon="6.51984">
        <ele>894.4</ele>
        <time>2025-08-04T12:47:46.103Z</time>
      </trkpt>
      <trkpt lat="43.95425" lon="6.51991">
        <ele>894.4</ele>
        <time>2025-08-04T12:47:54.464Z</time>
      </trkpt>
      <trkpt lat="43.95424" lon="6.51997">
        <ele>894.5</ele>
        <time>2025-08-04T12:48:02.206Z</time>
      </trkpt>
      <trkpt lat="43.95422" lon="6.52006">
        <ele>894.7</ele>
        <time>2025-08-04T12:48:14.311Z</time>
      </trkpt>
      <trkpt lat="43.95419" lon="6.52015">
        <ele>894.9</ele>
        <time>2025-08-04T12:48:26.997Z</time>
      </trkpt>
      <trkpt lat="43.95417" lon="6.52021">
        <ele>895</ele>
        <time>2025-08-04T12:48:35.268Z</time>
      </trkpt>
      <trkpt lat="43.95416" lon="6.52028">
        <ele>895.2</ele>
        <time>2025-08-04T12:48:44.722Z</time>
      </trkpt>
      <trkpt lat="43.95414" lon="6.52034">
        <ele>895.7</ele>
        <time>2025-08-04T12:48:55.666Z</time>
      </trkpt>
      <trkpt lat="43.95412" lon="6.5204">
        <ele>896.2</ele>
        <time>2025-08-04T12:49:06.610Z</time>
      </trkpt>
      <trkpt lat="43.95409" lon="6.52051">
        <ele>897</ele>
        <time>2025-08-04T12:49:25.375Z</time>
      </trkpt>
      <trkpt lat="43.95405" lon="6.52061">
        <ele>897.6</ele>
        <time>2025-08-04T12:49:42.326Z</time>
      </trkpt>
      <trkpt lat="43.95402" lon="6.52072">
        <ele>897.9</ele>
        <time>2025-08-04T12:49:57.733Z</time>
      </trkpt>
      <trkpt lat="43.95398" lon="6.52082">
        <ele>898</ele>
        <time>2025-08-04T12:50:11.651Z</time>
      </trkpt>
      <trkpt lat="43.95396" lon="6.52088">
        <ele>898.2</ele>
        <time>2025-08-04T12:50:20.498Z</time>
      </trkpt>
      <trkpt lat="43.95394" lon="6.52095">
        <ele>898.4</ele>
        <time>2025-08-04T12:50:30.409Z</time>
      </trkpt>
      <trkpt lat="43.95392" lon="6.52101">
        <ele>898.7</ele>
        <time>2025-08-04T12:50:39.888Z</time>
      </trkpt>
      <trkpt lat="43.9539" lon="6.52107">
        <ele>898.9</ele>
        <time>2025-08-04T12:50:48.735Z</time>
      </trkpt>
      <trkpt lat="43.95388" lon="6.52116">
        <ele>899.2</ele>
        <time>2025-08-04T12:51:01.429Z</time>
      </trkpt>
      <trkpt lat="43.95385" lon="6.52124">
        <ele>899.6</ele>
        <time>2025-08-04T12:51:14.300Z</time>
      </trkpt>
      <trkpt lat="43.95383" lon="6.52133">
        <ele>900</ele>
        <time>2025-08-04T12:51:27.624Z</time>
      </trkpt>
      <trkpt lat="43.9538" lon="6.52141">
        <ele>900.2</ele>
        <time>2025-08-04T12:51:39.265Z</time>
      </trkpt>
      <trkpt lat="43.95378" lon="6.52148">
        <ele>900.2</ele>
        <time>2025-08-04T12:51:48.088Z</time>
      </trkpt>
      <trkpt lat="43.95375" lon="6.52154">
        <ele>900.2</ele>
        <time>2025-08-04T12:51:56.647Z</time>
      </trkpt>
      <trkpt lat="43.95372" lon="6.52163">
        <ele>900</ele>
        <time>2025-08-04T12:52:07.323Z</time>
      </trkpt>
      <trkpt lat="43.95368" lon="6.52171">
        <ele>900</ele>
        <time>2025-08-04T12:52:18.735Z</time>
      </trkpt>
      <trkpt lat="43.95364" lon="6.52179">
        <ele>899.9</ele>
        <time>2025-08-04T12:52:29.661Z</time>
      </trkpt>
      <trkpt lat="43.9536" lon="6.52188">
        <ele>899.6</ele>
        <time>2025-08-04T12:52:40.670Z</time>
      </trkpt>
      <trkpt lat="43.95357" lon="6.52196">
        <ele>899.3</ele>
        <time>2025-08-04T12:52:49.918Z</time>
      </trkpt>
      <trkpt lat="43.95354" lon="6.52204">
        <ele>899.1</ele>
        <time>2025-08-04T12:52:59.547Z</time>
      </trkpt>
      <trkpt lat="43.95351" lon="6.52211">
        <ele>899</ele>
        <time>2025-08-04T12:53:08.609Z</time>
      </trkpt>
      <trkpt lat="43.95347" lon="6.52217">
        <ele>898.9</ele>
        <time>2025-08-04T12:53:17.707Z</time>
      </trkpt>
      <trkpt lat="43.95342" lon="6.52225">
        <ele>898.9</ele>
        <time>2025-08-04T12:53:30.120Z</time>
      </trkpt>
      <trkpt lat="43.95337" lon="6.52232">
        <ele>898.6</ele>
        <time>2025-08-04T12:53:40.298Z</time>
      </trkpt>
      <trkpt lat="43.95332" lon="6.52239">
        <ele>898.4</ele>
        <time>2025-08-04T12:53:50.907Z</time>
      </trkpt>
      <trkpt lat="43.95326" lon="6.52246">
        <ele>898.3</ele>
        <time>2025-08-04T12:54:03.172Z</time>
      </trkpt>
      <trkpt lat="43.95321" lon="6.52253">
        <ele>898.1</ele>
        <time>2025-08-04T12:54:13.781Z</time>
      </trkpt>
      <trkpt lat="43.95315" lon="6.5226">
        <ele>897.8</ele>
        <time>2025-08-04T12:54:25.147Z</time>
      </trkpt>
      <trkpt lat="43.9531" lon="6.52268">
        <ele>897.2</ele>
        <time>2025-08-04T12:54:36.008Z</time>
      </trkpt>
      <trkpt lat="43.95304" lon="6.52276">
        <ele>896.3</ele>
        <time>2025-08-04T12:54:47.852Z</time>
      </trkpt>
      <trkpt lat="43.95303" lon="6.5228">
        <ele>896</ele>
        <time>2025-08-04T12:54:52.193Z</time>
      </trkpt>
      <trkpt lat="43.95299" lon="6.52288">
        <ele>895.6</ele>
        <time>2025-08-04T12:55:02.178Z</time>
      </trkpt>
      <trkpt lat="43.95297" lon="6.52299">
        <ele>894.8</ele>
        <time>2025-08-04T12:55:13.809Z</time>
      </trkpt>
      <trkpt lat="43.95297" lon="6.52307">
        <ele>894.4</ele>
        <time>2025-08-04T12:55:22.011Z</time>
      </trkpt>
      <trkpt lat="43.95296" lon="6.52314">
        <ele>895</ele>
        <time>2025-08-04T12:55:34.324Z</time>
      </trkpt>
      <trkpt lat="43.95297" lon="6.52321">
        <ele>895.6</ele>
        <time>2025-08-04T12:55:46.637Z</time>
      </trkpt>
      <trkpt lat="43.95298" lon="6.52328">
        <ele>896</ele>
        <time>2025-08-04T12:55:57.392Z</time>
      </trkpt>
      <trkpt lat="43.953" lon="6.52339">
        <ele>896.7</ele>
        <time>2025-08-04T12:56:14.953Z</time>
      </trkpt>
      <trkpt lat="43.95301" lon="6.52349">
        <ele>897.4</ele>
        <time>2025-08-04T12:56:31.162Z</time>
      </trkpt>
      <trkpt lat="43.95304" lon="6.5236">
        <ele>897.5</ele>
        <time>2025-08-04T12:56:45.458Z</time>
      </trkpt>
      <trkpt lat="43.95307" lon="6.52371">
        <ele>897.7</ele>
        <time>2025-08-04T12:57:00.295Z</time>
      </trkpt>
      <trkpt lat="43.95308" lon="6.52382">
        <ele>898.5</ele>
        <time>2025-08-04T12:57:18.341Z</time>
      </trkpt>
      <trkpt lat="43.95307" lon="6.5239">
        <ele>898.6</ele>
        <time>2025-08-04T12:57:28.374Z</time>
      </trkpt>
      <trkpt lat="43.95301" lon="6.52399">
        <ele>900.5</ele>
        <time>2025-08-04T12:57:59.047Z</time>
      </trkpt>
      <trkpt lat="43.95299" lon="6.52403">
        <ele>901.6</ele>
        <time>2025-08-04T12:58:17.307Z</time>
      </trkpt>
      <trkpt lat="43.95298" lon="6.52409">
        <ele>902.4</ele>
        <time>2025-08-04T12:58:30.754Z</time>
      </trkpt>
      <trkpt lat="43.95296" lon="6.52415">
        <ele>903.1</ele>
        <time>2025-08-04T12:58:43.487Z</time>
      </trkpt>
      <trkpt lat="43.95295" lon="6.52422">
        <ele>903.8</ele>
        <time>2025-08-04T12:58:56.694Z</time>
      </trkpt>
      <trkpt lat="43.95294" lon="6.52429">
        <ele>904.4</ele>
        <time>2025-08-04T12:59:09.008Z</time>
      </trkpt>
      <trkpt lat="43.95294" lon="6.52436">
        <ele>904.9</ele>
        <time>2025-08-04T12:59:20.361Z</time>
      </trkpt>
      <trkpt lat="43.95293" lon="6.52443">
        <ele>905.4</ele>
        <time>2025-08-04T12:59:31.859Z</time>
      </trkpt>
      <trkpt lat="43.95294" lon="6.5245">
        <ele>905.6</ele>
        <time>2025-08-04T12:59:41.313Z</time>
      </trkpt>
      <trkpt lat="43.95294" lon="6.52457">
        <ele>906</ele>
        <time>2025-08-04T12:59:51.916Z</time>
      </trkpt>
      <trkpt lat="43.95293" lon="6.52465">
        <ele>907</ele>
        <time>2025-08-04T13:00:09.023Z</time>
      </trkpt>
      <trkpt lat="43.95292" lon="6.52473">
        <ele>907.9</ele>
        <time>2025-08-04T13:00:25.064Z</time>
      </trkpt>
      <trkpt lat="43.95291" lon="6.52482">
        <ele>908.4</ele>
        <time>2025-08-04T13:00:38.713Z</time>
      </trkpt>
      <trkpt lat="43.95289" lon="6.52491">
        <ele>908.8</ele>
        <time>2025-08-04T13:00:52.038Z</time>
      </trkpt>
      <trkpt lat="43.95286" lon="6.52499">
        <ele>909.6</ele>
        <time>2025-08-04T13:01:07.962Z</time>
      </trkpt>
      <trkpt lat="43.95283" lon="6.52507">
        <ele>910.3</ele>
        <time>2025-08-04T13:01:23.038Z</time>
      </trkpt>
      <trkpt lat="43.95278" lon="6.52517">
        <ele>911.5</ele>
        <time>2025-08-04T13:01:45.625Z</time>
      </trkpt>
      <trkpt lat="43.95272" lon="6.52526">
        <ele>912.7</ele>
        <time>2025-08-04T13:02:08.297Z</time>
      </trkpt>
      <trkpt lat="43.95267" lon="6.52533">
        <ele>913.8</ele>
        <time>2025-08-04T13:02:27.850Z</time>
      </trkpt>
      <trkpt lat="43.95261" lon="6.5254">
        <ele>914.7</ele>
        <time>2025-08-04T13:02:46.501Z</time>
      </trkpt>
      <trkpt lat="43.9526" lon="6.52542">
        <ele>914.8</ele>
        <time>2025-08-04T13:02:49.923Z</time>
      </trkpt>
      <trkpt lat="43.95257" lon="6.52546">
        <ele>915.3</ele>
        <time>2025-08-04T13:03:00.013Z</time>
      </trkpt>
      <trkpt lat="43.95253" lon="6.52551">
        <ele>915.8</ele>
        <time>2025-08-04T13:03:11.874Z</time>
      </trkpt>
      <trkpt lat="43.9525" lon="6.52555">
        <ele>916.3</ele>
        <time>2025-08-04T13:03:21.964Z</time>
      </trkpt>
      <trkpt lat="43.95246" lon="6.52559">
        <ele>917.3</ele>
        <time>2025-08-04T13:03:38.274Z</time>
      </trkpt>
      <trkpt lat="43.9524" lon="6.52567">
        <ele>918.9</ele>
        <time>2025-08-04T13:04:04.688Z</time>
      </trkpt>
      <trkpt lat="43.95233" lon="6.52574">
        <ele>920.2</ele>
        <time>2025-08-04T13:04:28.074Z</time>
      </trkpt>
      <trkpt lat="43.95229" lon="6.5258">
        <ele>920.7</ele>
        <time>2025-08-04T13:04:40.698Z</time>
      </trkpt>
      <trkpt lat="43.95225" lon="6.52586">
        <ele>921.1</ele>
        <time>2025-08-04T13:04:52.617Z</time>
      </trkpt>
      <trkpt lat="43.95222" lon="6.5259">
        <ele>921.7</ele>
        <time>2025-08-04T13:05:03.626Z</time>
      </trkpt>
      <trkpt lat="43.95218" lon="6.52594">
        <ele>922.3</ele>
        <time>2025-08-04T13:05:15.650Z</time>
      </trkpt>
      <trkpt lat="43.95214" lon="6.52597">
        <ele>923.1</ele>
        <time>2025-08-04T13:05:29.204Z</time>
      </trkpt>
      <trkpt lat="43.9521" lon="6.526">
        <ele>923.9</ele>
        <time>2025-08-04T13:05:42.758Z</time>
      </trkpt>
      <trkpt lat="43.95206" lon="6.52606">
        <ele>924.5</ele>
        <time>2025-08-04T13:05:56.147Z</time>
      </trkpt>
      <trkpt lat="43.95204" lon="6.52611">
        <ele>924.6</ele>
        <time>2025-08-04T13:06:03.377Z</time>
      </trkpt>
      <trkpt lat="43.95204" lon="6.52614">
        <ele>924.6</ele>
        <time>2025-08-04T13:06:06.892Z</time>
      </trkpt>
      <trkpt lat="43.95202" lon="6.52622">
        <ele>925.1</ele>
        <time>2025-08-04T13:06:19.836Z</time>
      </trkpt>
      <trkpt lat="43.952" lon="6.52629">
        <ele>925.6</ele>
        <time>2025-08-04T13:06:31.758Z</time>
      </trkpt>
      <trkpt lat="43.95197" lon="6.5264">
        <ele>926.4</ele>
        <time>2025-08-04T13:06:50.523Z</time>
      </trkpt>
      <trkpt lat="43.95192" lon="6.52647">
        <ele>927.9</ele>
        <time>2025-08-04T13:07:14.807Z</time>
      </trkpt>
      <trkpt lat="43.95187" lon="6.52652">
        <ele>929.4</ele>
        <time>2025-08-04T13:07:38.788Z</time>
      </trkpt>
      <trkpt lat="43.95183" lon="6.52656">
        <ele>930.4</ele>
        <time>2025-08-04T13:07:55.098Z</time>
      </trkpt>
      <trkpt lat="43.95179" lon="6.52659">
        <ele>931.4</ele>
        <time>2025-08-04T13:08:11.194Z</time>
      </trkpt>
      <trkpt lat="43.95177" lon="6.52663">
        <ele>931.8</ele>
        <time>2025-08-04T13:08:19.516Z</time>
      </trkpt>
      <trkpt lat="43.95173" lon="6.52673">
        <ele>932.7</ele>
        <time>2025-08-04T13:08:38.737Z</time>
      </trkpt>
      <trkpt lat="43.95171" lon="6.52681">
        <ele>933.1</ele>
        <time>2025-08-04T13:08:50.983Z</time>
      </trkpt>
      <trkpt lat="43.9517" lon="6.52691">
        <ele>933.5</ele>
        <time>2025-08-04T13:09:05.080Z</time>
      </trkpt>
      <trkpt lat="43.95168" lon="6.52701">
        <ele>933.3</ele>
        <time>2025-08-04T13:09:16.294Z</time>
      </trkpt>
      <trkpt lat="43.95166" lon="6.52711">
        <ele>933</ele>
        <time>2025-08-04T13:09:27.073Z</time>
      </trkpt>
      <trkpt lat="43.95163" lon="6.52721">
        <ele>932.9</ele>
        <time>2025-08-04T13:09:39.279Z</time>
      </trkpt>
      <trkpt lat="43.9516" lon="6.52728">
        <ele>932.9</ele>
        <time>2025-08-04T13:09:48.824Z</time>
      </trkpt>
      <trkpt lat="43.95157" lon="6.52733">
        <ele>933.2</ele>
        <time>2025-08-04T13:09:58.187Z</time>
      </trkpt>
      <trkpt lat="43.95154" lon="6.52738">
        <ele>933.6</ele>
        <time>2025-08-04T13:10:08.250Z</time>
      </trkpt>
      <trkpt lat="43.95149" lon="6.52746">
        <ele>934.5</ele>
        <time>2025-08-04T13:10:26.609Z</time>
      </trkpt>
      <trkpt lat="43.95143" lon="6.52754">
        <ele>935.5</ele>
        <time>2025-08-04T13:10:46.788Z</time>
      </trkpt>
      <trkpt lat="43.95137" lon="6.52762">
        <ele>936.6</ele>
        <time>2025-08-04T13:11:07.862Z</time>
      </trkpt>
      <trkpt lat="43.95131" lon="6.5277">
        <ele>937.8</ele>
        <time>2025-08-04T13:11:29.881Z</time>
      </trkpt>
      <trkpt lat="43.95127" lon="6.52775">
        <ele>938.6</ele>
        <time>2025-08-04T13:11:44.361Z</time>
      </trkpt>
      <trkpt lat="43.95123" lon="6.5278">
        <ele>939.5</ele>
        <time>2025-08-04T13:11:59.882Z</time>
      </trkpt>
      <trkpt lat="43.95118" lon="6.52785">
        <ele>940.2</ele>
        <time>2025-08-04T13:12:14.483Z</time>
      </trkpt>
      <trkpt lat="43.95114" lon="6.5279">
        <ele>941.2</ele>
        <time>2025-08-04T13:12:31.146Z</time>
      </trkpt>
      <trkpt lat="43.95109" lon="6.52798">
        <ele>942.2</ele>
        <time>2025-08-04T13:12:50.391Z</time>
      </trkpt>
      <trkpt lat="43.95104" lon="6.52806">
        <ele>943</ele>
        <time>2025-08-04T13:13:07.918Z</time>
      </trkpt>
      <trkpt lat="43.95101" lon="6.52813">
        <ele>943.4</ele>
        <time>2025-08-04T13:13:19.801Z</time>
      </trkpt>
      <trkpt lat="43.95097" lon="6.52819">
        <ele>943.9</ele>
        <time>2025-08-04T13:13:32.426Z</time>
      </trkpt>
      <trkpt lat="43.95093" lon="6.52825">
        <ele>944.6</ele>
        <time>2025-08-04T13:13:46.642Z</time>
      </trkpt>
      <trkpt lat="43.95089" lon="6.52831">
        <ele>945.3</ele>
        <time>2025-08-04T13:14:00.859Z</time>
      </trkpt>
      <trkpt lat="43.95085" lon="6.52835">
        <ele>946.3</ele>
        <time>2025-08-04T13:14:17.169Z</time>
      </trkpt>
      <trkpt lat="43.95081" lon="6.52838">
        <ele>947</ele>
        <time>2025-08-04T13:14:29.644Z</time>
      </trkpt>
      <trkpt lat="43.95074" lon="6.52843">
        <ele>948.2</ele>
        <time>2025-08-04T13:14:51.123Z</time>
      </trkpt>
      <trkpt lat="43.95069" lon="6.52846">
        <ele>949.3</ele>
        <time>2025-08-04T13:15:09.081Z</time>
      </trkpt>
      <trkpt lat="43.95063" lon="6.52848">
        <ele>950.4</ele>
        <time>2025-08-04T13:15:27.641Z</time>
      </trkpt>
      <trkpt lat="43.95057" lon="6.52854">
        <ele>950.9</ele>
        <time>2025-08-04T13:15:42.592Z</time>
      </trkpt>
      <trkpt lat="43.95054" lon="6.52859">
        <ele>950.8</ele>
        <time>2025-08-04T13:15:49.740Z</time>
      </trkpt>
      <trkpt lat="43.95047" lon="6.52866">
        <ele>951.9</ele>
        <time>2025-08-04T13:16:11.224Z</time>
      </trkpt>
      <trkpt lat="43.9504" lon="6.52872">
        <ele>953.1</ele>
        <time>2025-08-04T13:16:33.131Z</time>
      </trkpt>
      <trkpt lat="43.95034" lon="6.52879">
        <ele>954</ele>
        <time>2025-08-04T13:16:51.782Z</time>
      </trkpt>
      <trkpt lat="43.95027" lon="6.52885">
        <ele>954.8</ele>
        <time>2025-08-04T13:17:10.187Z</time>
      </trkpt>
      <trkpt lat="43.95022" lon="6.52891">
        <ele>956</ele>
        <time>2025-08-04T13:17:30.318Z</time>
      </trkpt>
      <trkpt lat="43.95018" lon="6.529">
        <ele>956.8</ele>
        <time>2025-08-04T13:17:47.826Z</time>
      </trkpt>
      <trkpt lat="43.95015" lon="6.52905">
        <ele>957.7</ele>
        <time>2025-08-04T13:18:02.691Z</time>
      </trkpt>
      <trkpt lat="43.95011" lon="6.52909">
        <ele>958.4</ele>
        <time>2025-08-04T13:18:15.632Z</time>
      </trkpt>
      <trkpt lat="43.95007" lon="6.52914">
        <ele>959.3</ele>
        <time>2025-08-04T13:18:31.154Z</time>
      </trkpt>
      <trkpt lat="43.95003" lon="6.52918">
        <ele>960</ele>
        <time>2025-08-04T13:18:44.095Z</time>
      </trkpt>
      <trkpt lat="43.94997" lon="6.52924">
        <ele>961</ele>
        <time>2025-08-04T13:19:03.033Z</time>
      </trkpt>
      <trkpt lat="43.94991" lon="6.5293">
        <ele>962</ele>
        <time>2025-08-04T13:19:21.971Z</time>
      </trkpt>
      <trkpt lat="43.94984" lon="6.52937">
        <ele>963</ele>
        <time>2025-08-04T13:19:42.581Z</time>
      </trkpt>
      <trkpt lat="43.94977" lon="6.52944">
        <ele>963.9</ele>
        <time>2025-08-04T13:20:02.364Z</time>
      </trkpt>
      <trkpt lat="43.94973" lon="6.52948">
        <ele>964.3</ele>
        <time>2025-08-04T13:20:12.798Z</time>
      </trkpt>
      <trkpt lat="43.94968" lon="6.52951">
        <ele>964.7</ele>
        <time>2025-08-04T13:20:24.030Z</time>
      </trkpt>
      <trkpt lat="43.94964" lon="6.52954">
        <ele>965.2</ele>
        <time>2025-08-04T13:20:34.666Z</time>
      </trkpt>
      <trkpt lat="43.94959" lon="6.52957">
        <ele>965.8</ele>
        <time>2025-08-04T13:20:47.416Z</time>
      </trkpt>
      <trkpt lat="43.94955" lon="6.5296">
        <ele>966.6</ele>
        <time>2025-08-04T13:21:00.971Z</time>
      </trkpt>
      <trkpt lat="43.9495" lon="6.52962">
        <ele>967.3</ele>
        <time>2025-08-04T13:21:14.264Z</time>
      </trkpt>
      <trkpt lat="43.94945" lon="6.52966">
        <ele>968</ele>
        <time>2025-08-04T13:21:28.318Z</time>
      </trkpt>
      <trkpt lat="43.9494" lon="6.52972">
        <ele>968.6</ele>
        <time>2025-08-04T13:21:42.776Z</time>
      </trkpt>
      <trkpt lat="43.94935" lon="6.52978">
        <ele>969.7</ele>
        <time>2025-08-04T13:22:01.779Z</time>
      </trkpt>
      <trkpt lat="43.94932" lon="6.52983">
        <ele>970.3</ele>
        <time>2025-08-04T13:22:13.473Z</time>
      </trkpt>
      <trkpt lat="43.94928" lon="6.52988">
        <ele>970.9</ele>
        <time>2025-08-04T13:22:26.130Z</time>
      </trkpt>
      <trkpt lat="43.94921" lon="6.52994">
        <ele>972.4</ele>
        <time>2025-08-04T13:22:51.262Z</time>
      </trkpt>
      <trkpt lat="43.94915" lon="6.52999">
        <ele>973.7</ele>
        <time>2025-08-04T13:23:12.926Z</time>
      </trkpt>
      <trkpt lat="43.9491" lon="6.53003">
        <ele>975.1</ele>
        <time>2025-08-04T13:23:35.309Z</time>
      </trkpt>
      <trkpt lat="43.94904" lon="6.53007">
        <ele>976.5</ele>
        <time>2025-08-04T13:23:57.990Z</time>
      </trkpt>
      <trkpt lat="43.94899" lon="6.53014">
        <ele>977.4</ele>
        <time>2025-08-04T13:24:15.624Z</time>
      </trkpt>
      <trkpt lat="43.94893" lon="6.5302">
        <ele>978.1</ele>
        <time>2025-08-04T13:24:32.020Z</time>
      </trkpt>
      <trkpt lat="43.94889" lon="6.53026">
        <ele>978.4</ele>
        <time>2025-08-04T13:24:43.286Z</time>
      </trkpt>
      <trkpt lat="43.94884" lon="6.53031">
        <ele>979.3</ele>
        <time>2025-08-04T13:24:59.706Z</time>
      </trkpt>
      <trkpt lat="43.9488" lon="6.53035">
        <ele>980.2</ele>
        <time>2025-08-04T13:25:14.779Z</time>
      </trkpt>
      <trkpt lat="43.94873" lon="6.53039">
        <ele>981.7</ele>
        <time>2025-08-04T13:25:39.368Z</time>
      </trkpt>
      <trkpt lat="43.94866" lon="6.53043">
        <ele>982.8</ele>
        <time>2025-08-04T13:25:59.485Z</time>
      </trkpt>
      <trkpt lat="43.94859" lon="6.53046">
        <ele>984.1</ele>
        <time>2025-08-04T13:26:21.451Z</time>
      </trkpt>
      <trkpt lat="43.94852" lon="6.53048">
        <ele>985.7</ele>
        <time>2025-08-04T13:26:47.154Z</time>
      </trkpt>
      <trkpt lat="43.94847" lon="6.53052">
        <ele>986.7</ele>
        <time>2025-08-04T13:27:04.184Z</time>
      </trkpt>
      <trkpt lat="43.94841" lon="6.53056">
        <ele>987.8</ele>
        <time>2025-08-04T13:27:23.238Z</time>
      </trkpt>
      <trkpt lat="43.94838" lon="6.5306">
        <ele>988.6</ele>
        <time>2025-08-04T13:27:36.446Z</time>
      </trkpt>
      <trkpt lat="43.94834" lon="6.53064">
        <ele>989.2</ele>
        <time>2025-08-04T13:27:48.469Z</time>
      </trkpt>
      <trkpt lat="43.94827" lon="6.53066">
        <ele>990.5</ele>
        <time>2025-08-04T13:28:10.267Z</time>
      </trkpt>
      <trkpt lat="43.9482" lon="6.5307">
        <ele>991.3</ele>
        <time>2025-08-04T13:28:27.710Z</time>
      </trkpt>
      <trkpt lat="43.94813" lon="6.53075">
        <ele>991.7</ele>
        <time>2025-08-04T13:28:42.765Z</time>
      </trkpt>
      <trkpt lat="43.94809" lon="6.53079">
        <ele>991.5</ele>
        <time>2025-08-04T13:28:49.867Z</time>
      </trkpt>
      <trkpt lat="43.94806" lon="6.53083">
        <ele>991.2</ele>
        <time>2025-08-04T13:28:55.789Z</time>
      </trkpt>
      <trkpt lat="43.94802" lon="6.53086">
        <ele>991.9</ele>
        <time>2025-08-04T13:29:08.265Z</time>
      </trkpt>
      <trkpt lat="43.94798" lon="6.5309">
        <ele>992.6</ele>
        <time>2025-08-04T13:29:21.206Z</time>
      </trkpt>
      <trkpt lat="43.94794" lon="6.53096">
        <ele>993.2</ele>
        <time>2025-08-04T13:29:34.595Z</time>
      </trkpt>
      <trkpt lat="43.94792" lon="6.53104">
        <ele>993</ele>
        <time>2025-08-04T13:29:43.583Z</time>
      </trkpt>
      <trkpt lat="43.94789" lon="6.53109">
        <ele>993</ele>
        <time>2025-08-04T13:29:51.209Z</time>
      </trkpt>
      <trkpt lat="43.94783" lon="6.53118">
        <ele>993.2</ele>
        <time>2025-08-04T13:30:06.635Z</time>
      </trkpt>
      <trkpt lat="43.9478" lon="6.53124">
        <ele>993.4</ele>
        <time>2025-08-04T13:30:16.285Z</time>
      </trkpt>
      <trkpt lat="43.94776" lon="6.5313">
        <ele>993.7</ele>
        <time>2025-08-04T13:30:27.551Z</time>
      </trkpt>
      <trkpt lat="43.94772" lon="6.53138">
        <ele>994.1</ele>
        <time>2025-08-04T13:30:41.241Z</time>
      </trkpt>
      <trkpt lat="43.94769" lon="6.53144">
        <ele>994.7</ele>
        <time>2025-08-04T13:30:53.726Z</time>
      </trkpt>
      <trkpt lat="43.94769" lon="6.53149">
        <ele>994.8</ele>
        <time>2025-08-04T13:31:00.117Z</time>
      </trkpt>
      <trkpt lat="43.94769" lon="6.53153">
        <ele>994.9</ele>
        <time>2025-08-04T13:31:05.345Z</time>
      </trkpt>
      <trkpt lat="43.9477" lon="6.53154">
        <ele>994.8</ele>
        <time>2025-08-04T13:31:07.100Z</time>
      </trkpt>
      <trkpt lat="43.94769" lon="6.53162">
        <ele>995.2</ele>
        <time>2025-08-04T13:31:18.954Z</time>
      </trkpt>
      <trkpt lat="43.94767" lon="6.5317">
        <ele>995.7</ele>
        <time>2025-08-04T13:31:31.899Z</time>
      </trkpt>
      <trkpt lat="43.94766" lon="6.53176">
        <ele>996.3</ele>
        <time>2025-08-04T13:31:43.259Z</time>
      </trkpt>
      <trkpt lat="43.94764" lon="6.53182">
        <ele>996.8</ele>
        <time>2025-08-04T13:31:54.204Z</time>
      </trkpt>
      <trkpt lat="43.9476" lon="6.53189">
        <ele>997.7</ele>
        <time>2025-08-04T13:32:10.966Z</time>
      </trkpt>
      <trkpt lat="43.94755" lon="6.53195">
        <ele>998.5</ele>
        <time>2025-08-04T13:32:27.046Z</time>
      </trkpt>
      <trkpt lat="43.94751" lon="6.53204">
        <ele>999.3</ele>
        <time>2025-08-04T13:32:44.555Z</time>
      </trkpt>
      <trkpt lat="43.94749" lon="6.5321">
        <ele>999.7</ele>
        <time>2025-08-04T13:32:54.732Z</time>
      </trkpt>
      <trkpt lat="43.9475" lon="6.53217">
        <ele>999.8</ele>
        <time>2025-08-04T13:33:03.617Z</time>
      </trkpt>
      <trkpt lat="43.94751" lon="6.53223">
        <ele>1000</ele>
        <time>2025-08-04T13:33:11.941Z</time>
      </trkpt>
      <trkpt lat="43.94753" lon="6.5323">
        <ele>1000.8</ele>
        <time>2025-08-04T13:33:26.470Z</time>
      </trkpt>
      <trkpt lat="43.94754" lon="6.53238">
        <ele>1001.5</ele>
        <time>2025-08-04T13:33:40.630Z</time>
      </trkpt>
      <trkpt lat="43.94756" lon="6.53245">
        <ele>1002.2</ele>
        <time>2025-08-04T13:33:54.212Z</time>
      </trkpt>
      <trkpt lat="43.94757" lon="6.53252">
        <ele>1003</ele>
        <time>2025-08-04T13:34:08.403Z</time>
      </trkpt>
      <trkpt lat="43.94759" lon="6.53264">
        <ele>1004.2</ele>
        <time>2025-08-04T13:34:31.124Z</time>
      </trkpt>
      <trkpt lat="43.94761" lon="6.53276">
        <ele>1005.4</ele>
        <time>2025-08-04T13:34:53.845Z</time>
      </trkpt>
      <trkpt lat="43.94762" lon="6.53287">
        <ele>1006.8</ele>
        <time>2025-08-04T13:35:17.592Z</time>
      </trkpt>
      <trkpt lat="43.94764" lon="6.53299">
        <ele>1008.2</ele>
        <time>2025-08-04T13:35:42.285Z</time>
      </trkpt>
      <trkpt lat="43.94766" lon="6.53306">
        <ele>1008.8</ele>
        <time>2025-08-04T13:35:55.000Z</time>
      </trkpt>
      <trkpt lat="43.94768" lon="6.53312">
        <ele>1009.2</ele>
        <time>2025-08-04T13:36:05.177Z</time>
      </trkpt>
      <trkpt lat="43.94769" lon="6.53321">
        <ele>1009.9</ele>
        <time>2025-08-04T13:36:20.343Z</time>
      </trkpt>
      <trkpt lat="43.94769" lon="6.5333">
        <ele>1010.6</ele>
        <time>2025-08-04T13:36:35.399Z</time>
      </trkpt>
      <trkpt lat="43.94769" lon="6.53338">
        <ele>1011.3</ele>
        <time>2025-08-04T13:36:49.439Z</time>
      </trkpt>
      <trkpt lat="43.94769" lon="6.53345">
        <ele>1011.8</ele>
        <time>2025-08-04T13:37:00.793Z</time>
      </trkpt>
      <trkpt lat="43.94768" lon="6.53351">
        <ele>1012.3</ele>
        <time>2025-08-04T13:37:11.269Z</time>
      </trkpt>
      <trkpt lat="43.94766" lon="6.53362">
        <ele>1013.4</ele>
        <time>2025-08-04T13:37:32.147Z</time>
      </trkpt>
      <trkpt lat="43.94763" lon="6.53373">
        <ele>1014.4</ele>
        <time>2025-08-04T13:37:52.538Z</time>
      </trkpt>
      <trkpt lat="43.94761" lon="6.53381">
        <ele>1015.1</ele>
        <time>2025-08-04T13:38:07.049Z</time>
      </trkpt>
      <trkpt lat="43.9476" lon="6.53388">
        <ele>1015.6</ele>
        <time>2025-08-04T13:38:18.548Z</time>
      </trkpt>
      <trkpt lat="43.94758" lon="6.53396">
        <ele>1016.2</ele>
        <time>2025-08-04T13:38:32.245Z</time>
      </trkpt>
      <trkpt lat="43.94756" lon="6.53403">
        <ele>1016.8</ele>
        <time>2025-08-04T13:38:44.961Z</time>
      </trkpt>
      <trkpt lat="43.94755" lon="6.53414">
        <ele>1017.6</ele>
        <time>2025-08-04T13:39:03.007Z</time>
      </trkpt>
      <trkpt lat="43.94754" lon="6.53424">
        <ele>1018.4</ele>
        <time>2025-08-04T13:39:20.017Z</time>
      </trkpt>
      <trkpt lat="43.94752" lon="6.53435">
        <ele>1019.3</ele>
        <time>2025-08-04T13:39:39.141Z</time>
      </trkpt>
      <trkpt lat="43.94751" lon="6.53445">
        <ele>1020</ele>
        <time>2025-08-04T13:39:55.352Z</time>
      </trkpt>
      <trkpt lat="43.9475" lon="6.53452">
        <ele>1020.5</ele>
        <time>2025-08-04T13:40:06.850Z</time>
      </trkpt>
      <trkpt lat="43.94749" lon="6.53458">
        <ele>1021</ele>
        <time>2025-08-04T13:40:17.327Z</time>
      </trkpt>
      <trkpt lat="43.94748" lon="6.53465">
        <ele>1021.4</ele>
        <time>2025-08-04T13:40:28.082Z</time>
      </trkpt>
      <trkpt lat="43.94747" lon="6.53472">
        <ele>1021.8</ele>
        <time>2025-08-04T13:40:38.837Z</time>
      </trkpt>
      <trkpt lat="43.94745" lon="6.53478">
        <ele>1022</ele>
        <time>2025-08-04T13:40:47.685Z</time>
      </trkpt>
      <trkpt lat="43.94744" lon="6.53485">
        <ele>1022.2</ele>
        <time>2025-08-04T13:40:57.140Z</time>
      </trkpt>
      <trkpt lat="43.94743" lon="6.53491">
        <ele>1022.4</ele>
        <time>2025-08-04T13:41:05.464Z</time>
      </trkpt>
      <trkpt lat="43.94742" lon="6.53498">
        <ele>1022.6</ele>
        <time>2025-08-04T13:41:14.918Z</time>
      </trkpt>
      <trkpt lat="43.9474" lon="6.5351">
        <ele>1022.9</ele>
        <time>2025-08-04T13:41:30.971Z</time>
      </trkpt>
      <trkpt lat="43.94739" lon="6.53521">
        <ele>1023</ele>
        <time>2025-08-04T13:41:44.477Z</time>
      </trkpt>
      <trkpt lat="43.94737" lon="6.53533">
        <ele>1023</ele>
        <time>2025-08-04T13:41:58.910Z</time>
      </trkpt>
      <trkpt lat="43.94735" lon="6.53544">
        <ele>1022.6</ele>
        <time>2025-08-04T13:42:10.543Z</time>
      </trkpt>
      <trkpt lat="43.94734" lon="6.53552">
        <ele>1022.4</ele>
        <time>2025-08-04T13:42:19.125Z</time>
      </trkpt>
      <trkpt lat="43.94734" lon="6.5356">
        <ele>1022.1</ele>
        <time>2025-08-04T13:42:27.327Z</time>
      </trkpt>
      <trkpt lat="43.94733" lon="6.53567">
        <ele>1021.8</ele>
        <time>2025-08-04T13:42:34.644Z</time>
      </trkpt>
      <trkpt lat="43.94732" lon="6.53575">
        <ele>1021.4</ele>
        <time>2025-08-04T13:42:42.969Z</time>
      </trkpt>
      <trkpt lat="43.94733" lon="6.53577">
        <ele>1021.5</ele>
        <time>2025-08-04T13:42:46.391Z</time>
      </trkpt>
      <trkpt lat="43.94736" lon="6.53585">
        <ele>1021.9</ele>
        <time>2025-08-04T13:42:59.263Z</time>
      </trkpt>
      <trkpt lat="43.94739" lon="6.53595">
        <ele>1022.1</ele>
        <time>2025-08-04T13:43:13.017Z</time>
      </trkpt>
      <trkpt lat="43.94739" lon="6.53597">
        <ele>1022</ele>
        <time>2025-08-04T13:43:15.068Z</time>
      </trkpt>
      <trkpt lat="43.9474" lon="6.53606">
        <ele>1022</ele>
        <time>2025-08-04T13:43:25.739Z</time>
      </trkpt>
      <trkpt lat="43.94741" lon="6.53614">
        <ele>1021.9</ele>
        <time>2025-08-04T13:43:34.770Z</time>
      </trkpt>
      <trkpt lat="43.94742" lon="6.53626">
        <ele>1021.6</ele>
        <time>2025-08-04T13:43:47.527Z</time>
      </trkpt>
      <trkpt lat="43.94742" lon="6.53633">
        <ele>1021.2</ele>
        <time>2025-08-04T13:43:54.704Z</time>
      </trkpt>
      <trkpt lat="43.94742" lon="6.53639">
        <ele>1020.8</ele>
        <time>2025-08-04T13:44:00.856Z</time>
      </trkpt>
      <trkpt lat="43.94743" lon="6.53646">
        <ele>1021</ele>
        <time>2025-08-04T13:44:10.311Z</time>
      </trkpt>
      <trkpt lat="43.94745" lon="6.53653">
        <ele>1021.1</ele>
        <time>2025-08-04T13:44:19.657Z</time>
      </trkpt>
      <trkpt lat="43.94746" lon="6.5366">
        <ele>1021.3</ele>
        <time>2025-08-04T13:44:29.111Z</time>
      </trkpt>
      <trkpt lat="43.94747" lon="6.53667">
        <ele>1021.5</ele>
        <time>2025-08-04T13:44:38.566Z</time>
      </trkpt>
      <trkpt lat="43.94748" lon="6.53678">
        <ele>1020.1</ele>
        <time>2025-08-04T13:44:49.933Z</time>
      </trkpt>
      <trkpt lat="43.94752" lon="6.53685">
        <ele>1020.3</ele>
        <time>2025-08-04T13:45:01.478Z</time>
      </trkpt>
      <trkpt lat="43.94756" lon="6.53691">
        <ele>1020.5</ele>
        <time>2025-08-04T13:45:12.140Z</time>
      </trkpt>
      <trkpt lat="43.94759" lon="6.53696">
        <ele>1020.5</ele>
        <time>2025-08-04T13:45:19.766Z</time>
      </trkpt>
      <trkpt lat="43.94762" lon="6.53701">
        <ele>1020.1</ele>
        <time>2025-08-04T13:45:26.440Z</time>
      </trkpt>
      <trkpt lat="43.94765" lon="6.53706">
        <ele>1019.8</ele>
        <time>2025-08-04T13:45:33.113Z</time>
      </trkpt>
      <trkpt lat="43.94768" lon="6.53713">
        <ele>1018.9</ele>
        <time>2025-08-04T13:45:41.465Z</time>
      </trkpt>
      <trkpt lat="43.9477" lon="6.53722">
        <ele>1017.4</ele>
        <time>2025-08-04T13:45:51.122Z</time>
      </trkpt>
      <trkpt lat="43.94772" lon="6.5373">
        <ele>1015.9</ele>
        <time>2025-08-04T13:45:59.805Z</time>
      </trkpt>
      <trkpt lat="43.94775" lon="6.53741">
        <ele>1014.2</ele>
        <time>2025-08-04T13:46:11.865Z</time>
      </trkpt>
      <trkpt lat="43.94777" lon="6.53748">
        <ele>1013.2</ele>
        <time>2025-08-04T13:46:19.586Z</time>
      </trkpt>
      <trkpt lat="43.94779" lon="6.53755">
        <ele>1011.8</ele>
        <time>2025-08-04T13:46:27.308Z</time>
      </trkpt>
      <trkpt lat="43.94783" lon="6.53765">
        <ele>1010</ele>
        <time>2025-08-04T13:46:39.037Z</time>
      </trkpt>
      <trkpt lat="43.94787" lon="6.53772">
        <ele>1009.2</ele>
        <time>2025-08-04T13:46:48.199Z</time>
      </trkpt>
      <trkpt lat="43.9479" lon="6.53778">
        <ele>1008.4</ele>
        <time>2025-08-04T13:46:55.689Z</time>
      </trkpt>
      <trkpt lat="43.94794" lon="6.53786">
        <ele>1008</ele>
        <time>2025-08-04T13:47:05.675Z</time>
      </trkpt>
      <trkpt lat="43.94798" lon="6.53792">
        <ele>1008</ele>
        <time>2025-08-04T13:47:15.257Z</time>
      </trkpt>
      <trkpt lat="43.948" lon="6.53802">
        <ele>1006.2</ele>
        <time>2025-08-04T13:47:25.898Z</time>
      </trkpt>
      <trkpt lat="43.948" lon="6.53811">
        <ele>1005.2</ele>
        <time>2025-08-04T13:47:35.125Z</time>
      </trkpt>
      <trkpt lat="43.948" lon="6.5382">
        <ele>1004.9</ele>
        <time>2025-08-04T13:47:44.352Z</time>
      </trkpt>
      <trkpt lat="43.94801" lon="6.53829">
        <ele>1004.7</ele>
        <time>2025-08-04T13:47:54.084Z</time>
      </trkpt>
      <trkpt lat="43.94801" lon="6.53837">
        <ele>1004.6</ele>
        <time>2025-08-04T13:48:02.975Z</time>
      </trkpt>
      <trkpt lat="43.94801" lon="6.53848">
        <ele>1004</ele>
        <time>2025-08-04T13:48:14.253Z</time>
      </trkpt>
      <trkpt lat="43.948" lon="6.53859">
        <ele>1003.5</ele>
        <time>2025-08-04T13:48:25.620Z</time>
      </trkpt>
      <trkpt lat="43.948" lon="6.53869">
        <ele>1003.1</ele>
        <time>2025-08-04T13:48:35.873Z</time>
      </trkpt>
      <trkpt lat="43.94803" lon="6.53881">
        <ele>1003.4</ele>
        <time>2025-08-04T13:48:52.374Z</time>
      </trkpt>
      <trkpt lat="43.94805" lon="6.53892">
        <ele>1003.8</ele>
        <time>2025-08-04T13:49:07.903Z</time>
      </trkpt>
      <trkpt lat="43.94806" lon="6.53901">
        <ele>1004.1</ele>
        <time>2025-08-04T13:49:20.238Z</time>
      </trkpt>
      <trkpt lat="43.94806" lon="6.53912">
        <ele>1004.1</ele>
        <time>2025-08-04T13:49:33.127Z</time>
      </trkpt>
      <trkpt lat="43.94804" lon="6.53923">
        <ele>1003.6</ele>
        <time>2025-08-04T13:49:44.759Z</time>
      </trkpt>
      <trkpt lat="43.94802" lon="6.53929">
        <ele>1003.2</ele>
        <time>2025-08-04T13:49:51.538Z</time>
      </trkpt>
      <trkpt lat="43.948" lon="6.53935">
        <ele>1002.7</ele>
        <time>2025-08-04T13:49:58.317Z</time>
      </trkpt>
      <trkpt lat="43.94798" lon="6.53941">
        <ele>1002.3</ele>
        <time>2025-08-04T13:50:05.096Z</time>
      </trkpt>
      <trkpt lat="43.94796" lon="6.53947">
        <ele>1001.8</ele>
        <time>2025-08-04T13:50:11.875Z</time>
      </trkpt>
      <trkpt lat="43.94791" lon="6.53954">
        <ele>1000.3</ele>
        <time>2025-08-04T13:50:21.985Z</time>
      </trkpt>
      <trkpt lat="43.94788" lon="6.5396">
        <ele>999.3</ele>
        <time>2025-08-04T13:50:29.474Z</time>
      </trkpt>
      <trkpt lat="43.94787" lon="6.53964">
        <ele>998.8</ele>
        <time>2025-08-04T13:50:33.816Z</time>
      </trkpt>
      <trkpt lat="43.94788" lon="6.53971">
        <ele>998.6</ele>
        <time>2025-08-04T13:50:41.255Z</time>
      </trkpt>
      <trkpt lat="43.94792" lon="6.53978">
        <ele>998.7</ele>
        <time>2025-08-04T13:50:52.244Z</time>
      </trkpt>
      <trkpt lat="43.94796" lon="6.53985">
        <ele>998.6</ele>
        <time>2025-08-04T13:51:02.232Z</time>
      </trkpt>
      <trkpt lat="43.94801" lon="6.53991">
        <ele>999</ele>
        <time>2025-08-04T13:51:15.282Z</time>
      </trkpt>
      <trkpt lat="43.94805" lon="6.53996">
        <ele>999.4</ele>
        <time>2025-08-04T13:51:26.413Z</time>
      </trkpt>
      <trkpt lat="43.9481" lon="6.54004">
        <ele>998.9</ele>
        <time>2025-08-04T13:51:37.275Z</time>
      </trkpt>
      <trkpt lat="43.94815" lon="6.54012">
        <ele>997.9</ele>
        <time>2025-08-04T13:51:48.136Z</time>
      </trkpt>
      <trkpt lat="43.94818" lon="6.54016">
        <ele>997.7</ele>
        <time>2025-08-04T13:51:54.058Z</time>
      </trkpt>
      <trkpt lat="43.9482" lon="6.5402">
        <ele>997.3</ele>
        <time>2025-08-04T13:51:59.051Z</time>
      </trkpt>
      <trkpt lat="43.94822" lon="6.54027">
        <ele>996.1</ele>
        <time>2025-08-04T13:52:06.773Z</time>
      </trkpt>
      <trkpt lat="43.94824" lon="6.54031">
        <ele>996.8</ele>
        <time>2025-08-04T13:52:18.229Z</time>
      </trkpt>
      <trkpt lat="43.94825" lon="6.54035">
        <ele>997.3</ele>
        <time>2025-08-04T13:52:26.915Z</time>
      </trkpt>
      <trkpt lat="43.94824" lon="6.54041">
        <ele>996.9</ele>
        <time>2025-08-04T13:52:33.229Z</time>
      </trkpt>
      <trkpt lat="43.94822" lon="6.54047">
        <ele>996.5</ele>
        <time>2025-08-04T13:52:40.008Z</time>
      </trkpt>
      <trkpt lat="43.94821" lon="6.54053">
        <ele>995.9</ele>
        <time>2025-08-04T13:52:46.323Z</time>
      </trkpt>
      <trkpt lat="43.94819" lon="6.54059">
        <ele>995</ele>
        <time>2025-08-04T13:52:53.102Z</time>
      </trkpt>
      <trkpt lat="43.9482" lon="6.54066">
        <ele>994.8</ele>
        <time>2025-08-04T13:53:00.540Z</time>
      </trkpt>
      <trkpt lat="43.9482" lon="6.54072">
        <ele>994.6</ele>
        <time>2025-08-04T13:53:06.692Z</time>
      </trkpt>
      <trkpt lat="43.9482" lon="6.54079">
        <ele>994.2</ele>
        <time>2025-08-04T13:53:13.869Z</time>
      </trkpt>
      <trkpt lat="43.94821" lon="6.54085">
        <ele>993.8</ele>
        <time>2025-08-04T13:53:20.183Z</time>
      </trkpt>
      <trkpt lat="43.94821" lon="6.54092">
        <ele>993.3</ele>
        <time>2025-08-04T13:53:27.360Z</time>
      </trkpt>
      <trkpt lat="43.94821" lon="6.54098">
        <ele>992.8</ele>
        <time>2025-08-04T13:53:33.512Z</time>
      </trkpt>
      <trkpt lat="43.94822" lon="6.54107">
        <ele>992.3</ele>
        <time>2025-08-04T13:53:42.848Z</time>
      </trkpt>
      <trkpt lat="43.94822" lon="6.54115">
        <ele>991.5</ele>
        <time>2025-08-04T13:53:51.051Z</time>
      </trkpt>
      <trkpt lat="43.94823" lon="6.54124">
        <ele>990.8</ele>
        <time>2025-08-04T13:54:00.387Z</time>
      </trkpt>
      <trkpt lat="43.94823" lon="6.54132">
        <ele>990.1</ele>
        <time>2025-08-04T13:54:08.589Z</time>
      </trkpt>
      <trkpt lat="43.94824" lon="6.54141">
        <ele>989.5</ele>
        <time>2025-08-04T13:54:17.926Z</time>
      </trkpt>
      <trkpt lat="43.94824" lon="6.54149">
        <ele>989.3</ele>
        <time>2025-08-04T13:54:26.369Z</time>
      </trkpt>
      <trkpt lat="43.94824" lon="6.54159">
        <ele>988.9</ele>
        <time>2025-08-04T13:54:36.622Z</time>
      </trkpt>
      <trkpt lat="43.94823" lon="6.54169">
        <ele>988.4</ele>
        <time>2025-08-04T13:54:46.973Z</time>
      </trkpt>
      <trkpt lat="43.94823" lon="6.54178">
        <ele>987.6</ele>
        <time>2025-08-04T13:54:56.200Z</time>
      </trkpt>
      <trkpt lat="43.94822" lon="6.54188">
        <ele>986.8</ele>
        <time>2025-08-04T13:55:06.551Z</time>
      </trkpt>
      <trkpt lat="43.94822" lon="6.54197">
        <ele>986.1</ele>
        <time>2025-08-04T13:55:15.779Z</time>
      </trkpt>
      <trkpt lat="43.94821" lon="6.54205">
        <ele>985.1</ele>
        <time>2025-08-04T13:55:24.104Z</time>
      </trkpt>
      <trkpt lat="43.9482" lon="6.54217">
        <ele>983.6</ele>
        <time>2025-08-04T13:55:36.489Z</time>
      </trkpt>
      <trkpt lat="43.94818" lon="6.54228">
        <ele>982.5</ele>
        <time>2025-08-04T13:55:48.121Z</time>
      </trkpt>
      <trkpt lat="43.94818" lon="6.54235">
        <ele>982.1</ele>
        <time>2025-08-04T13:55:55.298Z</time>
      </trkpt>
      <trkpt lat="43.94818" lon="6.54242">
        <ele>981.8</ele>
        <time>2025-08-04T13:56:02.475Z</time>
      </trkpt>
      <trkpt lat="43.9482" lon="6.54252">
        <ele>981.3</ele>
        <time>2025-08-04T13:56:13.116Z</time>
      </trkpt>
      <trkpt lat="43.94821" lon="6.54262">
        <ele>980.6</ele>
        <time>2025-08-04T13:56:23.467Z</time>
      </trkpt>
      <trkpt lat="43.94822" lon="6.54269">
        <ele>980</ele>
        <time>2025-08-04T13:56:30.784Z</time>
      </trkpt>
      <trkpt lat="43.94823" lon="6.54276">
        <ele>979.5</ele>
        <time>2025-08-04T13:56:38.100Z</time>
      </trkpt>
      <trkpt lat="43.94824" lon="6.54282">
        <ele>979</ele>
        <time>2025-08-04T13:56:44.415Z</time>
      </trkpt>
      <trkpt lat="43.94825" lon="6.54289">
        <ele>978.5</ele>
        <time>2025-08-04T13:56:51.732Z</time>
      </trkpt>
      <trkpt lat="43.94826" lon="6.54298">
        <ele>977.8</ele>
        <time>2025-08-04T13:57:01.068Z</time>
      </trkpt>
      <trkpt lat="43.94827" lon="6.54307">
        <ele>977.2</ele>
        <time>2025-08-04T13:57:10.405Z</time>
      </trkpt>
      <trkpt lat="43.9483" lon="6.54318">
        <ele>976.7</ele>
        <time>2025-08-04T13:57:22.465Z</time>
      </trkpt>
      <trkpt lat="43.94833" lon="6.54328">
        <ele>976.3</ele>
        <time>2025-08-04T13:57:33.572Z</time>
      </trkpt>
      <trkpt lat="43.94835" lon="6.54335">
        <ele>975.9</ele>
        <time>2025-08-04T13:57:41.293Z</time>
      </trkpt>
      <trkpt lat="43.94837" lon="6.54343">
        <ele>975.1</ele>
        <time>2025-08-04T13:57:49.976Z</time>
      </trkpt>
      <trkpt lat="43.94839" lon="6.5435">
        <ele>974.4</ele>
        <time>2025-08-04T13:57:57.697Z</time>
      </trkpt>
      <trkpt lat="43.94841" lon="6.54357">
        <ele>973.7</ele>
        <time>2025-08-04T13:58:05.419Z</time>
      </trkpt>
      <trkpt lat="43.94843" lon="6.54365">
        <ele>973.3</ele>
        <time>2025-08-04T13:58:14.101Z</time>
      </trkpt>
      <trkpt lat="43.94845" lon="6.54373">
        <ele>973.3</ele>
        <time>2025-08-04T13:58:24.024Z</time>
      </trkpt>
      <trkpt lat="43.94847" lon="6.5438">
        <ele>973.2</ele>
        <time>2025-08-04T13:58:32.367Z</time>
      </trkpt>
      <trkpt lat="43.94848" lon="6.54386">
        <ele>973.2</ele>
        <time>2025-08-04T13:58:39.583Z</time>
      </trkpt>
      <trkpt lat="43.9485" lon="6.54395">
        <ele>973.5</ele>
        <time>2025-08-04T13:58:52.278Z</time>
      </trkpt>
      <trkpt lat="43.94851" lon="6.54404">
        <ele>974.1</ele>
        <time>2025-08-04T13:59:06.659Z</time>
      </trkpt>
      <trkpt lat="43.94852" lon="6.54413">
        <ele>974.5</ele>
        <time>2025-08-04T13:59:19.629Z</time>
      </trkpt>
      <trkpt lat="43.94853" lon="6.54421">
        <ele>975</ele>
        <time>2025-08-04T13:59:32.191Z</time>
      </trkpt>
      <trkpt lat="43.94852" lon="6.54431">
        <ele>975.3</ele>
        <time>2025-08-04T13:59:45.668Z</time>
      </trkpt>
      <trkpt lat="43.9485" lon="6.5444">
        <ele>975.6</ele>
        <time>2025-08-04T13:59:58.363Z</time>
      </trkpt>
      <trkpt lat="43.94849" lon="6.54449">
        <ele>975.9</ele>
        <time>2025-08-04T14:00:10.698Z</time>
      </trkpt>
      <trkpt lat="43.94847" lon="6.54457">
        <ele>976.4</ele>
        <time>2025-08-04T14:00:23.642Z</time>
      </trkpt>
      <trkpt lat="43.94847" lon="6.54458">
        <ele>976.5</ele>
        <time>2025-08-04T14:00:25.511Z</time>
      </trkpt>
      <trkpt lat="43.94849" lon="6.54464">
        <ele>977.1</ele>
        <time>2025-08-04T14:00:37.305Z</time>
      </trkpt>
      <trkpt lat="43.9485" lon="6.54466">
        <ele>977.4</ele>
        <time>2025-08-04T14:00:42.436Z</time>
      </trkpt>
      <trkpt lat="43.94851" lon="6.54473">
        <ele>978</ele>
        <time>2025-08-04T14:00:54.750Z</time>
      </trkpt>
      <trkpt lat="43.9485" lon="6.54483">
        <ele>978.6</ele>
        <time>2025-08-04T14:01:10.210Z</time>
      </trkpt>
      <trkpt lat="43.9485" lon="6.5449">
        <ele>979</ele>
        <time>2025-08-04T14:01:20.814Z</time>
      </trkpt>
      <trkpt lat="43.94849" lon="6.54496">
        <ele>979.4</ele>
        <time>2025-08-04T14:01:30.496Z</time>
      </trkpt>
      <trkpt lat="43.94849" lon="6.54506">
        <ele>980</ele>
        <time>2025-08-04T14:01:45.851Z</time>
      </trkpt>
      <trkpt lat="43.94848" lon="6.54516">
        <ele>980.5</ele>
        <time>2025-08-04T14:02:00.609Z</time>
      </trkpt>
      <trkpt lat="43.94848" lon="6.54526">
        <ele>980.9</ele>
        <time>2025-08-04T14:02:14.596Z</time>
      </trkpt>
      <trkpt lat="43.94847" lon="6.54535">
        <ele>981.2</ele>
        <time>2025-08-04T14:02:26.931Z</time>
      </trkpt>
      <trkpt lat="43.94848" lon="6.54542">
        <ele>981.5</ele>
        <time>2025-08-04T14:02:37.007Z</time>
      </trkpt>
      <trkpt lat="43.94848" lon="6.54548">
        <ele>981.8</ele>
        <time>2025-08-04T14:02:45.796Z</time>
      </trkpt>
      <trkpt lat="43.94849" lon="6.5456">
        <ele>982.6</ele>
        <time>2025-08-04T14:03:04.904Z</time>
      </trkpt>
      <trkpt lat="43.94851" lon="6.54571">
        <ele>983.6</ele>
        <time>2025-08-04T14:03:24.879Z</time>
      </trkpt>
      <trkpt lat="43.94853" lon="6.54581">
        <ele>984.7</ele>
        <time>2025-08-04T14:03:44.877Z</time>
      </trkpt>
      <trkpt lat="43.94856" lon="6.54592">
        <ele>985.6</ele>
        <time>2025-08-04T14:04:04.433Z</time>
      </trkpt>
      <trkpt lat="43.94856" lon="6.54594">
        <ele>985.6</ele>
        <time>2025-08-04T14:04:06.777Z</time>
      </trkpt>
      <trkpt lat="43.94857" lon="6.54599">
        <ele>986</ele>
        <time>2025-08-04T14:04:15.428Z</time>
      </trkpt>
      <trkpt lat="43.94858" lon="6.54609">
        <ele>986.5</ele>
        <time>2025-08-04T14:04:30.185Z</time>
      </trkpt>
      <trkpt lat="43.94856" lon="6.54621">
        <ele>986.6</ele>
        <time>2025-08-04T14:04:45.131Z</time>
      </trkpt>
      <trkpt lat="43.94854" lon="6.54627">
        <ele>986.5</ele>
        <time>2025-08-04T14:04:52.400Z</time>
      </trkpt>
      <trkpt lat="43.94852" lon="6.54633">
        <ele>986.5</ele>
        <time>2025-08-04T14:05:00.147Z</time>
      </trkpt>
      <trkpt lat="43.9485" lon="6.54641">
        <ele>986.5</ele>
        <time>2025-08-04T14:05:10.070Z</time>
      </trkpt>
      <trkpt lat="43.94848" lon="6.54648">
        <ele>986.4</ele>
        <time>2025-08-04T14:05:18.413Z</time>
      </trkpt>
      <trkpt lat="43.94847" lon="6.54654">
        <ele>986.4</ele>
        <time>2025-08-04T14:05:25.629Z</time>
      </trkpt>
      <trkpt lat="43.94845" lon="6.5466">
        <ele>986.4</ele>
        <time>2025-08-04T14:05:33.376Z</time>
      </trkpt>
      <trkpt lat="43.94844" lon="6.54672">
        <ele>986.7</ele>
        <time>2025-08-04T14:05:49.153Z</time>
      </trkpt>
      <trkpt lat="43.94844" lon="6.54679">
        <ele>986.7</ele>
        <time>2025-08-04T14:05:57.355Z</time>
      </trkpt>
      <trkpt lat="43.94843" lon="6.54685">
        <ele>986.8</ele>
        <time>2025-08-04T14:06:05.098Z</time>
      </trkpt>
      <trkpt lat="43.94843" lon="6.54692">
        <ele>987</ele>
        <time>2025-08-04T14:06:14.394Z</time>
      </trkpt>
      <trkpt lat="43.94842" lon="6.54699">
        <ele>987.3</ele>
        <time>2025-08-04T14:06:24.470Z</time>
      </trkpt>
      <trkpt lat="43.94841" lon="6.54704">
        <ele>987.5</ele>
        <time>2025-08-04T14:06:31.680Z</time>
      </trkpt>
      <trkpt lat="43.94839" lon="6.54715">
        <ele>988</ele>
        <time>2025-08-04T14:06:47.850Z</time>
      </trkpt>
      <trkpt lat="43.94836" lon="6.54726">
        <ele>988.4</ele>
        <time>2025-08-04T14:07:03.859Z</time>
      </trkpt>
      <trkpt lat="43.94834" lon="6.54737">
        <ele>988.6</ele>
        <time>2025-08-04T14:07:18.210Z</time>
      </trkpt>
      <trkpt lat="43.94832" lon="6.54747">
        <ele>988.7</ele>
        <time>2025-08-04T14:07:30.887Z</time>
      </trkpt>
      <trkpt lat="43.9483" lon="6.54755">
        <ele>988.7</ele>
        <time>2025-08-04T14:07:40.810Z</time>
      </trkpt>
      <trkpt lat="43.94828" lon="6.54765">
        <ele>988.7</ele>
        <time>2025-08-04T14:07:52.971Z</time>
      </trkpt>
      <trkpt lat="43.94825" lon="6.54775">
        <ele>988.7</ele>
        <time>2025-08-04T14:08:05.665Z</time>
      </trkpt>
      <trkpt lat="43.94824" lon="6.54783">
        <ele>988.7</ele>
        <time>2025-08-04T14:08:15.179Z</time>
      </trkpt>
      <trkpt lat="43.94822" lon="6.54791">
        <ele>988.6</ele>
        <time>2025-08-04T14:08:24.618Z</time>
      </trkpt>
      <trkpt lat="43.94821" lon="6.54803">
        <ele>988.7</ele>
        <time>2025-08-04T14:08:39.287Z</time>
      </trkpt>
      <trkpt lat="43.9482" lon="6.54814">
        <ele>988.9</ele>
        <time>2025-08-04T14:08:53.337Z</time>
      </trkpt>
      <trkpt lat="43.94819" lon="6.54822">
        <ele>989.1</ele>
        <time>2025-08-04T14:09:03.932Z</time>
      </trkpt>
      <trkpt lat="43.94819" lon="6.54831">
        <ele>989.2</ele>
        <time>2025-08-04T14:09:14.996Z</time>
      </trkpt>
      <trkpt lat="43.94818" lon="6.54839">
        <ele>989.5</ele>
        <time>2025-08-04T14:09:26.196Z</time>
      </trkpt>
      <trkpt lat="43.94817" lon="6.54847">
        <ele>989.8</ele>
        <time>2025-08-04T14:09:37.396Z</time>
      </trkpt>
      <trkpt lat="43.94817" lon="6.54855">
        <ele>990.3</ele>
        <time>2025-08-04T14:09:49.827Z</time>
      </trkpt>
      <trkpt lat="43.94816" lon="6.54864">
        <ele>990.7</ele>
        <time>2025-08-04T14:10:02.796Z</time>
      </trkpt>
      <trkpt lat="43.94815" lon="6.54872">
        <ele>990.9</ele>
        <time>2025-08-04T14:10:13.391Z</time>
      </trkpt>
      <trkpt lat="43.94813" lon="6.54879">
        <ele>991.2</ele>
        <time>2025-08-04T14:10:23.917Z</time>
      </trkpt>
      <trkpt lat="43.94812" lon="6.54887">
        <ele>991.5</ele>
        <time>2025-08-04T14:10:35.117Z</time>
      </trkpt>
      <trkpt lat="43.9481" lon="6.54895">
        <ele>992</ele>
        <time>2025-08-04T14:10:48.062Z</time>
      </trkpt>
      <trkpt lat="43.9481" lon="6.54896">
        <ele>992</ele>
        <time>2025-08-04T14:10:49.234Z</time>
      </trkpt>
      <trkpt lat="43.94809" lon="6.54904">
        <ele>992.5</ele>
        <time>2025-08-04T14:11:01.795Z</time>
      </trkpt>
      <trkpt lat="43.94806" lon="6.5491">
        <ele>992.6</ele>
        <time>2025-08-04T14:11:10.877Z</time>
      </trkpt>
      <trkpt lat="43.94803" lon="6.54916">
        <ele>992.7</ele>
        <time>2025-08-04T14:11:19.959Z</time>
      </trkpt>
      <trkpt lat="43.94798" lon="6.54921">
        <ele>992.8</ele>
        <time>2025-08-04T14:11:30.505Z</time>
      </trkpt>
      <trkpt lat="43.94794" lon="6.54924">
        <ele>992.8</ele>
        <time>2025-08-04T14:11:37.903Z</time>
      </trkpt>
      <trkpt lat="43.9479" lon="6.54927">
        <ele>992.8</ele>
        <time>2025-08-04T14:11:45.302Z</time>
      </trkpt>
      <trkpt lat="43.94783" lon="6.54933">
        <ele>992.9</ele>
        <time>2025-08-04T14:11:59.203Z</time>
      </trkpt>
      <trkpt lat="43.94778" lon="6.54936">
        <ele>992.8</ele>
        <time>2025-08-04T14:12:07.586Z</time>
      </trkpt>
      <trkpt lat="43.94773" lon="6.54937">
        <ele>992.4</ele>
        <time>2025-08-04T14:12:14.779Z</time>
      </trkpt>
      <trkpt lat="43.94768" lon="6.54938">
        <ele>992</ele>
        <time>2025-08-04T14:12:21.973Z</time>
      </trkpt>
      <trkpt lat="43.94762" lon="6.5494">
        <ele>991.6</ele>
        <time>2025-08-04T14:12:30.760Z</time>
      </trkpt>
      <trkpt lat="43.94756" lon="6.54941">
        <ele>991.2</ele>
        <time>2025-08-04T14:12:39.366Z</time>
      </trkpt>
      <trkpt lat="43.94752" lon="6.54944">
        <ele>991.2</ele>
        <time>2025-08-04T14:12:46.764Z</time>
      </trkpt>
      <trkpt lat="43.94748" lon="6.54947">
        <ele>991.4</ele>
        <time>2025-08-04T14:12:55.268Z</time>
      </trkpt>
      <trkpt lat="43.9474" lon="6.54952">
        <ele>992</ele>
        <time>2025-08-04T14:13:13.055Z</time>
      </trkpt>
      <trkpt lat="43.94735" lon="6.54955">
        <ele>992.3</ele>
        <time>2025-08-04T14:13:23.619Z</time>
      </trkpt>
      <trkpt lat="43.9473" lon="6.54957">
        <ele>992.5</ele>
        <time>2025-08-04T14:13:33.179Z</time>
      </trkpt>
      <trkpt lat="43.94724" lon="6.54961">
        <ele>993</ele>
        <time>2025-08-04T14:13:46.982Z</time>
      </trkpt>
      <trkpt lat="43.94718" lon="6.54964">
        <ele>993.8</ele>
        <time>2025-08-04T14:14:02.747Z</time>
      </trkpt>
      <trkpt lat="43.94714" lon="6.54967">
        <ele>994.5</ele>
        <time>2025-08-04T14:14:15.223Z</time>
      </trkpt>
      <trkpt lat="43.94709" lon="6.54969">
        <ele>995.3</ele>
        <time>2025-08-04T14:14:29.490Z</time>
      </trkpt>
      <trkpt lat="43.94702" lon="6.54971">
        <ele>996.2</ele>
        <time>2025-08-04T14:14:47.189Z</time>
      </trkpt>
      <trkpt lat="43.94697" lon="6.54972">
        <ele>996.7</ele>
        <time>2025-08-04T14:14:58.560Z</time>
      </trkpt>
      <trkpt lat="43.94692" lon="6.54972">
        <ele>997.5</ele>
        <time>2025-08-04T14:15:12.593Z</time>
      </trkpt>
      <trkpt lat="43.94687" lon="6.54972">
        <ele>998.6</ele>
        <time>2025-08-04T14:15:30.299Z</time>
      </trkpt>
      <trkpt lat="43.94681" lon="6.54971">
        <ele>999.6</ele>
        <time>2025-08-04T14:15:47.613Z</time>
      </trkpt>
      <trkpt lat="43.94674" lon="6.54969">
        <ele>1000.7</ele>
        <time>2025-08-04T14:16:07.221Z</time>
      </trkpt>
      <trkpt lat="43.94667" lon="6.54967">
        <ele>1001.8</ele>
        <time>2025-08-04T14:16:26.829Z</time>
      </trkpt>
      <trkpt lat="43.94663" lon="6.54965">
        <ele>1002.5</ele>
        <time>2025-08-04T14:16:38.972Z</time>
      </trkpt>
      <trkpt lat="43.94658" lon="6.54963">
        <ele>1003.2</ele>
        <time>2025-08-04T14:16:52.265Z</time>
      </trkpt>
      <trkpt lat="43.94654" lon="6.54961">
        <ele>1003.8</ele>
        <time>2025-08-04T14:17:03.391Z</time>
      </trkpt>
      <trkpt lat="43.94649" lon="6.54961">
        <ele>1005</ele>
        <time>2025-08-04T14:17:22.581Z</time>
      </trkpt>
      <trkpt lat="43.94643" lon="6.5496">
        <ele>1006.3</ele>
        <time>2025-08-04T14:17:43.569Z</time>
      </trkpt>
      <trkpt lat="43.94636" lon="6.54959">
        <ele>1007.3</ele>
        <time>2025-08-04T14:18:02.051Z</time>
      </trkpt>
      <trkpt lat="43.94628" lon="6.54958">
        <ele>1007.7</ele>
        <time>2025-08-04T14:18:17.363Z</time>
      </trkpt>
      <trkpt lat="43.94623" lon="6.54959">
        <ele>1008.2</ele>
        <time>2025-08-04T14:18:28.734Z</time>
      </trkpt>
      <trkpt lat="43.94618" lon="6.54959">
        <ele>1008.6</ele>
        <time>2025-08-04T14:18:39.277Z</time>
      </trkpt>
      <trkpt lat="43.94614" lon="6.5496">
        <ele>1009</ele>
        <time>2025-08-04T14:18:48.408Z</time>
      </trkpt>
      <trkpt lat="43.94608" lon="6.54962">
        <ele>1009.3</ele>
        <time>2025-08-04T14:19:00.126Z</time>
      </trkpt>
      <trkpt lat="43.94602" lon="6.54968">
        <ele>1009.8</ele>
        <time>2025-08-04T14:19:15.078Z</time>
      </trkpt>
      <trkpt lat="43.94598" lon="6.54973">
        <ele>1010</ele>
        <time>2025-08-04T14:19:24.924Z</time>
      </trkpt>
      <trkpt lat="43.94593" lon="6.54977">
        <ele>1010.1</ele>
        <time>2025-08-04T14:19:34.835Z</time>
      </trkpt>
      <trkpt lat="43.94589" lon="6.54984">
        <ele>1010.3</ele>
        <time>2025-08-04T14:19:46.380Z</time>
      </trkpt>
      <trkpt lat="43.94585" lon="6.5499">
        <ele>1010.4</ele>
        <time>2025-08-04T14:19:56.482Z</time>
      </trkpt>
      <trkpt lat="43.94582" lon="6.54998">
        <ele>1010.4</ele>
        <time>2025-08-04T14:20:07.051Z</time>
      </trkpt>
      <trkpt lat="43.94578" lon="6.55005">
        <ele>1009.4</ele>
        <time>2025-08-04T14:20:16.214Z</time>
      </trkpt>
      <trkpt lat="43.94576" lon="6.55017">
        <ele>1008.1</ele>
        <time>2025-08-04T14:20:28.843Z</time>
      </trkpt>
      <trkpt lat="43.94575" lon="6.55027">
        <ele>1007.1</ele>
        <time>2025-08-04T14:20:39.195Z</time>
      </trkpt>
      <trkpt lat="43.94577" lon="6.55036">
        <ele>1007.8</ele>
        <time>2025-08-04T14:20:54.688Z</time>
      </trkpt>
      <trkpt lat="43.9458" lon="6.55046">
        <ele>1008.6</ele>
        <time>2025-08-04T14:21:12.467Z</time>
      </trkpt>
      <trkpt lat="43.94581" lon="6.55051">
        <ele>1008.7</ele>
        <time>2025-08-04T14:21:19.079Z</time>
      </trkpt>
      <trkpt lat="43.94582" lon="6.55055">
        <ele>1008.8</ele>
        <time>2025-08-04T14:21:24.579Z</time>
      </trkpt>
      <trkpt lat="43.94581" lon="6.5506">
        <ele>1009.5</ele>
        <time>2025-08-04T14:21:36.217Z</time>
      </trkpt>
      <trkpt lat="43.94579" lon="6.55062">
        <ele>1009.6</ele>
        <time>2025-08-04T14:21:40.776Z</time>
      </trkpt>
      <trkpt lat="43.94579" lon="6.55063">
        <ele>1009.8</ele>
        <time>2025-08-04T14:21:44.003Z</time>
      </trkpt>
      <trkpt lat="43.94574" lon="6.55066">
        <ele>1009.7</ele>
        <time>2025-08-04T14:21:52.386Z</time>
      </trkpt>
      <trkpt lat="43.94567" lon="6.55066">
        <ele>1008.7</ele>
        <time>2025-08-04T14:22:02.354Z</time>
      </trkpt>
      <trkpt lat="43.94563" lon="6.55066">
        <ele>1008.2</ele>
        <time>2025-08-04T14:22:08.051Z</time>
      </trkpt>
      <trkpt lat="43.94558" lon="6.55066">
        <ele>1007.6</ele>
        <time>2025-08-04T14:22:15.171Z</time>
      </trkpt>
      <trkpt lat="43.94551" lon="6.55069">
        <ele>1006.4</ele>
        <time>2025-08-04T14:22:25.603Z</time>
      </trkpt>
      <trkpt lat="43.94545" lon="6.55073">
        <ele>1005.2</ele>
        <time>2025-08-04T14:22:35.081Z</time>
      </trkpt>
      <trkpt lat="43.94543" lon="6.55079">
        <ele>1005.4</ele>
        <time>2025-08-04T14:22:43.928Z</time>
      </trkpt>
      <trkpt lat="43.9454" lon="6.55087">
        <ele>1004.7</ele>
        <time>2025-08-04T14:22:53.177Z</time>
      </trkpt>
      <trkpt lat="43.9454" lon="6.55096">
        <ele>1004.3</ele>
        <time>2025-08-04T14:23:02.405Z</time>
      </trkpt>
      <trkpt lat="43.94541" lon="6.55104">
        <ele>1004.3</ele>
        <time>2025-08-04T14:23:11.919Z</time>
      </trkpt>
      <trkpt lat="43.94541" lon="6.55111">
        <ele>1004.2</ele>
        <time>2025-08-04T14:23:19.641Z</time>
      </trkpt>
      <trkpt lat="43.94542" lon="6.55114">
        <ele>1004.2</ele>
        <time>2025-08-04T14:23:23.515Z</time>
      </trkpt>
      <trkpt lat="43.94543" lon="6.55122">
        <ele>1003.6</ele>
        <time>2025-08-04T14:23:31.841Z</time>
      </trkpt>
      <trkpt lat="43.94544" lon="6.55129">
        <ele>1003</ele>
        <time>2025-08-04T14:23:39.158Z</time>
      </trkpt>
      <trkpt lat="43.94547" lon="6.55139">
        <ele>1003</ele>
        <time>2025-08-04T14:23:51.852Z</time>
      </trkpt>
      <trkpt lat="43.9455" lon="6.55149">
        <ele>1002.5</ele>
        <time>2025-08-04T14:24:02.960Z</time>
      </trkpt>
      <trkpt lat="43.94554" lon="6.55156">
        <ele>1002.5</ele>
        <time>2025-08-04T14:24:13.432Z</time>
      </trkpt>
      <trkpt lat="43.94557" lon="6.55163">
        <ele>1002.4</ele>
        <time>2025-08-04T14:24:22.494Z</time>
      </trkpt>
      <trkpt lat="43.94562" lon="6.55173">
        <ele>1003.5</ele>
        <time>2025-08-04T14:24:44.168Z</time>
      </trkpt>
      <trkpt lat="43.94565" lon="6.5518">
        <ele>1004.3</ele>
        <time>2025-08-04T14:24:59.254Z</time>
      </trkpt>
      <trkpt lat="43.94567" lon="6.55189">
        <ele>1004.3</ele>
        <time>2025-08-04T14:25:10.291Z</time>
      </trkpt>
      <trkpt lat="43.94568" lon="6.55199">
        <ele>1004.4</ele>
        <time>2025-08-04T14:25:22.638Z</time>
      </trkpt>
      <trkpt lat="43.94566" lon="6.55207">
        <ele>1004.7</ele>
        <time>2025-08-04T14:25:34.239Z</time>
      </trkpt>
      <trkpt lat="43.94564" lon="6.55209">
        <ele>1004.6</ele>
        <time>2025-08-04T14:25:37.790Z</time>
      </trkpt>
      <trkpt lat="43.94562" lon="6.5521">
        <ele>1004.5</ele>
        <time>2025-08-04T14:25:40.817Z</time>
      </trkpt>
      <trkpt lat="43.94561" lon="6.5521">
        <ele>1004.4</ele>
        <time>2025-08-04T14:25:42.241Z</time>
      </trkpt>
      <trkpt lat="43.94556" lon="6.55208">
        <ele>1003.5</ele>
        <time>2025-08-04T14:25:49.650Z</time>
      </trkpt>
      <trkpt lat="43.94549" lon="6.55201">
        <ele>1002.5</ele>
        <time>2025-08-04T14:26:01.934Z</time>
      </trkpt>
      <trkpt lat="43.94543" lon="6.55198">
        <ele>1001.9</ele>
        <time>2025-08-04T14:26:11.015Z</time>
      </trkpt>
      <trkpt lat="43.94535" lon="6.55198">
        <ele>1002.1</ele>
        <time>2025-08-04T14:26:25.093Z</time>
      </trkpt>
      <trkpt lat="43.94531" lon="6.55198">
        <ele>1002.1</ele>
        <time>2025-08-04T14:26:31.603Z</time>
      </trkpt>
      <trkpt lat="43.94526" lon="6.55198">
        <ele>1002.4</ele>
        <time>2025-08-04T14:26:41.461Z</time>
      </trkpt>
      <trkpt lat="43.94522" lon="6.55197">
        <ele>1003.1</ele>
        <time>2025-08-04T14:26:53.408Z</time>
      </trkpt>
      <trkpt lat="43.94517" lon="6.55197">
        <ele>1003.8</ele>
        <time>2025-08-04T14:27:06.439Z</time>
      </trkpt>
      <trkpt lat="43.9451" lon="6.55196">
        <ele>1004.8</ele>
        <time>2025-08-04T14:27:24.921Z</time>
      </trkpt>
      <trkpt lat="43.94502" lon="6.55195">
        <ele>1005.8</ele>
        <time>2025-08-04T14:27:44.711Z</time>
      </trkpt>
      <trkpt lat="43.94495" lon="6.55193">
        <ele>1006</ele>
        <time>2025-08-04T14:27:57.407Z</time>
      </trkpt>
      <trkpt lat="43.94487" lon="6.55191">
        <ele>1006.1</ele>
        <time>2025-08-04T14:28:11.151Z</time>
      </trkpt>
      <trkpt lat="43.9448" lon="6.55188">
        <ele>1006.3</ele>
        <time>2025-08-04T14:28:24.138Z</time>
      </trkpt>
      <trkpt lat="43.94472" lon="6.55186">
        <ele>1006.6</ele>
        <time>2025-08-04T14:28:38.998Z</time>
      </trkpt>
      <trkpt lat="43.94468" lon="6.55185">
        <ele>1006.5</ele>
        <time>2025-08-04T14:28:45.137Z</time>
      </trkpt>
      <trkpt lat="43.94463" lon="6.55184">
        <ele>1006.4</ele>
        <time>2025-08-04T14:28:52.878Z</time>
      </trkpt>
      <trkpt lat="43.94459" lon="6.55183">
        <ele>1006.3</ele>
        <time>2025-08-04T14:28:59.017Z</time>
      </trkpt>
      <trkpt lat="43.94454" lon="6.55182">
        <ele>1006.3</ele>
        <time>2025-08-04T14:29:07.238Z</time>
      </trkpt>
      <trkpt lat="43.94447" lon="6.55181">
        <ele>1006.4</ele>
        <time>2025-08-04T14:29:19.208Z</time>
      </trkpt>
      <trkpt lat="43.94442" lon="6.55183">
        <ele>1006.7</ele>
        <time>2025-08-04T14:29:29.387Z</time>
      </trkpt>
      <trkpt lat="43.94437" lon="6.55187">
        <ele>1006.8</ele>
        <time>2025-08-04T14:29:39.298Z</time>
      </trkpt>
      <trkpt lat="43.94433" lon="6.55193">
        <ele>1007.2</ele>
        <time>2025-08-04T14:29:51.217Z</time>
      </trkpt>
      <trkpt lat="43.94429" lon="6.55199">
        <ele>1007.4</ele>
        <time>2025-08-04T14:30:01.879Z</time>
      </trkpt>
      <trkpt lat="43.94425" lon="6.55204">
        <ele>1007.5</ele>
        <time>2025-08-04T14:30:11.159Z</time>
      </trkpt>
      <trkpt lat="43.94421" lon="6.55209">
        <ele>1007.6</ele>
        <time>2025-08-04T14:30:20.439Z</time>
      </trkpt>
      <trkpt lat="43.94414" lon="6.55215">
        <ele>1007.6</ele>
        <time>2025-08-04T14:30:33.827Z</time>
      </trkpt>
      <trkpt lat="43.94407" lon="6.5522">
        <ele>1007.3</ele>
        <time>2025-08-04T14:30:45.250Z</time>
      </trkpt>
      <trkpt lat="43.944" lon="6.55224">
        <ele>1006.7</ele>
        <time>2025-08-04T14:30:56.029Z</time>
      </trkpt>
      <trkpt lat="43.94396" lon="6.55227">
        <ele>1006.4</ele>
        <time>2025-08-04T14:31:02.503Z</time>
      </trkpt>
      <trkpt lat="43.94392" lon="6.5523">
        <ele>1006</ele>
        <time>2025-08-04T14:31:08.977Z</time>
      </trkpt>
      <trkpt lat="43.94387" lon="6.55235">
        <ele>1005.7</ele>
        <time>2025-08-04T14:31:17.751Z</time>
      </trkpt>
      <trkpt lat="43.94382" lon="6.5524">
        <ele>1005.5</ele>
        <time>2025-08-04T14:31:26.842Z</time>
      </trkpt>
      <trkpt lat="43.94377" lon="6.55245">
        <ele>1005.4</ele>
        <time>2025-08-04T14:31:36.386Z</time>
      </trkpt>
      <trkpt lat="43.94372" lon="6.5525">
        <ele>1005.2</ele>
        <time>2025-08-04T14:31:45.478Z</time>
      </trkpt>
      <trkpt lat="43.94368" lon="6.55255">
        <ele>1005.1</ele>
        <time>2025-08-04T14:31:53.754Z</time>
      </trkpt>
      <trkpt lat="43.94364" lon="6.5526">
        <ele>1005</ele>
        <time>2025-08-04T14:32:02.031Z</time>
      </trkpt>
      <trkpt lat="43.9436" lon="6.55266">
        <ele>1005</ele>
        <time>2025-08-04T14:32:11.613Z</time>
      </trkpt>
      <trkpt lat="43.94356" lon="6.55272">
        <ele>1004.8</ele>
        <time>2025-08-04T14:32:20.263Z</time>
      </trkpt>
      <trkpt lat="43.94353" lon="6.55277">
        <ele>1004.7</ele>
        <time>2025-08-04T14:32:27.411Z</time>
      </trkpt>
      <trkpt lat="43.94349" lon="6.55282">
        <ele>1004.4</ele>
        <time>2025-08-04T14:32:35.074Z</time>
      </trkpt>
      <trkpt lat="43.94346" lon="6.55288">
        <ele>1004.2</ele>
        <time>2025-08-04T14:32:42.709Z</time>
      </trkpt>
      <trkpt lat="43.94343" lon="6.55294">
        <ele>1004</ele>
        <time>2025-08-04T14:32:50.344Z</time>
      </trkpt>
      <trkpt lat="43.94339" lon="6.55302">
        <ele>1003.6</ele>
        <time>2025-08-04T14:33:00.331Z</time>
      </trkpt>
      <trkpt lat="43.94334" lon="6.5531">
        <ele>1003.3</ele>
        <time>2025-08-04T14:33:11.361Z</time>
      </trkpt>
      <trkpt lat="43.94331" lon="6.55316">
        <ele>1002.9</ele>
        <time>2025-08-04T14:33:18.851Z</time>
      </trkpt>
      <trkpt lat="43.94328" lon="6.55321">
        <ele>1002.5</ele>
        <time>2025-08-04T14:33:25.525Z</time>
      </trkpt>
      <trkpt lat="43.94325" lon="6.55327">
        <ele>1002</ele>
        <time>2025-08-04T14:33:33.015Z</time>
      </trkpt>
      <trkpt lat="43.94322" lon="6.55332">
        <ele>1001.5</ele>
        <time>2025-08-04T14:33:39.688Z</time>
      </trkpt>
      <trkpt lat="43.94317" lon="6.5534">
        <ele>1000.8</ele>
        <time>2025-08-04T14:33:50.550Z</time>
      </trkpt>
      <trkpt lat="43.94312" lon="6.55347">
        <ele>1000.3</ele>
        <time>2025-08-04T14:34:00.660Z</time>
      </trkpt>
      <trkpt lat="43.94308" lon="6.55354">
        <ele>999.9</ele>
        <time>2025-08-04T14:34:09.823Z</time>
      </trkpt>
      <trkpt lat="43.94303" lon="6.55361">
        <ele>999.4</ele>
        <time>2025-08-04T14:34:19.934Z</time>
      </trkpt>
      <trkpt lat="43.94299" lon="6.55369">
        <ele>999.1</ele>
        <time>2025-08-04T14:34:29.973Z</time>
      </trkpt>
      <trkpt lat="43.94295" lon="6.55376">
        <ele>998.9</ele>
        <time>2025-08-04T14:34:39.507Z</time>
      </trkpt>
      <trkpt lat="43.9429" lon="6.55384">
        <ele>998.8</ele>
        <time>2025-08-04T14:34:51.434Z</time>
      </trkpt>
      <trkpt lat="43.94286" lon="6.55391">
        <ele>998.6</ele>
        <time>2025-08-04T14:35:00.968Z</time>
      </trkpt>
      <trkpt lat="43.94284" lon="6.55396">
        <ele>998.3</ele>
        <time>2025-08-04T14:35:06.833Z</time>
      </trkpt>
      <trkpt lat="43.94281" lon="6.55402">
        <ele>998</ele>
        <time>2025-08-04T14:35:14.323Z</time>
      </trkpt>
      <trkpt lat="43.94279" lon="6.55407">
        <ele>997.8</ele>
        <time>2025-08-04T14:35:20.187Z</time>
      </trkpt>
      <trkpt lat="43.94276" lon="6.55412">
        <ele>997.4</ele>
        <time>2025-08-04T14:35:26.861Z</time>
      </trkpt>
      <trkpt lat="43.94275" lon="6.55416">
        <ele>997.4</ele>
        <time>2025-08-04T14:35:31.823Z</time>
      </trkpt>
      <trkpt lat="43.94271" lon="6.55424">
        <ele>995.9</ele>
        <time>2025-08-04T14:35:41.809Z</time>
      </trkpt>
      <trkpt lat="43.94269" lon="6.55429">
        <ele>995.1</ele>
        <time>2025-08-04T14:35:47.674Z</time>
      </trkpt>
      <trkpt lat="43.94268" lon="6.55432">
        <ele>994.6</ele>
        <time>2025-08-04T14:35:51.064Z</time>
      </trkpt>
      <trkpt lat="43.94267" lon="6.55439">
        <ele>993.8</ele>
        <time>2025-08-04T14:35:58.381Z</time>
      </trkpt>
      <trkpt lat="43.94268" lon="6.55448">
        <ele>992.9</ele>
        <time>2025-08-04T14:36:07.719Z</time>
      </trkpt>
      <trkpt lat="43.94271" lon="6.55458">
        <ele>992</ele>
        <time>2025-08-04T14:36:18.827Z</time>
      </trkpt>
      <trkpt lat="43.94275" lon="6.55468">
        <ele>991.1</ele>
        <time>2025-08-04T14:36:30.557Z</time>
      </trkpt>
      <trkpt lat="43.94279" lon="6.55478">
        <ele>990.1</ele>
        <time>2025-08-04T14:36:42.286Z</time>
      </trkpt>
      <trkpt lat="43.94283" lon="6.55485">
        <ele>989.4</ele>
        <time>2025-08-04T14:36:51.449Z</time>
      </trkpt>
      <trkpt lat="43.94286" lon="6.55492">
        <ele>988.8</ele>
        <time>2025-08-04T14:36:59.802Z</time>
      </trkpt>
      <trkpt lat="43.94289" lon="6.55498">
        <ele>988.2</ele>
        <time>2025-08-04T14:37:07.292Z</time>
      </trkpt>
      <trkpt lat="43.94291" lon="6.55503">
        <ele>987.8</ele>
        <time>2025-08-04T14:37:13.157Z</time>
      </trkpt>
      <trkpt lat="43.94294" lon="6.5551">
        <ele>987.4</ele>
        <time>2025-08-04T14:37:21.510Z</time>
      </trkpt>
      <trkpt lat="43.94297" lon="6.55516">
        <ele>987</ele>
        <time>2025-08-04T14:37:29.000Z</time>
      </trkpt>
      <trkpt lat="43.94302" lon="6.55523">
        <ele>986.8</ele>
        <time>2025-08-04T14:37:39.610Z</time>
      </trkpt>
      <trkpt lat="43.94306" lon="6.5553">
        <ele>986.7</ele>
        <time>2025-08-04T14:37:49.598Z</time>
      </trkpt>
      <trkpt lat="43.94311" lon="6.55539">
        <ele>986.8</ele>
        <time>2025-08-04T14:38:03.433Z</time>
      </trkpt>
      <trkpt lat="43.94316" lon="6.55547">
        <ele>986.7</ele>
        <time>2025-08-04T14:38:15.360Z</time>
      </trkpt>
      <trkpt lat="43.9432" lon="6.55555">
        <ele>986.3</ele>
        <time>2025-08-04T14:38:25.347Z</time>
      </trkpt>
      <trkpt lat="43.94324" lon="6.55564">
        <ele>985.8</ele>
        <time>2025-08-04T14:38:36.191Z</time>
      </trkpt>
      <trkpt lat="43.94327" lon="6.55571">
        <ele>985.4</ele>
        <time>2025-08-04T14:38:44.544Z</time>
      </trkpt>
      <trkpt lat="43.94328" lon="6.55577">
        <ele>984.6</ele>
        <time>2025-08-04T14:38:50.859Z</time>
      </trkpt>
      <trkpt lat="43.9433" lon="6.55588">
        <ele>983.2</ele>
        <time>2025-08-04T14:39:02.492Z</time>
      </trkpt>
      <trkpt lat="43.94334" lon="6.55597">
        <ele>982.7</ele>
        <time>2025-08-04T14:39:13.337Z</time>
      </trkpt>
      <trkpt lat="43.94337" lon="6.55603">
        <ele>982.4</ele>
        <time>2025-08-04T14:39:20.827Z</time>
      </trkpt>
      <trkpt lat="43.94339" lon="6.55608">
        <ele>982</ele>
        <time>2025-08-04T14:39:26.691Z</time>
      </trkpt>
      <trkpt lat="43.94342" lon="6.55614">
        <ele>981.8</ele>
        <time>2025-08-04T14:39:34.326Z</time>
      </trkpt>
      <trkpt lat="43.94345" lon="6.5562">
        <ele>981.8</ele>
        <time>2025-08-04T14:39:42.886Z</time>
      </trkpt>
      <trkpt lat="43.94348" lon="6.55628">
        <ele>981.4</ele>
        <time>2025-08-04T14:39:52.135Z</time>
      </trkpt>
      <trkpt lat="43.9435" lon="6.55636">
        <ele>981</ele>
        <time>2025-08-04T14:40:00.818Z</time>
      </trkpt>
      <trkpt lat="43.94352" lon="6.55644">
        <ele>980.5</ele>
        <time>2025-08-04T14:40:09.501Z</time>
      </trkpt>
      <trkpt lat="43.94352" lon="6.55648">
        <ele>980.2</ele>
        <time>2025-08-04T14:40:13.603Z</time>
      </trkpt>
      <trkpt lat="43.94354" lon="6.5565">
        <ele>980.4</ele>
        <time>2025-08-04T14:40:18.820Z</time>
      </trkpt>
      <trkpt lat="43.94355" lon="6.55653">
        <ele>980.3</ele>
        <time>2025-08-04T14:40:22.235Z</time>
      </trkpt>
      <trkpt lat="43.94357" lon="6.55658">
        <ele>980.1</ele>
        <time>2025-08-04T14:40:28.100Z</time>
      </trkpt>
      <trkpt lat="43.94358" lon="6.55665">
        <ele>979.6</ele>
        <time>2025-08-04T14:40:35.417Z</time>
      </trkpt>
      <trkpt lat="43.9436" lon="6.55672">
        <ele>979.4</ele>
        <time>2025-08-04T14:40:43.315Z</time>
      </trkpt>
      <trkpt lat="43.94361" lon="6.55681">
        <ele>978.9</ele>
        <time>2025-08-04T14:40:52.653Z</time>
      </trkpt>
      <trkpt lat="43.9436" lon="6.5569">
        <ele>978.1</ele>
        <time>2025-08-04T14:41:01.990Z</time>
      </trkpt>
      <trkpt lat="43.94358" lon="6.55697">
        <ele>977.3</ele>
        <time>2025-08-04T14:41:09.712Z</time>
      </trkpt>
      <trkpt lat="43.94357" lon="6.55701">
        <ele>977</ele>
        <time>2025-08-04T14:41:14.053Z</time>
      </trkpt>
      <trkpt lat="43.94354" lon="6.55709">
        <ele>976.2</ele>
        <time>2025-08-04T14:41:23.302Z</time>
      </trkpt>
      <trkpt lat="43.94354" lon="6.55715">
        <ele>976</ele>
        <time>2025-08-04T14:41:29.454Z</time>
      </trkpt>
      <trkpt lat="43.94355" lon="6.5572">
        <ele>976</ele>
        <time>2025-08-04T14:41:35.535Z</time>
      </trkpt>
      <trkpt lat="43.94354" lon="6.55724">
        <ele>975.6</ele>
        <time>2025-08-04T14:41:39.877Z</time>
      </trkpt>
      <trkpt lat="43.94354" lon="6.55728">
        <ele>975.4</ele>
        <time>2025-08-04T14:41:43.978Z</time>
      </trkpt>
      <trkpt lat="43.94351" lon="6.55733">
        <ele>974.5</ele>
        <time>2025-08-04T14:41:50.652Z</time>
      </trkpt>
      <trkpt lat="43.94348" lon="6.55737">
        <ele>973.7</ele>
        <time>2025-08-04T14:41:56.574Z</time>
      </trkpt>
      <trkpt lat="43.94344" lon="6.55741">
        <ele>973</ele>
        <time>2025-08-04T14:42:03.593Z</time>
      </trkpt>
      <trkpt lat="43.94338" lon="6.55747">
        <ele>971.8</ele>
        <time>2025-08-04T14:42:14.122Z</time>
      </trkpt>
      <trkpt lat="43.94332" lon="6.55753">
        <ele>970.8</ele>
        <time>2025-08-04T14:42:24.650Z</time>
      </trkpt>
      <trkpt lat="43.94327" lon="6.55759">
        <ele>970.1</ele>
        <time>2025-08-04T14:42:34.060Z</time>
      </trkpt>
      <trkpt lat="43.94322" lon="6.55764">
        <ele>969.4</ele>
        <time>2025-08-04T14:42:42.834Z</time>
      </trkpt>
      <trkpt lat="43.94318" lon="6.55768">
        <ele>968.8</ele>
        <time>2025-08-04T14:42:49.853Z</time>
      </trkpt>
      <trkpt lat="43.94315" lon="6.55773">
        <ele>968.3</ele>
        <time>2025-08-04T14:42:56.527Z</time>
      </trkpt>
      <trkpt lat="43.94311" lon="6.55777">
        <ele>967.8</ele>
        <time>2025-08-04T14:43:03.546Z</time>
      </trkpt>
      <trkpt lat="43.94308" lon="6.55783">
        <ele>967.3</ele>
        <time>2025-08-04T14:43:11.036Z</time>
      </trkpt>
      <trkpt lat="43.94305" lon="6.55788">
        <ele>967</ele>
        <time>2025-08-04T14:43:17.710Z</time>
      </trkpt>
      <trkpt lat="43.94303" lon="6.55795">
        <ele>966.8</ele>
        <time>2025-08-04T14:43:25.608Z</time>
      </trkpt>
      <trkpt lat="43.943" lon="6.55802">
        <ele>966.8</ele>
        <time>2025-08-04T14:43:35.154Z</time>
      </trkpt>
      <trkpt lat="43.94298" lon="6.55808">
        <ele>966.7</ele>
        <time>2025-08-04T14:43:42.422Z</time>
      </trkpt>
      <trkpt lat="43.94295" lon="6.55815">
        <ele>966.6</ele>
        <time>2025-08-04T14:43:51.485Z</time>
      </trkpt>
      <trkpt lat="43.9429" lon="6.55825">
        <ele>966.4</ele>
        <time>2025-08-04T14:44:04.797Z</time>
      </trkpt>
      <trkpt lat="43.94286" lon="6.5583">
        <ele>966.3</ele>
        <time>2025-08-04T14:44:13.074Z</time>
      </trkpt>
      <trkpt lat="43.9428" lon="6.55833">
        <ele>966.1</ele>
        <time>2025-08-04T14:44:22.515Z</time>
      </trkpt>
      <trkpt lat="43.94276" lon="6.5583">
        <ele>965.9</ele>
        <time>2025-08-04T14:44:29.000Z</time>
      </trkpt>
    </trkseg>
  </trk>
</gpx>